# Wetter Temperatur Luftdruck Luftfeuchtigkeit Sichtweite Windgeschwindigkeit Windrichtung Zeit
1 Clear 20 1016 42 10000 6.17 100 13:23 22.04.2021
2 Clear 19 1016 45 10000 5.66 120 12:54 22.04.2021
3 Clear 19 1016 48 10000 6.17 120 12:36 22.04.2021
4 Clear 18 1016 48 10000 6.17 120 12:18 22.04.2021
5 Clear 17 1016 55 10000 6.69 130 11:40 22.04.2021
6 Clear 16 1016 55 10000 6.69 130 11:19 22.04.2021
7 Clear 15 1016 62 10000 4.63 110 10:40 22.04.2021
8 Clear 14 1016 62 10000 4.63 110 10:19 22.04.2021
9 Clear 13 1016 71 10000 5.14 110 09:36 22.04.2021
10 Clear 11 1016 76 10000 4.63 110 08:52 22.04.2021
11 Clear 11 1015 76 10000 4.63 100 08:23 22.04.2021
12 Clear 10 1015 81 10000 4.63 100 07:54 22.04.2021
13 Clear 9 1015 76 10000 4.12 100 07:31 22.04.2021
14 Clear 9 1014 81 10000 3.6 100 06:46 22.04.2021
15 Clear 10 1014 76 10000 4.12 110 06:19 22.04.2021
16 Clear 10 1014 76 10000 3.6 110 05:23 22.04.2021
17 Clear 12 1014 76 10000 4.12 110 02:27 22.04.2021
18 Clear 14 1014 67 10000 3.09 140 00:23 22.04.2021
19 Clear 14 1013 62 10000 2.06 140 23:41 21.04.2021
20 Clear 15 1013 62 10000 2.06 140 23:20 21.04.2021
21 Clear 14 1013 55 10000 1.03 0 22:40 21.04.2021
22 Clear 14 1013 55 10000 1.03 0 22:20 21.04.2021
23 Clear 16 1013 48 10000 2.06 40 21:41 21.04.2021
24 Clear 17 1012 42 10000 2.06 40 21:22 21.04.2021
25 Clear 20 1012 34 10000 2.57 40 20:32 21.04.2021
26 Clear 20 1012 34 10000 3.09 40 19:51 21.04.2021
27 Clear 20 1012 32 10000 3.09 60 19:28 21.04.2021
28 Clear 20 1012 32 10000 3.6 30 18:57 21.04.2021
29 Clear 20 1012 34 10000 1.03 0 18:39 21.04.2021
30 Clear 20 1012 34 10000 1.03 0 18:19 21.04.2021
31 Clear 21 1012 30 10000 2.57 20 17:43 21.04.2021
32 Clear 22 1012 30 10000 2.57 20 17:22 21.04.2021
33 Clear 21 1013 42 10000 2.57 50 16:40 21.04.2021
34 Clouds 20 1013 45 10000 1.54 340 15:52 21.04.2021
35 Clear 19 1013 42 10000 2.06 280 15:26 21.04.2021
36 Clear 19 1013 45 10000 0.51 0 14:45 21.04.2021
37 Clouds 18 1014 48 10000 1.03 0 14:27 21.04.2021
38 Clouds 18 1014 48 10000 1.54 240 13:50 21.04.2021
39 Clear 18 1014 48 10000 1.54 260 13:23 21.04.2021
40 Clear 18 1014 52 10000 1.54 0 12:48 21.04.2021
41 Clear 16 1014 59 10000 1.54 0 12:24 21.04.2021
42 Clouds 16 1014 59 10000 1.54 220 11:46 21.04.2021
43 Clouds 16 1014 63 10000 0.51 0 11:25 21.04.2021
44 Clouds 15 1014 72 10000 1.54 90 10:40 21.04.2021
45 Clear 14 1014 82 10000 2.06 100 09:57 21.04.2021
46 Clear 13 1014 87 10000 2.06 100 09:31 21.04.2021
47 Clouds 12 1014 94 6000 2.06 60 08:51 21.04.2021
48 Clouds 11 1013 93 6000 1.54 50 08:24 21.04.2021
49 Clouds 11 1013 93 10000 1.03 0 07:57 21.04.2021
50 Rain 11 1013 93 5000 0.51 0 07:29 21.04.2021
51 Clouds 11 1013 93 9000 0.51 0 06:23 21.04.2021
52 Clear 10 1014 93 10000 2.02 122 02:56 21.04.2021
53 Clear 12 1014 76 10000 1.54 280 00:28 21.04.2021
54 Clear 13 1014 67 10000 1.03 0 23:41 20.04.2021
55 Clear 13 1014 67 10000 1.03 330 22:50 20.04.2021
56 Clear 14 1014 62 10000 1.54 340 22:24 20.04.2021
57 Clear 14 1013 62 10000 2.06 330 21:59 20.04.2021
58 Clear 14 1013 62 10000 2.06 330 21:40 20.04.2021
59 Clear 15 1013 62 10000 2.06 330 21:22 20.04.2021
60 Clear 15 1013 58 10000 4.12 330 20:41 20.04.2021
61 Clear 16 1013 51 10000 3.6 330 20:21 20.04.2021
62 Clear 17 1013 45 10000 4.12 320 19:50 20.04.2021
63 Clear 17 1013 45 10000 4.12 320 19:50 20.04.2021
64 Clear 17 1013 48 10000 4.63 300 19:29 20.04.2021
65 Clear 18 1013 39 10000 5.66 340 18:50 20.04.2021
66 Clear 19 1013 39 10000 4.63 300 18:31 20.04.2021
67 Clear 20 1013 42 10000 4.63 300 17:43 20.04.2021
68 Clear 20 1013 42 10000 4.63 300 16:55 20.04.2021
69 Clear 19 1013 42 10000 4.12 240 16:35 20.04.2021
70 Clear 20 1013 42 10000 3.09 220 15:41 20.04.2021
71 Clear 19 1013 45 10000 4.63 250 15:21 20.04.2021
72 Clear 19 1014 48 10000 4.63 250 14:48 20.04.2021
73 Clear 19 1014 48 10000 5.14 250 14:23 20.04.2021
74 Clear 19 1014 48 10000 5.14 250 14:23 20.04.2021
75 Clouds 19 1014 45 10000 2.06 340 13:29 20.04.2021
76 Clear 19 1014 39 10000 1.54 0 12:55 20.04.2021
77 Clear 18 1014 48 10000 1.54 340 12:28 20.04.2021
78 Clear 18 1014 51 10000 1.54 280 11:47 20.04.2021
79 Clear 17 1014 55 10000 1.54 320 11:47 20.04.2021
80 Clear 17 1014 55 10000 1.54 320 11:28 20.04.2021
81 Clear 16 1014 58 10000 2.06 310 10:48 20.04.2021
82 Clear 15 1014 55 10000 2.06 300 10:26 20.04.2021
83 Clear 13 1014 67 10000 1.54 300 09:50 20.04.2021
84 Clear 11 1014 71 10000 0.51 316 09:19 20.04.2021
85 Clear 10 1014 81 10000 1.03 230 08:46 20.04.2021
86 Clear 9 1014 76 10000 1.03 270 07:59 20.04.2021
87 Clear 9 1014 81 10000 1.54 240 07:32 20.04.2021
88 Clear 9 1014 81 10000 1.03 250 05:42 20.04.2021
89 Clear 10 1014 76 10000 0.51 0 04:57 20.04.2021
90 Clear 10 1015 71 10000 1.03 20 03:41 20.04.2021
91 Clear 12 1016 62 10000 2.06 30 00:51 20.04.2021
92 Clear 13 1016 58 10000 5.14 20 23:54 19.04.2021
93 Clear 13 1016 58 10000 3.6 20 23:31 19.04.2021
94 Clear 13 1016 58 10000 3.09 10 22:43 19.04.2021
95 Clear 13 1016 62 10000 3.09 360 22:22 19.04.2021
96 Clear 14 1016 54 10000 3.6 340 21:42 19.04.2021
97 Clear 15 1016 47 10000 3.6 310 21:20 19.04.2021
98 Clear 18 1016 32 10000 1.54 120 20:41 19.04.2021
99 Clear 18 1016 32 10000 1.54 120 20:20 19.04.2021
100 Clear 18 1016 29 10000 2.06 80 19:48 19.04.2021
101 Clear 20 1016 27 10000 2.06 70 19:26 19.04.2021
102 Clear 19 1016 27 10000 1.54 0 18:56 19.04.2021
103 Clear 19 1016 27 10000 2.57 110 18:37 19.04.2021
104 Clear 19 1016 27 10000 2.57 110 18:18 19.04.2021
105 Clear 19 1016 27 10000 2.06 130 17:43 19.04.2021
106 Clear 20 1016 27 10000 2.57 0 17:22 19.04.2021
107 Clear 20 1017 30 10000 2.57 0 16:41 19.04.2021
108 Clear 19 1017 29 10000 2.06 180 16:22 19.04.2021
109 Clear 19 1018 34 10000 2.06 0 15:40 19.04.2021
110 Clear 19 1018 34 10000 2.06 0 15:22 19.04.2021
111 Clear 19 1018 36 10000 2.06 0 14:41 19.04.2021
112 Clear 18 1018 36 10000 2.06 0 14:23 19.04.2021
113 Clear 18 1019 34 10000 3.09 120 13:48 19.04.2021
114 Clear 17 1019 39 10000 3.6 130 13:25 19.04.2021
115 Clear 16 1019 44 10000 4.63 150 12:45 19.04.2021
116 Clear 16 1019 44 10000 3.6 130 12:24 19.04.2021
117 Clear 15 1020 47 10000 4.12 110 11:54 19.04.2021
118 Clear 14 1020 51 10000 3.6 120 11:26 19.04.2021
119 Clear 13 1020 54 10000 3.6 140 10:51 19.04.2021
120 Clear 11 1020 58 10000 4.12 120 10:26 19.04.2021
121 Clear 11 1020 66 10000 2.06 120 09:57 19.04.2021
122 Clear 9 1020 81 10000 1.03 0 09:30 19.04.2021
123 Clouds 7 1020 87 9000 0.51 260 08:59 19.04.2021
124 Clear 5 1020 93 10000 1.8 86 08:28 19.04.2021
125 Clear 4 1020 93 10000 1.9 84 07:48 19.04.2021
126 Clear 3 1020 100 10000 1.82 80 07:19 19.04.2021
127 Clouds 4 1020 93 10000 1.82 80 06:36 19.04.2021
128 Clear 5 1021 93 10000 2.06 270 02:36 19.04.2021
129 Clear 7 1021 87 10000 1.03 0 01:26 19.04.2021
130 Clear 8 1022 76 10000 1.03 0 23:56 18.04.2021
131 Clear 8 1022 76 10000 1.54 320 23:18 18.04.2021
132 Clear 9 1022 71 10000 1.54 310 22:48 18.04.2021
133 Clear 9 1022 71 10000 2.57 330 22:29 18.04.2021
134 Clear 11 1022 58 10000 2.57 340 21:40 18.04.2021
135 Clear 12 1022 50 10000 4.12 320 21:18 18.04.2021
136 Clear 13 1022 50 10000 4.63 330 20:40 18.04.2021
137 Clear 14 1022 50 10000 4.63 330 20:20 18.04.2021
138 Clear 15 1022 47 10000 5.14 310 19:45 18.04.2021
139 Clear 16 1021 44 10000 4.63 320 19:27 18.04.2021
140 Clear 16 1021 41 10000 4.63 320 18:54 18.04.2021
141 Clear 16 1021 41 10000 5.66 320 18:31 18.04.2021
142 Clear 18 1021 39 10000 5.66 300 17:50 18.04.2021
143 Clear 17 1021 39 10000 3.6 350 17:31 18.04.2021
144 Clear 17 1021 41 10000 3.6 350 16:55 18.04.2021
145 Clear 18 1021 36 10000 4.12 330 16:36 18.04.2021
146 Clear 18 1022 36 10000 4.63 310 15:57 18.04.2021
147 Clear 17 1022 39 10000 5.14 330 15:38 18.04.2021
148 Clear 17 1022 39 10000 5.14 330 15:18 18.04.2021
149 Clear 17 1022 39 10000 4.12 300 14:41 18.04.2021
150 Clear 17 1022 39 10000 4.12 300 14:18 18.04.2021
151 Clear 16 1023 36 10000 3.09 350 13:45 18.04.2021
152 Clear 16 1023 38 10000 2.57 310 13:27 18.04.2021
153 Clear 16 1023 38 10000 3.09 60 12:37 18.04.2021
154 Clear 15 1023 38 10000 1.54 0 11:55 18.04.2021
155 Clear 13 1023 41 10000 0.51 0 11:28 18.04.2021
156 Clear 13 1023 44 10000 0.51 0 10:58 18.04.2021
157 Clear 12 1023 50 10000 1.54 0 10:40 18.04.2021
158 Clear 11 1023 54 10000 1.54 50 09:58 18.04.2021
159 Clear 10 1023 66 10000 1.03 0 09:39 18.04.2021
160 Clear 9 1023 66 10000 1.03 0 09:19 18.04.2021
161 Clouds 6 1023 87 10000 1.03 0 08:41 18.04.2021
162 Clouds 5 1023 87 10000 1.03 0 08:19 18.04.2021
163 Clouds 5 1023 81 10000 1.03 0 07:39 18.04.2021
164 Clear 7 1023 81 10000 1.54 10 05:48 18.04.2021
165 Clear 8 1023 76 10000 1.54 360 05:26 18.04.2021
166 Clear 9 1023 66 10000 2.06 360 04:30 18.04.2021
167 Clear 10 1023 71 10000 2.57 330 02:23 18.04.2021
168 Clear 10 1023 71 10000 2.57 330 00:41 18.04.2021
169 Clear 10 1023 66 10000 3.09 330 23:46 17.04.2021
170 Clear 11 1023 58 10000 2.57 330 23:18 17.04.2021
171 Clear 11 1023 47 10000 2.06 330 22:41 17.04.2021
172 Clear 12 1023 47 10000 2.06 330 22:20 17.04.2021
173 Clear 12 1022 47 10000 4.63 10 21:39 17.04.2021
174 Clear 12 1022 47 10000 4.63 10 21:21 17.04.2021
175 Clear 13 1022 44 10000 4.63 10 20:28 17.04.2021
176 Clear 13 1022 44 10000 6.17 30 19:46 17.04.2021
177 Clear 13 1022 44 10000 6.17 30 19:23 17.04.2021
178 Clear 14 1022 41 10000 5.14 30 18:58 17.04.2021
179 Clear 13 1021 41 10000 6.17 40 18:37 17.04.2021
180 Clear 13 1021 41 10000 6.17 40 18:18 17.04.2021
181 Clear 13 1022 41 10000 6.17 50 17:41 17.04.2021
182 Clear 13 1022 41 10000 6.69 40 16:55 17.04.2021
183 Clear 13 1022 41 10000 6.17 10 16:29 17.04.2021
184 Clear 13 1022 41 10000 5.14 20 15:55 17.04.2021
185 Clear 13 1023 43 10000 4.63 40 14:51 17.04.2021
186 Clouds 12 1023 43 10000 5.66 50 14:33 17.04.2021
187 Clouds 12 1023 46 10000 4.12 50 13:50 17.04.2021
188 Clouds 12 1023 46 10000 5.14 30 13:25 17.04.2021
189 Clouds 12 1024 46 10000 5.14 30 12:42 17.04.2021
190 Clouds 11 1024 46 10000 5.14 30 12:20 17.04.2021
191 Clear 11 1024 43 10000 5.14 30 11:45 17.04.2021
192 Clear 11 1024 46 10000 4.63 30 11:27 17.04.2021
193 Clear 9 1024 57 10000 3.6 20 10:45 17.04.2021
194 Clear 8 1024 57 10000 3.6 20 10:26 17.04.2021
195 Clear 7 1024 61 10000 3.09 30 09:39 17.04.2021
196 Clear 5 1024 65 10000 3.09 20 08:40 17.04.2021
197 Clear 4 1024 65 10000 3.09 20 08:21 17.04.2021
198 Clear 4 1023 70 10000 2.06 350 06:47 17.04.2021
199 Clear 4 1024 60 10000 3.09 20 03:55 17.04.2021
200 Clear 4 1024 60 10000 2.06 20 03:37 17.04.2021
201 Clear 7 1024 49 10000 3.09 30 00:48 17.04.2021
202 Clear 8 1024 46 10000 3.09 20 00:26 17.04.2021
203 Clear 8 1024 46 10000 3.6 30 23:46 16.04.2021
204 Clear 9 1024 43 10000 3.6 30 23:24 16.04.2021
205 Clear 9 1024 43 10000 3.6 30 22:44 16.04.2021
206 Clear 9 1024 43 10000 3.6 30 22:20 16.04.2021
207 Clear 10 1023 40 10000 4.63 30 21:50 16.04.2021
208 Clear 10 1023 37 10000 4.63 40 21:29 16.04.2021
209 Clear 11 1023 35 10000 5.66 40 20:50 16.04.2021
210 Clear 12 1022 32 10000 6.69 40 20:24 16.04.2021
211 Clear 13 1022 30 10000 5.66 30 19:50 16.04.2021
212 Clear 13 1022 30 10000 7.72 50 19:28 16.04.2021
213 Clear 14 1022 26 10000 8.23 40 18:28 16.04.2021
214 Clear 14 1022 28 10000 8.23 40 17:55 16.04.2021
215 Clear 15 1022 28 10000 6.69 30 17:36 16.04.2021
216 Clear 15 1022 28 10000 6.69 30 17:18 16.04.2021
217 Clear 14 1022 28 10000 6.17 30 16:41 16.04.2021
218 Clear 14 1022 26 10000 6.69 30 16:22 16.04.2021
219 Clear 15 1023 28 10000 6.69 60 15:43 16.04.2021
220 Clear 14 1023 28 10000 6.69 40 15:18 16.04.2021
221 Clear 14 1023 28 10000 6.17 50 14:41 16.04.2021
222 Clear 14 1023 26 10000 6.69 40 13:59 16.04.2021
223 Clear 13 1023 26 10000 6.69 40 13:41 16.04.2021
224 Clear 13 1023 30 10000 6.69 60 13:19 16.04.2021
225 Clear 12 1024 35 10000 7.72 50 12:46 16.04.2021
226 Clear 12 1024 35 10000 7.72 50 12:25 16.04.2021
227 Clear 11 1024 40 10000 6.17 50 11:43 16.04.2021
228 Clear 10 1024 46 10000 5.14 50 11:24 16.04.2021
229 Clear 8 1024 57 10000 4.12 50 10:43 16.04.2021
230 Clear 8 1024 57 10000 4.12 50 10:24 16.04.2021
231 Clear 7 1024 61 10000 3.6 60 09:49 16.04.2021
232 Clear 5 1023 65 10000 4.63 40 09:23 16.04.2021
233 Clear 4 1023 70 10000 2.57 20 08:45 16.04.2021
234 Clear 4 1023 65 10000 2.57 20 08:27 16.04.2021
235 Clear 3 1023 70 10000 3.09 30 07:47 16.04.2021
236 Clear 3 1023 70 10000 3.09 40 07:27 16.04.2021
237 Clear 3 1022 70 10000 3.09 40 06:46 16.04.2021
238 Clear 4 1022 60 10000 4.12 30 05:32 16.04.2021
239 Clear 5 1022 56 10000 3.6 50 03:59 16.04.2021
240 Clear 8 1023 42 10000 4.63 50 00:47 16.04.2021
241 Clear 8 1023 42 10000 5.14 50 00:22 16.04.2021
242 Clear 9 1023 40 10000 5.66 40 23:58 15.04.2021
243 Clear 9 1023 40 10000 5.14 40 23:34 15.04.2021
244 Clear 10 1023 37 10000 5.14 40 22:51 15.04.2021
245 Clear 10 1022 37 10000 5.66 40 22:26 15.04.2021
246 Clear 11 1022 35 10000 5.14 40 21:47 15.04.2021
247 Clear 11 1021 35 10000 6.17 40 21:29 15.04.2021
248 Clear 12 1021 32 10000 6.69 40 20:56 15.04.2021
249 Clear 13 1021 28 10000 7.2 50 20:37 15.04.2021
250 Clear 13 1021 28 10000 7.2 50 20:18 15.04.2021
251 Clear 14 1021 26 10000 7.2 40 19:41 15.04.2021
252 Clear 15 1021 26 10000 7.2 40 19:21 15.04.2021
253 Clear 15 1021 25 10000 6.69 40 18:41 15.04.2021
254 Clear 16 1021 25 10000 6.69 40 18:19 15.04.2021
255 Clear 16 1021 25 10000 6.17 50 17:54 15.04.2021
256 Clear 16 1021 25 10000 6.69 60 17:31 15.04.2021
257 Clear 16 1021 26 10000 6.17 60 16:45 15.04.2021
258 Clear 16 1021 25 10000 5.66 60 16:25 15.04.2021
259 Clear 15 1022 28 10000 6.17 40 15:51 15.04.2021
260 Clear 15 1022 26 10000 6.17 40 15:28 15.04.2021
261 Clear 15 1022 28 10000 5.14 70 14:45 15.04.2021
262 Clear 14 1023 33 10000 6.69 40 14:27 15.04.2021
263 Clear 14 1023 30 10000 7.2 50 13:57 15.04.2021
264 Clear 14 1023 28 10000 7.72 60 13:39 15.04.2021
265 Clear 13 1024 30 10000 7.2 80 12:54 15.04.2021
266 Clear 13 1024 30 10000 7.72 70 12:27 15.04.2021
267 Clear 12 1024 37 10000 7.72 60 11:59 15.04.2021
268 Clear 11 1024 40 10000 6.17 50 11:39 15.04.2021
269 Clear 11 1024 40 10000 6.17 50 11:21 15.04.2021
270 Clear 9 1024 49 10000 6.17 50 10:43 15.04.2021
271 Clear 9 1024 49 10000 6.17 50 10:25 15.04.2021
272 Clear 7 1024 52 10000 4.63 50 09:33 15.04.2021
273 Clear 6 1024 56 10000 4.12 40 08:54 15.04.2021
274 Clear 5 1024 56 10000 3.6 50 08:35 15.04.2021
275 Clear 4 1023 60 10000 3.6 40 07:47 15.04.2021
276 Clear 4 1023 60 10000 3.09 40 07:18 15.04.2021
277 Clear 5 1023 56 10000 5.14 50 06:36 15.04.2021
278 Clear 6 1023 52 10000 4.12 60 04:57 15.04.2021
279 Clear 7 1023 49 10000 5.66 50 03:59 15.04.2021
280 Clear 9 1024 43 10000 5.14 50 00:18 15.04.2021
281 Clear 10 1023 40 10000 5.66 50 23:34 14.04.2021
282 Clear 11 1023 37 10000 6.17 50 22:58 14.04.2021
283 Clear 11 1023 37 10000 6.17 50 22:37 14.04.2021
284 Clear 11 1023 37 10000 6.17 50 22:19 14.04.2021
285 Clear 11 1023 37 10000 6.17 50 22:19 14.04.2021
286 Clear 12 1022 32 10000 6.69 50 21:40 14.04.2021
287 Clear 12 1022 32 10000 6.69 50 21:22 14.04.2021
288 Clear 14 1022 30 10000 7.2 40 20:39 14.04.2021
289 Clear 14 1022 30 10000 7.2 40 20:20 14.04.2021
290 Clear 15 1021 26 10000 7.2 40 19:44 14.04.2021
291 Clear 16 1021 26 10000 7.72 40 19:19 14.04.2021
292 Clear 17 1021 25 10000 5.66 50 18:50 14.04.2021
293 Clear 17 1021 25 10000 6.69 60 18:19 14.04.2021
294 Clear 17 1022 25 10000 5.14 60 17:55 14.04.2021
295 Clear 17 1022 23 10000 6.69 60 17:24 14.04.2021
296 Clear 17 1022 23 10000 5.14 80 16:46 14.04.2021
297 Clear 17 1022 23 10000 5.14 80 16:22 14.04.2021
298 Clear 16 1023 25 10000 7.72 60 15:41 14.04.2021
299 Clear 16 1023 25 10000 7.72 60 15:22 14.04.2021
300 Clear 15 1023 30 10000 6.69 50 14:43 14.04.2021
301 Clear 15 1023 30 10000 6.69 50 14:22 14.04.2021
302 Clear 14 1023 35 10000 6.17 80 13:49 14.04.2021
303 Clear 13 1024 37 10000 5.14 70 12:58 14.04.2021
304 Clear 13 1024 37 10000 6.17 80 12:35 14.04.2021
305 Clear 11 1024 43 10000 5.66 70 11:42 14.04.2021
306 Clear 11 1024 43 10000 5.66 70 11:24 14.04.2021
307 Clear 9 1024 53 10000 5.66 70 10:35 14.04.2021
308 Clear 8 1024 61 10000 5.66 70 09:59 14.04.2021
309 Clear 7 1024 65 10000 5.14 70 09:41 14.04.2021
310 Clear 7 1024 65 10000 5.14 70 09:18 14.04.2021
311 Clear 5 1024 70 10000 4.12 60 08:33 14.04.2021
312 Clear 5 1024 70 10000 4.63 60 07:53 14.04.2021
313 Clear 5 1024 70 10000 4.12 60 06:43 14.04.2021
314 Clear 5 1024 70 10000 3.6 60 06:22 14.04.2021
315 Clear 7 1024 61 10000 3.6 70 03:44 14.04.2021
316 Clear 8 1025 61 10000 4.12 60 01:40 14.04.2021
317 Clear 9 1025 61 10000 4.12 50 00:34 14.04.2021
318 Clear 10 1025 57 10000 5.14 50 23:39 13.04.2021
319 Clear 10 1025 53 10000 4.63 50 22:55 13.04.2021
320 Clear 11 1025 50 10000 5.66 50 22:37 13.04.2021
321 Clear 11 1025 50 10000 5.66 50 22:18 13.04.2021
322 Clear 12 1024 50 10000 6.17 50 21:40 13.04.2021
323 Clear 12 1024 50 10000 6.17 50 21:20 13.04.2021
324 Clear 14 1024 38 10000 6.69 50 20:39 13.04.2021
325 Clear 15 1024 38 10000 6.69 50 20:20 13.04.2021
326 Clear 16 1024 33 10000 6.17 60 19:27 13.04.2021
327 Clear 16 1024 31 10000 5.66 70 18:58 13.04.2021
328 Clear 16 1024 31 10000 5.14 70 18:33 13.04.2021
329 Clear 17 1025 31 10000 4.63 80 17:45 13.04.2021
330 Clear 17 1025 33 10000 4.63 60 17:23 13.04.2021
331 Clear 16 1025 33 10000 6.17 90 16:57 13.04.2021
332 Clear 16 1026 31 10000 5.66 60 16:38 13.04.2021
333 Clear 16 1026 31 10000 5.66 60 16:19 13.04.2021
334 Clear 15 1027 33 10000 4.63 90 15:39 13.04.2021
335 Clear 15 1027 35 10000 5.14 80 14:59 13.04.2021
336 Clear 16 1027 38 10000 4.12 90 14:37 13.04.2021
337 Clear 15 1027 38 10000 4.12 90 14:18 13.04.2021
338 Clear 14 1028 35 10000 5.66 90 13:40 13.04.2021
339 Clear 14 1028 35 10000 5.66 90 13:20 13.04.2021
340 Clear 14 1028 35 10000 5.66 90 12:49 13.04.2021
341 Clear 13 1028 37 10000 8.23 100 12:23 13.04.2021
342 Clear 12 1029 43 10000 5.66 90 11:40 13.04.2021
343 Clear 10 1029 50 10000 5.14 80 10:58 13.04.2021
344 Clear 9 1029 49 10000 4.63 80 10:40 13.04.2021
345 Clear 9 1029 49 10000 4.63 80 10:19 13.04.2021
346 Clear 8 1029 57 10000 2.57 90 09:51 13.04.2021
347 Clear 6 1029 65 10000 3.09 60 09:26 13.04.2021
348 Clear 5 1029 65 10000 2.06 60 08:47 13.04.2021
349 Clear 4 1029 75 10000 2.06 70 08:24 13.04.2021
350 Clear 3 1029 80 10000 1.54 70 07:48 13.04.2021
351 Clear 3 1029 75 10000 2.06 60 07:26 13.04.2021
352 Clear 4 1029 70 10000 2.06 70 06:24 13.04.2021
353 Clear 3 1029 70 10000 2.57 60 03:44 13.04.2021
354 Clear 6 1030 57 10000 2.06 70 01:32 13.04.2021
355 Clear 7 1030 53 10000 3.09 60 23:52 12.04.2021
356 Clear 8 1030 53 10000 3.09 60 23:32 12.04.2021
357 Clear 9 1030 49 10000 3.09 50 22:52 12.04.2021
358 Clouds 9 1030 49 10000 3.6 50 22:33 12.04.2021
359 Clouds 9 1030 49 10000 3.6 50 22:33 12.04.2021
360 Clear 10 1029 46 10000 4.12 50 21:48 12.04.2021
361 Clear 10 1029 40 10000 4.12 50 21:25 12.04.2021
362 Clear 11 1029 40 10000 4.63 50 20:58 12.04.2021
363 Clear 12 1028 37 10000 5.14 50 20:36 12.04.2021
364 Clear 12 1028 37 10000 5.14 50 20:18 12.04.2021
365 Clear 14 1028 35 10000 4.12 40 19:39 12.04.2021
366 Clear 14 1028 35 10000 4.12 40 19:21 12.04.2021
367 Clear 14 1028 35 10000 4.12 40 19:21 12.04.2021
368 Clear 13 1028 33 10000 5.14 50 18:48 12.04.2021
369 Clear 14 1028 35 10000 4.12 50 18:30 12.04.2021
370 Clear 15 1028 35 10000 3.09 30 17:58 12.04.2021
371 Clear 14 1029 38 10000 3.6 50 17:37 12.04.2021
372 Clear 14 1029 38 10000 3.6 50 17:19 12.04.2021
373 Clear 15 1029 35 10000 3.09 60 16:37 12.04.2021
374 Clear 15 1029 35 10000 3.09 60 16:18 12.04.2021
375 Clear 14 1029 38 10000 3.6 90 15:33 12.04.2021
376 Clear 13 1030 43 10000 3.6 40 14:56 12.04.2021
377 Clear 13 1030 41 10000 3.09 60 14:37 12.04.2021
378 Clouds 13 1030 43 10000 2.57 50 14:18 12.04.2021
379 Clouds 12 1030 47 10000 3.6 50 13:40 12.04.2021
380 Clouds 12 1030 47 10000 3.6 50 13:18 12.04.2021
381 Clouds 12 1030 47 10000 3.6 90 12:43 12.04.2021
382 Clouds 12 1030 50 10000 2.57 70 12:22 12.04.2021
383 Clouds 10 1030 61 10000 3.6 70 11:35 12.04.2021
384 Clear 9 1030 66 10000 3.09 60 10:51 12.04.2021
385 Clear 8 1029 76 10000 3.09 50 10:28 12.04.2021
386 Clear 7 1029 81 10000 3.6 50 09:52 12.04.2021
387 Clear 6 1029 81 10000 3.6 40 09:23 12.04.2021
388 Clouds 5 1029 87 10000 2.06 30 08:51 12.04.2021
389 Clouds 3 1028 93 10000 1.54 10 07:55 12.04.2021
390 Clouds 3 1028 93 10000 1.54 30 07:30 12.04.2021
391 Clear 4 1028 93 10000 3.09 20 06:39 12.04.2021
392 Clear 4 1028 93 10000 3.09 20 05:47 12.04.2021
393 Clouds 5 1026 81 10000 2.06 330 02:27 12.04.2021
394 Clouds 6 1025 75 10000 3.09 320 00:29 12.04.2021
395 Clear 6 1025 70 10000 3.09 290 23:55 11.04.2021
396 Clear 7 1024 70 10000 2.57 300 23:36 11.04.2021
397 Clear 7 1024 70 10000 2.57 300 23:18 11.04.2021
398 Clear 8 1024 71 10000 3.6 330 22:37 11.04.2021
399 Clear 8 1024 71 10000 3.6 330 22:18 11.04.2021
400 Clouds 8 1023 71 10000 4.12 330 21:41 11.04.2021
401 Clouds 9 1023 66 10000 4.12 330 21:23 11.04.2021
402 Clear 10 1022 62 10000 5.14 330 20:42 11.04.2021
403 Clear 11 1021 58 10000 5.66 320 20:23 11.04.2021
404 Clear 12 1020 54 10000 6.17 320 19:41 11.04.2021
405 Clouds 13 1020 50 10000 6.69 320 19:20 11.04.2021
406 Clouds 12 1020 50 10000 6.69 320 18:55 11.04.2021
407 Clouds 12 1020 50 10000 6.69 320 18:55 11.04.2021
408 Clear 13 1019 47 10000 6.69 330 18:37 11.04.2021
409 Clear 14 1019 44 10000 6.17 330 18:18 11.04.2021
410 Clear 14 1019 44 10000 6.17 330 18:18 11.04.2021
411 Clear 15 1019 44 10000 6.69 330 17:40 11.04.2021
412 Clear 14 1018 44 10000 7.2 330 17:19 11.04.2021
413 Clear 15 1018 44 10000 7.2 330 16:41 11.04.2021
414 Clouds 14 1018 50 10000 6.69 360 16:20 11.04.2021
415 Clouds 14 1018 50 10000 6.69 360 15:45 11.04.2021
416 Clouds 14 1017 47 10000 5.14 340 15:24 11.04.2021
417 Clouds 14 1017 54 10000 6.17 350 14:51 11.04.2021
418 Clouds 13 1017 54 10000 5.14 360 14:22 11.04.2021
419 Clouds 12 1017 58 10000 5.66 340 13:42 11.04.2021
420 Clouds 12 1017 62 10000 5.66 360 13:23 11.04.2021
421 Clouds 11 1016 71 10000 6.69 360 12:26 11.04.2021
422 Clouds 10 1016 76 10000 5.66 340 11:57 11.04.2021
423 Clouds 9 1015 87 10000 6.69 360 11:38 11.04.2021
424 Clouds 9 1015 87 10000 6.69 360 11:19 11.04.2021
425 Clouds 9 1015 87 10000 5.14 350 10:44 11.04.2021
426 Clouds 9 1014 93 10000 5.66 350 10:22 11.04.2021
427 Rain 10 1013 93 10000 5.66 340 09:49 11.04.2021
428 Rain 10 1013 93 10000 4.63 340 09:26 11.04.2021
429 Clouds 10 1012 100 10000 4.12 340 08:40 11.04.2021
430 Rain 11 1011 93 8000 4.12 340 07:41 11.04.2021
431 Rain 11 1011 93 8000 4.12 330 07:19 11.04.2021
432 Clouds 12 1010 94 9000 2.06 300 05:47 11.04.2021
433 Clouds 12 1010 94 10000 1.54 300 05:23 11.04.2021
434 Mist 12 1010 94 5000 2.06 250 04:35 11.04.2021
435 Mist 12 1010 94 5000 1.03 200 03:35 11.04.2021
436 Rain 13 1010 88 10000 3.09 320 00:55 11.04.2021
437 Clouds 13 1010 82 10000 3.09 330 00:32 11.04.2021
438 Clouds 14 1010 72 10000 1.54 290 23:44 10.04.2021
439 Clear 14 1010 72 10000 1.03 0 22:55 10.04.2021
440 Clouds 15 1010 67 10000 0.51 310 22:28 10.04.2021
441 Clear 15 1010 67 10000 2.57 270 21:53 10.04.2021
442 Clear 16 1009 63 10000 2.57 280 21:24 10.04.2021
443 Clouds 17 1009 59 10000 3.6 290 20:55 10.04.2021
444 Clear 18 1009 55 10000 4.12 270 20:34 10.04.2021
445 Clear 18 1009 55 10000 4.12 270 20:34 10.04.2021
446 Clear 19 1009 52 10000 3.6 260 19:58 10.04.2021
447 Clear 19 1009 52 10000 3.6 280 19:40 10.04.2021
448 Clear 19 1009 52 10000 3.6 280 19:21 10.04.2021
449 Clouds 20 1009 52 10000 3.6 290 18:41 10.04.2021
450 Clouds 20 1009 52 10000 3.6 290 18:23 10.04.2021
451 Clouds 20 1009 52 10000 3.6 290 18:23 10.04.2021
452 Clear 20 1010 52 10000 4.63 260 17:35 10.04.2021
453 Clouds 20 1010 49 10000 3.6 270 16:37 10.04.2021
454 Clouds 20 1010 49 10000 3.6 270 16:19 10.04.2021
455 Clouds 20 1011 52 10000 1.54 240 15:43 10.04.2021
456 Clouds 18 1011 59 10000 3.6 280 14:52 10.04.2021
457 Clouds 18 1011 59 10000 2.57 230 14:30 10.04.2021
458 Clouds 18 1012 59 10000 3.09 240 13:54 10.04.2021
459 Clouds 18 1012 59 10000 4.63 210 13:34 10.04.2021
460 Clouds 17 1012 59 10000 3.09 190 12:39 10.04.2021
461 Clear 16 1012 72 10000 3.09 180 12:18 10.04.2021
462 Clear 15 1012 72 10000 3.09 180 11:44 10.04.2021
463 Clear 14 1012 72 10000 3.09 160 11:20 10.04.2021
464 Clear 14 1012 77 10000 3.6 160 10:44 10.04.2021
465 Clear 12 1013 87 10000 4.63 170 10:26 10.04.2021
466 Clear 11 1013 93 10000 4.12 160 09:30 10.04.2021
467 Clear 11 1013 93 10000 4.12 160 09:30 10.04.2021
468 Clouds 10 1013 93 10000 3.6 160 08:59 10.04.2021
469 Clouds 10 1013 93 10000 3.09 150 08:33 10.04.2021
470 Clear 10 1013 93 10000 4.12 150 07:54 10.04.2021
471 Mist 10 1013 93 5000 4.12 170 07:25 10.04.2021
472 Clouds 10 1013 87 10000 4.12 160 06:27 10.04.2021
473 Clear 10 1013 87 10000 4.12 170 04:49 10.04.2021
474 Clear 11 1014 87 10000 4.63 160 02:58 10.04.2021
475 Clear 12 1015 82 10000 5.66 160 02:37 10.04.2021
476 Clear 12 1015 82 10000 5.66 160 00:55 10.04.2021
477 Clear 13 1015 76 10000 5.14 160 00:30 10.04.2021
478 Clear 13 1015 88 10000 4.63 160 23:45 09.04.2021
479 Clear 13 1015 88 10000 4.63 160 23:20 09.04.2021
480 Clouds 14 1015 82 10000 3.6 160 22:44 09.04.2021
481 Clear 14 1015 82 10000 3.09 170 22:25 09.04.2021
482 Clear 14 1015 72 10000 2.57 170 21:39 09.04.2021
483 Clear 15 1015 72 10000 3.09 180 21:19 09.04.2021
484 Clear 15 1015 67 10000 3.09 180 20:45 09.04.2021
485 Clear 15 1015 67 10000 3.09 180 20:23 09.04.2021
486 Clear 16 1015 67 10000 3.09 170 19:58 09.04.2021
487 Clear 15 1015 63 10000 3.09 180 19:39 09.04.2021
488 Clear 16 1015 63 10000 3.09 180 19:20 09.04.2021
489 Clear 17 1015 59 10000 3.09 170 18:41 09.04.2021
490 Clear 17 1015 59 10000 3.09 180 18:22 09.04.2021
491 Clear 17 1015 59 10000 4.12 170 17:44 09.04.2021
492 Clear 17 1015 59 10000 4.12 170 17:22 09.04.2021
493 Clear 17 1015 59 10000 5.66 180 16:41 09.04.2021
494 Clear 17 1015 59 10000 5.66 180 16:19 09.04.2021
495 Clear 19 1015 52 10000 4.63 180 15:40 09.04.2021
496 Clear 19 1015 52 10000 4.12 170 15:20 09.04.2021
497 Clear 18 1015 52 10000 4.12 170 14:46 09.04.2021
498 Clouds 18 1016 52 10000 3.6 190 13:57 09.04.2021
499 Clear 18 1016 55 10000 4.12 190 13:39 09.04.2021
500 Clear 18 1016 55 10000 4.12 190 13:20 09.04.2021
501 Clear 17 1016 63 10000 4.12 180 12:46 09.04.2021
502 Clear 16 1017 63 10000 6.17 180 11:48 09.04.2021
503 Clear 14 1016 72 10000 4.63 170 11:23 09.04.2021
504 Clear 13 1016 71 10000 4.63 170 10:49 09.04.2021
505 Clear 13 1016 71 10000 3.6 170 10:30 09.04.2021
506 Clear 11 1016 76 10000 3.6 160 09:51 09.04.2021
507 Clear 11 1016 76 10000 4.12 160 09:25 09.04.2021
508 Clear 10 1016 76 10000 3.09 150 08:53 09.04.2021
509 Clear 10 1016 76 10000 4.12 150 08:18 09.04.2021
510 Clear 9 1016 71 10000 4.12 150 07:18 09.04.2021
511 Clear 9 1016 71 10000 4.12 150 06:21 09.04.2021
512 Clear 10 1016 62 10000 4.12 150 03:54 09.04.2021
513 Clear 10 1017 50 10000 3.09 140 02:18 09.04.2021
514 Clear 11 1017 43 10000 3.09 150 00:38 09.04.2021
515 Clear 11 1017 43 10000 3.09 150 00:19 09.04.2021
516 Clear 11 1017 41 10000 3.09 140 23:29 08.04.2021
517 Clear 12 1017 38 10000 3.09 130 22:45 08.04.2021
518 Clear 13 1017 38 10000 3.09 120 22:25 08.04.2021
519 Clear 13 1017 36 10000 3.6 120 21:56 08.04.2021
520 Clear 13 1017 36 10000 3.6 120 21:56 08.04.2021
521 Clear 14 1017 31 10000 3.09 120 21:37 08.04.2021
522 Clear 15 1017 31 10000 3.09 120 21:18 08.04.2021
523 Clear 17 1017 29 10000 4.12 120 20:52 08.04.2021
524 Clear 18 1017 27 10000 5.14 120 20:30 08.04.2021
525 Clear 18 1018 27 10000 4.12 130 19:49 08.04.2021
526 Clear 19 1018 27 10000 4.12 120 19:20 08.04.2021
527 Clear 19 1018 26 10000 3.6 120 18:51 08.04.2021
528 Clear 19 1018 27 10000 3.6 120 18:21 08.04.2021
529 Clear 19 1018 27 10000 3.6 120 17:49 08.04.2021
530 Clear 19 1019 26 10000 3.09 110 17:26 08.04.2021
531 Clear 18 1019 27 10000 3.6 100 16:51 08.04.2021
532 Clear 18 1020 27 10000 4.12 120 16:33 08.04.2021
533 Clear 19 1020 29 10000 3.6 90 15:48 08.04.2021
534 Clear 18 1020 29 10000 4.12 110 15:29 08.04.2021
535 Clear 18 1021 27 10000 5.14 150 14:46 08.04.2021
536 Clear 17 1021 31 10000 4.12 120 14:28 08.04.2021
537 Clear 16 1021 31 10000 5.14 130 13:59 08.04.2021
538 Clear 15 1022 33 10000 6.69 130 13:41 08.04.2021
539 Clear 15 1022 33 10000 6.69 130 13:22 08.04.2021
540 Clear 15 1022 33 10000 6.69 130 13:22 08.04.2021
541 Clear 14 1023 35 10000 6.17 140 12:43 08.04.2021
542 Clear 13 1023 35 10000 6.17 140 12:24 08.04.2021
543 Clear 12 1023 37 10000 4.63 120 11:43 08.04.2021
544 Clouds 10 1023 40 9000 5.14 140 10:59 08.04.2021
545 Clear 10 1023 40 10000 3.6 130 10:36 08.04.2021
546 Clear 9 1023 40 10000 3.6 130 10:18 08.04.2021
547 Haze 7 1023 45 3800 4.12 120 09:42 08.04.2021
548 Clouds 3 1023 60 9000 2.57 110 08:46 08.04.2021
549 Clear 2 1023 65 10000 2.06 100 08:28 08.04.2021
550 Clear 3 1023 60 10000 1.54 80 07:57 08.04.2021
551 Clear 3 1023 65 10000 2.57 60 07:35 08.04.2021
552 Clear 3 1024 52 10000 2.06 70 03:48 08.04.2021
553 Clear 4 1025 52 10000 1.03 20 01:19 08.04.2021
554 Clear 4 1025 52 10000 1.03 0 23:59 07.04.2021
555 Clear 5 1025 49 10000 1.03 0 23:39 07.04.2021
556 Clear 5 1025 49 10000 1.03 0 23:21 07.04.2021
557 Clear 6 1025 42 10000 1.03 60 22:47 07.04.2021
558 Clear 7 1024 43 10000 2.06 70 22:29 07.04.2021
559 Clear 9 1024 34 10000 2.06 60 21:44 07.04.2021
560 Clear 9 1024 34 10000 2.57 60 21:24 07.04.2021
561 Clouds 11 1024 30 10000 3.09 90 20:43 07.04.2021
562 Clear 12 1024 28 10000 4.12 70 20:21 07.04.2021
563 Clear 12 1024 28 10000 4.12 70 20:21 07.04.2021
564 Clear 12 1024 28 10000 3.09 70 19:44 07.04.2021
565 Clear 13 1024 28 10000 3.09 90 19:26 07.04.2021
566 Clear 13 1024 26 10000 3.09 70 18:47 07.04.2021
567 Clear 13 1024 26 10000 1.54 0 18:20 07.04.2021
568 Clear 14 1024 26 10000 1.54 0 17:55 07.04.2021
569 Clear 13 1025 28 10000 4.12 70 17:36 07.04.2021
570 Clear 13 1025 28 10000 2.57 70 16:49 07.04.2021
571 Clear 13 1025 30 10000 2.57 60 16:24 07.04.2021
572 Clear 13 1026 30 10000 3.09 130 15:59 07.04.2021
573 Clear 13 1026 30 10000 2.06 0 15:38 07.04.2021
574 Clear 13 1026 30 10000 2.06 0 15:38 07.04.2021
575 Clear 12 1026 30 10000 3.6 60 14:57 07.04.2021
576 Clouds 12 1026 37 10000 2.57 50 14:31 07.04.2021
577 Clear 11 1026 40 10000 3.6 80 13:52 07.04.2021
578 Clear 11 1026 37 10000 3.09 100 13:23 07.04.2021
579 Clear 10 1027 46 10000 3.09 60 12:51 07.04.2021
580 Clear 10 1027 46 10000 3.09 60 12:24 07.04.2021
581 Clear 9 1027 53 10000 3.09 60 11:54 07.04.2021
582 Clear 8 1026 57 10000 3.09 80 11:26 07.04.2021
583 Clear 8 1026 57 10000 3.09 70 10:52 07.04.2021
584 Clear 6 1026 65 10000 4.63 60 10:19 07.04.2021
585 Clear 5 1026 60 10000 2.57 60 09:41 07.04.2021
586 Clear 5 1026 60 10000 2.57 60 09:21 07.04.2021
587 Clear 0 1025 80 10000 0.51 240 08:34 07.04.2021
588 Clear -1 1025 74 10000 1.91 37 07:59 07.04.2021
589 Clear -1 1024 74 10000 1.03 290 07:37 07.04.2021
590 Clear -1 1024 74 10000 1.03 290 07:19 07.04.2021
591 Clear 0 1024 69 10000 1.03 0 06:24 07.04.2021
592 Clear 1 1023 64 10000 2.06 20 04:23 07.04.2021
593 Clear 4 1022 52 10000 1.54 330 00:20 07.04.2021
594 Clear 4 1022 52 10000 1.54 330 23:46 06.04.2021
595 Clear 5 1022 48 10000 1.54 330 23:18 06.04.2021
596 Clear 6 1021 42 10000 2.57 350 22:38 06.04.2021
597 Clear 6 1021 42 10000 2.57 350 22:18 06.04.2021
598 Clear 7 1020 36 10000 3.6 10 21:40 06.04.2021
599 Clear 8 1020 36 10000 3.6 10 21:21 06.04.2021
600 Clear 8 1020 34 10000 4.63 10 20:52 06.04.2021
601 Clear 9 1020 31 10000 5.14 20 20:22 06.04.2021
602 Clear 10 1020 27 10000 5.14 10 19:52 06.04.2021
603 Clear 11 1019 27 10000 5.66 10 19:33 06.04.2021
604 Clear 11 1019 24 10000 6.17 30 18:51 06.04.2021
605 Clear 11 1019 24 10000 6.17 10 18:32 06.04.2021
606 Clear 12 1019 25 10000 6.69 20 17:54 06.04.2021
607 Clear 12 1019 24 10000 7.72 360 17:36 06.04.2021
608 Clear 12 1019 24 10000 7.72 360 17:18 06.04.2021
609 Clear 12 1019 30 10000 6.17 20 16:40 06.04.2021
610 Clear 12 1019 32 10000 6.17 10 15:46 06.04.2021
611 Clear 12 1019 32 10000 5.66 30 15:22 06.04.2021
612 Clear 12 1020 37 10000 6.69 20 14:40 06.04.2021
613 Clear 12 1020 37 10000 6.69 20 14:20 06.04.2021
614 Clear 11 1020 37 10000 6.69 30 13:46 06.04.2021
615 Clear 11 1020 37 10000 6.69 30 13:25 06.04.2021
616 Clear 11 1020 35 10000 5.66 20 12:42 06.04.2021
617 Clouds 11 1020 43 10000 5.14 20 12:22 06.04.2021
618 Clear 10 1020 46 10000 5.14 40 11:52 06.04.2021
619 Clear 10 1020 49 10000 5.14 50 11:22 06.04.2021
620 Clouds 9 1020 53 10000 5.66 50 10:51 06.04.2021
621 Clear 9 1020 53 10000 6.69 50 10:32 06.04.2021
622 Clear 8 1020 53 10000 6.69 60 09:58 06.04.2021
623 Clouds 8 1019 53 10000 5.66 50 09:38 06.04.2021
624 Clouds 8 1019 66 10000 5.14 40 08:45 06.04.2021
625 Clouds 8 1019 66 10000 5.14 40 08:19 06.04.2021
626 Clouds 9 1018 66 10000 4.63 30 06:56 06.04.2021
627 Clouds 9 1018 66 10000 4.12 30 06:20 06.04.2021
628 Clouds 10 1018 76 10000 2.57 330 02:59 06.04.2021
629 Clouds 9 1019 76 10000 2.57 280 00:46 06.04.2021
630 Clouds 9 1019 71 10000 2.57 290 00:21 06.04.2021
631 Clear 9 1019 71 10000 3.09 300 23:44 05.04.2021
632 Clear 9 1019 71 10000 2.57 300 23:22 05.04.2021
633 Clouds 10 1019 66 10000 3.09 300 22:48 05.04.2021
634 Clouds 10 1019 71 10000 3.09 320 22:27 05.04.2021
635 Clouds 10 1019 66 10000 3.6 330 21:45 05.04.2021
636 Clouds 11 1019 66 10000 6.17 320 21:22 05.04.2021
637 Clouds 11 1019 66 10000 6.17 320 20:45 05.04.2021
638 Clouds 11 1019 66 10000 7.2 340 20:27 05.04.2021
639 Clear 14 1018 58 10000 6.17 320 19:44 05.04.2021
640 Clear 14 1018 58 10000 6.17 320 19:24 05.04.2021
641 Clouds 14 1018 58 10000 6.69 310 18:55 05.04.2021
642 Clear 17 1018 55 10000 6.17 310 18:36 05.04.2021
643 Clear 17 1018 55 10000 6.17 310 18:18 05.04.2021
644 Clouds 18 1018 48 10000 7.2 310 17:43 05.04.2021
645 Clouds 18 1018 48 10000 7.2 310 17:20 05.04.2021
646 Clouds 18 1018 39 10000 6.69 310 16:44 05.04.2021
647 Clouds 19 1018 39 10000 6.69 310 16:21 05.04.2021
648 Clouds 19 1018 34 10000 6.17 320 15:52 05.04.2021
649 Clouds 19 1018 36 10000 6.17 290 15:30 05.04.2021
650 Clouds 19 1019 39 10000 4.63 300 14:54 05.04.2021
651 Clouds 19 1019 36 10000 5.14 310 14:34 05.04.2021
652 Clouds 18 1019 39 10000 3.6 290 13:31 05.04.2021
653 Clear 18 1019 36 10000 2.57 320 12:51 05.04.2021
654 Clear 17 1020 41 10000 3.09 330 12:27 05.04.2021
655 Clear 16 1020 47 10000 1.54 340 11:56 05.04.2021
656 Clear 15 1020 51 10000 1.03 0 11:36 05.04.2021
657 Clear 14 1020 51 10000 1.03 0 11:18 05.04.2021
658 Clear 12 1020 62 10000 2.27 329 10:41 05.04.2021
659 Clear 11 1020 71 10000 0.51 0 10:22 05.04.2021
660 Clear 8 1020 76 10000 1.03 0 09:47 05.04.2021
661 Clear 6 1020 81 10000 1.37 343 09:22 05.04.2021
662 Clear 5 1020 87 10000 1.03 0 08:42 05.04.2021
663 Clear 3 1019 87 10000 1.03 280 08:24 05.04.2021
664 Clear 4 1019 81 10000 1.54 260 07:36 05.04.2021
665 Clear 4 1019 81 10000 1.54 0 05:23 05.04.2021
666 Clear 8 1020 61 10000 1.54 330 01:35 05.04.2021
667 Clear 10 1020 54 10000 2.57 20 00:38 05.04.2021
668 Clear 11 1020 54 10000 3.09 20 23:47 04.04.2021
669 Clear 12 1020 50 10000 3.6 30 23:23 04.04.2021
670 Clear 13 1020 47 10000 3.6 20 22:50 04.04.2021
671 Clear 13 1020 47 10000 4.12 20 22:29 04.04.2021
672 Clear 15 1019 38 10000 3.09 10 21:27 04.04.2021
673 Clear 16 1019 33 10000 4.12 20 20:56 04.04.2021
674 Clear 17 1019 34 10000 5.14 30 20:30 04.04.2021
675 Clear 18 1019 29 10000 3.6 40 19:54 04.04.2021
676 Clear 19 1019 27 10000 3.6 10 19:36 04.04.2021
677 Clear 19 1019 27 10000 3.6 10 19:18 04.04.2021
678 Clear 18 1019 27 10000 4.63 50 18:41 04.04.2021
679 Clear 19 1019 27 10000 3.6 40 18:20 04.04.2021
680 Clear 19 1019 27 10000 3.6 40 17:41 04.04.2021
681 Clear 18 1019 27 10000 3.6 40 17:23 04.04.2021
682 Clear 18 1019 27 10000 3.6 40 17:23 04.04.2021
683 Clear 18 1019 27 10000 3.6 40 16:43 04.04.2021
684 Clear 18 1019 29 10000 3.6 50 16:18 04.04.2021
685 Clear 17 1020 31 10000 3.6 80 15:34 04.04.2021
686 Clear 16 1020 36 10000 4.12 60 14:46 04.04.2021
687 Clear 16 1020 36 10000 4.63 80 14:27 04.04.2021
688 Clear 15 1020 38 10000 5.14 80 13:47 04.04.2021
689 Clear 15 1021 38 10000 5.66 60 13:23 04.04.2021
690 Clear 13 1021 47 10000 4.63 50 12:41 04.04.2021
691 Clear 13 1021 47 10000 4.63 50 12:23 04.04.2021
692 Clear 12 1021 50 10000 5.14 40 11:42 04.04.2021
693 Clear 11 1021 53 10000 6.69 50 11:23 04.04.2021
694 Clear 9 1021 66 10000 5.14 30 10:43 04.04.2021
695 Clear 8 1021 65 10000 4.63 40 09:54 04.04.2021
696 Clear 7 1021 70 10000 3.6 30 09:25 04.04.2021
697 Clear 6 1021 75 10000 2.06 40 08:53 04.04.2021
698 Clear 5 1021 75 10000 2.06 40 08:35 04.04.2021
699 Clear 5 1020 75 10000 3.6 30 07:54 04.04.2021
700 Clear 5 1020 70 10000 3.09 20 06:37 04.04.2021
701 Clear 6 1020 70 10000 3.09 30 05:33 04.04.2021
702 Clear 10 1021 53 10000 5.14 60 01:28 04.04.2021
703 Clear 11 1021 50 10000 5.14 50 00:20 04.04.2021
704 Clear 11 1020 50 10000 3.6 40 23:47 03.04.2021
705 Clear 11 1020 50 10000 4.12 50 23:24 03.04.2021
706 Clear 11 1020 50 10000 4.63 50 22:51 03.04.2021
707 Clear 12 1020 47 10000 4.12 50 22:22 03.04.2021
708 Clear 12 1020 47 10000 5.14 40 21:49 03.04.2021
709 Clear 13 1019 44 10000 6.17 40 21:24 03.04.2021
710 Clear 13 1019 41 10000 7.72 40 20:51 03.04.2021
711 Clear 14 1018 38 10000 6.69 40 20:28 03.04.2021
712 Clear 15 1018 36 10000 8.23 40 19:51 03.04.2021
713 Clear 16 1018 36 10000 8.75 50 19:25 03.04.2021
714 Clear 16 1018 36 10000 8.23 40 18:52 03.04.2021
715 Clear 16 1018 36 10000 8.23 40 18:32 03.04.2021
716 Clear 16 1018 39 10000 8.23 40 17:53 03.04.2021
717 Clear 17 1018 36 10000 8.75 40 17:26 03.04.2021
718 Clear 16 1018 36 10000 8.23 40 16:52 03.04.2021
719 Clear 16 1018 36 10000 9.77 40 16:25 03.04.2021
720 Clear 16 1018 33 10000 8.75 50 15:51 03.04.2021
721 Clear 16 1019 36 10000 8.23 50 15:30 03.04.2021
722 Clear 16 1019 36 10000 8.23 50 15:30 03.04.2021
723 Clear 16 1019 38 10000 8.23 40 14:44 03.04.2021
724 Clear 15 1019 44 10000 7.72 30 14:25 03.04.2021
725 Clear 15 1019 44 10000 8.23 50 13:54 03.04.2021
726 Clear 15 1019 47 10000 7.72 40 13:29 03.04.2021
727 Clear 14 1019 47 10000 8.23 50 12:57 03.04.2021
728 Clear 13 1019 54 10000 7.72 50 12:33 03.04.2021
729 Clear 12 1019 58 10000 6.69 40 11:41 03.04.2021
730 Clear 12 1019 58 10000 6.69 40 11:19 03.04.2021
731 Clear 11 1019 54 10000 6.69 60 10:45 03.04.2021
732 Clear 11 1019 57 10000 7.72 50 10:25 03.04.2021
733 Clear 10 1018 61 10000 6.69 50 09:29 03.04.2021
734 Clear 9 1018 66 10000 5.66 50 08:59 03.04.2021
735 Clear 8 1018 66 10000 5.14 40 08:32 03.04.2021
736 Clear 9 1017 61 10000 5.14 50 07:30 03.04.2021
737 Clear 9 1017 61 10000 5.66 50 06:53 03.04.2021
738 Clear 12 1016 47 10000 5.14 50 03:54 03.04.2021
739 Clear 14 1016 41 10000 5.14 50 02:54 03.04.2021
740 Clear 14 1016 38 10000 5.66 50 02:27 03.04.2021
741 Clear 17 1016 45 10000 5.66 50 00:31 03.04.2021
742 Clear 17 1016 48 10000 5.66 50 23:59 02.04.2021
743 Clear 18 1016 48 10000 6.17 40 23:29 02.04.2021
744 Clear 18 1015 52 10000 6.69 40 22:56 02.04.2021
745 Clear 19 1015 48 10000 8.75 40 22:37 02.04.2021
746 Clear 20 1015 49 10000 7.2 40 21:56 02.04.2021
747 Clear 21 1014 49 10000 7.72 40 21:38 02.04.2021
748 Clear 21 1014 49 10000 7.72 40 21:18 02.04.2021
749 Clear 21 1014 49 10000 7.72 40 21:18 02.04.2021
750 Clear 23 1014 40 10000 8.75 40 20:36 02.04.2021
751 Clear 23 1014 40 10000 8.75 40 20:18 02.04.2021
752 Clouds 25 1013 33 10000 7.72 30 19:40 02.04.2021
753 Clouds 25 1013 33 10000 7.72 30 19:21 02.04.2021
754 Clouds 26 1013 34 10000 8.23 20 18:42 02.04.2021
755 Clear 26 1013 34 10000 5.66 30 18:23 02.04.2021
756 Clear 26 1013 31 10000 4.63 30 17:54 02.04.2021
757 Clear 26 1014 31 10000 5.14 40 17:22 02.04.2021
758 Clear 25 1014 33 10000 4.63 50 16:23 02.04.2021
759 Clear 24 1014 35 10000 3.6 50 15:43 02.04.2021
760 Clear 23 1015 31 10000 4.12 70 15:19 02.04.2021
761 Clear 22 1015 32 10000 3.6 70 14:33 02.04.2021
762 Clear 21 1015 32 10000 3.6 70 13:47 02.04.2021
763 Clear 21 1016 34 10000 4.12 60 13:27 02.04.2021
764 Clear 20 1016 37 10000 3.09 80 12:47 02.04.2021
765 Clear 19 1016 39 10000 2.06 80 12:20 02.04.2021
766 Clear 18 1016 45 10000 2.57 80 11:58 02.04.2021
767 Clear 17 1016 45 10000 2.57 120 11:21 02.04.2021
768 Clear 16 1016 51 10000 2.06 120 10:51 02.04.2021
769 Clear 16 1016 55 10000 2.06 120 10:32 02.04.2021
770 Clear 16 1016 55 10000 2.06 120 10:32 02.04.2021
771 Clear 14 1016 62 10000 1.54 100 09:55 02.04.2021
772 Clear 13 1015 67 10000 2.06 130 09:37 02.04.2021
773 Clear 12 1015 67 10000 2.06 130 09:18 02.04.2021
774 Clear 10 1015 71 10000 2.06 130 08:34 02.04.2021
775 Clear 10 1015 71 10000 1.54 110 07:42 02.04.2021
776 Clear 11 1015 66 10000 1.54 110 07:18 02.04.2021
777 Clear 12 1014 62 10000 2.57 130 06:22 02.04.2021
778 Clear 14 1015 72 10000 2.57 140 02:51 02.04.2021
779 Clear 13 1015 72 10000 1.03 70 00:54 02.04.2021
780 Clear 14 1015 63 10000 2.57 50 00:33 02.04.2021
781 Clear 14 1015 63 10000 1.03 0 23:41 01.04.2021
782 Clear 14 1015 63 10000 1.03 0 23:21 01.04.2021
783 Clear 15 1014 59 10000 1.89 109 22:22 01.04.2021
784 Clear 16 1014 59 10000 1.54 140 21:51 01.04.2021
785 Clear 17 1014 48 10000 1.03 160 21:29 01.04.2021
786 Clear 19 1014 42 10000 2.06 160 20:58 01.04.2021
787 Clear 20 1014 40 10000 2.57 150 20:29 01.04.2021
788 Clear 22 1014 37 10000 3.6 130 19:57 01.04.2021
789 Clear 23 1014 35 10000 4.12 110 19:37 01.04.2021
790 Clear 23 1014 35 10000 4.63 80 18:49 01.04.2021
791 Clear 23 1014 35 10000 4.12 90 18:19 01.04.2021
792 Clear 23 1014 35 10000 4.12 90 17:57 01.04.2021
793 Clear 24 1014 33 10000 5.14 100 17:38 01.04.2021
794 Clear 25 1014 33 10000 5.14 100 17:19 01.04.2021
795 Clear 24 1014 33 10000 4.63 110 16:41 01.04.2021
796 Clear 24 1015 33 10000 5.14 110 15:49 01.04.2021
797 Clear 24 1015 33 10000 6.17 120 15:20 01.04.2021
798 Clear 23 1015 40 10000 6.17 120 14:48 01.04.2021
799 Clear 22 1016 43 10000 4.63 120 14:27 01.04.2021
800 Clear 21 1016 43 10000 4.12 120 13:58 01.04.2021
801 Clear 21 1016 45 10000 3.6 130 13:31 01.04.2021
802 Clear 20 1016 48 10000 4.12 130 12:55 01.04.2021
803 Clear 19 1016 52 10000 5.66 110 12:33 01.04.2021
804 Clear 18 1016 52 10000 5.66 120 11:57 01.04.2021
805 Clear 16 1016 55 10000 6.17 140 11:38 01.04.2021
806 Clear 16 1016 55 10000 6.17 140 11:18 01.04.2021
807 Clear 15 1016 55 10000 6.69 130 10:45 01.04.2021
808 Clear 14 1016 58 10000 6.69 130 10:22 01.04.2021
809 Clear 12 1016 62 10000 4.63 130 09:31 01.04.2021
810 Clear 12 1016 58 10000 3.6 120 08:43 01.04.2021
811 Clear 11 1016 58 10000 4.63 120 08:24 01.04.2021
812 Clear 11 1016 58 10000 3.6 120 07:21 01.04.2021
813 Clear 12 1016 62 10000 3.6 110 06:55 01.04.2021
814 Clear 13 1017 58 10000 3.09 130 05:33 01.04.2021
815 Clear 15 1017 55 10000 5.66 140 03:18 01.04.2021
816 Clear 18 1017 52 10000 3.09 130 23:55 31.03.2021
817 Clear 18 1017 52 10000 3.09 130 23:37 31.03.2021
818 Clear 19 1017 45 10000 3.6 140 22:44 31.03.2021
819 Clear 19 1017 45 10000 3.6 140 22:23 31.03.2021
820 Clear 20 1017 45 10000 3.6 130 21:54 31.03.2021
821 Clear 20 1017 43 10000 4.12 120 21:36 31.03.2021
822 Clear 21 1017 40 10000 4.63 130 21:18 31.03.2021
823 Clear 22 1017 35 10000 4.63 130 20:40 31.03.2021
824 Clear 23 1017 35 10000 4.63 130 20:20 31.03.2021
825 Clear 25 1017 31 10000 4.12 130 19:42 31.03.2021
826 Clear 24 1017 31 10000 4.12 130 19:20 31.03.2021
827 Clear 25 1017 29 10000 5.14 130 18:54 31.03.2021
828 Clear 26 1017 29 10000 4.63 130 18:35 31.03.2021
829 Clear 26 1018 29 10000 4.63 130 17:41 31.03.2021
830 Clear 26 1018 29 10000 4.63 130 17:19 31.03.2021
831 Clear 27 1018 29 10000 4.63 120 16:53 31.03.2021
832 Clear 27 1018 29 10000 4.12 140 16:34 31.03.2021
833 Clear 26 1019 29 10000 3.6 130 15:53 31.03.2021
834 Clear 25 1019 33 10000 3.6 140 15:20 31.03.2021
835 Clear 25 1019 35 10000 3.6 140 14:49 31.03.2021
836 Clear 24 1020 38 10000 3.6 130 14:25 31.03.2021
837 Clear 23 1020 40 10000 3.6 130 13:54 31.03.2021
838 Clear 22 1020 40 10000 4.12 120 13:23 31.03.2021
839 Clear 20 1021 42 10000 3.6 130 12:40 31.03.2021
840 Clear 20 1021 42 10000 3.6 130 12:18 31.03.2021
841 Clear 17 1021 48 10000 4.12 140 11:23 31.03.2021
842 Clear 16 1021 48 10000 5.14 150 10:50 31.03.2021
843 Clear 15 1021 54 10000 5.14 140 10:27 31.03.2021
844 Clear 14 1021 54 10000 4.63 140 09:54 31.03.2021
845 Clear 13 1021 58 10000 3.6 130 09:29 31.03.2021
846 Clear 12 1021 62 10000 3.09 130 08:46 31.03.2021
847 Clear 12 1021 58 10000 3.09 130 08:26 31.03.2021
848 Clear 12 1021 62 10000 2.57 140 07:36 31.03.2021
849 Clear 13 1022 58 10000 4.12 140 04:46 31.03.2021
850 Clear 15 1023 59 10000 2.57 140 02:37 31.03.2021
851 Clear 17 1023 52 10000 4.12 150 00:54 31.03.2021
852 Clear 17 1023 55 10000 3.09 140 00:25 31.03.2021
853 Clear 17 1023 52 10000 3.09 150 23:57 30.03.2021
854 Clear 18 1023 48 10000 3.6 150 23:25 30.03.2021
855 Clear 18 1023 52 10000 3.6 140 22:50 30.03.2021
856 Clear 18 1023 49 10000 3.6 130 22:30 30.03.2021
857 Clear 19 1023 49 10000 3.6 130 21:57 30.03.2021
858 Clouds 20 1023 46 10000 3.6 120 21:29 30.03.2021
859 Clear 21 1023 43 10000 4.12 130 20:59 30.03.2021
860 Clear 23 1023 38 10000 3.6 130 20:38 30.03.2021
861 Clear 23 1023 38 10000 3.6 130 20:18 30.03.2021
862 Clear 25 1023 33 10000 4.12 110 19:41 30.03.2021
863 Clear 25 1023 31 10000 3.6 110 18:57 30.03.2021
864 Clear 25 1023 33 10000 3.6 110 18:27 30.03.2021
865 Clear 25 1024 31 10000 3.09 130 17:47 30.03.2021
866 Clear 25 1024 29 10000 3.6 80 17:29 30.03.2021
867 Clear 25 1024 29 10000 3.6 110 16:47 30.03.2021
868 Clear 26 1025 29 10000 3.09 80 16:27 30.03.2021
869 Clear 25 1026 38 10000 2.57 90 15:38 30.03.2021
870 Clear 25 1026 38 10000 2.57 90 15:19 30.03.2021
871 Clear 23 1026 40 10000 3.09 100 14:45 30.03.2021
872 Clear 23 1026 40 10000 3.09 100 14:20 30.03.2021
873 Clear 21 1027 43 10000 2.57 120 13:49 30.03.2021
874 Clear 20 1027 49 10000 3.09 120 13:24 30.03.2021
875 Clear 19 1027 52 10000 3.6 110 12:41 30.03.2021
876 Clear 19 1027 52 10000 3.6 110 12:41 30.03.2021
877 Clear 18 1027 52 10000 3.6 110 12:21 30.03.2021
878 Clear 16 1027 55 10000 3.6 120 11:43 30.03.2021
879 Clear 15 1027 58 10000 3.6 130 11:19 30.03.2021
880 Clear 14 1027 67 10000 5.14 130 10:41 30.03.2021
881 Clear 13 1027 67 10000 5.14 130 10:19 30.03.2021
882 Clear 11 1027 71 10000 3.6 130 09:41 30.03.2021
883 Clear 11 1027 71 10000 3.6 130 09:41 30.03.2021
884 Clear 11 1027 71 10000 3.6 130 09:21 30.03.2021
885 Clear 10 1027 76 10000 3.09 130 08:42 30.03.2021
886 Clear 10 1026 76 10000 3.09 110 07:56 30.03.2021
887 Clear 10 1026 71 10000 2.57 130 07:31 30.03.2021
888 Clear 10 1026 71 10000 3.6 130 06:29 30.03.2021
889 Clear 11 1026 76 10000 3.6 130 05:25 30.03.2021
890 Clear 16 1027 55 10000 6.69 150 01:44 30.03.2021
891 Clear 17 1027 48 10000 5.14 160 23:53 29.03.2021
892 Clear 18 1027 48 10000 4.12 160 23:21 29.03.2021
893 Clear 18 1027 48 10000 4.12 150 22:37 29.03.2021
894 Clear 19 1026 48 10000 4.12 130 21:55 29.03.2021
895 Clear 18 1026 45 10000 4.63 130 21:33 29.03.2021
896 Clear 19 1026 42 10000 4.63 120 20:51 29.03.2021
897 Clear 20 1026 40 10000 4.63 120 20:29 29.03.2021
898 Clear 22 1026 40 10000 5.14 130 19:53 29.03.2021
899 Clear 23 1026 35 10000 5.66 120 19:27 29.03.2021
900 Clear 23 1026 35 10000 5.66 120 19:27 29.03.2021
901 Clear 23 1026 35 10000 5.66 140 18:54 29.03.2021
902 Clear 24 1026 33 10000 5.14 130 18:30 29.03.2021
903 Clear 24 1026 35 10000 5.14 140 17:58 29.03.2021
904 Clear 24 1026 33 10000 5.66 140 17:35 29.03.2021
905 Clear 24 1027 31 10000 5.14 120 16:53 29.03.2021
906 Clear 24 1027 38 10000 4.63 130 16:27 29.03.2021
907 Clear 24 1027 38 10000 5.14 120 15:41 29.03.2021
908 Clear 23 1027 38 10000 5.14 120 15:22 29.03.2021
909 Clear 22 1028 37 10000 4.63 140 14:48 29.03.2021
910 Clear 21 1028 45 10000 5.14 140 13:58 29.03.2021
911 Clear 20 1028 48 10000 5.14 110 13:37 29.03.2021
912 Clear 19 1028 48 10000 5.14 110 13:18 29.03.2021
913 Clear 18 1029 51 10000 5.14 130 12:48 29.03.2021
914 Clear 16 1029 51 10000 5.66 120 11:46 29.03.2021
915 Clear 15 1029 55 10000 4.63 130 11:28 29.03.2021
916 Clear 13 1029 58 10000 5.66 140 10:46 29.03.2021
917 Clear 13 1029 58 10000 4.63 150 10:23 29.03.2021
918 Clear 10 1028 66 10000 4.12 130 09:32 29.03.2021
919 Clear 8 1028 71 10000 3.09 120 08:43 29.03.2021
920 Clear 8 1028 66 10000 3.6 120 08:25 29.03.2021
921 Clear 8 1028 66 10000 3.6 120 07:20 29.03.2021
922 Clear 8 1028 71 10000 3.09 140 06:25 29.03.2021
923 Clear 9 1029 71 10000 2.57 120 02:58 29.03.2021
924 Clear 11 1029 62 10000 2.06 110 00:45 29.03.2021
925 Clear 12 1029 62 10000 2.06 120 00:18 29.03.2021
926 Clear 12 1029 62 10000 2.06 120 23:25 28.03.2021
927 Clear 12 1029 62 10000 1.03 100 22:48 28.03.2021
928 Clear 13 1029 51 10000 1.54 90 22:30 28.03.2021
929 Clear 14 1028 48 10000 2.06 100 21:48 28.03.2021
930 Clear 15 1028 39 10000 2.06 110 21:26 28.03.2021
931 Clear 17 1028 34 10000 3.09 120 20:58 28.03.2021
932 Clear 19 1028 32 10000 3.09 120 20:40 28.03.2021
933 Clear 19 1028 32 10000 3.09 120 20:40 28.03.2021
934 Clear 19 1028 32 10000 3.09 120 20:19 28.03.2021
935 Clear 20 1028 30 10000 3.09 130 19:42 28.03.2021
936 Clear 21 1027 26 10000 3.6 130 19:21 28.03.2021
937 Clear 21 1028 28 10000 3.6 110 18:51 28.03.2021
938 Clear 21 1028 28 10000 2.57 110 18:24 28.03.2021
939 Clear 21 1028 32 10000 2.57 110 17:42 28.03.2021
940 Clear 21 1028 32 10000 2.57 110 17:22 28.03.2021
941 Clear 22 1028 32 10000 2.06 100 16:43 28.03.2021
942 Clear 22 1028 35 10000 3.09 110 16:22 28.03.2021
943 Clear 20 1029 37 10000 3.6 130 15:25 28.03.2021
944 Clear 20 1029 37 10000 3.6 120 14:50 28.03.2021
945 Clear 18 1030 36 10000 3.6 140 14:27 28.03.2021
946 Clear 18 1030 42 10000 4.63 140 13:38 28.03.2021
947 Clear 17 1030 41 10000 5.14 140 12:59 28.03.2021
948 Clear 16 1031 41 10000 4.63 130 12:37 28.03.2021
949 Clear 16 1031 41 10000 4.63 130 12:19 28.03.2021
950 Clear 14 1031 47 10000 4.12 130 11:39 28.03.2021
951 Clear 14 1031 47 10000 4.12 130 11:39 28.03.2021
952 Clear 12 1030 58 10000 3.09 130 10:56 28.03.2021
953 Clear 10 1030 62 10000 2.57 130 10:37 28.03.2021
954 Clear 10 1030 62 10000 2.57 130 10:18 28.03.2021
955 Clear 8 1030 71 10000 2.06 120 09:43 28.03.2021
956 Clear 6 1030 81 10000 1.54 110 09:23 28.03.2021
957 Clear 4 1029 93 10000 1.03 120 08:38 28.03.2021
958 Clear 4 1029 93 10000 1.03 110 07:44 28.03.2021
959 Clear 4 1029 93 10000 2.12 107 06:22 28.03.2021
960 Clear 5 1029 93 10000 2.1 100 03:51 28.03.2021
961 Clear 6 1029 87 10000 1.03 40 00:48 28.03.2021
962 Clear 7 1029 81 10000 1.03 60 00:19 28.03.2021
963 Clear 9 1029 66 10000 1.03 0 23:37 27.03.2021
964 Clear 9 1029 66 10000 2.57 60 22:50 27.03.2021
965 Clear 7 1029 76 10000 1.54 70 22:31 27.03.2021
966 Clear 9 1029 71 10000 1.54 80 21:46 27.03.2021
967 Clear 9 1029 62 10000 1.54 80 21:21 27.03.2021
968 Clear 10 1029 58 10000 1.54 90 20:59 27.03.2021
969 Clear 11 1028 50 10000 2.06 80 20:37 27.03.2021
970 Clear 12 1028 47 10000 2.57 60 19:59 27.03.2021
971 Clear 13 1028 44 10000 2.57 50 19:40 27.03.2021
972 Clear 14 1028 44 10000 2.57 50 19:22 27.03.2021
973 Clear 14 1028 44 10000 2.06 80 18:47 27.03.2021
974 Clear 16 1028 44 10000 2.57 40 18:22 27.03.2021
975 Clear 15 1028 41 10000 2.57 20 17:37 27.03.2021
976 Clear 16 1028 41 10000 2.57 20 17:18 27.03.2021
977 Clear 16 1029 41 10000 1.54 0 16:46 27.03.2021
978 Clear 16 1029 41 10000 2.57 60 16:25 27.03.2021
979 Clear 16 1029 38 10000 2.06 110 15:45 27.03.2021
980 Clear 15 1029 38 10000 2.06 110 15:18 27.03.2021
981 Clear 15 1030 44 10000 2.06 360 14:39 27.03.2021
982 Clouds 14 1031 44 10000 1.03 0 13:39 27.03.2021
983 Clouds 14 1031 44 10000 1.03 0 13:19 27.03.2021
984 Clouds 14 1031 47 10000 1.54 0 12:43 27.03.2021
985 Clouds 14 1031 54 10000 1.54 0 11:51 27.03.2021
986 Clouds 13 1031 58 10000 1.54 90 11:32 27.03.2021
987 Clear 13 1031 58 10000 1.54 0 10:57 27.03.2021
988 Clouds 12 1031 66 10000 0.59 327 10:38 27.03.2021
989 Clouds 10 1031 76 10000 0.83 337 09:50 27.03.2021
990 Clouds 9 1031 93 10000 0.71 330 09:20 27.03.2021
991 Clear 6 1030 100 10000 1.03 0 08:40 27.03.2021
992 Clear 4 1030 100 10000 2.06 210 07:52 27.03.2021
993 Mist 5 1029 93 2700 0.51 0 06:59 27.03.2021
994 Fog 5 1029 100 3100 0.81 289 06:39 27.03.2021
995 Clouds 6 1029 93 10000 1.03 230 04:42 27.03.2021
996 Clear 7 1028 93 10000 2.06 260 02:26 27.03.2021
997 Fog 8 1027 93 2000 2.57 260 00:34 27.03.2021
998 Clouds 9 1027 93 10000 2.06 270 23:59 26.03.2021
999 Clear 9 1027 93 10000 2.57 300 23:25 26.03.2021
1000 Clouds 10 1026 93 10000 3.09 320 22:39 26.03.2021
1001 Clouds 11 1025 87 10000 5.14 320 21:45 26.03.2021
1002 Mist 11 1025 87 4300 4.12 250 21:23 26.03.2021
1003 Clouds 11 1024 82 10000 4.12 240 20:55 26.03.2021
1004 Clouds 12 1024 76 10000 4.12 270 20:31 26.03.2021
1005 Clouds 13 1023 67 10000 5.14 280 19:52 26.03.2021
1006 Clouds 13 1023 67 10000 5.14 280 19:33 26.03.2021
1007 Clouds 13 1023 62 10000 7.2 290 18:50 26.03.2021
1008 Clouds 13 1023 67 10000 7.72 290 18:30 26.03.2021
1009 Clouds 14 1022 58 10000 7.2 290 17:57 26.03.2021
1010 Clouds 15 1022 51 10000 8.23 300 17:28 26.03.2021
1011 Clouds 16 1021 55 10000 7.2 300 16:36 26.03.2021
1012 Clouds 16 1021 59 10000 6.69 290 15:59 26.03.2021
1013 Clouds 16 1021 59 10000 6.69 290 15:35 26.03.2021
1014 Clouds 16 1021 59 10000 6.17 300 14:44 26.03.2021
1015 Clouds 18 1020 55 10000 5.66 250 13:51 26.03.2021
1016 Clouds 17 1020 51 10000 5.14 250 13:23 26.03.2021
1017 Clear 17 1020 51 10000 3.09 0 12:35 26.03.2021
1018 Clear 16 1021 55 10000 2.06 170 11:48 26.03.2021
1019 Clear 16 1021 59 10000 2.06 180 11:29 26.03.2021
1020 Clear 14 1021 62 10000 2.06 200 10:43 26.03.2021
1021 Clear 13 1021 67 10000 2.06 180 10:19 26.03.2021
1022 Clear 11 1021 76 10000 1.54 180 09:41 26.03.2021
1023 Clear 8 1020 87 10000 1.03 130 08:49 26.03.2021
1024 Clear 8 1020 93 10000 0.51 110 08:29 26.03.2021
1025 Clear 7 1020 93 10000 1.03 160 07:44 26.03.2021
1026 Clear 7 1020 93 10000 1.41 159 07:22 26.03.2021
1027 Clear 7 1020 93 10000 1.41 159 06:55 26.03.2021
1028 Clear 7 1020 87 10000 1.54 147 05:32 26.03.2021
1029 Clear 7 1020 93 10000 1.73 141 04:18 26.03.2021
1030 Clear 8 1022 76 10000 0.51 0 00:52 26.03.2021
1031 Clear 9 1023 71 10000 1.54 60 23:51 25.03.2021
1032 Clear 10 1023 71 10000 1.54 50 23:33 25.03.2021
1033 Clear 10 1023 62 10000 2.06 50 22:40 25.03.2021
1034 Clear 11 1023 62 10000 2.06 50 22:18 25.03.2021
1035 Clouds 11 1023 66 10000 2.06 40 21:45 25.03.2021
1036 Clouds 11 1023 71 10000 2.57 50 21:24 25.03.2021
1037 Clouds 12 1023 67 10000 3.6 30 20:38 25.03.2021
1038 Clouds 13 1023 67 10000 3.6 30 20:18 25.03.2021
1039 Clear 14 1023 67 10000 2.57 10 19:40 25.03.2021
1040 Clear 14 1023 67 10000 2.57 10 19:21 25.03.2021
1041 Clouds 15 1023 58 10000 1.03 0 18:43 25.03.2021
1042 Clouds 17 1023 55 10000 1.54 360 18:25 25.03.2021
1043 Clouds 17 1023 55 10000 1.54 40 17:38 25.03.2021
1044 Clouds 17 1023 51 10000 1.54 0 16:59 25.03.2021
1045 Clear 17 1024 55 10000 1.03 0 16:36 25.03.2021
1046 Clear 17 1024 55 10000 2.06 240 15:52 25.03.2021
1047 Clouds 17 1024 59 10000 2.06 230 15:27 25.03.2021
1048 Clear 17 1025 59 10000 1.03 0 14:59 25.03.2021
1049 Clouds 16 1025 63 10000 1.54 0 14:40 25.03.2021
1050 Clouds 15 1026 82 10000 2.57 270 13:38 25.03.2021
1051 Clouds 14 1026 82 10000 2.57 270 13:19 25.03.2021
1052 Clouds 14 1026 76 10000 2.06 280 12:37 25.03.2021
1053 Clouds 14 1026 76 10000 2.06 280 12:18 25.03.2021
1054 Clouds 14 1026 71 10000 0.51 0 11:44 25.03.2021
1055 Clouds 13 1026 82 10000 1.54 0 11:26 25.03.2021
1056 Drizzle 13 1027 82 10000 1.54 0 10:49 25.03.2021
1057 Clouds 12 1027 87 10000 1.54 290 10:22 25.03.2021
1058 Clouds 12 1026 93 9000 1.54 260 09:53 25.03.2021
1059 Clouds 11 1026 87 9000 1.54 260 09:35 25.03.2021
1060 Clouds 11 1026 87 9000 1.54 260 09:35 25.03.2021
1061 Clouds 9 1026 93 10000 1.54 230 08:37 25.03.2021
1062 Clouds 9 1026 93 10000 1.54 240 07:51 25.03.2021
1063 Clear 7 1025 93 10000 2.06 220 06:57 25.03.2021
1064 Clear 7 1025 93 10000 1.03 190 06:24 25.03.2021
1065 Clouds 8 1025 93 10000 1.54 190 05:46 25.03.2021
1066 Clouds 7 1026 100 8000 1.54 250 02:28 25.03.2021
1067 Clouds 7 1026 93 10000 1.54 240 00:21 25.03.2021
1068 Clouds 8 1026 93 10000 1.54 240 23:48 24.03.2021
1069 Clear 7 1026 87 10000 1.54 250 23:23 24.03.2021
1070 Clouds 8 1026 93 10000 1.54 240 22:41 24.03.2021
1071 Clear 8 1026 93 10000 1.54 250 22:19 24.03.2021
1072 Clear 9 1026 87 10000 1.54 260 21:41 24.03.2021
1073 Clouds 10 1026 81 10000 1.54 290 21:20 24.03.2021
1074 Clouds 10 1026 81 10000 3.09 310 20:41 24.03.2021
1075 Clear 11 1025 82 10000 4.12 300 20:19 24.03.2021
1076 Clear 13 1024 67 10000 5.14 300 19:34 24.03.2021
1077 Clear 15 1024 55 10000 5.14 300 18:57 24.03.2021
1078 Clear 17 1024 48 10000 4.63 290 18:39 24.03.2021
1079 Clear 17 1024 48 10000 4.63 290 18:19 24.03.2021
1080 Clear 17 1024 48 10000 4.63 290 18:19 24.03.2021
1081 Clear 18 1024 42 10000 4.63 290 17:40 24.03.2021
1082 Clear 18 1024 42 10000 4.63 290 17:22 24.03.2021
1083 Clear 18 1024 42 10000 5.14 300 16:41 24.03.2021
1084 Clear 19 1024 39 10000 4.12 280 16:22 24.03.2021
1085 Clear 20 1024 37 10000 4.12 280 15:43 24.03.2021
1086 Clear 20 1024 32 10000 4.63 240 15:23 24.03.2021
1087 Clear 20 1024 34 10000 4.12 0 14:42 24.03.2021
1088 Clear 20 1024 34 10000 3.09 280 14:23 24.03.2021
1089 Clear 19 1025 32 10000 3.6 300 13:45 24.03.2021
1090 Clear 18 1025 42 10000 2.57 0 13:24 24.03.2021
1091 Clear 17 1025 42 10000 1.54 270 12:41 24.03.2021
1092 Clear 16 1026 44 10000 2.57 250 12:20 24.03.2021
1093 Clear 16 1026 44 10000 2.57 250 11:41 24.03.2021
1094 Clear 14 1026 54 10000 2.57 250 10:53 24.03.2021
1095 Clear 12 1025 66 10000 3.6 250 10:32 24.03.2021
1096 Clear 11 1025 71 10000 1.54 230 09:58 24.03.2021
1097 Clear 10 1025 81 10000 0.51 0 09:36 24.03.2021
1098 Clear 9 1025 81 10000 0.51 0 09:18 24.03.2021
1099 Clear 7 1025 93 10000 1.03 170 08:43 24.03.2021
1100 Clear 3 1024 93 10000 1.54 160 07:50 24.03.2021
1101 Clear 3 1024 93 10000 0.51 160 07:25 24.03.2021
1102 Clear 2 1024 100 10000 1.03 140 06:46 24.03.2021
1103 Clear 5 1024 87 10000 1.54 270 02:41 24.03.2021
1104 Clear 7 1024 87 10000 0.33 249 00:42 24.03.2021
1105 Clear 7 1024 87 10000 1.54 330 23:52 23.03.2021
1106 Clear 8 1024 87 10000 1.03 310 23:20 23.03.2021
1107 Clear 8 1024 81 10000 0.28 9 22:50 23.03.2021
1108 Clear 8 1024 81 10000 0.66 51 22:25 23.03.2021
1109 Clear 8 1024 76 10000 0.51 330 21:45 23.03.2021
1110 Clear 9 1024 71 10000 1.03 300 21:27 23.03.2021
1111 Clear 10 1024 71 10000 1.54 0 20:46 23.03.2021
1112 Clear 11 1023 66 10000 1.54 0 20:25 23.03.2021
1113 Clear 12 1023 62 10000 2.06 330 19:48 23.03.2021
1114 Clear 14 1023 54 10000 3.6 330 19:26 23.03.2021
1115 Clear 15 1023 51 10000 4.12 310 18:46 23.03.2021
1116 Clear 17 1023 48 10000 5.14 300 18:22 23.03.2021
1117 Clear 18 1023 39 10000 4.63 320 17:48 23.03.2021
1118 Clear 18 1023 31 10000 3.09 50 17:23 23.03.2021
1119 Clear 18 1023 25 10000 2.06 40 16:42 23.03.2021
1120 Clear 18 1023 25 10000 2.06 40 16:24 23.03.2021
1121 Clear 18 1023 24 10000 1.54 0 15:46 23.03.2021
1122 Clear 18 1024 25 10000 1.03 0 14:57 23.03.2021
1123 Clear 17 1024 29 10000 1.03 0 14:37 23.03.2021
1124 Clear 16 1024 29 10000 1.03 0 14:18 23.03.2021
1125 Clear 16 1024 33 10000 2.06 330 13:41 23.03.2021
1126 Clear 14 1024 41 10000 1.54 80 13:20 23.03.2021
1127 Clear 12 1025 54 10000 1.54 70 12:43 23.03.2021
1128 Clear 13 1025 54 10000 1.54 70 12:20 23.03.2021
1129 Clear 12 1025 50 10000 2.06 40 11:45 23.03.2021
1130 Clear 10 1025 57 10000 1.54 70 10:45 23.03.2021
1131 Clear 9 1025 61 10000 1.54 30 10:26 23.03.2021
1132 Clear 8 1025 70 10000 2.06 60 09:58 23.03.2021
1133 Clear 7 1025 81 10000 1.54 40 09:39 23.03.2021
1134 Clear 6 1025 81 10000 1.54 40 09:19 23.03.2021
1135 Clear 4 1024 87 10000 1.03 0 08:40 23.03.2021
1136 Fog 2 1024 93 8000 1.03 0 08:22 23.03.2021
1137 Fog 1 1024 93 10000 1.54 50 07:28 23.03.2021
1138 Clear 1 1024 93 9000 0.51 0 06:59 23.03.2021
1139 Clear 1 1024 93 10000 2.01 39 06:26 23.03.2021
1140 Clear 4 1024 87 10000 1.54 40 03:22 23.03.2021
1141 Clear 4 1024 87 10000 2.15 45 02:18 23.03.2021
1142 Clear 5 1025 75 10000 2.55 36 23:43 22.03.2021
1143 Clear 6 1025 75 10000 1.54 20 22:54 22.03.2021
1144 Clear 6 1025 70 10000 1.03 0 22:36 22.03.2021
1145 Clear 7 1025 70 10000 1.03 0 22:18 22.03.2021
1146 Clear 8 1024 71 10000 2.57 350 21:40 22.03.2021
1147 Clear 8 1024 71 10000 2.57 350 21:21 22.03.2021
1148 Clear 10 1024 54 10000 3.09 360 20:41 22.03.2021
1149 Clear 11 1024 54 10000 3.09 360 20:21 22.03.2021
1150 Clear 11 1024 54 10000 2.57 360 19:52 22.03.2021
1151 Clear 12 1024 50 10000 3.6 10 19:30 22.03.2021
1152 Clear 12 1024 50 10000 3.6 10 19:30 22.03.2021
1153 Clear 13 1024 47 10000 3.6 20 18:47 22.03.2021
1154 Clear 14 1023 44 10000 3.6 20 18:28 22.03.2021
1155 Clear 14 1023 44 10000 3.6 20 17:57 22.03.2021
1156 Clear 15 1023 44 10000 4.63 20 17:37 22.03.2021
1157 Clear 15 1023 44 10000 4.63 20 17:18 22.03.2021
1158 Clear 15 1023 44 10000 4.12 30 16:43 22.03.2021
1159 Clear 15 1024 44 10000 4.12 10 15:59 22.03.2021
1160 Clear 14 1024 47 10000 3.09 40 15:37 22.03.2021
1161 Clear 15 1024 47 10000 3.09 40 15:18 22.03.2021
1162 Clear 15 1024 51 10000 3.6 10 14:50 22.03.2021
1163 Clouds 14 1024 47 10000 4.63 10 14:29 22.03.2021
1164 Clear 14 1025 50 10000 4.63 40 13:43 22.03.2021
1165 Clear 13 1025 50 10000 4.63 40 13:22 22.03.2021
1166 Clouds 13 1025 58 10000 6.17 30 12:47 22.03.2021
1167 Clouds 13 1025 58 10000 6.17 30 12:23 22.03.2021
1168 Clear 12 1025 66 10000 2.57 30 11:47 22.03.2021
1169 Clear 11 1025 66 10000 2.57 30 11:25 22.03.2021
1170 Clear 9 1026 76 10000 2.06 60 10:44 22.03.2021
1171 Clear 9 1026 76 10000 2.06 60 10:24 22.03.2021
1172 Clouds 8 1025 87 8000 2.57 30 09:43 22.03.2021
1173 Clouds 7 1025 87 8000 2.57 30 09:22 22.03.2021
1174 Fog 5 1025 100 650 1.03 0 08:44 22.03.2021
1175 Fog 4 1025 100 650 1.03 0 08:24 22.03.2021
1176 Fog 4 1025 100 500 1.03 310 07:45 22.03.2021
1177 Fog 3 1025 93 4200 1.03 320 06:57 22.03.2021
1178 Fog 4 1025 100 4000 1.54 330 06:35 22.03.2021
1179 Clear 7 1025 87 10000 2.57 10 02:33 22.03.2021
1180 Clear 8 1026 81 10000 3.6 10 00:33 22.03.2021
1181 Clear 8 1026 81 10000 3.6 10 23:54 21.03.2021
1182 Clear 8 1026 81 10000 3.6 10 23:19 21.03.2021
1183 Clear 8 1026 81 10000 3.6 350 22:56 21.03.2021
1184 Clear 8 1026 81 10000 3.09 360 21:59 21.03.2021
1185 Clouds 8 1026 81 10000 4.12 340 21:40 21.03.2021
1186 Clouds 8 1026 81 10000 4.12 340 21:22 21.03.2021
1187 Clouds 9 1026 76 10000 3.6 340 20:43 21.03.2021
1188 Clouds 9 1026 76 10000 3.6 340 20:43 21.03.2021
1189 Clear 9 1025 76 10000 3.09 340 20:24 21.03.2021
1190 Clouds 9 1025 71 10000 3.6 340 19:52 21.03.2021
1191 Clouds 10 1025 66 10000 3.09 350 19:21 21.03.2021
1192 Clouds 10 1025 66 10000 5.14 360 18:47 21.03.2021
1193 Clouds 10 1025 62 10000 5.14 10 18:27 21.03.2021
1194 Clouds 10 1025 62 10000 5.14 20 17:46 21.03.2021
1195 Clouds 10 1025 62 10000 5.14 30 17:20 21.03.2021
1196 Clouds 10 1025 62 10000 6.69 20 16:57 21.03.2021
1197 Clouds 11 1025 58 10000 7.2 10 16:32 21.03.2021
1198 Clouds 12 1025 54 10000 8.23 10 15:58 21.03.2021
1199 Clouds 12 1025 54 10000 8.23 10 15:58 21.03.2021
1200 Clouds 13 1025 44 10000 6.69 10 15:38 21.03.2021
1201 Clouds 13 1025 44 10000 6.69 10 15:19 21.03.2021
1202 Clouds 13 1025 44 10000 6.69 10 15:19 21.03.2021
1203 Clouds 13 1026 47 10000 6.17 10 14:42 21.03.2021
1204 Clouds 14 1026 44 10000 5.14 360 14:24 21.03.2021
1205 Clear 13 1026 44 10000 5.66 10 13:52 21.03.2021
1206 Clear 12 1027 47 10000 7.2 30 12:46 21.03.2021
1207 Clear 11 1027 50 10000 5.66 30 12:27 21.03.2021
1208 Clear 11 1027 50 10000 5.66 30 12:27 21.03.2021
1209 Clear 11 1028 50 10000 5.14 10 11:53 21.03.2021
1210 Clear 10 1027 53 10000 4.12 360 11:28 21.03.2021
1211 Clear 9 1028 57 10000 2.57 30 10:55 21.03.2021
1212 Clear 9 1028 61 10000 1.54 0 10:35 21.03.2021
1213 Clear 7 1028 65 10000 2.06 40 09:58 21.03.2021
1214 Clear 7 1028 65 10000 2.06 40 09:58 21.03.2021
1215 Clear 6 1028 70 10000 2.57 30 09:38 21.03.2021
1216 Clear 5 1028 70 10000 2.57 30 09:19 21.03.2021
1217 Clear 4 1027 81 10000 1.03 0 08:39 21.03.2021
1218 Clear 3 1027 81 10000 1.03 0 08:20 21.03.2021
1219 Clear 1 1027 86 10000 1.03 0 07:37 21.03.2021
1220 Clear 2 1027 80 10000 2.25 352 06:50 21.03.2021
1221 Clear 1 1027 80 10000 1.54 300 04:59 21.03.2021
1222 Clear 3 1027 70 10000 2.57 360 01:54 21.03.2021
1223 Clear 3 1027 70 10000 2.57 350 00:40 21.03.2021
1224 Clear 4 1027 70 10000 2.57 350 00:21 21.03.2021
1225 Clear 5 1027 65 10000 2.06 320 23:47 20.03.2021
1226 Clear 5 1027 60 10000 2.06 300 23:20 20.03.2021
1227 Clear 7 1028 53 10000 2.06 330 22:54 20.03.2021
1228 Clear 7 1027 57 10000 3.09 20 22:21 20.03.2021
1229 Clear 8 1027 53 10000 3.09 20 21:45 20.03.2021
1230 Clear 8 1027 53 10000 3.6 20 21:24 20.03.2021
1231 Clear 8 1027 49 10000 2.57 360 20:45 20.03.2021
1232 Clear 9 1026 46 10000 3.6 20 20:22 20.03.2021
1233 Clear 9 1026 46 10000 4.12 30 19:48 20.03.2021
1234 Clear 10 1026 43 10000 6.17 40 19:26 20.03.2021
1235 Clear 11 1025 40 10000 7.2 30 18:49 20.03.2021
1236 Clear 11 1025 40 10000 6.69 40 18:26 20.03.2021
1237 Clear 12 1025 37 10000 8.23 40 17:54 20.03.2021
1238 Clear 12 1025 40 10000 8.23 40 17:32 20.03.2021
1239 Clear 12 1025 37 10000 8.75 40 16:46 20.03.2021
1240 Clear 12 1025 37 10000 8.75 50 16:21 20.03.2021
1241 Clear 12 1025 35 10000 8.23 40 15:59 20.03.2021
1242 Clear 12 1026 37 10000 8.23 40 15:39 20.03.2021
1243 Clear 12 1026 37 10000 7.2 40 14:46 20.03.2021
1244 Clear 12 1026 37 10000 7.72 50 14:28 20.03.2021
1245 Clear 11 1026 37 10000 7.72 50 13:40 20.03.2021
1246 Clear 10 1027 37 10000 9.26 50 12:52 20.03.2021
1247 Clear 10 1027 37 10000 7.2 50 12:26 20.03.2021
1248 Clear 9 1027 37 10000 7.72 60 11:47 20.03.2021
1249 Clear 8 1027 42 10000 7.72 60 11:29 20.03.2021
1250 Clear 8 1027 49 10000 6.69 50 10:55 20.03.2021
1251 Clear 7 1027 52 10000 6.69 50 10:32 20.03.2021
1252 Clear 6 1027 60 10000 6.69 50 09:58 20.03.2021
1253 Clear 5 1027 60 10000 6.69 40 09:27 20.03.2021
1254 Clear 4 1026 70 10000 5.66 40 08:57 20.03.2021
1255 Clear 3 1026 65 10000 5.66 30 08:30 20.03.2021
1256 Clear 2 1026 69 10000 4.63 40 07:53 20.03.2021
1257 Clear 2 1025 69 10000 4.63 30 07:32 20.03.2021
1258 Clear 2 1025 69 10000 4.12 40 06:52 20.03.2021
1259 Clear 2 1025 69 10000 5.14 30 06:19 20.03.2021
1260 Clear 3 1024 70 10000 5.66 30 03:59 20.03.2021
1261 Clear 3 1024 70 10000 5.66 30 03:41 20.03.2021
1262 Clear 6 1023 61 10000 6.17 50 00:18 20.03.2021
1263 Clear 6 1022 61 10000 5.66 50 23:31 19.03.2021
1264 Clear 7 1022 61 10000 6.69 50 22:49 19.03.2021
1265 Clear 7 1022 61 10000 6.69 50 22:28 19.03.2021
1266 Clear 7 1021 65 10000 6.69 50 21:56 19.03.2021
1267 Clear 7 1021 65 10000 5.66 50 21:22 19.03.2021
1268 Clear 8 1020 61 10000 5.14 50 20:59 19.03.2021
1269 Clear 8 1020 57 10000 7.72 50 20:39 19.03.2021
1270 Clear 8 1020 57 10000 7.72 50 20:21 19.03.2021
1271 Clouds 8 1020 57 10000 7.72 50 19:45 19.03.2021
1272 Clouds 9 1019 57 10000 7.72 50 19:20 19.03.2021
1273 Clouds 9 1019 57 10000 7.72 50 19:20 19.03.2021
1274 Clouds 9 1018 57 10000 8.75 50 18:40 19.03.2021
1275 Clouds 9 1018 57 10000 8.75 50 18:19 19.03.2021
1276 Clouds 10 1018 53 10000 8.75 50 17:52 19.03.2021
1277 Clouds 10 1018 53 10000 9.26 50 17:28 19.03.2021
1278 Clouds 11 1018 53 10000 8.23 50 16:52 19.03.2021
1279 Clouds 10 1017 50 10000 7.72 40 16:27 19.03.2021
1280 Clouds 10 1017 50 10000 9.26 60 15:47 19.03.2021
1281 Clouds 10 1017 50 10000 7.72 50 15:22 19.03.2021
1282 Clouds 11 1017 50 10000 8.75 40 14:46 19.03.2021
1283 Clouds 11 1017 50 10000 9.26 70 14:26 19.03.2021
1284 Clouds 11 1017 66 10000 7.2 50 13:40 19.03.2021
1285 Clouds 9 1017 66 10000 8.75 50 12:51 19.03.2021
1286 Clouds 9 1017 76 10000 8.23 60 12:33 19.03.2021
1287 Clouds 9 1017 71 10000 8.75 60 11:42 19.03.2021
1288 Clouds 8 1017 81 10000 6.17 40 10:54 19.03.2021
1289 Clouds 8 1017 87 10000 5.66 40 10:30 19.03.2021
1290 Clouds 7 1017 87 10000 5.14 40 09:49 19.03.2021
1291 Clouds 7 1017 87 10000 5.14 20 09:30 19.03.2021
1292 Drizzle 6 1017 93 9000 4.63 20 08:55 19.03.2021
1293 Drizzle 6 1017 93 4300 3.6 20 08:37 19.03.2021
1294 Mist 6 1018 93 5000 3.6 360 07:58 19.03.2021
1295 Clouds 6 1018 93 10000 3.09 350 07:36 19.03.2021
1296 Drizzle 6 1018 93 10000 2.57 350 06:51 19.03.2021
1297 Clear 7 1021 76 10000 1.54 300 02:45 19.03.2021
1298 Clear 7 1022 76 10000 2.06 340 00:58 19.03.2021
1299 Clear 7 1024 70 10000 1.54 320 23:30 18.03.2021
1300 Clear 7 1024 70 10000 1.54 320 23:30 18.03.2021
1301 Clear 8 1024 61 10000 1.54 330 22:58 18.03.2021
1302 Clear 8 1024 61 10000 2.06 330 22:39 18.03.2021
1303 Clear 8 1024 61 10000 2.06 330 22:19 18.03.2021
1304 Clear 8 1024 61 10000 2.57 20 21:39 18.03.2021
1305 Clear 8 1024 61 10000 3.09 10 20:47 18.03.2021
1306 Clear 8 1024 61 10000 3.6 20 20:27 18.03.2021
1307 Clear 8 1024 61 10000 4.63 20 19:45 18.03.2021
1308 Clear 9 1024 53 10000 4.63 20 19:27 18.03.2021
1309 Clear 9 1024 53 10000 5.14 20 18:58 18.03.2021
1310 Clouds 9 1024 53 10000 6.17 20 18:33 18.03.2021
1311 Clouds 10 1024 53 10000 6.17 20 17:50 18.03.2021
1312 Clouds 10 1024 50 10000 6.69 20 17:25 18.03.2021
1313 Clouds 11 1024 53 10000 6.17 30 16:48 18.03.2021
1314 Clouds 10 1025 53 10000 5.14 20 16:29 18.03.2021
1315 Clouds 11 1025 57 10000 6.17 30 15:47 18.03.2021
1316 Clouds 11 1025 53 10000 4.63 30 15:26 18.03.2021
1317 Clouds 10 1026 57 10000 5.14 10 14:55 18.03.2021
1318 Clouds 11 1026 57 10000 5.14 30 14:32 18.03.2021
1319 Clouds 10 1026 53 10000 5.14 30 13:53 18.03.2021
1320 Clouds 10 1027 53 10000 6.17 40 13:26 18.03.2021
1321 Clouds 10 1027 57 10000 5.14 40 12:44 18.03.2021
1322 Clouds 10 1027 62 10000 5.14 20 12:26 18.03.2021
1323 Clouds 10 1027 57 10000 3.6 30 11:53 18.03.2021
1324 Clouds 10 1028 66 10000 3.09 40 11:32 18.03.2021
1325 Clouds 9 1028 71 10000 3.6 50 10:46 18.03.2021
1326 Clear 8 1028 71 10000 3.6 70 10:27 18.03.2021
1327 Clouds 7 1028 81 10000 4.12 50 09:54 18.03.2021
1328 Clear 6 1028 81 10000 4.12 50 09:29 18.03.2021
1329 Clear 5 1028 87 10000 3.6 40 08:50 18.03.2021
1330 Clear 5 1028 87 10000 4.12 30 08:31 18.03.2021
1331 Clear 4 1028 87 10000 3.6 40 07:53 18.03.2021
1332 Clouds 4 1028 87 10000 3.09 40 07:25 18.03.2021
1333 Clear 5 1028 81 10000 3.09 40 06:30 18.03.2021
1334 Clear 5 1028 81 10000 2.57 30 05:55 18.03.2021
1335 Clear 8 1028 71 10000 3.6 40 02:35 18.03.2021
1336 Clear 8 1028 71 10000 3.6 40 02:35 18.03.2021
1337 Clear 8 1028 71 10000 1.54 10 23:59 17.03.2021
1338 Clear 9 1029 66 10000 3.09 330 22:56 17.03.2021
1339 Clear 9 1029 71 10000 2.06 330 22:36 17.03.2021
1340 Clear 9 1029 71 10000 2.06 330 22:36 17.03.2021
1341 Clear 9 1029 71 10000 2.06 330 22:18 17.03.2021
1342 Clear 10 1029 66 10000 2.06 330 21:42 17.03.2021
1343 Clear 10 1029 62 10000 2.06 20 21:23 17.03.2021
1344 Clear 11 1029 58 10000 3.09 20 20:45 17.03.2021
1345 Clear 11 1029 58 10000 3.09 10 20:25 17.03.2021
1346 Clear 12 1029 50 10000 4.12 50 19:46 17.03.2021
1347 Clear 12 1029 50 10000 4.12 50 19:25 17.03.2021
1348 Clouds 12 1029 54 10000 4.63 20 18:57 17.03.2021
1349 Clouds 12 1029 54 10000 6.17 20 18:38 17.03.2021
1350 Clouds 13 1029 50 10000 6.17 20 17:56 17.03.2021
1351 Clouds 13 1029 50 10000 6.17 20 17:27 17.03.2021
1352 Clouds 14 1029 47 10000 7.2 20 16:54 17.03.2021
1353 Clear 14 1029 44 10000 5.66 20 16:36 17.03.2021
1354 Clear 14 1029 44 10000 5.66 20 16:18 17.03.2021
1355 Clear 14 1029 47 10000 6.17 10 15:37 17.03.2021
1356 Clear 15 1029 47 10000 7.2 20 14:45 17.03.2021
1357 Clouds 14 1030 44 10000 6.69 30 14:27 17.03.2021
1358 Clear 14 1030 44 10000 6.69 30 13:56 17.03.2021
1359 Clear 13 1030 47 10000 5.14 20 13:32 17.03.2021
1360 Clear 13 1030 44 10000 6.17 20 12:58 17.03.2021
1361 Clear 13 1030 47 10000 7.2 50 12:34 17.03.2021
1362 Clear 12 1031 50 10000 6.69 30 11:53 17.03.2021
1363 Clear 12 1031 54 10000 6.69 20 11:24 17.03.2021
1364 Clear 12 1031 58 10000 6.17 30 10:57 17.03.2021
1365 Clouds 11 1031 62 10000 8.23 30 10:34 17.03.2021
1366 Clear 11 1031 58 10000 8.23 30 09:50 17.03.2021
1367 Clear 11 1031 71 10000 6.17 10 09:32 17.03.2021
1368 Clear 10 1031 81 10000 4.12 10 09:00 17.03.2021
1369 Clear 10 1031 93 10000 3.6 10 08:39 17.03.2021
1370 Clouds 9 1031 93 10000 3.6 360 07:55 17.03.2021
1371 Clear 9 1030 93 10000 3.09 350 07:35 17.03.2021
1372 Clear 10 1030 87 10000 3.09 350 06:47 17.03.2021
1373 Clouds 11 1030 87 10000 2.57 350 04:27 17.03.2021
1374 Clouds 11 1030 93 10000 2.57 330 03:25 17.03.2021
1375 Clouds 11 1031 87 10000 4.12 320 00:41 17.03.2021
1376 Clouds 11 1031 93 10000 3.6 300 23:40 16.03.2021
1377 Clouds 11 1031 93 10000 3.6 300 23:18 16.03.2021
1378 Clear 11 1031 93 10000 3.6 310 22:43 16.03.2021
1379 Clear 11 1031 87 10000 5.14 310 22:24 16.03.2021
1380 Clear 11 1031 93 10000 5.14 310 21:40 16.03.2021
1381 Clear 11 1031 93 10000 5.14 310 21:21 16.03.2021
1382 Clear 11 1031 82 10000 4.12 300 20:46 16.03.2021
1383 Clear 11 1031 82 10000 4.12 300 20:19 16.03.2021
1384 Clouds 12 1031 76 10000 5.66 320 19:43 16.03.2021
1385 Clouds 12 1031 76 10000 5.66 320 19:24 16.03.2021
1386 Clouds 14 1030 67 10000 5.66 310 18:50 16.03.2021
1387 Clouds 14 1031 67 10000 4.63 340 18:29 16.03.2021
1388 Clouds 14 1030 67 10000 5.14 320 17:51 16.03.2021
1389 Clouds 15 1031 63 10000 5.14 330 17:33 16.03.2021
1390 Clouds 15 1030 67 10000 5.66 320 16:54 16.03.2021
1391 Clouds 15 1030 67 10000 5.66 320 16:54 16.03.2021
1392 Clouds 15 1030 58 10000 5.14 340 16:31 16.03.2021
1393 Clouds 15 1031 58 10000 5.14 360 15:57 16.03.2021
1394 Clouds 16 1031 51 10000 5.14 320 15:37 16.03.2021
1395 Clouds 16 1031 51 10000 5.14 320 15:37 16.03.2021
1396 Clouds 16 1031 51 10000 5.14 320 15:18 16.03.2021
1397 Clouds 15 1031 58 10000 3.6 20 14:41 16.03.2021
1398 Clouds 16 1031 58 10000 3.6 20 14:22 16.03.2021
1399 Clouds 15 1031 67 10000 5.66 360 13:57 16.03.2021
1400 Clouds 15 1031 58 10000 3.09 340 13:29 16.03.2021
1401 Clouds 14 1031 62 10000 4.12 360 12:56 16.03.2021
1402 Clouds 14 1031 67 10000 3.6 10 12:36 16.03.2021
1403 Clouds 13 1032 71 10000 4.63 350 11:56 16.03.2021
1404 Clouds 13 1031 76 10000 2.57 10 11:32 16.03.2021
1405 Clouds 12 1032 76 10000 2.57 360 10:46 16.03.2021
1406 Clouds 11 1032 76 10000 1.03 0 10:21 16.03.2021
1407 Clouds 10 1031 93 10000 1.03 0 09:40 16.03.2021
1408 Clouds 9 1031 93 10000 1.03 0 09:20 16.03.2021
1409 Clouds 8 1031 93 10000 0.51 0 08:53 16.03.2021
1410 Clouds 7 1031 100 10000 1.03 290 08:35 16.03.2021
1411 Clouds 6 1030 100 10000 1.54 290 07:51 16.03.2021
1412 Clouds 6 1030 100 10000 1.54 290 07:24 16.03.2021
1413 Fog 7 1030 93 10000 1.54 360 06:37 16.03.2021
1414 Clear 8 1029 93 10000 2.06 350 05:36 16.03.2021
1415 Clear 9 1030 93 10000 2.06 300 02:46 16.03.2021
1416 Clouds 9 1030 93 10000 2.06 300 02:25 16.03.2021
1417 Clear 10 1030 87 10000 3.09 300 00:25 16.03.2021
1418 Clear 10 1029 81 10000 3.09 300 23:37 15.03.2021
1419 Clear 10 1029 81 10000 3.09 300 23:18 15.03.2021
1420 Clear 10 1029 81 10000 3.09 310 22:42 15.03.2021
1421 Clear 10 1029 81 10000 3.09 310 22:23 15.03.2021
1422 Clear 10 1029 81 10000 3.09 310 21:47 15.03.2021
1423 Clear 10 1029 76 10000 2.57 320 21:27 15.03.2021
1424 Clear 10 1028 76 10000 3.09 330 20:47 15.03.2021
1425 Clear 10 1028 76 10000 4.12 320 20:28 15.03.2021
1426 Clear 11 1028 71 10000 4.63 320 19:57 15.03.2021
1427 Clear 11 1028 71 10000 4.63 320 19:39 15.03.2021
1428 Clear 11 1028 71 10000 4.63 320 19:21 15.03.2021
1429 Clouds 12 1027 66 10000 7.2 340 18:41 15.03.2021
1430 Clouds 12 1027 66 10000 7.2 340 18:22 15.03.2021
1431 Clouds 12 1027 66 10000 6.69 330 17:49 15.03.2021
1432 Clouds 13 1027 58 10000 8.23 340 17:22 15.03.2021
1433 Clouds 13 1026 62 10000 7.2 330 16:44 15.03.2021
1434 Clouds 12 1027 82 10000 7.72 330 15:56 15.03.2021
1435 Clouds 13 1027 76 10000 6.69 340 15:29 15.03.2021
1436 Clouds 13 1027 71 10000 7.72 310 14:56 15.03.2021
1437 Clouds 13 1027 71 10000 7.2 310 14:38 15.03.2021
1438 Clouds 13 1027 76 10000 8.23 310 14:19 15.03.2021
1439 Clouds 13 1027 76 10000 8.23 310 13:44 15.03.2021
1440 Clouds 13 1027 71 10000 7.72 320 13:23 15.03.2021
1441 Clouds 12 1027 76 10000 7.2 310 12:46 15.03.2021
1442 Clouds 12 1027 71 10000 6.17 310 12:18 15.03.2021
1443 Clouds 12 1027 82 10000 4.12 310 11:45 15.03.2021
1444 Clouds 11 1028 87 10000 4.12 280 11:26 15.03.2021
1445 Clouds 11 1028 87 10000 4.12 290 10:43 15.03.2021
1446 Clouds 10 1028 93 10000 4.12 280 10:24 15.03.2021
1447 Clear 10 1028 87 10000 3.6 280 09:44 15.03.2021
1448 Clear 9 1027 93 10000 2.57 270 09:22 15.03.2021
1449 Clouds 8 1027 93 10000 2.57 260 08:45 15.03.2021
1450 Clouds 8 1027 93 10000 3.09 240 08:25 15.03.2021
1451 Clouds 8 1027 93 10000 2.06 240 07:42 15.03.2021
1452 Clouds 8 1027 93 10000 3.09 260 07:22 15.03.2021
1453 Clouds 7 1027 93 10000 2.57 260 05:42 15.03.2021
1454 Clouds 7 1028 93 10000 3.09 270 03:21 15.03.2021
1455 Clouds 6 1028 93 10000 3.09 250 00:49 15.03.2021
1456 Clouds 6 1028 87 10000 2.57 260 23:24 14.03.2021
1457 Clouds 6 1028 87 10000 2.57 260 22:57 14.03.2021
1458 Clouds 7 1028 87 10000 2.06 290 22:37 14.03.2021
1459 Clouds 7 1028 87 10000 2.06 290 22:18 14.03.2021
1460 Clouds 7 1028 87 10000 2.06 290 22:18 14.03.2021
1461 Clouds 7 1028 87 10000 2.57 280 21:38 14.03.2021
1462 Clouds 7 1028 87 10000 2.57 280 21:18 14.03.2021
1463 Clouds 8 1028 76 10000 1.54 290 20:41 14.03.2021
1464 Clouds 8 1028 76 10000 1.54 290 20:23 14.03.2021
1465 Clear 9 1027 81 10000 2.57 300 19:42 14.03.2021
1466 Clouds 10 1027 76 10000 3.6 330 19:19 14.03.2021
1467 Clouds 11 1027 62 10000 6.17 340 18:37 14.03.2021
1468 Clouds 11 1027 62 10000 6.69 330 17:56 14.03.2021
1469 Clouds 12 1026 58 10000 6.69 310 17:37 14.03.2021
1470 Clouds 12 1026 58 10000 6.69 310 17:19 14.03.2021
1471 Clouds 13 1026 47 10000 7.2 320 16:40 14.03.2021
1472 Clouds 13 1026 47 10000 7.2 320 16:21 14.03.2021
1473 Clouds 13 1026 50 10000 6.69 340 15:47 14.03.2021
1474 -273 0 0 0 0 0 14:57 14.03.2021
1475 -273 0 0 0 0 0 14:57 14.03.2021
1476 Clouds 13 1026 54 10000 6.69 310 14:31 14.03.2021
1477 Clouds 13 1026 54 10000 7.72 330 13:55 14.03.2021
1478 Clouds 12 1026 54 10000 6.17 330 13:36 14.03.2021
1479 Clouds 12 1026 62 10000 5.66 320 12:58 14.03.2021
1480 Clouds 11 1026 66 10000 5.66 330 12:40 14.03.2021
1481 Clouds 12 1026 66 10000 5.66 330 12:22 14.03.2021
1482 Clouds 10 1026 81 10000 3.6 330 11:38 14.03.2021
1483 Clouds 10 1026 81 10000 3.6 330 11:19 14.03.2021
1484 Clouds 9 1025 81 10000 3.09 300 10:38 14.03.2021
1485 Clouds 9 1025 81 10000 3.09 300 10:19 14.03.2021
1486 Clouds 8 1025 87 10000 3.09 310 09:56 14.03.2021
1487 Clouds 7 1024 93 10000 1.54 310 09:37 14.03.2021
1488 Clouds 7 1024 93 10000 1.54 310 09:19 14.03.2021
1489 Rain 7 1023 93 10000 1.54 250 08:36 14.03.2021
1490 Clouds 7 1023 93 10000 2.57 340 07:52 14.03.2021
1491 Clouds 6 1022 100 10000 2.57 250 07:26 14.03.2021
1492 Clouds 7 1021 93 10000 2.57 280 05:33 14.03.2021
1493 Clouds 8 1020 87 10000 4.12 290 01:19 14.03.2021
1494 Clouds 9 1020 81 10000 4.12 280 00:20 14.03.2021
1495 Clouds 9 1020 81 10000 5.14 290 23:57 13.03.2021
1496 Clouds 9 1020 87 10000 4.12 280 23:37 13.03.2021
1497 Clouds 9 1020 87 10000 3.6 300 22:58 13.03.2021
1498 Clouds 9 1020 87 10000 6.69 280 22:40 13.03.2021
1499 Clouds 9 1019 87 10000 5.14 280 21:50 13.03.2021
1500 Clouds 9 1019 93 10000 5.66 290 21:27 13.03.2021
1501 Clouds 10 1019 87 9000 6.17 290 20:55 13.03.2021
1502 Clouds 10 1019 87 10000 8.23 280 20:32 13.03.2021
1503 Clouds 10 1018 87 10000 5.66 270 19:56 13.03.2021
1504 Clouds 10 1018 81 10000 6.69 280 19:36 13.03.2021
1505 Clouds 10 1018 81 10000 6.69 280 19:18 13.03.2021
1506 Clouds 11 1018 76 10000 10.29 280 18:40 13.03.2021
1507 Clouds 12 1018 82 10000 10.29 280 18:19 13.03.2021
1508 Clouds 12 1018 82 10000 10.29 280 17:44 13.03.2021
1509 Clouds 12 1018 82 10000 9.26 280 17:25 13.03.2021
1510 Clouds 12 1018 82 10000 8.75 280 16:50 13.03.2021
1511 Clouds 11 1018 93 10000 8.75 280 16:29 13.03.2021
1512 Rain 12 1018 82 10000 10.8 270 15:47 13.03.2021
1513 Clouds 12 1018 82 10000 10.8 270 14:51 13.03.2021
1514 Drizzle 12 1018 82 10000 11.32 270 14:32 13.03.2021
1515 Clouds 12 1018 82 10000 13.38 270 13:54 13.03.2021
1516 Clouds 13 1018 67 10000 13.89 270 13:25 13.03.2021
1517 Clouds 13 1018 71 10000 13.89 270 12:47 13.03.2021
1518 Clouds 12 1018 76 10000 12.86 270 12:28 13.03.2021
1519 Clouds 12 1018 76 10000 11.32 270 11:51 13.03.2021
1520 Clouds 11 1018 87 10000 8.23 250 11:30 13.03.2021
1521 Clouds 11 1018 82 7000 8.75 270 10:51 13.03.2021
1522 Clouds 11 1018 82 7000 8.75 270 10:51 13.03.2021
1523 Clouds 11 1018 82 7000 8.75 270 10:30 13.03.2021
1524 Clouds 12 1018 76 10000 9.26 270 09:47 13.03.2021
1525 Clouds 11 1018 82 10000 8.23 260 09:19 13.03.2021
1526 Clouds 10 1018 87 10000 7.72 270 08:43 13.03.2021
1527 Clouds 10 1018 87 7000 8.23 270 08:19 13.03.2021
1528 Clouds 10 1018 82 10000 7.72 260 07:54 13.03.2021
1529 Clouds 10 1017 76 10000 7.72 260 06:51 13.03.2021
1530 Clouds 8 1019 87 10000 5.14 220 02:54 13.03.2021
1531 Clouds 8 1020 87 10000 4.63 220 00:56 13.03.2021
1532 Clouds 8 1021 87 10000 3.6 230 23:57 12.03.2021
1533 Clouds 8 1021 87 10000 3.6 250 23:32 12.03.2021
1534 Clouds 8 1021 87 10000 3.09 240 22:43 12.03.2021
1535 Clear 8 1021 87 10000 3.09 240 22:23 12.03.2021
1536 Clouds 9 1021 87 10000 4.12 240 21:44 12.03.2021
1537 Clouds 9 1021 81 10000 3.6 250 21:25 12.03.2021
1538 Clouds 9 1021 87 10000 4.12 250 20:55 12.03.2021
1539 Clouds 10 1021 76 10000 4.12 260 20:32 12.03.2021
1540 Clouds 10 1021 81 10000 4.12 260 19:58 12.03.2021
1541 Clouds 11 1021 76 10000 4.12 300 19:39 12.03.2021
1542 Clouds 11 1021 76 10000 4.12 300 19:18 12.03.2021
1543 Clouds 11 1020 71 10000 6.69 280 18:35 12.03.2021
1544 Clouds 12 1021 82 10000 7.2 280 17:49 12.03.2021
1545 Clouds 12 1021 66 10000 7.2 280 17:30 12.03.2021
1546 Clouds 13 1020 58 10000 8.23 280 16:55 12.03.2021
1547 Clouds 14 1021 50 10000 8.23 290 16:36 12.03.2021
1548 Clouds 14 1021 54 10000 8.23 290 15:52 12.03.2021
1549 Clouds 14 1021 54 10000 7.72 290 15:27 12.03.2021
1550 Clouds 14 1021 58 10000 8.75 280 14:48 12.03.2021
1551 Clouds 14 1021 58 10000 7.72 300 14:20 12.03.2021
1552 Clouds 13 1021 62 10000 7.2 310 13:43 12.03.2021
1553 Clouds 13 1021 67 10000 7.72 300 13:21 12.03.2021
1554 Clouds 13 1021 62 10000 8.23 290 12:56 12.03.2021
1555 Clouds 12 1021 71 10000 6.69 300 12:37 12.03.2021
1556 Clouds 12 1021 71 10000 6.69 300 12:19 12.03.2021
1557 Clouds 12 1021 71 10000 5.66 260 11:47 12.03.2021
1558 Clouds 11 1022 82 10000 2.06 260 11:19 12.03.2021
1559 Clouds 10 1022 81 10000 2.57 260 10:45 12.03.2021
1560 Clouds 9 1021 87 10000 2.57 250 10:22 12.03.2021
1561 Clouds 8 1021 93 10000 2.57 260 09:37 12.03.2021
1562 Rain 8 1021 93 10000 2.57 260 09:19 12.03.2021
1563 Clear 7 1020 100 10000 2.06 230 08:39 12.03.2021
1564 Clouds 8 1020 87 10000 1.54 240 07:41 12.03.2021
1565 Clouds 8 1020 87 10000 3.09 320 07:21 12.03.2021
1566 Clouds 7 1020 93 10000 2.06 230 06:42 12.03.2021
1567 Clouds 8 1020 93 10000 3.09 220 05:52 12.03.2021
1568 Clouds 8 1022 100 10000 2.06 230 00:55 12.03.2021
1569 Clear 8 1022 93 10000 2.57 230 23:56 11.03.2021
1570 Clouds 9 1022 93 10000 2.06 250 22:59 11.03.2021
1571 Clouds 9 1022 93 10000 2.06 250 22:59 11.03.2021
1572 Clouds 9 1022 93 10000 3.09 250 22:39 11.03.2021
1573 Clouds 9 1022 93 10000 3.09 250 22:18 11.03.2021
1574 Clouds 10 1022 87 10000 3.6 260 21:46 11.03.2021
1575 Clouds 10 1022 87 10000 3.09 250 21:22 11.03.2021
1576 Clouds 10 1022 87 10000 4.12 270 20:49 11.03.2021
1577 Clouds 11 1021 87 10000 4.12 280 20:22 11.03.2021
1578 Clouds 11 1021 87 10000 4.12 280 19:49 11.03.2021
1579 Clouds 12 1020 87 10000 5.66 270 19:30 11.03.2021
1580 Clouds 12 1020 87 10000 7.2 280 18:52 11.03.2021
1581 Clouds 12 1020 87 10000 6.17 270 18:34 11.03.2021
1582 Clouds 12 1020 87 10000 6.69 270 17:52 11.03.2021
1583 Clouds 12 1020 87 10000 6.69 270 17:30 11.03.2021
1584 Clouds 12 1019 94 10000 6.69 260 16:32 11.03.2021
1585 Clouds 12 1019 94 10000 7.2 290 15:55 11.03.2021
1586 Mist 12 1019 94 4200 5.14 270 15:37 11.03.2021
1587 Mist 12 1019 94 4200 5.14 270 15:19 11.03.2021
1588 Mist 12 1019 94 5000 6.17 290 14:39 11.03.2021
1589 Mist 12 1019 94 5000 6.17 290 14:18 11.03.2021
1590 Clouds 14 1019 88 9000 9.26 290 13:43 11.03.2021
1591 Clouds 14 1019 88 9000 9.26 290 13:21 11.03.2021
1592 Clouds 16 1018 67 10000 10.29 290 12:49 11.03.2021
1593 Clouds 16 1018 59 10000 10.29 270 12:27 11.03.2021
1594 Clouds 16 1018 72 10000 7.72 250 11:46 11.03.2021
1595 Clouds 16 1018 72 10000 7.72 250 11:27 11.03.2021
1596 Clear 15 1018 77 10000 6.17 240 10:50 11.03.2021
1597 Clear 15 1018 77 10000 6.69 240 10:22 11.03.2021
1598 Clear 14 1018 82 10000 4.12 220 09:48 11.03.2021
1599 Clouds 13 1018 88 10000 4.12 220 09:29 11.03.2021
1600 Clouds 13 1018 82 10000 3.6 230 08:48 11.03.2021
1601 Clouds 12 1018 87 10000 3.09 240 08:24 11.03.2021
1602 Clouds 12 1018 87 10000 3.6 240 07:44 11.03.2021
1603 Clouds 12 1018 94 10000 4.63 250 06:52 11.03.2021
1604 Clouds 12 1018 94 10000 5.14 240 06:32 11.03.2021
1605 Clouds 12 1018 94 10000 4.63 230 05:47 11.03.2021
1606 Clouds 12 1019 94 10000 4.12 230 02:20 11.03.2021
1607 Drizzle 10 1019 100 4400 3.6 230 23:53 10.03.2021
1608 Drizzle 10 1019 93 4800 3.6 230 23:22 10.03.2021
1609 Clouds 10 1020 81 10000 3.6 240 22:39 10.03.2021
1610 Clouds 10 1020 76 10000 4.63 250 21:47 10.03.2021
1611 Clouds 10 1020 71 10000 6.17 250 21:27 10.03.2021
1612 Clouds 11 1020 62 10000 4.12 240 20:58 10.03.2021
1613 Clouds 11 1019 58 10000 4.12 230 20:39 10.03.2021
1614 Clouds 12 1019 58 10000 4.12 230 20:20 10.03.2021
1615 Clear 12 1019 54 10000 4.12 270 19:40 10.03.2021
1616 Clear 12 1019 54 10000 4.12 270 19:20 10.03.2021
1617 Clear 13 1019 50 10000 5.14 270 18:38 10.03.2021
1618 Clear 14 1019 44 10000 4.63 270 18:19 10.03.2021
1619 Clear 14 1019 44 10000 4.63 270 17:42 10.03.2021
1620 Clear 15 1019 38 10000 3.6 220 17:20 10.03.2021
1621 Clear 14 1019 41 10000 4.12 200 16:53 10.03.2021
1622 Clear 14 1020 41 10000 3.6 210 16:30 10.03.2021
1623 Clear 14 1020 41 10000 3.6 250 15:59 10.03.2021
1624 Clear 14 1020 41 10000 4.63 240 15:38 10.03.2021
1625 Clear 14 1020 41 10000 4.63 240 15:20 10.03.2021
1626 Clear 13 1021 44 10000 3.6 220 14:23 10.03.2021
1627 Clear 12 1021 43 10000 3.09 220 13:58 10.03.2021
1628 Clear 12 1022 47 10000 3.6 220 13:34 10.03.2021
1629 Clear 11 1022 50 10000 2.06 0 12:53 10.03.2021
1630 Clear 11 1023 50 10000 2.57 190 12:32 10.03.2021
1631 Clear 9 1023 57 10000 3.09 190 11:56 10.03.2021
1632 Clear 8 1023 57 10000 3.6 190 11:29 10.03.2021
1633 Clear 7 1023 66 10000 3.6 180 10:56 10.03.2021
1634 Clouds 6 1023 75 9000 3.09 170 10:34 10.03.2021
1635 Clouds 5 1023 81 7000 3.09 160 09:57 10.03.2021
1636 Clouds 4 1023 81 6000 2.06 160 09:38 10.03.2021
1637 Clouds 3 1023 81 6000 2.06 160 09:19 10.03.2021
1638 Mist 1 1023 93 4700 1.03 180 08:45 10.03.2021
1639 Mist 1 1023 93 4800 0.51 180 08:27 10.03.2021
1640 Mist 0 1023 100 4800 1.54 140 07:44 10.03.2021
1641 Mist 0 1022 93 5000 1.54 140 07:25 10.03.2021
1642 Mist 0 1022 93 5000 1.03 150 06:52 10.03.2021
1643 Clouds 1 1023 93 6000 1.03 260 02:45 10.03.2021
1644 Clear 2 1023 86 6000 1.03 270 00:36 10.03.2021
1645 Clear 3 1023 75 7000 1.03 270 23:33 09.03.2021
1646 Clear 4 1023 75 7000 0.51 280 22:52 09.03.2021
1647 Clear 4 1023 70 7000 1.54 290 22:34 09.03.2021
1648 Clear 5 1023 75 7000 1.54 300 21:58 09.03.2021
1649 Clear 5 1023 65 9000 1.54 0 21:38 09.03.2021
1650 Clear 5 1023 65 9000 1.54 0 21:20 09.03.2021
1651 Clear 5 1023 70 10000 2.06 350 20:45 09.03.2021
1652 Clear 5 1023 70 10000 2.06 350 20:45 09.03.2021
1653 Clouds 7 1023 61 10000 2.57 340 20:23 09.03.2021
1654 Clouds 7 1023 61 10000 2.57 340 19:59 09.03.2021
1655 Clouds 8 1022 57 10000 5.14 340 19:29 09.03.2021
1656 Clouds 9 1022 53 10000 5.66 310 18:55 09.03.2021
1657 Clouds 9 1021 53 10000 2.57 10 18:31 09.03.2021
1658 Clouds 10 1021 50 10000 4.12 10 17:59 09.03.2021
1659 Clouds 10 1021 50 10000 2.57 20 17:39 09.03.2021
1660 Clouds 11 1021 50 10000 2.57 20 17:20 09.03.2021
1661 Clouds 12 1021 50 10000 3.09 280 16:40 09.03.2021
1662 Clouds 12 1021 50 10000 3.09 280 16:21 09.03.2021
1663 Clouds 12 1021 50 10000 3.6 330 15:47 09.03.2021
1664 Clouds 12 1021 46 10000 2.57 290 15:24 09.03.2021
1665 Clouds 11 1021 46 10000 1.54 0 14:46 09.03.2021
1666 Clouds 11 1022 46 10000 3.09 350 14:24 09.03.2021
1667 Clear 10 1023 46 10000 3.6 330 13:39 09.03.2021
1668 Clear 10 1023 46 10000 3.6 330 13:21 09.03.2021
1669 Clouds 9 1023 49 10000 3.6 20 12:46 09.03.2021
1670 Clouds 9 1023 49 9000 3.09 350 12:27 09.03.2021
1671 Clear 8 1023 49 10000 3.6 30 11:42 09.03.2021
1672 Clear 8 1023 57 8000 2.57 20 11:21 09.03.2021
1673 Clear 7 1023 57 7000 2.06 20 10:57 09.03.2021
1674 Clear 6 1023 61 7000 2.06 20 10:39 09.03.2021
1675 Clear 5 1023 61 7000 2.06 20 10:20 09.03.2021
1676 Clear 3 1022 81 6000 1.03 0 09:44 09.03.2021
1677 Clear 3 1022 81 6000 1.03 0 09:26 09.03.2021
1678 Mist 2 1022 86 5000 1.03 0 08:48 09.03.2021
1679 Mist 1 1022 93 4400 1.03 0 08:29 09.03.2021
1680 Mist 1 1021 93 5000 1.03 300 07:40 09.03.2021
1681 Mist 1 1021 93 5000 1.03 300 07:21 09.03.2021
1682 Mist 1 1021 93 5000 1.54 300 06:38 09.03.2021
1683 Clear 1 1021 93 6000 1.54 290 05:48 09.03.2021
1684 Clear 6 1021 70 10000 2.57 350 00:38 09.03.2021
1685 Clear 7 1020 65 10000 5.14 50 23:45 08.03.2021
1686 Clear 7 1021 70 10000 3.09 30 23:27 08.03.2021
1687 Clear 7 1020 70 10000 3.09 20 22:55 08.03.2021
1688 Clear 7 1020 70 10000 2.57 20 22:36 08.03.2021
1689 Clear 7 1020 70 10000 2.57 20 22:18 08.03.2021
1690 Clouds 9 1020 66 10000 3.6 10 21:35 08.03.2021
1691 Clouds 10 1019 62 10000 4.12 10 20:48 08.03.2021
1692 Clouds 10 1019 62 10000 2.57 350 20:28 08.03.2021
1693 Clear 10 1019 62 10000 3.09 360 19:59 08.03.2021
1694 Clear 11 1018 58 10000 3.09 10 19:37 08.03.2021
1695 Clear 12 1018 58 10000 3.09 10 18:44 08.03.2021
1696 Clear 13 1018 54 10000 3.6 10 18:23 08.03.2021
1697 Clear 13 1018 54 10000 3.6 10 17:56 08.03.2021
1698 Clear 13 1018 58 10000 3.6 10 17:38 08.03.2021
1699 Clear 14 1018 58 10000 3.09 20 16:55 08.03.2021
1700 Clouds 13 1018 58 10000 4.12 20 16:29 08.03.2021
1701 Clouds 14 1018 58 10000 2.06 50 15:52 08.03.2021
1702 Clouds 14 1018 58 10000 2.06 50 15:52 08.03.2021
1703 Clouds 14 1018 58 10000 2.06 70 15:29 08.03.2021
1704 Clouds 14 1018 58 10000 1.54 60 14:49 08.03.2021
1705 Clouds 13 1019 58 10000 2.57 40 14:20 08.03.2021
1706 Clouds 14 1019 62 10000 2.06 50 13:43 08.03.2021
1707 Clouds 13 1019 66 10000 2.57 10 13:20 08.03.2021
1708 Clouds 12 1019 66 10000 2.57 340 12:46 08.03.2021
1709 Clouds 12 1019 76 10000 2.57 330 12:27 08.03.2021
1710 Clouds 10 1019 81 9000 1.03 0 11:40 08.03.2021
1711 Clouds 10 1019 81 9000 1.03 0 11:19 08.03.2021
1712 Clouds 9 1019 81 9000 0.51 0 10:43 08.03.2021
1713 Clouds 9 1019 81 7000 2.06 40 10:43 08.03.2021
1714 Clouds 9 1019 81 7000 2.06 40 10:25 08.03.2021
1715 Clouds 8 1019 87 7000 2.06 20 09:41 08.03.2021
1716 Clouds 7 1019 93 6000 2.06 10 09:23 08.03.2021
1717 Clouds 7 1019 93 6000 2.06 10 09:23 08.03.2021
1718 Mist 7 1018 93 5000 1.54 0 08:29 08.03.2021
1719 Mist 7 1018 93 4000 1.54 310 07:41 08.03.2021
1720 Mist 7 1018 100 4200 1.03 0 07:20 08.03.2021
1721 Clouds 7 1018 93 6000 0.51 260 04:28 08.03.2021
1722 Rain 8 1020 93 4000 1.03 0 00:45 08.03.2021
1723 Clouds 8 1020 87 6000 2.57 250 00:20 08.03.2021
1724 Clouds 8 1020 87 10000 1.54 0 23:39 07.03.2021
1725 Clouds 8 1020 87 10000 1.54 0 23:20 07.03.2021
1726 Clouds 8 1020 87 10000 1.54 350 22:44 07.03.2021
1727 Clouds 8 1020 87 10000 1.54 290 22:26 07.03.2021
1728 Clouds 8 1020 87 10000 1.03 0 21:45 07.03.2021
1729 Clouds 9 1020 81 10000 2.06 360 21:26 07.03.2021
1730 Clouds 9 1020 81 10000 2.57 290 20:49 07.03.2021
1731 Clouds 9 1020 76 10000 1.03 0 20:31 07.03.2021
1732 Clouds 10 1020 71 10000 1.54 290 19:57 07.03.2021
1733 Clouds 10 1020 71 10000 1.54 270 19:38 07.03.2021
1734 Clouds 10 1020 71 10000 1.54 270 19:20 07.03.2021
1735 Clouds 11 1019 66 10000 1.03 210 18:44 07.03.2021
1736 Clouds 11 1019 66 10000 1.03 210 18:20 07.03.2021
1737 Clouds 11 1020 62 10000 1.03 0 17:42 07.03.2021
1738 Clouds 11 1020 62 10000 1.88 301 17:21 07.03.2021
1739 Clouds 11 1020 62 10000 1.54 0 16:58 07.03.2021
1740 Clouds 12 1020 62 10000 1.03 0 16:38 07.03.2021
1741 Clouds 11 1020 62 10000 1.03 0 16:19 07.03.2021
1742 Clouds 11 1020 62 10000 1.54 0 15:43 07.03.2021
1743 Clouds 11 1020 62 10000 0.51 0 15:22 07.03.2021
1744 Clouds 11 1021 66 10000 0.51 0 14:30 07.03.2021
1745 Clouds 11 1022 66 10000 1.03 0 13:59 07.03.2021
1746 Clouds 10 1022 71 10000 1.03 0 13:40 07.03.2021
1747 Clouds 10 1022 71 10000 1.03 0 13:21 07.03.2021
1748 Clouds 9 1022 71 10000 1.54 0 12:45 07.03.2021
1749 Clouds 9 1022 71 10000 1.54 0 12:27 07.03.2021
1750 Clouds 9 1023 76 10000 1.03 0 11:41 07.03.2021
1751 Clouds 8 1023 76 10000 1.03 0 11:21 07.03.2021
1752 Clouds 7 1023 87 10000 1.03 150 10:39 07.03.2021
1753 Clouds 7 1023 87 10000 1.03 150 10:21 07.03.2021
1754 Clouds 7 1023 87 10000 1.58 212 09:41 07.03.2021
1755 Clouds 6 1023 87 10000 1.06 205 09:21 07.03.2021
1756 Clouds 6 1023 87 10000 1.06 205 08:45 07.03.2021
1757 Clouds 6 1022 93 10000 1.03 130 08:23 07.03.2021
1758 Clouds 5 1022 93 10000 0.92 201 07:25 07.03.2021
1759 Clouds 5 1024 93 8000 1.03 220 02:41 07.03.2021
1760 Clouds 5 1024 87 9000 0.51 200 00:45 07.03.2021
1761 Clouds 7 1024 81 10000 1.03 240 23:44 06.03.2021
1762 Clouds 7 1024 87 10000 1.03 270 23:23 06.03.2021
1763 Clouds 7 1025 81 10000 1.54 270 22:47 06.03.2021
1764 Clouds 7 1024 81 10000 1.54 0 22:27 06.03.2021
1765 Clouds 7 1024 87 10000 1.03 0 21:57 06.03.2021
1766 Clouds 7 1024 81 10000 1.54 280 21:21 06.03.2021
1767 Clouds 7 1024 81 10000 2.06 260 20:49 06.03.2021
1768 Clouds 8 1024 76 10000 2.06 290 20:26 06.03.2021
1769 Clouds 8 1024 71 10000 1.03 140 19:49 06.03.2021
1770 Clouds 10 1024 61 10000 1.03 0 19:20 06.03.2021
1771 Clouds 10 1024 62 10000 1.03 130 18:45 06.03.2021
1772 Clouds 11 1023 62 10000 1.54 0 18:24 06.03.2021
1773 Clouds 11 1023 62 10000 1.54 60 17:56 06.03.2021
1774 Clouds 11 1023 62 10000 1.54 60 17:56 06.03.2021
1775 Clouds 12 1024 57 10000 1.1 329 17:38 06.03.2021
1776 Clouds 11 1024 57 10000 0.98 340 17:18 06.03.2021
1777 Clouds 11 1024 62 10000 0.98 340 16:41 06.03.2021
1778 Clouds 11 1024 62 10000 0.98 340 16:41 06.03.2021
1779 Clouds 11 1024 62 10000 1.1 339 16:21 06.03.2021
1780 Clouds 12 1024 62 10000 1.03 0 15:47 06.03.2021
1781 Clouds 11 1024 62 10000 2.06 240 15:29 06.03.2021
1782 Clouds 11 1024 62 10000 1.54 0 14:49 06.03.2021
1783 Clouds 11 1024 62 10000 1.55 337 14:25 06.03.2021
1784 Clouds 11 1025 62 10000 0.51 0 13:39 06.03.2021
1785 Clouds 11 1025 62 10000 0.51 0 13:20 06.03.2021
1786 Clouds 10 1025 62 10000 1.03 0 12:44 06.03.2021
1787 Clouds 10 1025 66 10000 2.06 330 12:19 06.03.2021
1788 Clouds 9 1025 71 10000 1.54 280 11:49 06.03.2021
1789 Clouds 8 1025 70 10000 1.81 347 11:21 06.03.2021
1790 Clouds 7 1025 70 10000 1.03 0 10:48 06.03.2021
1791 Clouds 6 1025 75 10000 1.54 20 10:19 06.03.2021
1792 Clouds 6 1025 70 10000 2.06 20 09:42 06.03.2021
1793 Clouds 5 1024 75 10000 2.06 10 09:19 06.03.2021
1794 Clouds 5 1024 75 10000 1.54 0 08:39 06.03.2021
1795 Clouds 5 1024 75 10000 2.06 20 07:57 06.03.2021
1796 Clouds 5 1024 75 10000 3.09 10 07:24 06.03.2021
1797 Clouds 5 1024 81 10000 3.09 20 06:55 06.03.2021
1798 Clouds 6 1023 75 10000 3.09 10 05:34 06.03.2021
1799 Clouds 6 1023 70 10000 4.12 30 02:38 06.03.2021
1800 Clouds 7 1024 76 10000 4.63 30 00:47 06.03.2021
1801 Clouds 7 1024 76 10000 4.63 40 23:53 05.03.2021
1802 Clouds 8 1024 71 10000 5.14 40 23:29 05.03.2021
1803 Clouds 8 1023 71 10000 5.14 40 22:46 05.03.2021
1804 Clouds 8 1023 76 10000 5.66 40 22:23 05.03.2021
1805 Clouds 8 1023 76 10000 5.66 40 21:53 05.03.2021
1806 Clouds 9 1023 71 10000 6.69 50 21:34 05.03.2021
1807 Clouds 9 1023 71 10000 5.14 40 20:54 05.03.2021
1808 Clouds 9 1022 71 10000 5.14 40 20:27 05.03.2021
1809 Clouds 9 1022 66 10000 6.17 40 19:59 05.03.2021
1810 Clouds 10 1021 66 10000 7.72 40 19:26 05.03.2021
1811 Clouds 10 1021 66 10000 6.69 40 18:58 05.03.2021
1812 Clouds 11 1021 62 10000 5.66 30 18:40 05.03.2021
1813 Clouds 11 1021 62 10000 5.66 30 18:19 05.03.2021
1814 Clouds 12 1020 62 10000 6.69 40 17:36 05.03.2021
1815 Clouds 13 1020 58 10000 6.69 40 16:50 05.03.2021
1816 Clouds 14 1020 58 10000 6.17 40 16:25 05.03.2021
1817 Clouds 14 1020 58 10000 5.66 50 15:59 05.03.2021
1818 Clouds 14 1020 58 10000 5.14 50 15:40 05.03.2021
1819 Clouds 14 1020 58 10000 5.14 50 15:21 05.03.2021
1820 Clouds 13 1021 62 10000 6.17 60 14:38 05.03.2021
1821 Clouds 13 1021 66 10000 6.17 30 13:55 05.03.2021
1822 Clouds 12 1021 66 10000 5.66 20 13:22 05.03.2021
1823 Clouds 12 1021 66 10000 6.17 30 12:55 05.03.2021
1824 Clouds 11 1021 76 10000 5.14 40 11:58 05.03.2021
1825 Clouds 10 1021 81 10000 6.17 40 11:37 05.03.2021
1826 Clouds 10 1021 81 10000 6.17 40 11:18 05.03.2021
1827 Clouds 9 1021 87 10000 5.14 40 10:41 05.03.2021
1828 Clouds 9 1021 87 10000 5.14 40 10:23 05.03.2021
1829 Clouds 8 1021 87 10000 5.14 40 09:49 05.03.2021
1830 Clear 8 1020 87 10000 4.12 40 09:26 05.03.2021
1831 Clear 7 1020 93 10000 3.09 40 08:41 05.03.2021
1832 Clear 6 1020 93 10000 3.09 40 08:22 05.03.2021
1833 Clear 6 1020 87 10000 3.09 30 07:43 05.03.2021
1834 Clear 7 1020 87 10000 2.06 40 06:56 05.03.2021
1835 Clear 7 1020 87 10000 3.09 30 06:31 05.03.2021
1836 Clouds 9 1020 81 10000 3.09 50 01:59 05.03.2021
1837 Clear 10 1020 76 10000 2.57 50 00:34 05.03.2021
1838 Clear 11 1020 76 10000 3.6 40 23:36 04.03.2021
1839 Clear 11 1019 82 10000 3.09 20 22:38 04.03.2021
1840 Clear 11 1019 82 10000 3.09 20 22:19 04.03.2021
1841 Clear 12 1020 76 10000 3.09 30 21:42 04.03.2021
1842 Clear 13 1020 76 10000 3.09 30 21:23 04.03.2021
1843 Clear 13 1020 76 10000 3.6 30 20:41 04.03.2021
1844 Clear 13 1019 76 10000 3.09 30 20:21 04.03.2021
1845 Clear 14 1019 72 10000 4.12 30 19:54 04.03.2021
1846 Clear 15 1019 67 10000 4.63 30 19:30 04.03.2021
1847 Clear 16 1019 59 10000 3.6 40 18:59 04.03.2021
1848 Clear 16 1019 59 10000 3.6 40 18:59 04.03.2021
1849 Clear 17 1019 55 10000 3.09 60 18:38 04.03.2021
1850 Clear 17 1019 55 10000 3.6 50 17:59 04.03.2021
1851 Clear 18 1019 48 10000 2.57 30 17:40 04.03.2021
1852 Clear 18 1019 48 10000 2.57 30 17:20 04.03.2021
1853 Clouds 19 1020 52 10000 3.09 70 16:44 04.03.2021
1854 Clouds 19 1020 52 10000 3.09 70 16:44 04.03.2021
1855 Clouds 19 1020 52 10000 3.09 70 16:44 04.03.2021
1856 Clouds 19 1020 52 10000 1.54 0 16:24 04.03.2021
1857 Clouds 19 1020 52 10000 2.06 20 15:48 04.03.2021
1858 Clouds 19 1020 52 10000 1.54 0 15:29 04.03.2021
1859 Clouds 19 1021 52 10000 2.06 0 14:44 04.03.2021
1860 Clear 18 1022 59 10000 2.57 110 14:18 04.03.2021
1861 Clear 17 1022 59 10000 2.06 90 13:42 04.03.2021
1862 Clear 17 1022 59 10000 2.06 90 13:22 04.03.2021
1863 Clear 15 1023 67 10000 1.03 0 12:42 04.03.2021
1864 Clear 15 1023 67 10000 1.03 0 12:18 04.03.2021
1865 Clouds 13 1023 82 10000 1.54 0 11:40 04.03.2021
1866 Clouds 13 1023 82 10000 1.54 0 11:20 04.03.2021
1867 Clouds 11 1023 87 8000 3.09 140 10:37 04.03.2021
1868 Clouds 10 1023 87 8000 3.09 140 10:18 04.03.2021
1869 Mist 8 1023 100 5000 1.54 120 09:28 04.03.2021
1870 Mist 7 1023 100 4800 1.54 100 08:53 04.03.2021
1871 Mist 7 1023 93 4000 1.54 110 08:31 04.03.2021
1872 Fog 7 1023 93 3800 1.54 100 07:45 04.03.2021
1873 Mist 7 1024 93 4600 2.06 130 06:48 04.03.2021
1874 Mist 7 1023 100 4800 2.06 130 06:21 04.03.2021
1875 Clear 9 1025 100 7000 2.06 140 02:39 04.03.2021
1876 Clouds 11 1026 87 9000 1.54 140 00:21 04.03.2021
1877 Clear 12 1027 82 10000 1.54 100 22:39 03.03.2021
1878 Clear 11 1027 82 10000 1.54 100 22:20 03.03.2021
1879 Clear 11 1027 82 10000 1.54 130 21:41 03.03.2021
1880 Clear 11 1027 76 10000 1.54 110 21:23 03.03.2021
1881 Clear 12 1027 71 10000 2.06 140 20:54 03.03.2021
1882 Clear 13 1027 67 10000 2.06 130 20:35 03.03.2021
1883 Clear 14 1027 63 10000 3.09 160 19:51 03.03.2021
1884 Clear 15 1027 63 10000 3.6 140 19:30 03.03.2021
1885 Clouds 16 1027 59 10000 1.54 40 18:56 03.03.2021
1886 Clear 17 1026 52 10000 2.57 290 18:38 03.03.2021
1887 Clear 18 1026 48 10000 2.57 300 17:58 03.03.2021
1888 Clear 19 1026 48 10000 3.09 280 17:22 03.03.2021
1889 Clear 20 1026 45 10000 3.09 270 16:54 03.03.2021
1890 Clear 20 1027 45 10000 2.57 250 16:27 03.03.2021
1891 Clear 20 1027 45 10000 1.54 0 15:54 03.03.2021
1892 Clear 20 1027 42 10000 1.54 270 15:32 03.03.2021
1893 Clouds 20 1028 48 10000 2.06 240 14:45 03.03.2021
1894 Clouds 20 1028 48 10000 2.06 240 14:26 03.03.2021
1895 Clear 18 1029 55 10000 1.54 0 13:42 03.03.2021
1896 Clear 18 1029 55 10000 1.54 0 13:21 03.03.2021
1897 Clear 17 1029 55 10000 1.03 0 12:43 03.03.2021
1898 Clear 16 1029 63 10000 1.54 210 12:23 03.03.2021
1899 Clear 16 1029 63 10000 1.54 210 12:23 03.03.2021
1900 Clear 15 1029 72 10000 2.06 170 11:45 03.03.2021
1901 Clear 13 1029 76 10000 2.57 170 11:27 03.03.2021
1902 Clear 13 1029 76 10000 2.57 170 11:27 03.03.2021
1903 Clear 11 1030 82 10000 2.57 170 10:45 03.03.2021
1904 Clear 10 1029 87 10000 2.06 170 10:22 03.03.2021
1905 Clear 9 1030 93 10000 3.09 170 09:42 03.03.2021
1906 Clear 8 1029 93 9000 2.57 150 08:53 03.03.2021
1907 Clear 7 1029 93 10000 2.06 150 08:24 03.03.2021
1908 Clear 7 1029 93 10000 2.57 160 07:55 03.03.2021
1909 Clear 7 1029 87 10000 2.06 160 07:28 03.03.2021
1910 Clear 8 1029 93 10000 1.54 160 06:29 03.03.2021
1911 Clear 7 1029 87 10000 1.54 150 05:44 03.03.2021
1912 Clear 8 1028 87 10000 2.06 160 04:36 03.03.2021
1913 Clear 9 1028 87 10000 2.06 150 03:54 03.03.2021
1914 Clear 11 1028 76 10000 2.57 160 00:28 03.03.2021
1915 Clear 11 1028 71 10000 2.57 160 23:34 02.03.2021
1916 Clear 11 1028 71 10000 2.57 170 22:52 02.03.2021
1917 Clear 11 1028 67 10000 3.09 160 22:22 02.03.2021
1918 Clear 12 1028 67 10000 2.57 170 21:51 02.03.2021
1919 Clear 12 1028 67 10000 3.09 160 21:33 02.03.2021
1920 Clear 13 1027 71 10000 2.57 150 20:56 02.03.2021
1921 Clear 13 1027 71 10000 1.54 0 20:38 02.03.2021
1922 Clear 13 1027 71 10000 1.54 0 20:20 02.03.2021
1923 Clear 14 1027 71 10000 2.06 120 19:46 02.03.2021
1924 Clear 14 1027 63 10000 1.54 130 19:28 02.03.2021
1925 Clear 16 1027 63 10000 3.09 140 18:42 02.03.2021
1926 Clear 16 1027 59 10000 4.63 150 18:21 02.03.2021
1927 Clear 17 1026 55 10000 4.12 120 17:57 02.03.2021
1928 Clear 17 1026 55 10000 4.12 110 17:39 02.03.2021
1929 Clear 18 1026 55 10000 3.6 110 17:19 02.03.2021
1930 Clear 18 1026 55 10000 3.6 110 16:44 02.03.2021
1931 Clear 18 1026 55 10000 2.57 100 15:54 02.03.2021
1932 Clear 18 1026 55 10000 3.09 120 15:27 02.03.2021
1933 Clear 17 1026 63 10000 4.12 110 14:44 02.03.2021
1934 Clear 17 1026 63 10000 3.6 110 14:18 02.03.2021
1935 Clear 17 1027 63 10000 2.57 110 13:44 02.03.2021
1936 Clear 16 1027 67 10000 2.57 140 13:23 02.03.2021
1937 Clear 15 1027 63 10000 3.09 140 12:45 02.03.2021
1938 Clear 14 1027 72 10000 3.6 150 12:24 02.03.2021
1939 Clear 13 1027 71 10000 3.6 150 11:44 02.03.2021
1940 Clear 12 1027 76 10000 4.12 160 11:22 02.03.2021
1941 Clear 11 1026 76 10000 3.6 150 10:43 02.03.2021
1942 Clear 11 1026 76 10000 3.6 150 10:24 02.03.2021
1943 Clear 10 1025 81 10000 3.09 140 09:41 02.03.2021
1944 Clear 9 1025 81 10000 3.09 140 09:21 02.03.2021
1945 Clear 9 1025 87 10000 3.6 140 08:40 02.03.2021
1946 Clear 9 1025 87 10000 3.6 140 08:21 02.03.2021
1947 Clear 9 1024 81 10000 2.57 130 07:40 02.03.2021
1948 Clear 9 1024 81 10000 2.57 130 06:36 02.03.2021
1949 Clear 9 1024 81 10000 3.6 130 05:46 02.03.2021
1950 Clear 9 1024 81 10000 3.6 130 05:46 02.03.2021
1951 Clear 9 1024 81 10000 3.09 130 05:28 02.03.2021
1952 Clear 8 1024 87 10000 2.06 110 01:46 02.03.2021
1953 Clear 10 1024 76 10000 2.06 120 01:28 02.03.2021
1954 Clear 9 1024 81 10000 2.06 140 00:51 02.03.2021
1955 Clear 12 1024 67 10000 3.6 160 23:28 01.03.2021
1956 Clear 12 1024 67 10000 4.12 150 22:42 01.03.2021
1957 Clear 12 1023 67 10000 4.63 150 22:22 01.03.2021
1958 Clear 12 1023 67 10000 3.6 170 21:46 01.03.2021
1959 Clear 12 1023 67 10000 2.57 160 21:24 01.03.2021
1960 Clear 12 1023 67 10000 3.09 150 20:48 01.03.2021
1961 Clear 12 1023 71 10000 2.06 120 20:27 01.03.2021
1962 Clear 13 1023 62 10000 2.06 110 19:54 01.03.2021
1963 Clear 14 1022 58 10000 2.57 110 19:33 01.03.2021
1964 Clear 16 1022 55 10000 3.09 120 18:46 01.03.2021
1965 Clear 17 1022 55 10000 4.63 120 18:25 01.03.2021
1966 Clear 17 1022 55 10000 3.6 140 17:56 01.03.2021
1967 Clear 17 1022 55 10000 4.63 140 17:37 01.03.2021
1968 Clear 18 1022 55 10000 4.63 140 17:18 01.03.2021
1969 Clear 18 1022 51 10000 4.12 120 16:40 01.03.2021
1970 Clear 18 1022 51 10000 4.12 120 16:22 01.03.2021
1971 Clear 18 1022 55 10000 2.57 130 15:40 01.03.2021
1972 Clear 18 1022 55 10000 2.57 130 15:19 01.03.2021
1973 Clear 18 1023 55 10000 2.57 110 14:44 01.03.2021
1974 Clear 17 1023 59 10000 3.09 130 14:26 01.03.2021
1975 Clear 16 1023 58 10000 4.63 130 13:39 01.03.2021
1976 Clear 16 1023 58 10000 4.63 130 13:21 01.03.2021
1977 Clear 15 1023 62 10000 4.63 120 12:44 01.03.2021
1978 Clear 14 1024 62 10000 4.63 130 12:26 01.03.2021
1979 Clear 14 1024 67 10000 4.63 150 11:58 01.03.2021
1980 Clear 13 1024 67 10000 5.14 140 11:32 01.03.2021
1981 Clear 11 1024 66 10000 4.63 130 10:44 01.03.2021
1982 Clear 11 1024 66 10000 3.6 120 10:22 01.03.2021
1983 Clear 10 1024 71 10000 4.12 110 09:56 01.03.2021
1984 Clear 9 1024 76 10000 3.09 100 09:38 01.03.2021
1985 Clear 8 1024 76 10000 3.09 100 09:19 01.03.2021
1986 Clear 7 1024 87 10000 2.57 100 08:41 01.03.2021
1987 Clear 7 1024 81 10000 2.57 100 07:44 01.03.2021
1988 Clear 7 1023 81 10000 2.57 80 06:51 01.03.2021
1989 Clear 8 1024 76 10000 2.57 90 02:47 01.03.2021
1990 Clear 10 1024 71 10000 3.6 110 23:58 28.02.2021
1991 Clear 11 1024 71 10000 4.63 130 23:22 28.02.2021
1992 Clear 10 1024 71 10000 3.6 120 22:45 28.02.2021
1993 Clear 10 1024 66 10000 3.09 110 22:21 28.02.2021
1994 Clear 11 1024 66 10000 3.6 100 21:47 28.02.2021
1995 Clear 11 1024 66 10000 3.6 80 21:24 28.02.2021
1996 Clear 10 1024 71 10000 2.06 70 20:52 28.02.2021
1997 Clear 10 1024 71 10000 2.06 70 20:34 28.02.2021
1998 Clear 11 1024 66 10000 1.54 90 19:47 28.02.2021
1999 Clear 13 1024 62 10000 2.57 110 19:27 28.02.2021
2000 Clouds 14 1024 58 10000 3.6 130 18:47 28.02.2021
2001 Clouds 14 1024 54 10000 5.14 140 18:28 28.02.2021
2002 Clear 14 1023 58 10000 4.12 130 17:58 28.02.2021
2003 Clear 14 1023 54 10000 5.14 140 17:38 28.02.2021
2004 Clear 15 1023 54 10000 5.14 140 17:20 28.02.2021
2005 Clear 15 1023 54 10000 5.14 140 16:48 28.02.2021
2006 Clouds 15 1024 51 10000 6.17 140 16:29 28.02.2021
2007 Clouds 15 1024 54 10000 7.2 130 15:52 28.02.2021
2008 Clouds 15 1024 54 10000 7.2 130 15:52 28.02.2021
2009 Clouds 15 1024 55 10000 7.2 140 15:28 28.02.2021
2010 Clouds 15 1024 51 10000 6.17 120 14:58 28.02.2021
2011 Clear 15 1024 54 10000 5.66 110 14:35 28.02.2021
2012 Clear 15 1025 54 10000 5.66 110 13:59 28.02.2021
2013 Clear 14 1025 54 10000 5.14 80 13:38 28.02.2021
2014 Clear 14 1025 54 10000 5.14 80 13:19 28.02.2021
2015 Clear 13 1026 58 10000 4.12 70 12:53 28.02.2021
2016 Clear 12 1026 58 10000 3.6 60 12:35 28.02.2021
2017 Clear 11 1026 62 10000 2.57 60 11:57 28.02.2021
2018 Clear 10 1026 66 10000 2.57 80 11:39 28.02.2021
2019 Clear 9 1026 66 10000 3.09 90 11:19 28.02.2021
2020 Clear 8 1026 66 10000 2.06 90 10:40 28.02.2021
2021 Clear 8 1026 66 10000 2.06 90 10:20 28.02.2021
2022 Clear 6 1026 81 10000 2.06 90 09:39 28.02.2021
2023 Clear 5 1026 81 10000 2.06 90 09:20 28.02.2021
2024 Clear 4 1026 81 10000 2.06 60 08:43 28.02.2021
2025 Clear 2 1026 87 10000 2.06 70 08:24 28.02.2021
2026 Clear 2 1026 87 10000 2.57 60 07:44 28.02.2021
2027 Clear 3 1026 87 10000 2.06 50 07:25 28.02.2021
2028 Clear 4 1026 81 10000 2.06 60 06:24 28.02.2021
2029 Clear 4 1026 81 10000 2.57 50 05:20 28.02.2021
2030 Clear 5 1027 75 10000 2.57 30 02:28 28.02.2021
2031 Clear 6 1027 65 10000 2.57 40 01:28 28.02.2021
2032 Clear 7 1028 61 10000 3.09 50 00:39 28.02.2021
2033 Clear 7 1028 65 10000 3.6 50 23:50 27.02.2021
2034 Clear 7 1028 65 10000 4.12 50 23:22 27.02.2021
2035 Clear 8 1029 61 10000 4.12 50 22:50 27.02.2021
2036 Clear 8 1029 61 10000 3.6 50 22:23 27.02.2021
2037 Clear 9 1029 57 10000 3.6 50 21:58 27.02.2021
2038 Clear 9 1029 57 10000 4.63 50 21:37 27.02.2021
2039 Clear 9 1029 57 10000 6.17 50 20:55 27.02.2021
2040 Clear 10 1029 53 10000 5.14 50 20:37 27.02.2021
2041 Clear 10 1029 53 10000 5.14 50 20:18 27.02.2021
2042 Clear 10 1029 53 10000 5.66 50 19:41 27.02.2021
2043 Clear 11 1029 50 10000 6.17 40 19:23 27.02.2021
2044 Clear 13 1029 47 10000 5.14 40 18:39 27.02.2021
2045 Clear 13 1029 47 10000 5.14 40 18:19 27.02.2021
2046 Clear 13 1029 47 10000 7.2 40 17:43 27.02.2021
2047 Clear 13 1029 47 10000 8.23 40 17:20 27.02.2021
2048 Clear 13 1029 47 10000 6.69 40 16:51 27.02.2021
2049 Clear 14 1030 50 10000 6.69 40 16:31 27.02.2021
2050 Clear 14 1030 50 10000 6.69 30 15:49 27.02.2021
2051 Clear 14 1030 51 10000 6.17 40 15:31 27.02.2021
2052 Clear 14 1031 54 10000 6.17 50 14:43 27.02.2021
2053 Clear 14 1031 54 10000 6.17 50 14:25 27.02.2021
2054 Clear 13 1031 58 10000 6.69 50 13:49 27.02.2021
2055 Clear 12 1032 58 10000 6.17 50 13:26 27.02.2021
2056 Clear 12 1032 58 10000 7.2 60 12:52 27.02.2021
2057 Clear 11 1032 57 10000 7.2 50 12:28 27.02.2021
2058 Clear 10 1032 62 10000 7.2 50 11:56 27.02.2021
2059 Clear 10 1033 66 10000 7.2 50 11:36 27.02.2021
2060 Clear 10 1033 66 10000 7.2 50 11:18 27.02.2021
2061 Clear 8 1033 71 10000 7.2 50 10:41 27.02.2021
2062 Clear 8 1033 71 10000 7.2 50 10:18 27.02.2021
2063 Clear 6 1033 81 10000 4.12 40 09:37 27.02.2021
2064 Clear 6 1033 93 10000 3.6 40 08:58 27.02.2021
2065 Clear 5 1033 93 10000 4.12 40 08:39 27.02.2021
2066 Clear 5 1033 93 10000 4.12 40 08:18 27.02.2021
2067 Clear 5 1033 93 10000 3.09 40 07:32 27.02.2021
2068 Clear 7 1033 81 10000 3.6 40 02:31 27.02.2021
2069 Clear 8 1033 81 10000 3.09 50 00:33 27.02.2021
2070 Clear 9 1033 81 10000 4.12 50 23:48 26.02.2021
2071 Clear 9 1033 81 10000 4.12 50 23:24 26.02.2021
2072 Clear 10 1033 76 10000 4.63 50 22:40 26.02.2021
2073 Clear 10 1033 76 10000 4.63 50 22:21 26.02.2021
2074 Clear 10 1033 76 10000 5.66 50 21:37 26.02.2021
2075 Clear 11 1033 76 10000 4.12 60 20:57 26.02.2021
2076 Clouds 12 1033 76 10000 5.14 50 20:38 26.02.2021
2077 Clouds 12 1033 76 10000 5.14 50 20:19 26.02.2021
2078 Clouds 12 1032 82 9000 1.54 330 19:27 26.02.2021
2079 Clouds 12 1032 82 10000 1.03 0 18:57 26.02.2021
2080 Clouds 13 1032 76 10000 1.54 40 18:38 26.02.2021
2081 Clouds 13 1032 76 10000 1.54 40 18:19 26.02.2021
2082 Clouds 13 1032 76 10000 4.12 40 17:38 26.02.2021
2083 Clouds 13 1032 76 10000 4.12 40 17:19 26.02.2021
2084 Clouds 13 1032 76 10000 4.12 20 16:48 26.02.2021
2085 Clouds 13 1032 76 10000 3.6 20 16:30 26.02.2021
2086 Clouds 13 1032 76 10000 3.09 20 15:48 26.02.2021
2087 Clouds 13 1032 76 10000 3.09 30 15:29 26.02.2021
2088 Clouds 13 1032 82 10000 3.09 10 14:59 26.02.2021
2089 Clouds 13 1033 87 10000 3.6 10 14:37 26.02.2021
2090 Clouds 13 1033 87 10000 3.6 10 14:18 26.02.2021
2091 Clouds 14 1033 76 10000 3.09 60 13:39 26.02.2021
2092 Clouds 14 1033 76 10000 3.09 60 13:20 26.02.2021
2093 Clouds 14 1033 76 10000 3.09 60 13:20 26.02.2021
2094 Clouds 14 1033 76 10000 3.09 40 12:33 26.02.2021
2095 Clouds 13 1033 87 10000 1.03 0 11:47 26.02.2021
2096 Clouds 13 1033 87 10000 1.03 0 11:20 26.02.2021
2097 Clouds 13 1033 87 10000 1.03 0 11:20 26.02.2021
2098 Clouds 13 1033 82 10000 1.03 80 10:44 26.02.2021
2099 Clouds 11 1033 87 9000 1.03 0 09:49 26.02.2021
2100 Clouds 11 1033 87 9000 1.03 0 09:29 26.02.2021
2101 Clouds 11 1032 87 9000 1.03 20 08:41 26.02.2021
2102 Clouds 11 1032 87 10000 1.49 3 07:59 26.02.2021
2103 Clouds 11 1032 87 10000 1.49 2 07:59 26.02.2021
2104 Clouds 11 1032 87 10000 0.51 250 07:27 26.02.2021
2105 Clouds 11 1032 87 10000 1.03 0 06:35 26.02.2021
2106 Clouds 11 1031 87 10000 1.54 350 05:20 26.02.2021
2107 Clouds 11 1032 87 10000 2.06 320 02:41 26.02.2021
2108 Clouds 11 1032 93 10000 3.6 280 00:33 26.02.2021
2109 Clouds 11 1032 93 10000 2.57 280 23:41 25.02.2021
2110 Clouds 11 1032 93 10000 2.06 260 23:19 25.02.2021
2111 Clouds 11 1031 93 10000 2.06 250 22:38 25.02.2021
2112 Clouds 12 1031 87 10000 3.09 250 21:54 25.02.2021
2113 Clouds 12 1031 87 10000 3.09 250 21:54 25.02.2021
2114 Clouds 11 1031 93 10000 3.09 260 21:33 25.02.2021
2115 Clouds 12 1031 94 10000 2.57 260 20:56 25.02.2021
2116 Clear 12 1030 94 10000 3.6 260 20:37 25.02.2021
2117 Clear 13 1030 88 10000 3.09 250 20:18 25.02.2021
2118 Clear 13 1030 88 10000 3.09 250 19:47 25.02.2021
2119 Clear 14 1030 82 10000 3.6 260 19:19 25.02.2021
2120 Clear 15 1029 72 10000 3.09 270 18:44 25.02.2021
2121 Clear 16 1029 59 10000 3.09 240 18:18 25.02.2021
2122 Clear 17 1028 55 10000 4.12 250 17:42 25.02.2021
2123 Clear 18 1028 52 10000 5.14 250 17:22 25.02.2021
2124 Clear 19 1028 45 10000 5.14 230 16:34 25.02.2021
2125 Clear 19 1028 52 10000 3.6 230 15:51 25.02.2021
2126 Clear 18 1028 55 10000 4.12 240 15:28 25.02.2021
2127 Clear 18 1028 52 10000 3.6 210 14:40 25.02.2021
2128 Clear 18 1028 52 10000 3.6 210 14:20 25.02.2021
2129 Clear 17 1028 59 10000 3.6 200 13:44 25.02.2021
2130 Clear 17 1029 63 10000 2.12 159 13:23 25.02.2021
2131 Clear 16 1029 72 10000 3.6 150 12:39 25.02.2021
2132 Clear 15 1029 72 10000 3.6 150 12:20 25.02.2021
2133 Clear 14 1029 82 10000 3.09 140 11:43 25.02.2021
2134 Clear 12 1028 82 10000 4.12 150 10:53 25.02.2021
2135 Clear 11 1028 87 10000 3.09 140 10:35 25.02.2021
2136 Clear 10 1028 93 10000 3.6 150 09:48 25.02.2021
2137 Clear 10 1027 93 10000 3.09 140 09:26 25.02.2021
2138 Clear 9 1026 93 10000 4.12 140 08:40 25.02.2021
2139 Clear 9 1026 93 10000 4.12 140 08:21 25.02.2021
2140 Clear 9 1026 93 10000 3.6 140 07:39 25.02.2021
2141 Clear 9 1026 93 10000 4.63 150 06:58 25.02.2021
2142 Clear 10 1026 93 10000 4.12 150 05:28 25.02.2021
2143 Clear 12 1026 87 10000 4.63 150 01:49 25.02.2021
2144 Clear 12 1026 87 10000 4.12 150 00:48 25.02.2021
2145 Clear 13 1026 88 10000 4.12 150 00:19 25.02.2021
2146 Clear 14 1026 82 10000 5.14 150 23:36 24.02.2021
2147 Clear 14 1026 77 10000 4.63 150 22:50 24.02.2021
2148 Clear 14 1026 77 10000 4.12 150 22:30 24.02.2021
2149 Clear 15 1026 77 10000 4.12 150 21:49 24.02.2021
2150 Clear 15 1026 72 10000 4.12 150 21:30 24.02.2021
2151 Clear 16 1026 72 10000 3.6 150 20:49 24.02.2021
2152 Clear 16 1026 72 10000 3.09 150 20:26 24.02.2021
2153 Clear 16 1026 72 10000 3.09 140 19:42 24.02.2021
2154 Clear 17 1026 67 10000 3.6 130 19:20 24.02.2021
2155 Clear 18 1026 63 10000 3.6 130 18:50 24.02.2021
2156 Clear 19 1026 59 10000 4.12 130 18:30 24.02.2021
2157 Clear 20 1026 56 10000 5.66 130 17:39 24.02.2021
2158 Clear 21 1026 56 10000 5.66 130 17:21 24.02.2021
2159 Clear 21 1026 60 10000 5.14 130 16:46 24.02.2021
2160 Clear 21 1026 56 10000 5.14 120 16:21 24.02.2021
2161 Clear 21 1027 56 10000 4.63 120 15:50 24.02.2021
2162 Clear 21 1027 63 10000 4.63 120 15:28 24.02.2021
2163 Clear 20 1027 63 10000 3.6 100 14:44 24.02.2021
2164 Clear 20 1028 68 10000 3.6 120 14:26 24.02.2021
2165 Clear 19 1028 68 10000 2.57 140 13:41 24.02.2021
2166 Clear 18 1029 72 10000 3.09 140 13:23 24.02.2021
2167 Clouds 17 1029 72 10000 3.6 160 12:53 24.02.2021
2168 Clouds 16 1030 82 10000 4.12 170 12:33 24.02.2021
2169 Clouds 15 1030 82 10000 3.09 160 11:52 24.02.2021
2170 Clouds 14 1030 88 10000 3.09 160 11:29 24.02.2021
2171 Clouds 12 1030 100 9000 4.12 150 10:38 24.02.2021
2172 Clouds 12 1030 100 9000 4.12 150 10:19 24.02.2021
2173 Clouds 11 1030 100 7000 3.09 150 09:22 24.02.2021
2174 Mist 11 1030 100 5000 4.12 150 08:41 24.02.2021
2175 Mist 11 1030 100 3900 5.14 140 08:22 24.02.2021
2176 Mist 11 1030 100 3700 5.66 150 07:21 24.02.2021
2177 Fog 11 1030 100 1100 4.63 140 06:52 24.02.2021
2178 Clouds 10 1030 100 8000 4.63 140 04:23 24.02.2021
2179 Clear 9 1031 100 10000 2.06 160 00:43 24.02.2021
2180 Clear 11 1031 87 10000 1.54 160 23:29 23.02.2021
2181 Clear 10 1032 82 10000 2.06 170 22:42 23.02.2021
2182 Clear 11 1031 82 10000 2.57 160 22:20 23.02.2021
2183 Clear 12 1031 82 10000 3.09 160 21:46 23.02.2021
2184 Clear 13 1031 77 10000 2.57 170 21:24 23.02.2021
2185 Clear 14 1031 77 10000 3.6 160 20:49 23.02.2021
2186 Clear 14 1031 72 10000 4.12 150 20:30 23.02.2021
2187 Clear 14 1031 72 10000 4.12 150 20:30 23.02.2021
2188 Clear 14 1031 72 10000 4.12 140 19:49 23.02.2021
2189 Clear 15 1030 72 10000 4.63 130 19:29 23.02.2021
2190 Clear 16 1030 67 10000 5.14 120 18:59 23.02.2021
2191 Clear 16 1030 63 10000 4.63 130 18:40 23.02.2021
2192 Clear 17 1030 63 10000 4.63 130 18:20 23.02.2021
2193 Clear 18 1030 55 10000 4.63 150 17:39 23.02.2021
2194 Clear 19 1030 55 10000 5.14 160 16:58 23.02.2021
2195 Clear 18 1030 52 10000 5.14 170 16:39 23.02.2021
2196 Clear 19 1030 52 10000 5.14 170 16:20 23.02.2021
2197 Clear 20 1030 49 10000 4.63 160 15:41 23.02.2021
2198 Clear 20 1030 52 10000 4.63 150 15:21 23.02.2021
2199 Clear 19 1030 55 10000 5.14 160 14:45 23.02.2021
2200 Clear 19 1030 55 10000 5.14 160 14:26 23.02.2021
2201 Clear 18 1030 63 10000 4.63 140 13:47 23.02.2021
2202 Clear 17 1030 67 10000 4.63 140 13:26 23.02.2021
2203 Clear 16 1031 77 10000 5.14 150 12:52 23.02.2021
2204 Clouds 13 1031 82 10000 5.14 140 12:22 23.02.2021
2205 Clouds 14 1031 93 10000 4.63 130 11:51 23.02.2021
2206 Clouds 13 1031 100 10000 4.12 140 11:23 23.02.2021
2207 Clouds 10 1031 100 10000 3.6 140 10:52 23.02.2021
2208 Mist 10 1030 100 2500 2.06 140 10:34 23.02.2021
2209 Fog 8 1030 100 600 2.57 150 09:45 23.02.2021
2210 Fog 7 1030 100 450 2.06 150 09:25 23.02.2021
2211 Fog 7 1030 100 500 1.54 170 08:54 23.02.2021
2212 Fog 7 1029 100 500 3.09 150 08:25 23.02.2021
2213 Mist 6 1029 100 1200 2.57 140 07:58 23.02.2021
2214 Clear 7 1028 93 10000 2.06 180 05:40 23.02.2021
2215 Clear 6 1028 100 7000 2.06 160 04:58 23.02.2021
2216 Fog 7 1027 100 900 2.06 210 02:34 23.02.2021
2217 Clouds 8 1026 100 10000 2.06 170 00:20 23.02.2021
2218 Clear 8 1026 100 10000 2.06 140 23:57 22.02.2021
2219 Clouds 9 1026 93 10000 1.54 220 23:21 22.02.2021
2220 Clouds 10 1026 93 10000 1.54 230 22:41 22.02.2021
2221 Clouds 11 1025 87 10000 2.06 260 22:20 22.02.2021
2222 Clouds 11 1025 93 10000 1.54 250 21:45 22.02.2021
2223 Clouds 11 1025 93 10000 1.54 250 21:45 22.02.2021
2224 Clouds 11 1025 93 10000 1.03 230 21:23 22.02.2021
2225 Clouds 11 1024 87 10000 1.03 0 20:51 22.02.2021
2226 Clouds 11 1024 87 10000 0.51 0 20:28 22.02.2021
2227 Clouds 11 1024 87 10000 1.54 300 19:51 22.02.2021
2228 Clouds 12 1023 93 10000 2.57 290 19:33 22.02.2021
2229 Clouds 12 1022 93 10000 3.09 280 18:56 22.02.2021
2230 Clouds 12 1021 82 10000 4.12 290 18:37 22.02.2021
2231 Clouds 12 1021 82 10000 4.12 290 18:18 22.02.2021
2232 Clouds 11 1020 93 10000 4.63 310 17:24 22.02.2021
2233 Clouds 11 1019 93 10000 5.14 300 16:54 22.02.2021
2234 Clouds 12 1019 94 10000 4.12 300 16:32 22.02.2021
2235 Clouds 13 1018 88 10000 3.09 220 15:44 22.02.2021
2236 Clouds 13 1017 88 10000 3.09 180 15:25 22.02.2021
2237 Clouds 13 1017 88 7000 2.57 210 14:47 22.02.2021
2238 Clouds 13 1017 94 10000 3.09 190 14:23 22.02.2021
2239 Clouds 13 1017 94 10000 2.57 220 13:46 22.02.2021
2240 Clouds 13 1016 82 10000 3.09 210 12:56 22.02.2021
2241 Clouds 13 1016 88 10000 3.6 210 12:23 22.02.2021
2242 Clouds 12 1015 94 10000 3.6 190 11:57 22.02.2021
2243 Clouds 12 1015 87 10000 2.06 160 11:33 22.02.2021
2244 Clouds 12 1014 87 10000 2.57 200 10:59 22.02.2021
2245 Clouds 12 1014 82 10000 2.57 210 10:41 22.02.2021
2246 Clouds 12 1014 82 10000 2.57 210 10:21 22.02.2021
2247 Clouds 13 1013 82 10000 2.06 110 09:39 22.02.2021
2248 Clouds 13 1013 82 10000 2.06 110 09:21 22.02.2021
2249 Clouds 13 1013 82 10000 2.06 110 09:21 22.02.2021
2250 Clouds 13 1012 82 10000 1.03 0 08:49 22.02.2021
2251 Clouds 13 1011 82 10000 2.06 110 08:21 22.02.2021
2252 Clouds 13 1011 82 10000 3.09 150 07:48 22.02.2021
2253 Clouds 13 1011 82 10000 3.09 150 07:22 22.02.2021
2254 Clouds 12 1011 87 10000 2.57 130 06:27 22.02.2021
2255 Clouds 12 1010 82 10000 2.57 140 04:55 22.02.2021
2256 Clear 11 1010 76 10000 2.57 90 03:23 22.02.2021
2257 Clear 10 1010 76 10000 2.06 110 00:56 22.02.2021
2258 Clear 11 1010 71 10000 2.57 130 00:30 22.02.2021
2259 Clear 12 1009 67 10000 4.12 100 23:57 21.02.2021
2260 Clear 12 1009 67 10000 3.6 90 23:25 21.02.2021
2261 Clear 13 1009 67 10000 3.09 100 22:36 21.02.2021
2262 Clear 13 1009 67 10000 3.09 100 21:53 21.02.2021
2263 Clear 13 1009 67 10000 2.06 120 21:34 21.02.2021
2264 Clear 13 1009 67 10000 2.06 120 21:34 21.02.2021
2265 Clouds 13 1009 67 10000 2.06 150 20:58 21.02.2021
2266 Clouds 14 1009 62 10000 1.03 210 20:38 21.02.2021
2267 Clouds 14 1009 62 10000 1.03 210 20:18 21.02.2021
2268 Clear 14 1009 62 10000 3.09 180 19:44 21.02.2021
2269 Clear 14 1007 62 10000 3.6 140 19:24 21.02.2021
2270 Clear 15 1007 58 10000 7.2 120 18:30 21.02.2021
2271 Clear 15 1006 58 10000 8.23 120 17:59 21.02.2021
2272 Clear 15 1006 58 10000 8.75 130 17:28 21.02.2021
2273 Clear 15 1006 58 10000 10.29 120 16:53 21.02.2021
2274 Clear 16 1006 55 10000 9.77 120 16:32 21.02.2021
2275 Clear 16 1006 55 10000 10.29 120 15:47 21.02.2021
2276 Clear 16 1006 55 10000 8.23 120 15:20 21.02.2021
2277 Clear 15 1006 58 10000 9.77 120 14:42 21.02.2021
2278 Clear 15 1006 58 10000 8.75 120 14:21 21.02.2021
2279 Clear 15 1007 67 10000 8.75 120 13:45 21.02.2021
2280 Clear 15 1007 67 10000 8.75 120 13:22 21.02.2021
2281 Clear 14 1008 67 10000 7.72 120 12:29 21.02.2021
2282 Clear 13 1008 67 10000 6.17 120 11:44 21.02.2021
2283 Clear 13 1008 67 10000 7.72 130 10:59 21.02.2021
2284 Clear 12 1008 71 10000 7.2 130 10:23 21.02.2021
2285 Clear 12 1008 71 10000 6.69 120 09:55 21.02.2021
2286 Clear 12 1008 71 10000 6.69 120 09:55 21.02.2021
2287 Clear 12 1008 71 10000 6.69 130 09:29 21.02.2021
2288 Clear 12 1008 71 10000 7.2 120 08:54 21.02.2021
2289 Clear 12 1008 71 10000 7.72 120 08:20 21.02.2021
2290 Clear 12 1008 71 10000 6.69 130 07:35 21.02.2021
2291 Clear 12 1008 71 10000 6.69 130 06:53 21.02.2021
2292 Clear 12 1009 71 10000 7.72 120 03:36 21.02.2021
2293 Clear 12 1009 76 10000 7.72 120 02:29 21.02.2021
2294 Clear 12 1009 76 10000 7.72 130 00:43 21.02.2021
2295 Clear 13 1009 71 10000 8.75 130 00:19 21.02.2021
2296 Clear 13 1009 71 10000 8.23 130 23:20 20.02.2021
2297 Clear 13 1009 71 10000 9.26 120 22:41 20.02.2021
2298 Clear 13 1009 71 10000 9.26 120 22:23 20.02.2021
2299 Clear 14 1009 67 10000 8.75 120 21:44 20.02.2021
2300 Clear 15 1008 63 10000 8.23 130 21:24 20.02.2021
2301 Clear 15 1008 63 10000 8.23 130 20:42 20.02.2021
2302 Clear 15 1008 63 10000 8.75 130 20:21 20.02.2021
2303 Clear 16 1008 59 10000 9.77 130 19:52 20.02.2021
2304 Clear 16 1008 59 10000 9.26 140 19:27 20.02.2021
2305 Clear 16 1008 55 10000 6.17 140 18:39 20.02.2021
2306 Clear 16 1008 55 10000 6.17 140 18:20 20.02.2021
2307 Clear 17 1008 55 10000 7.2 140 17:38 20.02.2021
2308 Clear 17 1008 59 10000 7.72 140 16:55 20.02.2021
2309 Clear 17 1008 59 10000 7.72 140 16:32 20.02.2021
2310 Clear 17 1008 59 10000 7.72 130 15:47 20.02.2021
2311 Clear 17 1008 55 10000 6.69 140 15:23 20.02.2021
2312 Clear 17 1008 59 10000 7.2 140 14:46 20.02.2021
2313 Clear 17 1008 55 10000 8.75 140 14:23 20.02.2021
2314 Clear 16 1009 67 10000 6.17 140 13:41 20.02.2021
2315 Clear 16 1009 67 10000 6.17 140 13:23 20.02.2021
2316 Clear 16 1010 63 10000 7.2 130 12:50 20.02.2021
2317 Clear 15 1010 67 10000 7.2 140 12:23 20.02.2021
2318 Clear 14 1009 71 10000 9.26 140 11:43 20.02.2021
2319 Clear 14 1009 71 10000 9.26 140 11:24 20.02.2021
2320 Clear 12 1010 71 10000 9.77 140 10:47 20.02.2021
2321 Clear 11 1010 82 10000 8.75 140 09:54 20.02.2021
2322 Clear 11 1010 82 10000 8.75 140 09:22 20.02.2021
2323 Clear 11 1010 82 10000 8.23 140 08:34 20.02.2021
2324 Clear 10 1010 87 10000 8.23 130 07:55 20.02.2021
2325 Clear 11 1011 82 10000 7.2 140 02:46 20.02.2021
2326 Clear 11 1011 82 10000 7.2 140 02:24 20.02.2021
2327 Clear 12 1011 76 10000 6.69 140 01:48 20.02.2021
2328 Clear 12 1012 76 10000 6.69 140 00:45 20.02.2021
2329 Clear 12 1012 71 10000 7.72 140 23:52 19.02.2021
2330 Clear 13 1012 71 10000 7.2 140 22:56 19.02.2021
2331 Clear 14 1012 67 10000 7.72 140 22:27 19.02.2021
2332 Clear 14 1013 67 10000 6.69 140 21:50 19.02.2021
2333 Clear 14 1013 67 10000 7.2 140 21:30 19.02.2021
2334 Clear 15 1013 67 10000 6.69 140 20:48 19.02.2021
2335 Clear 15 1013 63 10000 6.17 140 20:28 19.02.2021
2336 Clear 16 1013 63 10000 4.12 140 19:55 19.02.2021
2337 Clear 16 1013 63 10000 4.63 130 19:24 19.02.2021
2338 Clear 17 1013 59 10000 4.12 140 18:56 19.02.2021
2339 Clear 17 1012 52 10000 4.12 150 18:33 19.02.2021
2340 Clear 18 1012 48 10000 3.6 150 17:49 19.02.2021
2341 Clear 19 1012 42 10000 4.12 160 16:52 19.02.2021
2342 Clear 20 1012 42 10000 4.63 170 16:27 19.02.2021
2343 Clear 20 1013 42 10000 5.14 160 15:57 19.02.2021
2344 Clear 20 1013 42 10000 5.14 170 15:31 19.02.2021
2345 Clear 20 1013 42 10000 5.66 170 14:56 19.02.2021
2346 Clear 20 1013 42 10000 6.17 160 14:36 19.02.2021
2347 Clear 19 1014 48 10000 5.66 160 13:58 19.02.2021
2348 Clear 18 1014 48 10000 5.66 160 13:37 19.02.2021
2349 Clear 17 1015 55 10000 4.63 160 13:19 19.02.2021
2350 Clear 16 1015 63 10000 4.63 160 12:41 19.02.2021
2351 Clear 16 1015 63 10000 4.63 160 12:22 19.02.2021
2352 Clear 15 1015 67 10000 5.14 150 11:44 19.02.2021
2353 Clear 14 1015 72 10000 4.63 140 11:20 19.02.2021
2354 Clear 12 1015 87 10000 5.14 140 10:39 19.02.2021
2355 Clear 12 1015 87 10000 5.14 140 10:19 19.02.2021
2356 Clear 10 1015 93 10000 4.63 140 09:38 19.02.2021
2357 Clear 10 1015 93 10000 4.63 140 09:19 19.02.2021
2358 Clear 9 1015 93 10000 5.14 140 08:49 19.02.2021
2359 Clouds 9 1015 93 8000 4.63 140 08:21 19.02.2021
2360 Clouds 9 1015 93 8000 4.12 140 07:45 19.02.2021
2361 Clouds 9 1015 93 8000 4.63 140 07:26 19.02.2021
2362 Clouds 9 1015 93 10000 4.63 140 06:44 19.02.2021
2363 Clear 9 1015 93 10000 3.09 120 04:42 19.02.2021
2364 Clear 8 1016 93 10000 2.06 130 02:50 19.02.2021
2365 Clear 8 1017 100 10000 2.57 150 01:46 19.02.2021
2366 Clear 8 1017 100 10000 2.57 150 01:46 19.02.2021
2367 Clear 9 1017 100 10000 1.54 160 00:36 19.02.2021
2368 Clouds 10 1018 93 10000 1.54 170 23:48 18.02.2021
2369 Clear 10 1018 93 10000 2.57 180 23:30 18.02.2021
2370 Clear 10 1018 93 10000 3.09 170 22:42 18.02.2021
2371 Clear 10 1018 93 10000 2.57 170 22:24 18.02.2021
2372 Clear 10 1017 93 10000 1.54 180 21:42 18.02.2021
2373 Clear 10 1017 93 10000 1.54 180 21:24 18.02.2021
2374 Clouds 11 1017 87 10000 1.54 200 20:40 18.02.2021
2375 Clouds 11 1017 87 10000 1.54 200 20:21 18.02.2021
2376 Clear 11 1017 87 10000 1.54 260 19:46 18.02.2021
2377 Clouds 11 1017 87 10000 2.06 250 19:21 18.02.2021
2378 Clouds 11 1016 87 10000 2.57 260 18:50 18.02.2021
2379 Drizzle 11 1016 87 10000 3.6 260 18:26 18.02.2021
2380 Clouds 12 1016 82 10000 3.6 250 17:52 18.02.2021
2381 Clouds 12 1015 76 10000 3.6 260 17:25 18.02.2021
2382 Clouds 13 1015 71 10000 4.63 240 16:47 18.02.2021
2383 Clouds 13 1015 71 10000 4.12 260 16:29 18.02.2021
2384 Clouds 13 1014 71 10000 4.12 270 15:43 18.02.2021
2385 Clouds 14 1014 72 10000 4.12 280 15:24 18.02.2021
2386 Clouds 14 1014 82 10000 3.6 270 14:55 18.02.2021
2387 Clouds 14 1014 72 10000 6.17 290 14:34 18.02.2021
2388 Clouds 14 1014 72 10000 6.69 280 13:50 18.02.2021
2389 Clouds 15 1013 67 10000 6.69 260 13:22 18.02.2021
2390 Clear 15 1013 67 10000 2.57 250 12:56 18.02.2021
2391 Clear 15 1013 67 10000 0.51 0 12:33 18.02.2021
2392 Clear 14 1012 67 10000 5.6 202 11:47 18.02.2021
2393 Clear 14 1012 67 10000 5.6 202 11:47 18.02.2021
2394 Clear 13 1012 67 10000 2.06 260 11:28 18.02.2021
2395 Clear 13 1012 62 10000 2.06 0 10:58 18.02.2021
2396 Clear 12 1011 76 10000 2.06 120 10:37 18.02.2021
2397 Clear 11 1011 76 10000 2.06 120 10:19 18.02.2021
2398 Clear 11 1010 71 10000 2.57 170 09:31 18.02.2021
2399 Clear 11 1010 76 10000 3.6 150 08:59 18.02.2021
2400 Clear 11 1010 76 10000 4.63 150 08:31 18.02.2021
2401 Clear 11 1010 76 10000 4.12 140 07:49 18.02.2021
2402 Clear 11 1010 76 10000 4.63 140 07:24 18.02.2021
2403 Clear 11 1011 71 10000 3.6 150 06:18 18.02.2021
2404 Clear 12 1014 67 10000 5.14 150 00:40 18.02.2021
2405 Clear 13 1014 67 10000 4.63 150 23:45 17.02.2021
2406 Clear 13 1014 71 10000 4.63 150 23:18 17.02.2021
2407 Clear 13 1015 67 10000 4.63 140 22:40 17.02.2021
2408 Clear 13 1015 67 10000 4.63 140 22:40 17.02.2021
2409 Clear 14 1015 67 10000 4.63 140 22:22 17.02.2021
2410 Clear 14 1015 67 10000 4.63 140 22:22 17.02.2021
2411 Clear 13 1015 67 10000 4.12 150 21:45 17.02.2021
2412 Clear 13 1015 76 10000 3.6 150 21:20 17.02.2021
2413 Clear 12 1016 76 10000 2.06 150 20:42 17.02.2021
2414 Clear 12 1016 76 10000 1.54 130 20:23 17.02.2021
2415 Clear 13 1016 71 10000 1.54 130 19:38 17.02.2021
2416 Clear 15 1016 63 10000 2.06 130 18:59 17.02.2021
2417 Clear 14 1016 63 10000 2.06 130 18:59 17.02.2021
2418 Clear 15 1016 59 10000 2.06 130 18:40 17.02.2021
2419 Clear 17 1017 55 10000 2.06 170 17:47 17.02.2021
2420 Clear 17 1017 51 10000 2.57 190 17:23 17.02.2021
2421 Clear 17 1017 51 10000 3.6 200 16:54 17.02.2021
2422 Clouds 17 1018 55 10000 4.12 170 16:36 17.02.2021
2423 Clouds 18 1018 55 10000 4.12 170 16:18 17.02.2021
2424 Clouds 18 1018 55 10000 3.6 180 15:42 17.02.2021
2425 Clouds 18 1018 59 10000 4.63 150 15:22 17.02.2021
2426 Clear 17 1019 59 10000 4.63 140 14:44 17.02.2021
2427 Clear 17 1019 63 10000 5.14 140 14:25 17.02.2021
2428 Clouds 15 1021 67 10000 4.63 120 13:43 17.02.2021
2429 Clear 14 1021 67 10000 4.63 120 12:59 17.02.2021
2430 Clear 14 1021 76 10000 4.12 110 12:26 17.02.2021
2431 Clear 13 1022 82 10000 4.12 120 11:50 17.02.2021
2432 Clear 12 1022 87 10000 4.63 120 11:30 17.02.2021
2433 Clear 11 1022 87 10000 4.12 130 10:59 17.02.2021
2434 Clear 10 1023 100 10000 2.57 120 10:40 17.02.2021
2435 Clear 9 1023 100 10000 2.57 120 10:20 17.02.2021
2436 Clouds 6 1023 100 9000 1.54 100 09:41 17.02.2021
2437 Clouds 6 1023 100 9000 1.54 100 09:18 17.02.2021
2438 Fog 5 1023 100 900 1.54 130 08:42 17.02.2021
2439 Fog 4 1023 100 1000 1.03 110 08:20 17.02.2021
2440 Fog 4 1023 100 1300 1.03 110 07:25 17.02.2021
2441 Clouds 6 1023 100 10000 1.54 180 03:55 17.02.2021
2442 Clouds 6 1024 100 10000 1.03 170 02:33 17.02.2021
2443 Mist 7 1024 93 5000 3.09 180 01:49 17.02.2021
2444 Fog 8 1024 100 650 2.06 200 00:30 17.02.2021
2445 Fog 7 1024 100 1200 2.06 200 23:50 16.02.2021
2446 Fog 8 1024 100 7000 2.06 210 23:32 16.02.2021
2447 Clouds 9 1024 93 10000 2.06 220 22:42 16.02.2021
2448 Clouds 9 1024 93 10000 2.57 230 22:22 16.02.2021
2449 Clouds 10 1024 93 10000 2.57 210 21:41 16.02.2021
2450 Clouds 10 1024 93 10000 2.57 210 21:22 16.02.2021
2451 Clouds 10 1024 87 10000 1.54 230 20:58 16.02.2021
2452 Clouds 11 1023 87 10000 2.57 220 20:38 16.02.2021
2453 Clouds 11 1023 87 10000 2.57 220 20:20 16.02.2021
2454 Clouds 12 1023 82 10000 4.12 240 19:40 16.02.2021
2455 Clouds 12 1023 82 10000 4.12 240 19:21 16.02.2021
2456 Clouds 13 1022 76 10000 4.63 250 18:40 16.02.2021
2457 Clouds 13 1022 76 10000 4.63 250 18:21 16.02.2021
2458 Clouds 13 1022 76 10000 5.66 250 17:49 16.02.2021
2459 Clouds 14 1022 67 10000 6.17 260 17:23 16.02.2021
2460 Clear 15 1022 67 10000 4.63 270 16:51 16.02.2021
2461 Clear 14 1021 67 10000 5.66 290 16:24 16.02.2021
2462 Clouds 16 1020 63 10000 11.32 280 15:47 16.02.2021
2463 Clouds 15 1021 63 10000 9.26 300 15:47 16.02.2021
2464 Clouds 16 1020 63 10000 11.32 280 15:26 16.02.2021
2465 Clouds 17 1020 55 10000 14.92 250 14:48 16.02.2021
2466 Clear 18 1019 48 10000 10.8 230 14:30 16.02.2021
2467 Clear 17 1019 48 10000 8.75 220 13:57 16.02.2021
2468 Clear 16 1019 58 10000 5.66 200 13:34 16.02.2021
2469 Clear 13 1019 71 10000 4.12 170 12:46 16.02.2021
2470 Clear 13 1019 71 10000 4.12 170 12:25 16.02.2021
2471 Clear 12 1019 71 10000 4.12 170 11:50 16.02.2021
2472 Clear 11 1019 81 10000 3.6 150 11:24 16.02.2021
2473 Clear 10 1020 81 10000 3.09 150 10:56 16.02.2021
2474 Clear 9 1020 81 10000 3.6 150 10:38 16.02.2021
2475 Clear 9 1020 81 10000 3.6 150 10:20 16.02.2021
2476 Clear 8 1020 87 10000 4.12 150 09:47 16.02.2021
2477 Clear 8 1020 87 10000 4.12 150 09:47 16.02.2021
2478 Clear 7 1020 93 10000 4.63 150 09:26 16.02.2021
2479 Clear 7 1020 87 10000 4.63 140 08:42 16.02.2021
2480 Clear 7 1020 87 10000 4.63 140 08:21 16.02.2021
2481 Clear 7 1020 87 10000 4.12 140 07:27 16.02.2021
2482 Clear 8 1021 81 10000 4.63 140 05:31 16.02.2021
2483 Clear 9 1024 76 10000 6.17 140 00:51 16.02.2021
2484 Clear 9 1024 76 10000 5.66 140 23:41 15.02.2021
2485 Clear 9 1025 76 10000 6.17 140 23:20 15.02.2021
2486 Clear 10 1025 71 10000 6.17 140 22:44 15.02.2021
2487 Clear 10 1025 71 10000 6.69 140 22:21 15.02.2021
2488 Clear 10 1025 71 10000 5.66 140 21:42 15.02.2021
2489 Clear 11 1025 66 10000 5.66 140 21:21 15.02.2021
2490 Clear 11 1026 71 10000 6.69 140 20:47 15.02.2021
2491 Clear 11 1026 66 10000 5.66 130 20:26 15.02.2021
2492 Clear 11 1026 66 10000 5.14 130 19:44 15.02.2021
2493 Clear 12 1026 62 10000 4.63 140 19:23 15.02.2021
2494 Clear 13 1026 62 10000 5.14 130 18:47 15.02.2021
2495 Clear 13 1026 62 10000 5.14 130 18:26 15.02.2021
2496 Clear 14 1026 62 10000 5.14 130 17:43 15.02.2021
2497 Clear 14 1026 58 10000 5.66 130 17:25 15.02.2021
2498 Clear 16 1027 55 10000 5.66 130 16:57 15.02.2021
2499 Clear 16 1027 55 10000 5.14 130 16:28 15.02.2021
2500 Clear 15 1027 58 10000 4.63 120 15:52 15.02.2021
2501 Clear 16 1027 55 10000 5.14 120 15:25 15.02.2021
2502 Clear 16 1027 58 10000 5.14 140 14:59 15.02.2021
2503 Clear 15 1028 55 10000 4.63 130 14:36 15.02.2021
2504 Clear 16 1028 55 10000 4.63 130 14:18 15.02.2021
2505 Clear 15 1028 58 10000 4.63 130 13:45 15.02.2021
2506 Clear 14 1029 54 10000 4.12 130 13:19 15.02.2021
2507 Clear 14 1029 58 10000 5.14 140 12:44 15.02.2021
2508 Clear 13 1029 62 10000 5.14 140 12:20 15.02.2021
2509 Clear 12 1029 66 10000 5.14 140 11:42 15.02.2021
2510 Clear 11 1029 66 10000 5.66 150 11:19 15.02.2021
2511 Clear 9 1029 71 10000 4.63 140 10:47 15.02.2021
2512 Clear 8 1029 76 10000 5.14 140 10:24 15.02.2021
2513 Clear 8 1029 71 10000 5.66 140 09:55 15.02.2021
2514 Clear 7 1028 76 10000 5.66 140 09:33 15.02.2021
2515 Clear 6 1028 81 10000 5.14 140 08:45 15.02.2021
2516 Clear 6 1028 81 10000 5.66 140 07:40 15.02.2021
2517 Clear 6 1028 81 10000 5.14 140 06:58 15.02.2021
2518 Clear 6 1028 81 10000 5.66 140 06:37 15.02.2021
2519 Clear 6 1028 75 10000 6.17 140 02:30 15.02.2021
2520 Clear 7 1028 70 10000 6.69 140 00:45 15.02.2021
2521 Clear 7 1027 76 10000 7.2 140 23:34 14.02.2021
2522 Clear 7 1028 76 10000 7.2 140 22:55 14.02.2021
2523 Clear 7 1027 71 10000 6.17 140 22:37 14.02.2021
2524 Clear 7 1027 71 10000 6.17 140 22:18 14.02.2021
2525 Clear 8 1027 71 10000 6.69 140 21:43 14.02.2021
2526 Clear 8 1027 76 10000 8.23 140 21:23 14.02.2021
2527 Clear 8 1027 76 10000 8.23 140 21:23 14.02.2021
2528 Clear 9 1027 71 10000 6.69 140 20:42 14.02.2021
2529 Clear 9 1027 71 10000 6.69 140 20:22 14.02.2021
2530 Clear 10 1027 71 10000 6.69 140 19:40 14.02.2021
2531 Clear 10 1027 71 10000 6.69 130 18:51 14.02.2021
2532 Clear 10 1027 71 10000 6.69 130 18:51 14.02.2021
2533 Clear 11 1027 71 10000 6.17 130 18:29 14.02.2021
2534 Clear 12 1027 71 10000 5.66 130 17:51 14.02.2021
2535 Clear 12 1026 71 10000 5.14 120 17:33 14.02.2021
2536 Clear 13 1027 67 10000 6.17 120 16:48 14.02.2021
2537 Clear 12 1027 71 10000 6.17 120 16:25 14.02.2021
2538 Clear 12 1027 71 10000 5.66 120 15:49 14.02.2021
2539 Clear 12 1027 76 10000 5.14 140 15:29 14.02.2021
2540 Clouds 11 1027 81 10000 6.17 120 14:45 14.02.2021
2541 Clouds 11 1027 81 10000 5.66 130 14:25 14.02.2021
2542 Clouds 8 1028 87 10000 6.17 130 13:42 14.02.2021
2543 Clouds 8 1028 87 10000 7.2 120 13:23 14.02.2021
2544 Clear 7 1028 87 10000 6.69 130 12:26 14.02.2021
2545 Clear 8 1028 81 10000 5.14 120 11:59 14.02.2021
2546 Clear 8 1028 81 10000 3.6 130 11:40 14.02.2021
2547 Clear 8 1028 81 10000 3.6 130 11:20 14.02.2021
2548 Clear 6 1028 81 10000 2.57 140 10:24 14.02.2021
2549 Clear 4 1028 93 10000 3.6 120 09:40 14.02.2021
2550 Clear 3 1028 93 10000 3.6 120 09:21 14.02.2021
2551 Clouds 2 1028 93 8000 3.09 110 08:57 14.02.2021
2552 Clear 2 1028 93 8000 2.57 110 08:18 14.02.2021
2553 Clear 2 1028 93 10000 1.54 100 07:19 14.02.2021
2554 Clear 2 1028 93 9000 2.06 100 06:26 14.02.2021
2555 Clear 2 1028 87 10000 2.57 100 03:59 14.02.2021
2556 Clear 3 1029 87 6000 2.06 110 02:29 14.02.2021
2557 Mist 3 1029 93 5000 2.06 80 00:59 14.02.2021
2558 Clouds 2 1029 93 6000 1.27 128 00:41 14.02.2021
2559 Clouds 3 1029 93 6000 1.03 0 23:49 13.02.2021
2560 Clouds 2 1029 93 6000 1.54 120 23:25 13.02.2021
2561 Clouds 3 1029 87 6000 1.03 0 22:51 13.02.2021
2562 Clear 4 1029 93 7000 1.03 80 22:22 13.02.2021
2563 Clear 4 1029 87 7000 0.51 10 21:49 13.02.2021
2564 Clear 4 1028 87 9000 1.03 0 21:26 13.02.2021
2565 Clear 4 1028 87 9000 1.03 0 21:26 13.02.2021
2566 Clear 5 1028 75 10000 2.06 60 20:44 13.02.2021
2567 Clear 5 1028 75 10000 2.06 60 20:24 13.02.2021
2568 Clouds 6 1028 76 10000 2.06 30 19:48 13.02.2021
2569 Clouds 7 1028 76 10000 1.54 20 19:23 13.02.2021
2570 Clouds 8 1028 71 10000 1.54 20 18:49 13.02.2021
2571 Clouds 8 1027 71 10000 1.54 30 18:25 13.02.2021
2572 Clouds 9 1027 71 10000 1.54 60 17:44 13.02.2021
2573 Clouds 9 1027 71 10000 2.57 80 17:24 13.02.2021
2574 Clouds 9 1027 71 10000 1.54 0 16:50 13.02.2021
2575 Clouds 10 1027 66 10000 1.54 0 16:31 13.02.2021
2576 Clouds 10 1026 61 10000 1.33 8 15:43 13.02.2021
2577 Clouds 9 1026 61 10000 1.54 0 15:24 13.02.2021
2578 Clouds 9 1027 66 10000 1.54 30 14:34 13.02.2021
2579 Clouds 8 1027 76 9000 1.54 40 13:49 13.02.2021
2580 Clouds 7 1026 81 8000 2.06 50 13:26 13.02.2021
2581 Clouds 7 1027 75 8000 2.06 50 12:52 13.02.2021
2582 Clouds 6 1027 81 8000 1.54 0 12:20 13.02.2021
2583 Clouds 5 1027 87 7000 1.54 30 11:47 13.02.2021
2584 Clouds 4 1026 87 7000 2.57 90 11:21 13.02.2021
2585 Clouds 3 1026 87 7000 2.57 60 10:56 13.02.2021
2586 Clouds 3 1026 87 7000 1.03 0 10:38 13.02.2021
2587 Clouds 2 1026 87 7000 1.03 0 10:19 13.02.2021
2588 Clouds 2 1026 87 6000 1.54 30 09:45 13.02.2021
2589 Clouds 1 1026 93 6000 1.54 50 09:21 13.02.2021
2590 Clouds 1 1025 93 6000 1.54 60 08:41 13.02.2021
2591 Clouds 1 1025 86 6000 1.54 40 07:54 13.02.2021
2592 Clouds 1 1025 93 7000 1.54 0 06:42 13.02.2021
2593 Clouds 1 1025 93 7000 1.03 360 06:19 13.02.2021
2594 Clouds 1 1024 86 6000 2.06 70 04:19 13.02.2021
2595 Mist 2 1024 100 5000 2.57 30 01:57 13.02.2021
2596 Clouds 2 1025 93 6000 2.57 360 00:51 13.02.2021
2597 Mist 3 1024 100 5000 4.12 30 23:55 12.02.2021
2598 Mist 3 1024 93 5000 4.63 10 23:31 12.02.2021
2599 Mist 4 1024 93 5000 3.09 350 22:58 12.02.2021
2600 Clouds 4 1024 93 6000 3.09 360 22:29 12.02.2021
2601 Clouds 4 1023 93 6000 3.09 330 21:50 12.02.2021
2602 Clouds 4 1023 93 6000 2.57 350 21:29 12.02.2021
2603 Mist 4 1022 93 5000 3.6 350 20:55 12.02.2021
2604 Mist 4 1022 100 4300 4.63 10 20:37 12.02.2021
2605 Mist 4 1022 100 4300 4.63 10 20:18 12.02.2021
2606 Mist 5 1021 100 4900 3.6 360 19:43 12.02.2021
2607 Mist 5 1021 100 5000 5.14 340 19:25 12.02.2021
2608 Clouds 6 1019 93 7000 4.63 350 18:30 12.02.2021
2609 Clouds 6 1018 93 8000 4.63 350 17:48 12.02.2021
2610 Clouds 6 1018 93 9000 6.17 350 17:25 12.02.2021
2611 Clouds 7 1016 93 10000 4.63 350 16:36 12.02.2021
2612 Clouds 7 1016 93 10000 5.66 350 15:47 12.02.2021
2613 Drizzle 8 1015 100 5000 4.63 340 15:21 12.02.2021
2614 Drizzle 8 1015 100 5000 4.63 340 15:21 12.02.2021
2615 Clouds 9 1015 93 7000 4.63 350 14:43 12.02.2021
2616 Mist 10 1014 93 2700 4.12 350 14:24 12.02.2021
2617 Clouds 11 1014 93 10000 4.12 340 13:41 12.02.2021
2618 Clouds 11 1014 93 10000 4.12 340 13:22 12.02.2021
2619 Clouds 11 1013 100 10000 4.63 320 12:49 12.02.2021
2620 Clouds 12 1013 100 10000 4.63 310 12:30 12.02.2021
2621 Clouds 12 1012 94 10000 5.66 270 11:42 12.02.2021
2622 Clouds 11 1012 100 10000 4.12 250 11:20 12.02.2021
2623 Clouds 10 1011 100 10000 1.54 250 10:44 12.02.2021
2624 Clouds 10 1011 100 7000 4.12 130 09:50 12.02.2021
2625 Mist 10 1011 93 5000 4.63 120 09:29 12.02.2021
2626 Rain 10 1011 93 3700 3.6 120 08:50 12.02.2021
2627 Rain 10 1011 100 4700 3.09 120 08:28 12.02.2021
2628 Rain 10 1011 93 5000 3.6 100 07:57 12.02.2021
2629 Rain 10 1011 100 6000 3.09 90 07:35 12.02.2021
2630 Rain 10 1012 100 7000 2.57 90 06:55 12.02.2021
2631 Clouds 10 1012 93 6000 3.09 110 05:48 12.02.2021
2632 Rain 10 1013 100 10000 3.09 120 04:32 12.02.2021
2633 Clouds 10 1015 93 10000 3.09 110 01:35 12.02.2021
2634 Clouds 10 1016 93 10000 2.57 100 23:41 11.02.2021
2635 Clouds 10 1016 93 10000 2.57 100 23:22 11.02.2021
2636 Clouds 10 1016 93 10000 1.54 100 22:47 11.02.2021
2637 Clouds 10 1016 93 10000 3.09 120 22:25 11.02.2021
2638 Clouds 10 1016 93 10000 2.57 110 21:59 11.02.2021
2639 Drizzle 10 1016 93 10000 2.06 120 21:38 11.02.2021
2640 Drizzle 10 1016 93 10000 2.06 120 21:18 11.02.2021
2641 Clouds 10 1016 93 10000 2.57 130 20:42 11.02.2021
2642 Clouds 10 1016 93 7000 2.57 130 20:21 11.02.2021
2643 Clouds 10 1016 93 7000 2.06 100 19:48 11.02.2021
2644 Clouds 10 1016 93 6000 2.06 110 19:28 11.02.2021
2645 Rain 11 1016 87 10000 3.09 100 18:49 11.02.2021
2646 Rain 11 1016 82 10000 3.09 110 18:28 11.02.2021
2647 Rain 11 1016 82 10000 3.09 110 18:28 11.02.2021
2648 Clouds 12 1016 76 10000 2.06 120 17:52 11.02.2021
2649 Clouds 12 1016 76 10000 2.57 110 17:22 11.02.2021
2650 Clouds 12 1016 76 10000 2.57 120 16:53 11.02.2021
2651 Clouds 12 1016 76 10000 3.09 120 16:35 11.02.2021
2652 Clouds 12 1016 76 10000 3.09 110 15:59 11.02.2021
2653 Clouds 11 1016 82 10000 2.57 80 15:40 11.02.2021
2654 Clouds 11 1016 82 10000 2.57 80 15:40 11.02.2021
2655 Clouds 11 1016 82 10000 2.57 80 15:20 11.02.2021
2656 Clouds 11 1016 87 10000 2.57 90 14:40 11.02.2021
2657 Clouds 10 1016 87 10000 2.57 90 14:21 11.02.2021
2658 Clouds 9 1017 93 10000 3.09 110 13:38 11.02.2021
2659 Clouds 8 1017 93 10000 3.09 110 13:18 11.02.2021
2660 Clouds 7 1017 100 10000 2.06 90 12:44 11.02.2021
2661 Clouds 7 1017 93 9000 2.06 90 12:21 11.02.2021
2662 Clouds 7 1017 93 9000 2.57 120 11:41 11.02.2021
2663 Clouds 7 1017 93 6000 2.57 90 11:20 11.02.2021
2664 Mist 6 1017 100 1900 2.57 90 10:42 11.02.2021
2665 Mist 6 1016 100 3000 2.57 100 10:23 11.02.2021
2666 Mist 6 1016 93 5000 3.09 90 09:42 11.02.2021
2667 Mist 6 1016 93 5000 3.09 90 09:19 11.02.2021
2668 Mist 6 1017 93 5000 2.06 100 08:49 11.02.2021
2669 Clouds 6 1016 93 6000 2.06 110 07:54 11.02.2021
2670 Clouds 5 1016 100 7000 2.57 100 06:48 11.02.2021
2671 Clouds 5 1016 100 8000 3.09 100 06:29 11.02.2021
2672 Mist 5 1016 100 3800 3.09 40 03:48 11.02.2021
2673 Mist 6 1016 93 5000 4.63 30 02:28 11.02.2021
2674 Clouds 7 1015 93 10000 3.09 50 00:36 11.02.2021
2675 Clouds 7 1015 93 10000 3.09 50 00:18 11.02.2021
2676 Clouds 8 1014 93 10000 3.09 60 23:35 10.02.2021
2677 Clouds 8 1014 87 10000 3.09 50 22:48 10.02.2021
2678 Clouds 8 1014 93 10000 3.6 40 22:25 10.02.2021
2679 Clouds 9 1013 87 10000 2.06 40 21:40 10.02.2021
2680 Clouds 9 1013 87 10000 2.06 40 21:40 10.02.2021
2681 Clouds 9 1013 87 10000 2.06 40 21:21 10.02.2021
2682 Clouds 9 1013 87 10000 2.06 40 21:21 10.02.2021
2683 Clouds 9 1013 81 10000 1.03 10 20:58 10.02.2021
2684 Clouds 9 1013 87 10000 1.03 250 20:30 10.02.2021
2685 Clouds 9 1012 81 10000 1.54 240 19:59 10.02.2021
2686 Clouds 10 1012 76 10000 3.09 260 19:40 10.02.2021
2687 Clouds 10 1011 76 10000 2.57 230 19:19 10.02.2021
2688 Clouds 11 1011 76 10000 2.57 240 18:39 10.02.2021
2689 Clouds 11 1011 76 10000 2.57 240 18:18 10.02.2021
2690 Clouds 11 1010 71 10000 2.06 220 17:45 10.02.2021
2691 Clouds 13 1010 62 10000 2.57 270 17:21 10.02.2021
2692 Clouds 14 1010 58 10000 2.06 290 16:49 10.02.2021
2693 Clouds 13 1009 67 10000 3.09 270 16:28 10.02.2021
2694 Clouds 13 1009 62 10000 4.12 280 15:43 10.02.2021
2695 Clouds 13 1008 67 10000 4.12 250 15:21 10.02.2021
2696 Clouds 13 1008 71 10000 4.12 210 14:40 10.02.2021
2697 Clouds 12 1008 76 10000 4.63 210 13:55 10.02.2021
2698 Clouds 12 1007 71 10000 3.6 210 13:37 10.02.2021
2699 Clouds 12 1007 71 10000 3.6 210 13:18 10.02.2021
2700 Clear 10 1006 87 10000 3.6 200 12:40 10.02.2021
2701 Clear 9 1006 87 10000 3.6 200 12:21 10.02.2021
2702 Clear 7 1006 100 10000 3.09 180 11:41 10.02.2021
2703 Clouds 7 1006 100 10000 3.6 200 11:23 10.02.2021
2704 Mist 7 1005 93 5000 2.06 240 10:40 10.02.2021
2705 Rain 7 1005 93 5000 2.06 240 10:19 10.02.2021
2706 Rain 7 1003 93 8000 1.75 224 09:40 10.02.2021
2707 Rain 7 1003 93 8000 0.87 158 09:21 10.02.2021
2708 Clouds 6 1003 100 10000 0.87 158 08:43 10.02.2021
2709 Clouds 6 1001 100 10000 2.57 10 07:53 10.02.2021
2710 Clouds 7 1000 93 10000 1.54 120 06:59 10.02.2021
2711 Rain 6 999 100 10000 2.06 200 03:43 10.02.2021
2712 Clouds 7 998 93 10000 2.06 200 00:31 10.02.2021
2713 Clouds 7 998 93 10000 2.57 210 23:35 09.02.2021
2714 Clouds 8 998 93 10000 4.63 200 22:54 09.02.2021
2715 Clouds 8 997 93 10000 3.6 210 22:24 09.02.2021
2716 Clear 8 997 87 10000 3.09 210 21:52 09.02.2021
2717 Clear 8 997 87 10000 3.6 200 21:33 09.02.2021
2718 Clouds 8 997 93 10000 2.57 210 20:50 09.02.2021
2719 Clouds 9 997 87 10000 2.57 220 20:27 09.02.2021
2720 Clouds 9 996 87 10000 3.6 220 19:59 09.02.2021
2721 Clouds 9 996 87 10000 4.12 230 19:38 09.02.2021
2722 Rain 9 996 93 5000 5.14 240 18:58 09.02.2021
2723 Mist 9 996 93 5000 5.14 240 18:58 09.02.2021
2724 Rain 9 995 93 10000 3.6 230 18:37 09.02.2021
2725 Rain 10 995 93 6000 5.66 220 17:57 09.02.2021
2726 Rain 10 995 93 9000 4.63 190 17:39 09.02.2021
2727 Clouds 10 995 93 9000 4.63 190 17:20 09.02.2021
2728 Rain 10 995 93 10000 4.63 170 16:42 09.02.2021
2729 Clouds 10 995 93 9000 4.63 150 16:18 09.02.2021
2730 Clouds 10 995 93 8000 5.14 150 15:50 09.02.2021
2731 Rain 10 995 93 9000 4.12 140 15:25 09.02.2021
2732 Rain 10 995 93 10000 5.14 140 14:54 09.02.2021
2733 Rain 10 996 93 10000 4.12 140 14:28 09.02.2021
2734 Clouds 10 996 93 10000 4.12 130 13:51 09.02.2021
2735 Clouds 10 996 87 10000 3.6 140 13:25 09.02.2021
2736 Clouds 10 997 82 10000 4.12 160 12:51 09.02.2021
2737 Clear 10 997 82 10000 3.6 160 12:32 09.02.2021
2738 Clear 10 997 87 10000 2.57 150 11:56 09.02.2021
2739 Clouds 9 998 93 10000 3.6 140 11:38 09.02.2021
2740 Clouds 8 998 100 10000 3.09 140 11:20 09.02.2021
2741 Clouds 9 998 93 10000 3.6 140 11:20 09.02.2021
2742 Clouds 8 998 100 10000 3.09 140 10:43 09.02.2021
2743 Clouds 8 998 93 10000 3.6 130 10:18 09.02.2021
2744 Mist 7 999 100 2600 3.09 150 09:42 09.02.2021
2745 Mist 7 999 100 2600 3.09 150 09:24 09.02.2021
2746 Clouds 7 999 93 8000 3.09 140 08:42 09.02.2021
2747 Clouds 6 999 93 10000 3.09 130 08:22 09.02.2021
2748 Clouds 6 1001 100 7000 3.6 120 06:18 09.02.2021
2749 Clouds 6 1002 93 10000 2.06 150 03:51 09.02.2021
2750 Clouds 5 1002 100 10000 1.54 90 02:31 09.02.2021
2751 Clouds 6 1001 93 10000 1.54 310 00:33 09.02.2021
2752 Clouds 5 1001 100 10000 2.06 300 23:57 08.02.2021
2753 Clouds 5 1001 93 10000 1.54 330 23:20 08.02.2021
2754 Clouds 6 1000 93 10000 3.6 340 22:43 08.02.2021
2755 Clouds 6 1000 93 10000 4.12 340 22:24 08.02.2021
2756 Clouds 6 1000 93 10000 4.63 320 21:54 08.02.2021
2757 Clouds 6 999 100 10000 5.66 310 21:31 08.02.2021
2758 Clouds 7 999 93 7000 7.2 310 20:59 08.02.2021
2759 Clouds 7 998 87 10000 7.72 290 20:38 08.02.2021
2760 Clouds 8 998 87 10000 7.72 290 20:19 08.02.2021
2761 Clouds 9 996 81 10000 8.23 290 19:42 08.02.2021
2762 Clouds 10 996 81 10000 8.23 290 19:22 08.02.2021
2763 Clouds 10 996 82 10000 8.75 260 18:46 08.02.2021
2764 Clouds 11 995 82 10000 8.23 260 18:19 08.02.2021
2765 Clouds 11 995 76 10000 9.26 260 17:44 08.02.2021
2766 Clouds 11 995 82 10000 6.69 260 17:24 08.02.2021
2767 Clouds 12 995 82 10000 8.75 260 16:44 08.02.2021
2768 Clouds 12 995 82 10000 7.72 260 16:21 08.02.2021
2769 Clouds 12 995 82 10000 8.23 260 15:43 08.02.2021
2770 Clouds 11 994 93 10000 7.2 270 15:20 08.02.2021
2771 Clouds 12 994 82 10000 10.29 260 14:52 08.02.2021
2772 Clouds 11 995 94 10000 7.72 260 14:31 08.02.2021
2773 Clouds 11 995 93 10000 7.2 250 13:57 08.02.2021
2774 Clouds 11 995 93 10000 5.66 260 13:33 08.02.2021
2775 Clouds 10 995 100 10000 4.12 230 12:55 08.02.2021
2776 Rain 10 995 100 10000 4.12 230 12:36 08.02.2021
2777 Clouds 9 995 100 10000 3.6 190 11:48 08.02.2021
2778 Clouds 8 996 100 9000 2.57 180 11:22 08.02.2021
2779 Clouds 8 996 100 9000 2.06 170 10:45 08.02.2021
2780 Mist 7 996 100 3300 3.6 160 10:24 08.02.2021
2781 Clouds 7 996 100 10000 2.57 140 09:53 08.02.2021
2782 Clouds 7 996 100 10000 3.6 140 09:35 08.02.2021
2783 Mist 7 996 100 5000 3.09 130 08:46 08.02.2021
2784 Mist 7 996 100 5000 3.6 140 08:20 08.02.2021
2785 Mist 7 996 93 5000 3.09 130 07:22 08.02.2021
2786 Mist 7 997 100 5000 2.57 140 05:59 08.02.2021
2787 Clouds 7 999 100 10000 2.06 160 02:28 08.02.2021
2788 Clouds 7 1000 100 10000 1.26 215 01:18 08.02.2021
2789 Clouds 7 1000 100 10000 1.03 0 00:21 08.02.2021
2790 Drizzle 8 1000 93 10000 2.06 180 23:48 07.02.2021
2791 Clouds 7 1001 100 10000 1.54 200 23:20 07.02.2021
2792 Clouds 8 1001 93 8000 2.06 200 22:45 07.02.2021
2793 Clouds 8 1001 93 7000 3.09 200 22:26 07.02.2021
2794 Clouds 8 1002 93 10000 1.54 210 21:52 07.02.2021
2795 Clouds 8 1002 93 10000 2.06 210 21:28 07.02.2021
2796 Clouds 8 1002 93 10000 2.06 220 20:54 07.02.2021
2797 Drizzle 8 1002 93 10000 1.54 220 20:34 07.02.2021
2798 Drizzle 8 1002 93 10000 1.54 230 19:55 07.02.2021
2799 Drizzle 8 1002 93 10000 1.54 260 19:31 07.02.2021
2800 Drizzle 8 1002 93 10000 2.57 250 18:56 07.02.2021
2801 Clouds 8 1002 93 10000 2.06 270 18:36 07.02.2021
2802 Clouds 8 1002 93 10000 2.06 270 18:36 07.02.2021
2803 Clouds 9 1002 93 10000 2.06 270 18:18 07.02.2021
2804 Clouds 9 1002 87 10000 3.6 270 17:44 07.02.2021
2805 Clouds 9 1002 87 10000 3.6 290 17:20 07.02.2021
2806 Clouds 9 1002 87 10000 3.6 290 17:20 07.02.2021
2807 Clouds 9 1003 81 10000 5.66 300 16:47 07.02.2021
2808 Clouds 10 1003 76 10000 6.17 290 16:27 07.02.2021
2809 Clouds 10 1003 76 10000 4.63 310 15:55 07.02.2021
2810 Clouds 10 1003 81 10000 6.17 290 15:37 07.02.2021
2811 Clouds 11 1003 81 10000 6.17 290 15:18 07.02.2021
2812 Clouds 10 1003 87 10000 5.14 280 14:39 07.02.2021
2813 Clouds 10 1003 87 10000 5.14 280 14:19 07.02.2021
2814 Clouds 10 1004 76 10000 5.66 280 13:36 07.02.2021
2815 Clouds 10 1004 87 10000 5.14 300 12:57 07.02.2021
2816 Clouds 10 1004 81 10000 5.14 270 12:37 07.02.2021
2817 Clouds 9 1004 81 10000 5.14 270 12:18 07.02.2021
2818 Clouds 8 1005 93 10000 3.6 240 11:28 07.02.2021
2819 Clouds 8 1005 93 10000 3.09 230 10:58 07.02.2021
2820 Clouds 7 1005 93 10000 3.6 230 10:28 07.02.2021
2821 Clouds 6 1005 100 10000 3.6 220 09:51 07.02.2021
2822 Clouds 5 1005 100 10000 3.6 220 09:25 07.02.2021
2823 Clouds 5 1005 93 10000 3.09 210 08:48 07.02.2021
2824 Clouds 4 1005 93 10000 4.12 220 07:49 07.02.2021
2825 Clouds 3 1006 100 10000 2.57 220 05:58 07.02.2021
2826 Clouds 3 1006 100 10000 2.57 220 05:58 07.02.2021
2827 Clouds 4 1006 93 10000 2.57 240 04:34 07.02.2021
2828 Clouds 5 1006 93 10000 2.06 260 02:25 07.02.2021
2829 Clear 7 1006 93 10000 3.09 280 00:37 07.02.2021
2830 Clear 7 1006 93 10000 3.6 300 23:50 06.02.2021
2831 Clouds 8 1005 93 10000 4.63 300 22:52 06.02.2021
2832 Clouds 8 1004 100 10000 5.14 300 21:45 06.02.2021
2833 Clouds 9 1004 93 10000 5.14 300 21:24 06.02.2021
2834 Drizzle 9 1004 93 9000 3.6 300 20:53 06.02.2021
2835 Mist 9 1003 93 4900 5.14 310 20:27 06.02.2021
2836 Clouds 9 1003 93 10000 4.63 310 19:59 06.02.2021
2837 Clouds 9 1002 93 10000 5.14 320 19:40 06.02.2021
2838 Clouds 9 1002 93 10000 5.14 320 19:19 06.02.2021
2839 Clouds 9 1002 93 8000 5.66 320 18:43 06.02.2021
2840 Clouds 9 1001 93 10000 4.63 320 18:24 06.02.2021
2841 Clouds 9 1000 93 10000 5.66 330 17:41 06.02.2021
2842 Clouds 9 1000 93 10000 5.66 330 17:21 06.02.2021
2843 Clouds 9 1000 100 10000 5.14 330 16:47 06.02.2021
2844 Clouds 9 1000 100 10000 5.14 330 16:29 06.02.2021
2845 Clouds 9 1000 100 10000 5.14 330 15:52 06.02.2021
2846 Clouds 9 1000 100 10000 6.17 330 15:29 06.02.2021
2847 Clouds 10 1000 93 8000 5.14 330 14:49 06.02.2021
2848 Clouds 10 1000 93 7000 4.63 330 14:29 06.02.2021
2849 Rain 10 1000 93 3800 5.14 340 13:57 06.02.2021
2850 Rain 10 1000 93 4400 4.63 350 13:38 06.02.2021
2851 Mist 10 1001 93 5000 4.12 360 12:24 06.02.2021
2852 Mist 10 1001 93 4700 4.63 350 11:58 06.02.2021
2853 Clouds 10 1001 93 6000 4.12 350 11:40 06.02.2021
2854 Clouds 10 1001 93 6000 4.12 350 11:20 06.02.2021
2855 Clouds 10 1001 93 6000 3.09 360 10:49 06.02.2021
2856 Mist 10 1002 93 5000 3.09 10 10:25 06.02.2021
2857 Clouds 10 1002 93 8000 3.6 360 09:38 06.02.2021
2858 Clouds 10 1002 93 8000 3.6 360 09:19 06.02.2021
2859 Mist 10 1002 93 5000 4.12 360 08:56 06.02.2021
2860 Mist 10 1002 93 5000 3.6 350 08:29 06.02.2021
2861 Clouds 10 1002 93 7000 4.12 30 06:50 06.02.2021
2862 Clouds 10 1004 93 9000 3.6 20 05:39 06.02.2021
2863 Clouds 10 1005 93 10000 2.06 10 02:43 06.02.2021
2864 Clouds 11 1006 93 10000 2.57 10 00:56 06.02.2021
2865 Clouds 11 1006 93 10000 3.6 30 00:37 06.02.2021
2866 Clouds 11 1006 93 10000 3.6 30 00:18 06.02.2021
2867 Clouds 11 1006 93 10000 3.09 20 23:29 05.02.2021
2868 Clouds 11 1006 93 10000 3.6 20 22:49 05.02.2021
2869 Clouds 11 1006 93 10000 3.6 20 22:24 05.02.2021
2870 Clouds 11 1007 93 10000 4.12 20 21:54 05.02.2021
2871 Clouds 11 1007 93 10000 4.12 10 21:35 05.02.2021
2872 Clouds 11 1007 93 10000 3.6 20 20:52 05.02.2021
2873 Clouds 11 1007 93 10000 4.12 360 19:57 05.02.2021
2874 Clouds 12 1006 94 10000 4.12 20 19:25 05.02.2021
2875 Clouds 12 1006 94 10000 4.63 10 18:56 05.02.2021
2876 Clouds 13 1007 82 10000 3.09 10 18:31 05.02.2021
2877 Clouds 13 1007 82 10000 4.12 30 17:56 05.02.2021
2878 Clouds 13 1007 82 10000 4.12 30 17:34 05.02.2021
2879 Clouds 13 1007 82 10000 4.12 40 16:58 05.02.2021
2880 Clouds 13 1007 88 10000 3.09 30 16:39 05.02.2021
2881 Clouds 13 1007 88 10000 3.09 30 16:20 05.02.2021
2882 Clouds 13 1008 87 10000 3.09 30 15:40 05.02.2021
2883 Clouds 13 1008 87 10000 3.09 30 15:20 05.02.2021
2884 Clouds 13 1009 87 10000 2.57 40 14:38 05.02.2021
2885 Clouds 13 1009 87 10000 2.57 40 14:38 05.02.2021
2886 Clouds 13 1009 87 10000 2.57 40 14:19 05.02.2021
2887 Clouds 13 1010 87 10000 2.06 40 13:43 05.02.2021
2888 Clouds 12 1010 87 10000 2.06 100 13:24 05.02.2021
2889 Clouds 11 1011 93 10000 2.57 50 12:42 05.02.2021
2890 Clouds 11 1011 93 10000 2.57 40 12:20 05.02.2021
2891 Clouds 11 1012 93 10000 2.06 40 11:39 05.02.2021
2892 Clouds 10 1012 93 10000 2.06 40 11:19 05.02.2021
2893 Clouds 10 1012 93 10000 1.54 360 10:48 05.02.2021
2894 Clouds 10 1012 93 10000 0.51 130 10:25 05.02.2021
2895 Clouds 10 1011 93 10000 2.57 40 09:43 05.02.2021
2896 Clouds 10 1011 93 10000 3.09 40 09:24 05.02.2021
2897 Clouds 10 1011 93 10000 2.06 30 08:41 05.02.2021
2898 Clouds 10 1011 93 10000 2.06 50 07:42 05.02.2021
2899 Clouds 10 1011 93 10000 3.09 30 07:22 05.02.2021
2900 Clouds 10 1011 93 10000 2.57 80 06:32 05.02.2021
2901 Clouds 9 1012 100 10000 3.6 60 05:33 05.02.2021
2902 Clouds 10 1012 93 9000 0.51 340 02:26 05.02.2021
2903 Clouds 10 1011 93 10000 2.57 30 01:28 05.02.2021
2904 Clouds 10 1011 93 10000 1.54 300 00:36 05.02.2021
2905 Clouds 10 1011 93 10000 1.54 300 00:18 05.02.2021
2906 Clouds 11 1011 93 10000 1.54 0 23:42 04.02.2021
2907 Clouds 11 1011 93 10000 1.54 0 23:42 04.02.2021
2908 Clouds 11 1010 93 10000 2.06 30 23:23 04.02.2021
2909 Clouds 11 1010 87 10000 3.09 360 22:54 04.02.2021
2910 Clouds 11 1010 87 10000 3.6 40 22:35 04.02.2021
2911 Mist 12 1011 82 5000 1.54 0 21:58 04.02.2021
2912 Clouds 12 1010 76 10000 3.09 360 21:39 04.02.2021
2913 Clouds 12 1010 82 10000 3.09 20 20:58 04.02.2021
2914 Clear 12 1010 82 10000 3.6 30 20:34 04.02.2021
2915 Clear 13 1010 76 10000 3.6 10 19:52 04.02.2021
2916 Clear 13 1010 82 10000 2.57 350 19:26 04.02.2021
2917 Clear 13 1010 88 10000 2.57 10 18:41 04.02.2021
2918 Clouds 14 1010 82 10000 2.57 100 18:22 04.02.2021
2919 Clouds 14 1010 82 10000 2.57 100 17:45 04.02.2021
2920 Clouds 14 1010 82 10000 1.54 90 17:22 04.02.2021
2921 Clear 14 1010 63 10000 2.57 50 16:49 04.02.2021
2922 Clear 15 1010 63 10000 2.57 30 16:20 04.02.2021
2923 Clear 15 1010 63 10000 1.54 30 15:41 04.02.2021
2924 Clear 15 1010 63 10000 1.54 30 15:41 04.02.2021
2925 Clear 15 1010 63 10000 1.54 30 15:21 04.02.2021
2926 Clear 15 1011 63 10000 1.54 340 14:56 04.02.2021
2927 Clear 15 1011 63 10000 1.03 0 14:37 04.02.2021
2928 Clear 15 1011 63 10000 1.03 0 14:19 04.02.2021
2929 Clear 15 1011 72 10000 1.03 0 13:41 04.02.2021
2930 Clear 14 1012 82 10000 2.06 230 12:57 04.02.2021
2931 Clear 13 1012 82 10000 1.54 200 12:21 04.02.2021
2932 Clear 13 1012 82 10000 1.54 210 11:50 04.02.2021
2933 Clear 13 1012 82 10000 2.06 200 11:32 04.02.2021
2934 Clear 12 1011 87 10000 2.06 180 10:44 04.02.2021
2935 Clear 11 1011 87 10000 3.09 170 10:18 04.02.2021
2936 Clear 11 1011 87 10000 3.09 170 09:43 04.02.2021
2937 Clear 11 1011 87 10000 3.09 160 09:18 04.02.2021
2938 Clear 11 1010 82 10000 3.6 170 08:41 04.02.2021
2939 Clear 11 1010 82 10000 3.6 170 08:20 04.02.2021
2940 Clear 10 1010 87 10000 3.6 160 07:41 04.02.2021
2941 Clear 10 1010 87 10000 3.6 160 06:55 04.02.2021
2942 Clear 10 1010 87 10000 3.6 160 06:35 04.02.2021
2943 Clouds 10 1010 87 10000 3.6 130 03:53 04.02.2021
2944 Clear 9 1011 93 10000 2.06 130 02:25 04.02.2021
2945 Clear 9 1011 93 10000 2.06 110 00:35 04.02.2021
2946 Clear 9 1012 93 10000 2.06 130 23:40 03.02.2021
2947 Clear 9 1012 87 10000 2.57 150 22:43 03.02.2021
2948 Clear 9 1012 87 10000 2.57 150 22:22 03.02.2021
2949 Clear 9 1012 87 10000 3.09 150 21:57 03.02.2021
2950 Clear 9 1012 87 10000 3.09 160 21:36 03.02.2021
2951 Clear 9 1012 87 10000 3.09 160 21:18 03.02.2021
2952 Clear 9 1012 87 10000 2.57 170 20:38 03.02.2021
2953 Clear 10 1012 87 10000 2.57 170 20:19 03.02.2021
2954 Clear 10 1012 87 10000 2.06 170 19:42 03.02.2021
2955 Clear 10 1012 87 10000 2.57 170 19:19 03.02.2021
2956 Clouds 12 1011 76 10000 1.54 170 18:46 03.02.2021
2957 Clouds 13 1011 76 10000 1.54 170 18:19 03.02.2021
2958 Clouds 14 1011 72 10000 2.06 210 17:49 03.02.2021
2959 Clouds 14 1011 77 10000 2.06 250 17:30 03.02.2021
2960 Clouds 14 1011 72 10000 2.06 250 16:52 03.02.2021
2961 Clouds 14 1011 67 10000 4.12 270 16:27 03.02.2021
2962 Clouds 14 1011 77 10000 2.57 260 15:45 03.02.2021
2963 Clouds 13 1011 76 10000 4.63 240 15:25 03.02.2021
2964 Clouds 14 1010 72 10000 6.17 260 14:53 03.02.2021
2965 Clouds 14 1010 72 10000 7.2 260 14:25 03.02.2021
2966 Clouds 14 1010 72 10000 7.72 260 13:54 03.02.2021
2967 Clouds 14 1010 77 10000 6.69 250 13:26 03.02.2021
2968 Clouds 13 1009 88 10000 5.14 230 12:47 03.02.2021
2969 Clouds 13 1009 88 10000 5.14 220 12:27 03.02.2021
2970 Clouds 12 1009 94 10000 4.63 220 11:49 03.02.2021
2971 Rain 12 1009 94 10000 5.14 220 11:28 03.02.2021
2972 Rain 13 1008 88 10000 5.14 230 10:53 03.02.2021
2973 Clouds 13 1008 88 10000 4.63 220 10:21 03.02.2021
2974 Clouds 13 1007 82 10000 6.69 240 09:47 03.02.2021
2975 Clouds 13 1007 82 10000 6.69 240 09:27 03.02.2021
2976 Rain 13 1007 88 10000 6.69 250 08:52 03.02.2021
2977 Clouds 12 1006 88 10000 6.69 260 08:24 03.02.2021
2978 Clear 13 1005 76 10000 4.63 240 07:39 03.02.2021
2979 Clear 13 1004 72 10000 4.12 210 06:40 03.02.2021
2980 Clear 12 1004 82 10000 4.12 180 04:52 03.02.2021
2981 Clear 12 1004 82 10000 4.63 190 04:29 03.02.2021
2982 Clear 12 1005 88 10000 3.6 150 02:53 03.02.2021
2983 Clear 12 1006 94 10000 3.09 150 02:26 03.02.2021
2984 Clear 13 1008 94 10000 2.06 150 00:30 03.02.2021
2985 Clouds 13 1008 94 10000 2.57 150 23:48 02.02.2021
2986 Clouds 13 1009 94 10000 1.03 0 23:28 02.02.2021
2987 Clouds 13 1008 94 10000 2.06 160 22:59 02.02.2021
2988 Rain 13 1008 94 10000 2.06 160 22:22 02.02.2021
2989 Rain 13 1008 88 10000 2.06 160 21:55 02.02.2021
2990 Rain 13 1008 88 10000 1.54 150 21:30 02.02.2021
2991 Rain 13 1009 88 10000 2.06 170 20:59 02.02.2021
2992 Clear 13 1009 88 10000 3.09 160 20:41 02.02.2021
2993 Clear 13 1009 88 10000 3.09 160 20:18 02.02.2021
2994 Clear 13 1009 88 10000 3.09 160 20:18 02.02.2021
2995 Clear 13 1009 82 10000 1.03 180 19:42 02.02.2021
2996 Clear 14 1010 82 10000 2.06 200 19:23 02.02.2021
2997 Clear 14 1010 82 10000 2.57 230 18:44 02.02.2021
2998 Clear 15 1010 77 10000 4.12 240 18:25 02.02.2021
2999 Clouds 15 1010 82 10000 1.54 220 17:49 02.02.2021
3000 Rain 16 1010 77 10000 2.06 220 17:22 02.02.2021
3001 Clear 16 1010 72 10000 3.6 230 16:56 02.02.2021
3002 Clear 16 1010 77 10000 3.09 230 16:37 02.02.2021
3003 Clouds 16 1010 72 10000 3.09 230 15:58 02.02.2021
3004 Clouds 16 1010 72 10000 4.12 220 15:40 02.02.2021
3005 Clouds 16 1010 72 10000 4.12 220 15:20 02.02.2021
3006 Clear 16 1011 77 10000 3.6 210 14:39 02.02.2021
3007 Clear 16 1011 77 10000 3.6 210 14:18 02.02.2021
3008 Clear 16 1011 77 10000 3.6 210 13:44 02.02.2021
3009 Clear 16 1011 77 10000 3.6 210 13:25 02.02.2021
3010 Clear 16 1011 72 10000 3.09 220 12:55 02.02.2021
3011 Clear 15 1011 72 10000 4.12 210 12:24 02.02.2021
3012 Clear 15 1011 82 10000 4.12 210 11:40 02.02.2021
3013 Clear 15 1011 82 10000 4.12 210 11:19 02.02.2021
3014 Clouds 13 1011 88 10000 3.6 200 10:47 02.02.2021
3015 Clouds 13 1011 88 10000 3.6 200 10:47 02.02.2021
3016 Clouds 13 1011 88 10000 3.09 220 10:26 02.02.2021
3017 Clouds 13 1011 88 10000 3.09 210 09:46 02.02.2021
3018 Clear 12 1011 94 10000 3.09 220 09:23 02.02.2021
3019 Clouds 12 1011 94 10000 4.12 230 08:43 02.02.2021
3020 Clouds 12 1010 94 10000 3.6 230 07:50 02.02.2021
3021 Clouds 12 1010 94 10000 3.6 220 07:25 02.02.2021
3022 Clouds 12 1010 94 10000 4.12 220 06:40 02.02.2021
3023 Clouds 12 1011 94 10000 3.6 220 05:51 02.02.2021
3024 Clouds 12 1011 94 10000 5.14 230 04:18 02.02.2021
3025 Clouds 12 1011 94 10000 6.17 240 02:25 02.02.2021
3026 Mist 12 1011 100 4200 4.63 230 00:40 02.02.2021
3027 Mist 12 1011 100 4100 5.14 230 23:57 01.02.2021
3028 Clouds 12 1011 100 7000 5.14 250 22:59 01.02.2021
3029 Clouds 12 1011 100 8000 5.14 260 22:39 01.02.2021
3030 Clouds 12 1011 100 8000 5.14 260 22:19 01.02.2021
3031 Clouds 12 1011 100 7000 5.66 260 21:45 01.02.2021
3032 Drizzle 12 1011 100 3700 2.06 220 21:22 01.02.2021
3033 Mist 11 1010 93 3300 2.57 250 20:42 01.02.2021
3034 Mist 11 1010 93 3300 2.57 250 20:24 01.02.2021
3035 Clouds 12 1010 87 10000 4.12 280 19:42 01.02.2021
3036 Clouds 12 1010 87 10000 4.12 280 19:21 01.02.2021
3037 Clouds 12 1010 82 9000 5.66 280 18:51 01.02.2021
3038 Clouds 12 1010 82 10000 6.17 290 18:29 01.02.2021
3039 Clouds 12 1009 76 10000 7.2 290 17:48 01.02.2021
3040 Clouds 12 1008 76 10000 8.75 290 17:27 01.02.2021
3041 Clouds 12 1008 87 9000 6.69 280 16:58 01.02.2021
3042 Clouds 12 1008 82 6000 7.72 280 16:33 01.02.2021
3043 Clouds 12 1007 82 10000 8.75 300 15:48 01.02.2021
3044 Drizzle 12 1007 87 10000 8.75 290 15:21 01.02.2021
3045 Clouds 12 1007 87 8000 8.23 280 14:53 01.02.2021
3046 Mist 12 1006 87 5000 9.77 290 14:35 01.02.2021
3047 Clouds 12 1006 87 8000 10.8 300 13:55 01.02.2021
3048 Clouds 12 1006 76 9000 12.35 290 13:37 01.02.2021
3049 Clouds 12 1006 76 9000 12.35 290 13:19 01.02.2021
3050 Clouds 12 1006 82 10000 9.77 290 12:42 01.02.2021
3051 Clouds 12 1006 87 6000 12.86 280 12:22 01.02.2021
3052 Clouds 12 1005 87 10000 11.83 280 11:40 01.02.2021
3053 Clouds 12 1005 87 10000 11.83 280 11:19 01.02.2021
3054 Clouds 12 1004 87 9000 9.77 280 10:45 01.02.2021
3055 Mist 11 1004 93 5000 13.38 290 10:20 01.02.2021
3056 Mist 11 1003 93 4200 11.32 290 09:44 01.02.2021
3057 Clouds 11 1003 93 10000 11.83 280 09:21 01.02.2021
3058 Drizzle 11 1002 93 10000 11.32 280 08:44 01.02.2021
3059 Mist 11 1001 93 5000 10.8 280 07:50 01.02.2021
3060 Mist 11 1000 93 5000 11.32 280 06:20 01.02.2021
3061 Clouds 12 999 87 8000 9.77 270 03:21 01.02.2021
3062 Rain 12 999 87 6000 10.8 280 00:58 01.02.2021
3063 Clouds 12 998 82 9000 10.29 270 23:42 31.01.2021
3064 Clouds 12 998 82 10000 11.32 270 22:43 31.01.2021
3065 Clouds 12 998 76 10000 11.83 260 22:24 31.01.2021
3066 Clouds 12 998 88 10000 11.83 270 21:52 31.01.2021
3067 Clouds 13 998 88 10000 11.83 260 21:23 31.01.2021
3068 Clouds 13 998 94 10000 13.38 270 20:50 31.01.2021
3069 Clouds 13 998 94 10000 13.38 270 20:50 31.01.2021
3070 Rain 13 999 88 10000 10.29 260 20:22 31.01.2021
3071 Clouds 13 999 88 10000 10.29 260 19:56 31.01.2021
3072 Drizzle 13 1000 88 6000 8.23 250 19:37 31.01.2021
3073 Drizzle 12 1000 88 6000 8.23 250 19:19 31.01.2021
3074 Clouds 12 1000 88 7000 8.75 250 18:41 31.01.2021
3075 Clouds 12 1000 88 7000 8.75 250 18:41 31.01.2021
3076 Clouds 12 1000 88 10000 9.77 270 18:21 31.01.2021
3077 Clouds 13 1001 88 10000 9.26 270 17:47 31.01.2021
3078 Clouds 13 1001 88 10000 8.75 270 17:23 31.01.2021
3079 Clouds 13 1001 94 10000 8.75 260 16:51 31.01.2021
3080 Clouds 13 1001 94 10000 8.75 260 16:51 31.01.2021
3081 Drizzle 12 1001 94 2200 9.26 240 16:33 31.01.2021
3082 Drizzle 12 1002 100 2900 8.23 240 15:52 31.01.2021
3083 Mist 12 1002 94 3300 5.14 220 15:34 31.01.2021
3084 Mist 12 1003 94 4000 5.14 230 14:44 31.01.2021
3085 Mist 12 1003 87 5000 6.17 240 14:24 31.01.2021
3086 Clouds 12 1004 94 10000 6.17 250 13:53 31.01.2021
3087 Clouds 12 1004 94 10000 5.66 260 13:35 31.01.2021
3088 Drizzle 12 1005 94 3800 8.23 270 12:49 31.01.2021
3089 Mist 12 1005 87 5000 5.66 270 12:23 31.01.2021
3090 Clouds 12 1005 87 10000 5.66 280 11:47 31.01.2021
3091 Clouds 12 1005 87 10000 6.17 290 11:29 31.01.2021
3092 Clouds 11 1005 93 10000 7.2 290 10:59 31.01.2021
3093 Clouds 11 1005 87 10000 8.23 290 10:35 31.01.2021
3094 Clouds 11 1004 93 10000 8.75 290 09:55 31.01.2021
3095 Clouds 11 1004 93 10000 8.23 290 09:27 31.01.2021
3096 Clouds 11 1003 93 10000 9.26 290 08:34 31.01.2021
3097 Mist 11 1001 93 4400 10.8 280 06:58 31.01.2021
3098 Mist 11 1000 93 5000 10.29 290 05:40 31.01.2021
3099 Clouds 11 999 93 10000 8.75 270 00:47 31.01.2021
3100 Mist 11 999 93 4200 10.8 260 00:22 31.01.2021
3101 Mist 11 999 93 4600 10.29 260 23:34 30.01.2021
3102 Rain 10 999 100 10000 9.26 260 22:57 30.01.2021
3103 Mist 10 1000 93 4600 9.26 250 22:30 30.01.2021
3104 Rain 10 1000 93 4600 9.26 250 22:30 30.01.2021
3105 Clouds 10 1000 93 8000 9.26 260 21:42 30.01.2021
3106 Clouds 10 1000 93 6000 7.2 240 21:23 30.01.2021
3107 Rain 10 1001 93 9000 8.75 250 20:48 30.01.2021
3108 Mist 10 1001 93 4200 6.17 250 20:29 30.01.2021
3109 Rain 10 1001 87 6000 7.72 260 19:46 30.01.2021
3110 Rain 10 1001 87 10000 6.69 260 19:27 30.01.2021
3111 Rain 10 1002 87 5000 8.75 250 18:55 30.01.2021
3112 Clouds 11 1001 82 6000 9.77 250 18:36 30.01.2021
3113 Clouds 11 1001 82 6000 9.77 250 18:18 30.01.2021
3114 Clouds 12 1002 71 10000 9.26 260 17:21 30.01.2021
3115 Clouds 12 1002 82 7000 11.83 260 16:48 30.01.2021
3116 Clouds 13 1002 67 10000 11.32 260 16:25 30.01.2021
3117 Clouds 13 1002 67 10000 9.77 260 15:59 30.01.2021
3118 Clouds 13 1002 82 10000 10.8 260 15:40 30.01.2021
3119 Clouds 13 1002 82 10000 10.8 260 15:20 30.01.2021
3120 Clouds 12 1003 76 10000 9.77 260 14:50 30.01.2021
3121 Clouds 13 1003 71 10000 11.83 260 14:22 30.01.2021
3122 Clouds 13 1004 71 10000 9.26 260 13:33 30.01.2021
3123 Clouds 13 1004 71 10000 8.75 260 12:49 30.01.2021
3124 Clouds 13 1004 76 10000 7.72 240 12:29 30.01.2021
3125 Clouds 13 1004 76 10000 7.72 240 12:29 30.01.2021
3126 Clouds 13 1005 76 10000 7.2 260 11:59 30.01.2021
3127 Clouds 13 1005 76 10000 7.2 260 11:31 30.01.2021
3128 Clouds 12 1004 87 10000 5.14 230 10:48 30.01.2021
3129 Clouds 12 1004 94 10000 4.63 240 09:51 30.01.2021
3130 Clouds 12 1004 94 10000 4.63 250 09:30 30.01.2021
3131 Clouds 12 1004 94 10000 4.63 250 08:47 30.01.2021
3132 Clouds 12 1004 94 10000 5.14 250 07:49 30.01.2021
3133 Rain 12 1005 100 7000 5.14 260 06:51 30.01.2021
3134 Rain 12 1005 94 9000 4.63 240 05:43 30.01.2021
3135 Mist 12 1007 94 1700 2.06 150 03:35 30.01.2021
3136 Mist 12 1008 100 1800 3.09 150 02:24 30.01.2021
3137 Mist 12 1009 100 5000 3.09 170 01:29 30.01.2021
3138 Clouds 12 1010 100 9000 3.6 170 00:39 30.01.2021
3139 Clouds 12 1010 100 9000 3.6 170 00:20 30.01.2021
3140 Clouds 12 1011 100 8000 2.57 180 23:45 29.01.2021
3141 Mist 12 1011 100 5000 3.09 170 23:21 29.01.2021
3142 Clouds 12 1012 94 6000 2.06 190 22:44 29.01.2021
3143 Clouds 12 1013 94 10000 2.57 190 22:19 29.01.2021
3144 Clouds 12 1013 94 10000 3.09 190 21:28 29.01.2021
3145 Clouds 12 1013 94 10000 3.09 190 21:28 29.01.2021
3146 Rain 12 1014 94 9000 2.57 190 20:46 29.01.2021
3147 Clouds 12 1014 94 10000 2.57 210 20:26 29.01.2021
3148 Clouds 12 1015 94 10000 3.09 220 19:57 29.01.2021
3149 Clouds 12 1015 94 10000 3.09 230 19:38 29.01.2021
3150 Clouds 12 1015 94 10000 3.09 230 19:18 29.01.2021
3151 Clouds 13 1015 88 10000 3.6 250 18:28 29.01.2021
3152 Clouds 13 1016 82 10000 4.63 260 17:40 29.01.2021
3153 Clouds 13 1016 82 10000 4.63 260 17:21 29.01.2021
3154 Clouds 13 1016 76 10000 5.66 260 16:45 29.01.2021
3155 Clouds 14 1016 77 10000 5.66 260 16:23 29.01.2021
3156 Clouds 14 1016 72 10000 5.66 270 15:48 29.01.2021
3157 Clouds 15 1016 72 10000 6.69 260 15:27 29.01.2021
3158 Clouds 15 1016 67 10000 6.69 280 14:32 29.01.2021
3159 Clouds 15 1016 72 10000 5.66 270 13:59 29.01.2021
3160 Clouds 15 1017 72 10000 5.66 270 13:39 29.01.2021
3161 Clouds 14 1017 72 10000 5.66 270 13:19 29.01.2021
3162 Clouds 14 1017 77 10000 5.66 270 12:25 29.01.2021
3163 Clouds 13 1017 88 10000 5.66 270 11:49 29.01.2021
3164 Clouds 13 1017 88 10000 5.66 260 11:19 29.01.2021
3165 Clouds 13 1017 88 10000 4.63 260 10:51 29.01.2021
3166 Clouds 12 1017 94 10000 4.63 270 10:27 29.01.2021
3167 Clouds 12 1016 94 10000 5.14 270 09:49 29.01.2021
3168 Clouds 12 1016 88 10000 6.69 270 08:58 29.01.2021
3169 Clouds 12 1016 88 10000 6.69 270 08:34 29.01.2021
3170 Clouds 12 1016 88 10000 6.17 270 07:58 29.01.2021
3171 Clouds 13 1016 88 10000 7.72 270 07:40 29.01.2021
3172 Clouds 13 1016 88 10000 7.72 270 07:20 29.01.2021
3173 Clouds 13 1016 94 10000 6.69 280 05:23 29.01.2021
3174 Mist 13 1016 100 4800 9.77 260 03:33 29.01.2021
3175 Clouds 13 1016 94 7000 6.17 240 00:43 29.01.2021
3176 Clouds 13 1016 94 8000 6.17 240 00:22 29.01.2021
3177 Rain 13 1016 94 10000 5.66 240 23:43 28.01.2021
3178 Clouds 13 1016 94 10000 4.63 240 23:24 28.01.2021
3179 Clouds 13 1016 88 10000 4.63 230 22:46 28.01.2021
3180 Clouds 13 1016 82 10000 5.14 230 22:26 28.01.2021
3181 Clouds 13 1016 88 10000 2.57 230 21:56 28.01.2021
3182 Clouds 14 1016 82 10000 3.09 230 21:34 28.01.2021
3183 Clouds 14 1016 82 10000 3.6 230 20:57 28.01.2021
3184 Clouds 14 1017 82 10000 3.6 230 20:39 28.01.2021
3185 Clouds 14 1017 82 10000 3.6 230 20:18 28.01.2021
3186 Clouds 14 1017 82 10000 3.09 220 19:40 28.01.2021
3187 Clouds 14 1017 82 10000 3.09 220 19:19 28.01.2021
3188 Clouds 15 1017 77 10000 3.09 220 18:43 28.01.2021
3189 Clouds 15 1017 77 10000 3.6 240 18:20 28.01.2021
3190 Clouds 15 1017 77 10000 3.6 250 17:45 28.01.2021
3191 Clouds 15 1018 77 10000 4.63 260 17:45 28.01.2021
3192 Clouds 15 1018 77 10000 4.63 260 17:26 28.01.2021
3193 Clouds 15 1018 77 10000 4.12 250 16:44 28.01.2021
3194 Clouds 15 1018 77 10000 4.63 260 16:23 28.01.2021
3195 Clouds 15 1018 77 10000 5.66 270 15:43 28.01.2021
3196 Clouds 15 1019 77 10000 5.66 270 15:18 28.01.2021
3197 Clouds 16 1019 77 10000 6.17 260 14:42 28.01.2021
3198 Clouds 16 1019 77 10000 6.17 260 14:42 28.01.2021
3199 Clouds 16 1019 77 10000 5.14 250 14:23 28.01.2021
3200 Clouds 15 1019 82 10000 4.63 240 13:48 28.01.2021
3201 Clouds 15 1020 77 10000 6.17 260 12:56 28.01.2021
3202 Clouds 15 1020 82 10000 6.17 250 12:36 28.01.2021
3203 Clouds 15 1020 82 10000 6.17 250 11:59 28.01.2021
3204 Clouds 14 1020 82 10000 6.17 250 11:41 28.01.2021
3205 Clouds 14 1020 82 10000 6.17 250 11:20 28.01.2021
3206 Clouds 14 1020 88 10000 5.66 240 10:53 28.01.2021
3207 Clouds 13 1020 94 10000 5.14 250 10:34 28.01.2021
3208 Clouds 13 1020 94 10000 4.12 230 09:49 28.01.2021
3209 Clouds 13 1020 94 10000 5.14 250 09:24 28.01.2021
3210 Clouds 13 1019 94 10000 6.69 250 08:55 28.01.2021
3211 Clouds 13 1019 88 10000 5.14 250 08:19 28.01.2021
3212 Clouds 13 1019 88 10000 5.14 240 07:44 28.01.2021
3213 Clouds 13 1019 94 10000 4.63 240 06:50 28.01.2021
3214 Clouds 13 1019 94 10000 3.6 230 06:25 28.01.2021
3215 Clouds 12 1020 94 10000 5.14 250 04:27 28.01.2021
3216 Clouds 13 1022 94 10000 5.66 240 01:38 28.01.2021
3217 Drizzle 13 1022 94 10000 6.69 280 23:48 27.01.2021
3218 Drizzle 13 1022 94 10000 5.66 270 23:24 27.01.2021
3219 Clouds 13 1022 94 10000 5.14 270 22:42 27.01.2021
3220 Clouds 13 1021 94 10000 5.66 260 22:22 27.01.2021
3221 Clouds 13 1021 94 10000 6.69 260 21:43 27.01.2021
3222 Clouds 13 1021 94 10000 5.66 260 21:23 27.01.2021
3223 Clouds 13 1021 94 10000 5.14 270 20:52 27.01.2021
3224 Clouds 13 1021 94 10000 5.14 280 20:24 27.01.2021
3225 Clouds 13 1021 100 10000 5.66 290 19:49 27.01.2021
3226 Clouds 13 1021 100 10000 6.17 290 19:23 27.01.2021
3227 Clouds 13 1020 100 10000 7.2 270 18:46 27.01.2021
3228 Mist 13 1020 100 4500 5.14 270 18:24 27.01.2021
3229 Drizzle 13 1020 94 2300 5.14 250 17:55 27.01.2021
3230 Mist 13 1020 94 3200 4.63 240 17:35 27.01.2021
3231 Clouds 13 1021 94 7000 5.14 240 16:57 27.01.2021
3232 Mist 12 1021 94 5000 4.63 260 16:39 27.01.2021
3233 Mist 13 1021 94 5000 4.63 260 16:20 27.01.2021
3234 Rain 13 1021 94 4500 5.14 270 15:49 27.01.2021
3235 Mist 13 1021 94 4500 5.14 270 15:49 27.01.2021
3236 Rain 13 1020 94 10000 5.14 260 15:29 27.01.2021
3237 Clouds 13 1021 94 10000 3.6 260 14:24 27.01.2021
3238 Clouds 13 1021 100 10000 3.6 270 13:53 27.01.2021
3239 Drizzle 13 1022 100 3900 4.63 270 13:35 27.01.2021
3240 Drizzle 13 1022 100 4700 4.12 280 12:42 27.01.2021
3241 Clouds 13 1022 100 10000 3.6 280 12:23 27.01.2021
3242 Mist 13 1022 100 3800 4.12 270 11:47 27.01.2021
3243 Mist 12 1021 100 3200 3.6 250 11:23 27.01.2021
3244 Mist 12 1021 100 4000 3.6 240 10:45 27.01.2021
3245 Drizzle 11 1021 100 1800 2.06 230 10:22 27.01.2021
3246 Drizzle 11 1021 94 1800 2.06 230 09:53 27.01.2021
3247 Mist 10 1020 100 1800 2.06 220 09:27 27.01.2021
3248 Drizzle 10 1020 100 4000 2.06 250 08:40 27.01.2021
3249 Clouds 10 1020 100 9000 2.06 260 07:46 27.01.2021
3250 Clouds 10 1019 100 6000 3.09 270 07:26 27.01.2021
3251 Clouds 12 1019 94 10000 4.63 290 06:25 27.01.2021
3252 Clouds 12 1019 94 10000 5.14 280 05:49 27.01.2021
3253 Clouds 11 1018 100 7000 5.14 280 04:57 27.01.2021
3254 Mist 7 1019 100 1100 1.54 180 02:24 27.01.2021
3255 Drizzle 7 1019 100 1300 1.54 180 01:57 27.01.2021
3256 Clouds 6 1019 87 10000 2.06 160 00:51 27.01.2021
3257 Clouds 6 1020 81 10000 2.57 160 23:52 26.01.2021
3258 Clouds 6 1020 81 10000 2.06 140 23:32 26.01.2021
3259 Clouds 6 1020 81 10000 2.57 140 22:52 26.01.2021
3260 Clouds 6 1021 81 10000 2.06 120 22:34 26.01.2021
3261 Clouds 6 1021 81 10000 2.57 130 21:59 26.01.2021
3262 Clouds 6 1021 75 10000 2.57 140 21:40 26.01.2021
3263 Clouds 6 1021 75 10000 2.57 140 21:21 26.01.2021
3264 Clear 6 1021 70 10000 3.09 130 20:41 26.01.2021
3265 Clear 6 1021 70 10000 3.09 130 20:22 26.01.2021
3266 Clear 6 1021 70 10000 2.57 140 19:48 26.01.2021
3267 Clear 6 1021 70 10000 3.09 140 19:29 26.01.2021
3268 Clear 6 1021 70 10000 3.09 140 18:57 26.01.2021
3269 Clear 6 1021 70 10000 4.12 120 18:37 26.01.2021
3270 Clear 6 1021 70 10000 4.12 120 18:18 26.01.2021
3271 Clear 7 1021 70 10000 4.12 120 17:46 26.01.2021
3272 Clear 7 1021 70 10000 4.63 120 17:20 26.01.2021
3273 Clear 7 1022 65 10000 4.12 140 16:41 26.01.2021
3274 Clear 7 1022 65 10000 4.12 140 16:20 26.01.2021
3275 Clear 8 1021 66 10000 4.12 140 15:48 26.01.2021
3276 Clear 8 1021 61 10000 4.63 120 15:27 26.01.2021
3277 Clear 7 1022 65 10000 4.12 130 14:49 26.01.2021
3278 Clear 7 1022 65 10000 4.12 130 14:29 26.01.2021
3279 Clear 7 1023 70 10000 4.12 130 13:38 26.01.2021
3280 Clear 6 1023 70 10000 4.12 130 13:19 26.01.2021
3281 Clear 6 1023 65 10000 3.6 130 12:44 26.01.2021
3282 Clear 5 1023 65 10000 4.63 150 12:24 26.01.2021
3283 Clear 3 1023 75 10000 3.09 140 11:54 26.01.2021
3284 Clear 3 1024 75 10000 2.57 140 11:33 26.01.2021
3285 Clear 2 1023 80 10000 3.6 150 10:45 26.01.2021
3286 Clear 2 1023 80 10000 3.6 150 10:45 26.01.2021
3287 Clear 1 1023 86 10000 5.14 140 10:26 26.01.2021
3288 Clear 1 1023 86 10000 4.63 130 09:42 26.01.2021
3289 Clear 0 1023 93 10000 4.12 120 09:23 26.01.2021
3290 Clear 0 1023 93 10000 3.09 130 08:50 26.01.2021
3291 Clear -1 1023 86 10000 2.57 140 08:24 26.01.2021
3292 Clear -1 1023 93 10000 3.09 110 07:39 26.01.2021
3293 Clouds -1 1023 100 10000 2.06 90 05:59 26.01.2021
3294 Fog -1 1023 93 7000 2.18 127 05:41 26.01.2021
3295 Clouds -1 1023 100 8000 1.03 140 03:58 26.01.2021
3296 Clear 0 1022 100 9000 1.7 83 02:19 26.01.2021
3297 Clear 0 1021 93 10000 1.41 73 00:49 26.01.2021
3298 Clear 2 1021 93 10000 1.57 49 23:36 25.01.2021
3299 Clear 2 1020 93 10000 1.87 44 22:57 25.01.2021
3300 Clear 2 1020 87 10000 1.03 280 22:36 25.01.2021
3301 Clear 2 1019 87 10000 2.06 20 21:50 25.01.2021
3302 Clear 3 1019 87 10000 2.57 350 21:26 25.01.2021
3303 Clear 3 1018 87 10000 1.03 0 20:51 25.01.2021
3304 Clear 4 1018 81 10000 1.54 330 20:33 25.01.2021
3305 Clear 4 1017 81 10000 1.54 290 19:51 25.01.2021
3306 Clear 5 1017 75 10000 2.06 340 19:31 25.01.2021
3307 Clouds 6 1016 70 10000 3.09 360 18:48 25.01.2021
3308 Clear 6 1015 70 10000 3.6 10 18:28 25.01.2021
3309 Clouds 7 1015 65 10000 4.12 10 17:56 25.01.2021
3310 Clouds 8 1014 66 10000 4.12 10 17:38 25.01.2021
3311 Clouds 8 1014 66 10000 4.12 10 17:19 25.01.2021
3312 Clouds 9 1013 66 10000 4.63 10 16:41 25.01.2021
3313 Clouds 10 1013 66 10000 4.63 10 16:21 25.01.2021
3314 Clouds 11 1013 57 10000 3.09 350 15:43 25.01.2021
3315 Clouds 10 1013 57 10000 3.09 350 15:24 25.01.2021
3316 Clouds 10 1012 61 10000 2.06 350 14:46 25.01.2021
3317 Clouds 10 1012 62 10000 3.6 350 14:19 25.01.2021
3318 Clouds 10 1011 62 10000 3.09 10 13:49 25.01.2021
3319 Clouds 10 1011 62 10000 3.09 10 13:26 25.01.2021
3320 Clouds 10 1011 66 10000 3.6 20 12:45 25.01.2021
3321 Clear 9 1011 76 10000 2.57 360 12:20 25.01.2021
3322 Clear 9 1011 76 10000 2.57 360 11:47 25.01.2021
3323 Clear 9 1011 76 10000 2.57 360 11:47 25.01.2021
3324 Clear 8 1011 81 10000 1.54 340 11:18 25.01.2021
3325 Clear 6 1010 100 10000 1.03 250 10:40 25.01.2021
3326 Clear 6 1010 100 10000 1.03 250 10:18 25.01.2021
3327 Clear 6 1009 100 10000 1.03 0 09:43 25.01.2021
3328 Clouds 6 1009 100 10000 1.03 230 09:25 25.01.2021
3329 Clouds 6 1008 100 10000 1.06 288 08:28 25.01.2021
3330 Clouds 6 1008 100 10000 1.54 340 07:32 25.01.2021
3331 Clouds 6 1008 93 10000 0.86 270 06:55 25.01.2021
3332 Clouds 7 1008 93 10000 1.03 0 03:46 25.01.2021
3333 Clouds 7 1008 93 10000 2.57 260 01:30 25.01.2021
3334 Clouds 7 1008 93 10000 2.57 260 01:30 25.01.2021
3335 Clear 8 1007 93 10000 3.09 270 23:41 24.01.2021
3336 Clear 8 1007 93 10000 3.09 270 23:19 24.01.2021
3337 Clouds 8 1007 93 10000 3.6 280 22:42 24.01.2021
3338 Clouds 8 1007 100 10000 4.12 280 22:20 24.01.2021
3339 Clouds 8 1006 93 10000 4.63 270 21:48 24.01.2021
3340 Clouds 9 1007 93 8000 3.09 290 21:24 24.01.2021
3341 Clouds 8 1006 100 10000 4.12 260 20:44 24.01.2021
3342 Rain 8 1006 100 10000 4.63 240 20:21 24.01.2021
3343 Rain 8 1006 100 6000 3.6 260 19:52 24.01.2021
3344 Rain 8 1006 93 7000 5.14 280 19:27 24.01.2021
3345 Rain 9 1006 93 10000 4.12 240 18:58 24.01.2021
3346 Clouds 9 1006 87 10000 4.12 250 18:39 24.01.2021
3347 Clouds 9 1006 87 10000 4.12 250 18:39 24.01.2021
3348 Clouds 9 1006 87 10000 4.12 250 18:20 24.01.2021
3349 Clouds 9 1006 81 10000 5.66 270 17:50 24.01.2021
3350 Clouds 9 1006 81 10000 5.66 260 17:28 24.01.2021
3351 Clouds 10 1006 76 10000 7.2 260 16:57 24.01.2021
3352 Clouds 10 1007 71 10000 6.69 270 16:37 24.01.2021
3353 Clouds 11 1007 71 10000 6.69 270 16:18 24.01.2021
3354 Clouds 11 1006 71 10000 7.2 270 15:42 24.01.2021
3355 Clouds 10 1007 81 10000 7.2 280 15:18 24.01.2021
3356 Rain 11 1007 76 10000 6.17 280 14:38 24.01.2021
3357 Drizzle 9 1007 87 10000 6.17 270 13:46 24.01.2021
3358 Drizzle 9 1007 87 10000 6.17 270 13:26 24.01.2021
3359 Clouds 9 1007 87 10000 5.14 210 12:47 24.01.2021
3360 Clouds 8 1008 93 10000 5.14 210 12:20 24.01.2021
3361 Drizzle 8 1008 87 10000 4.63 210 11:50 24.01.2021
3362 Clouds 7 1008 100 10000 4.63 200 11:24 24.01.2021
3363 Clouds 7 1008 93 10000 5.14 200 10:46 24.01.2021
3364 Clouds 7 1008 93 10000 5.14 200 10:46 24.01.2021
3365 Clouds 6 1007 100 10000 5.14 210 10:19 24.01.2021
3366 Clouds 5 1008 93 10000 3.6 220 09:22 24.01.2021
3367 Clouds 6 1007 87 10000 4.12 230 08:58 24.01.2021
3368 Clear 6 1007 87 10000 3.6 230 08:23 24.01.2021
3369 Clouds 6 1003 93 10000 2.06 250 02:52 24.01.2021
3370 Clear 6 1002 93 10000 1.54 210 01:52 24.01.2021
3371 Rain 6 1001 100 7000 1.54 170 00:26 24.01.2021
3372 Clouds 6 1001 93 7000 1.54 190 23:53 23.01.2021
3373 Rain 6 1000 93 10000 2.06 150 23:26 23.01.2021
3374 Rain 6 1000 93 8000 1.54 150 22:51 23.01.2021
3375 Rain 6 1001 93 6000 2.57 230 22:33 23.01.2021
3376 Clouds 6 1001 93 10000 1.54 230 21:52 23.01.2021
3377 Clouds 7 1001 93 10000 1.54 230 21:22 23.01.2021
3378 Clouds 7 1001 100 10000 1.03 0 20:47 23.01.2021
3379 Clear 7 1000 93 10000 2.57 230 20:25 23.01.2021
3380 Clear 7 1000 93 10000 2.57 230 19:47 23.01.2021
3381 Clear 7 1001 93 10000 3.6 250 19:23 23.01.2021
3382 Clouds 7 1001 93 10000 4.63 220 18:49 23.01.2021
3383 Clouds 7 1001 87 10000 5.66 230 18:26 23.01.2021
3384 Rain 8 1002 87 10000 5.66 240 17:54 23.01.2021
3385 Clouds 8 1001 81 10000 5.14 260 17:27 23.01.2021
3386 Clouds 9 1001 66 10000 6.17 270 16:50 23.01.2021
3387 Clouds 9 1001 71 10000 5.14 270 16:30 23.01.2021
3388 Clear 10 1001 66 10000 6.69 280 15:42 23.01.2021
3389 Clouds 10 1001 66 10000 7.2 280 15:24 23.01.2021
3390 Clouds 11 1001 66 10000 7.72 280 14:34 23.01.2021
3391 Clouds 11 1001 71 10000 8.75 270 13:55 23.01.2021
3392 Clouds 11 1001 66 10000 9.26 270 13:36 23.01.2021
3393 Clouds 11 1001 66 10000 10.8 280 12:57 23.01.2021
3394 Clouds 10 1001 87 10000 7.72 250 12:29 23.01.2021
3395 Clouds 9 1001 87 10000 8.23 260 11:48 23.01.2021
3396 Clouds 9 1001 87 10000 9.26 260 11:28 23.01.2021
3397 Clouds 9 1001 93 6000 7.72 270 10:52 23.01.2021
3398 Clouds 9 1000 87 10000 7.2 240 10:21 23.01.2021
3399 Clouds 8 1001 87 10000 8.23 250 09:48 23.01.2021
3400 Rain 9 1001 87 10000 6.69 260 08:56 23.01.2021
3401 Clouds 8 1001 100 10000 5.14 280 08:31 23.01.2021
3402 Rain 8 1002 87 10000 8.75 250 07:31 23.01.2021
3403 Clouds 6 1006 100 10000 3.09 200 03:41 23.01.2021
3404 Clouds 5 1007 100 10000 3.09 210 00:54 23.01.2021
3405 Clouds 6 1007 93 10000 3.09 230 23:41 22.01.2021
3406 Clouds 7 1007 93 10000 4.63 310 23:18 22.01.2021
3407 Clouds 7 1007 87 7000 4.63 290 22:38 22.01.2021
3408 Clouds 6 1007 93 10000 2.57 210 21:47 22.01.2021
3409 Clouds 7 1007 87 10000 4.63 230 21:28 22.01.2021
3410 Clouds 7 1007 93 10000 2.06 310 20:57 22.01.2021
3411 Rain 7 1007 93 10000 4.12 240 20:38 22.01.2021
3412 Clouds 7 1006 93 10000 1.54 210 19:56 22.01.2021
3413 Clouds 6 1006 93 10000 2.06 250 19:24 22.01.2021
3414 Clouds 7 1006 87 10000 4.63 250 18:57 22.01.2021
3415 Clouds 7 1006 87 10000 4.63 270 18:39 22.01.2021
3416 Rain 8 1006 87 10000 4.63 270 18:20 22.01.2021
3417 Clouds 9 1005 81 10000 4.12 260 17:43 22.01.2021
3418 Clouds 9 1005 81 10000 3.09 270 16:59 22.01.2021
3419 Clouds 9 1004 81 10000 5.14 310 16:38 22.01.2021
3420 Clouds 9 1004 81 10000 5.14 310 16:18 22.01.2021
3421 Clouds 8 1003 81 10000 9.26 280 15:26 22.01.2021
3422 Clouds 9 1003 81 10000 7.2 320 14:51 22.01.2021
3423 Rain 10 1002 66 10000 8.23 320 14:29 22.01.2021
3424 Clouds 10 1001 71 10000 8.75 320 13:46 22.01.2021
3425 Clouds 10 1001 71 10000 7.2 320 13:27 22.01.2021
3426 Clouds 9 1000 76 10000 8.75 330 12:44 22.01.2021
3427 Clouds 8 999 87 10000 8.75 330 12:20 22.01.2021
3428 Clouds 8 998 87 10000 8.23 320 11:45 22.01.2021
3429 Clouds 9 995 93 10000 7.72 300 10:51 22.01.2021
3430 Clouds 10 995 87 10000 6.17 250 10:29 22.01.2021
3431 Clouds 10 994 93 10000 5.14 250 09:55 22.01.2021
3432 Clouds 10 994 93 10000 5.66 250 09:20 22.01.2021
3433 Clouds 10 993 93 10000 5.14 240 08:45 22.01.2021
3434 Clouds 10 993 93 10000 4.63 240 08:22 22.01.2021
3435 Rain 10 993 93 3800 3.6 250 07:23 22.01.2021
3436 Clear 10 998 87 10000 4.12 180 02:38 22.01.2021
3437 Clear 11 1000 76 10000 4.12 210 00:31 22.01.2021
3438 Clear 11 1000 71 10000 4.63 220 23:50 21.01.2021
3439 Clear 12 1000 71 10000 5.66 220 23:22 21.01.2021
3440 Clear 12 1000 71 10000 5.66 230 22:48 21.01.2021
3441 Clouds 12 1000 71 10000 5.66 230 22:18 21.01.2021
3442 Clear 12 1000 71 10000 5.14 230 21:41 21.01.2021
3443 Clouds 12 1000 71 10000 5.14 230 21:19 21.01.2021
3444 Clouds 12 1000 71 10000 5.66 240 20:47 21.01.2021
3445 Clouds 12 1001 76 10000 5.66 250 20:22 21.01.2021
3446 Clouds 12 1000 76 10000 5.14 230 19:51 21.01.2021
3447 Clear 12 1000 76 10000 5.66 230 19:27 21.01.2021
3448 Clouds 13 1000 76 10000 7.2 240 18:54 21.01.2021
3449 Clouds 13 1000 76 10000 7.2 240 18:54 21.01.2021
3450 Clouds 13 1000 76 10000 4.63 220 18:36 21.01.2021
3451 Rain 13 1000 76 10000 5.14 200 18:18 21.01.2021
3452 Clouds 13 1000 76 10000 5.14 190 17:41 21.01.2021
3453 Clouds 13 1000 76 10000 5.14 190 17:18 21.01.2021
3454 Clouds 13 1000 76 10000 6.17 200 16:41 21.01.2021
3455 Rain 13 1000 76 10000 6.17 200 16:23 21.01.2021
3456 Rain 13 1000 76 10000 6.69 190 15:49 21.01.2021
3457 Clear 12 1000 82 10000 6.69 180 15:28 21.01.2021
3458 Clouds 11 1001 87 10000 5.14 190 14:48 21.01.2021
3459 Rain 12 1002 82 10000 6.17 190 14:29 21.01.2021
3460 Clouds 12 1002 82 10000 5.14 190 13:47 21.01.2021
3461 Rain 12 1002 82 10000 5.14 190 13:26 21.01.2021
3462 Clear 12 1003 87 10000 5.14 180 12:46 21.01.2021
3463 Clouds 12 1003 87 10000 5.14 170 12:25 21.01.2021
3464 Clouds 12 1004 94 10000 5.14 180 11:56 21.01.2021
3465 Clouds 12 1004 94 10000 4.12 190 11:35 21.01.2021
3466 Clouds 11 1004 100 10000 4.12 190 10:53 21.01.2021
3467 Clouds 11 1004 100 10000 3.09 190 10:34 21.01.2021
3468 Clouds 11 1004 93 10000 4.63 200 09:50 21.01.2021
3469 Clouds 11 1005 93 6000 5.66 220 09:30 21.01.2021
3470 Mist 11 1005 100 5000 4.12 250 08:59 21.01.2021
3471 Drizzle 11 1005 100 10000 4.63 240 08:27 21.01.2021
3472 Clouds 11 1005 100 10000 4.63 240 07:45 21.01.2021
3473 Clouds 11 1004 100 10000 6.17 240 07:25 21.01.2021
3474 Clouds 11 1004 93 6000 5.66 220 05:59 21.01.2021
3475 Mist 11 1003 93 4700 4.63 200 04:29 21.01.2021
3476 Clouds 11 1002 82 10000 5.14 200 01:33 21.01.2021
3477 Rain 11 1001 71 10000 4.12 200 00:40 21.01.2021
3478 Clear 10 1001 66 10000 5.14 180 23:43 20.01.2021
3479 Clear 10 1001 66 10000 5.14 180 23:22 20.01.2021
3480 Clouds 10 1001 62 10000 4.12 180 22:49 20.01.2021
3481 Clear 10 1000 62 10000 4.63 180 22:28 20.01.2021
3482 Clear 10 1000 62 10000 5.14 180 21:48 20.01.2021
3483 Clear 11 1000 62 10000 5.14 170 21:22 20.01.2021
3484 Clear 11 1000 66 10000 4.63 160 20:50 20.01.2021
3485 Clear 11 1000 66 10000 5.14 160 20:21 20.01.2021
3486 Clear 11 999 54 10000 5.66 180 19:47 20.01.2021
3487 Clear 12 999 54 10000 5.66 180 19:27 20.01.2021
3488 Clear 13 999 51 10000 6.17 180 18:42 20.01.2021
3489 Clear 13 999 51 10000 6.17 180 18:20 20.01.2021
3490 Clear 13 999 51 10000 7.2 190 17:43 20.01.2021
3491 Clear 13 998 51 10000 7.2 190 17:24 20.01.2021
3492 Clear 14 999 47 10000 7.72 190 16:45 20.01.2021
3493 Clear 14 999 47 10000 8.75 190 15:56 20.01.2021
3494 Clear 13 999 62 10000 5.66 180 15:36 20.01.2021
3495 Clear 11 1000 62 10000 5.14 170 14:55 20.01.2021
3496 Rain 10 1000 62 10000 5.66 160 14:29 20.01.2021
3497 Rain 10 1001 62 10000 5.66 160 14:00 20.01.2021
3498 Rain 9 1002 71 10000 5.66 150 13:36 20.01.2021
3499 Clear 9 1002 66 10000 5.66 160 12:54 20.01.2021
3500 Clear 9 1003 71 10000 5.14 140 12:22 20.01.2021
3501 Clear 8 1004 76 10000 5.14 150 11:39 20.01.2021
3502 Clear 8 1004 76 10000 5.14 150 11:39 20.01.2021
3503 Clear 7 1004 76 10000 5.14 150 11:18 20.01.2021
3504 Clear 6 1004 81 10000 5.14 140 10:44 20.01.2021
3505 Clear 6 1005 87 10000 5.66 140 10:18 20.01.2021
3506 Clear 5 1005 81 10000 5.14 150 09:31 20.01.2021
3507 Clear 4 1005 87 10000 4.63 140 08:59 20.01.2021
3508 Clear 4 1005 87 10000 4.12 140 08:35 20.01.2021
3509 Clear 5 1005 81 10000 3.6 140 07:59 20.01.2021
3510 Clear 5 1005 81 10000 5.14 140 07:37 20.01.2021
3511 Clear 5 1006 87 10000 4.63 140 06:56 20.01.2021
3512 Clear 5 1009 87 10000 5.14 140 03:34 20.01.2021
3513 Clear 6 1010 81 10000 5.14 140 01:51 20.01.2021
3514 Clear 6 1011 81 10000 4.12 150 00:49 20.01.2021
3515 Clear 7 1011 76 10000 3.6 150 23:50 19.01.2021
3516 Clear 7 1012 76 10000 4.12 140 23:32 19.01.2021
3517 Clear 7 1012 81 10000 4.12 140 22:58 19.01.2021
3518 Clear 8 1013 76 10000 3.6 150 22:37 19.01.2021
3519 Clear 8 1013 76 10000 3.6 150 22:19 19.01.2021
3520 Clear 8 1013 76 10000 4.12 150 21:52 19.01.2021
3521 Clear 8 1013 76 10000 4.12 150 21:28 19.01.2021
3522 Clear 8 1014 76 10000 4.12 150 20:49 19.01.2021
3523 Clear 8 1014 76 10000 4.12 140 20:26 19.01.2021
3524 Clear 8 1014 81 10000 4.63 130 19:55 19.01.2021
3525 Clear 8 1014 71 10000 3.6 130 19:30 19.01.2021
3526 Clear 9 1015 62 10000 2.06 140 18:50 19.01.2021
3527 Clear 11 1015 54 10000 2.57 170 18:31 19.01.2021
3528 Clear 14 1015 47 10000 2.06 190 17:47 19.01.2021
3529 Clear 13 1015 47 10000 3.09 210 17:29 19.01.2021
3530 Clear 13 1016 47 10000 5.14 220 16:59 19.01.2021
3531 Clear 15 1016 47 10000 5.14 220 16:38 19.01.2021
3532 Clear 14 1016 47 10000 5.14 220 16:18 19.01.2021
3533 Clear 14 1016 51 10000 3.09 220 15:41 19.01.2021
3534 Clear 13 1017 51 10000 4.63 220 15:21 19.01.2021
3535 Clear 13 1017 54 10000 3.09 160 14:41 19.01.2021
3536 Clear 12 1017 58 10000 3.09 180 14:23 19.01.2021
3537 Clear 12 1018 58 10000 2.57 170 13:48 19.01.2021
3538 Clear 11 1018 58 10000 2.57 150 13:21 19.01.2021
3539 Clear 11 1018 58 10000 2.57 150 13:21 19.01.2021
3540 Clear 10 1019 62 10000 2.57 130 12:48 19.01.2021
3541 Clear 9 1020 66 10000 3.09 150 12:29 19.01.2021
3542 Clear 6 1020 65 10000 3.6 150 11:45 19.01.2021
3543 Clear 6 1020 70 10000 3.09 150 11:26 19.01.2021
3544 Clear 4 1020 81 10000 3.09 140 10:51 19.01.2021
3545 Clear 3 1021 81 10000 3.09 150 10:32 19.01.2021
3546 Clear 1 1021 87 10000 4.12 140 09:53 19.01.2021
3547 Clear 1 1021 93 10000 3.09 140 09:30 19.01.2021
3548 Clear 0 1021 93 10000 4.12 140 08:56 19.01.2021
3549 Clear 0 1021 86 10000 3.09 130 08:24 19.01.2021
3550 Clear 1 1021 86 10000 2.57 130 07:47 19.01.2021
3551 Clear 0 1022 86 10000 3.09 140 06:53 19.01.2021
3552 Clear 2 1024 87 10000 2.57 130 02:32 19.01.2021
3553 Clear 2 1026 93 10000 2.06 130 00:55 19.01.2021
3554 Clear 2 1026 87 10000 1.54 140 23:58 18.01.2021
3555 Clear 2 1026 87 10000 2.06 120 23:32 18.01.2021
3556 Clear 3 1026 81 10000 2.57 140 22:51 18.01.2021
3557 Clear 3 1027 81 10000 2.57 130 22:26 18.01.2021
3558 Clear 3 1027 81 10000 2.57 120 21:55 18.01.2021
3559 Clear 3 1027 81 10000 2.57 110 21:37 18.01.2021
3560 Clear 3 1027 81 10000 2.57 110 21:19 18.01.2021
3561 Clear 4 1027 87 10000 2.06 100 20:42 18.01.2021
3562 Clear 3 1027 81 10000 2.57 120 20:22 18.01.2021
3563 Clear 4 1027 81 10000 2.06 110 19:48 18.01.2021
3564 Clear 4 1027 81 10000 1.54 110 19:30 18.01.2021
3565 Clear 5 1027 75 10000 1.54 110 18:47 18.01.2021
3566 Clear 7 1027 61 10000 1.54 140 18:22 18.01.2021
3567 Clear 8 1027 61 10000 2.06 130 17:44 18.01.2021
3568 Clear 9 1028 57 10000 2.57 130 17:21 18.01.2021
3569 Clear 9 1028 57 10000 2.06 110 16:46 18.01.2021
3570 Clear 10 1028 57 10000 2.06 110 16:20 18.01.2021
3571 Clear 10 1028 57 10000 1.54 0 15:45 18.01.2021
3572 Clear 10 1028 57 10000 1.54 0 15:25 18.01.2021
3573 Clouds 10 1029 61 10000 1.03 0 14:44 18.01.2021
3574 Clouds 9 1029 61 10000 1.03 0 14:26 18.01.2021
3575 Clear 9 1029 66 10000 2.06 110 13:47 18.01.2021
3576 Clear 8 1030 71 10000 2.06 120 13:27 18.01.2021
3577 Clear 7 1030 76 10000 1.54 130 12:53 18.01.2021
3578 Clear 6 1030 81 10000 1.54 0 12:21 18.01.2021
3579 Clear 5 1031 87 10000 1.03 0 11:56 18.01.2021
3580 Clear 5 1031 87 9000 1.03 0 11:37 18.01.2021
3581 Clouds 4 1031 87 9000 1.03 0 11:19 18.01.2021
3582 Mist 2 1031 100 4600 1.03 100 10:42 18.01.2021
3583 Mist 0 1030 100 3800 0.51 110 09:47 18.01.2021
3584 Mist -1 1030 100 2900 1.03 100 09:27 18.01.2021
3585 Mist -1 1030 100 4900 0.51 0 08:52 18.01.2021
3586 Fog -1 1030 100 4100 1.29 134 08:18 18.01.2021
3587 Clear -1 1030 100 6000 1.29 134 07:33 18.01.2021
3588 Clear -1 1030 100 8000 0.91 95 05:32 18.01.2021
3589 Fog 0 1031 100 4800 0.95 68 04:33 18.01.2021
3590 Clear 0 1030 100 9000 0.87 99 03:59 18.01.2021
3591 Clear 0 1030 100 9000 0.87 99 03:41 18.01.2021
3592 Clear 0 1030 100 9000 0.77 79 03:19 18.01.2021
3593 Mist 0 1030 100 3000 0.77 79 02:37 18.01.2021
3594 Clouds 1 1031 100 10000 1.03 240 00:46 18.01.2021
3595 Clouds 2 1031 93 10000 0.51 240 00:27 18.01.2021
3596 Clouds 2 1031 93 7000 1.03 280 23:46 17.01.2021
3597 Clouds 2 1031 100 7000 1.54 250 23:20 17.01.2021
3598 Clear 3 1031 93 10000 0.81 20 22:39 17.01.2021
3599 Clear 3 1031 93 10000 0.81 20 22:39 17.01.2021
3600 Clear 4 1031 93 10000 0.79 11 22:19 17.01.2021
3601 Clear 3 1031 93 10000 1.03 0 21:39 17.01.2021
3602 Clear 4 1031 93 10000 1.03 0 21:21 17.01.2021
3603 Clear 4 1031 87 10000 1.03 260 20:48 17.01.2021
3604 Clear 4 1031 87 10000 1.03 260 20:27 17.01.2021
3605 Clear 5 1030 81 10000 1.03 0 19:42 17.01.2021
3606 Clear 6 1030 70 10000 1.54 350 19:22 17.01.2021
3607 Clear 7 1030 66 10000 2.57 360 18:41 17.01.2021
3608 Clear 8 1030 66 10000 2.57 360 18:21 17.01.2021
3609 Clouds 9 1029 66 10000 3.09 360 17:47 17.01.2021
3610 Clouds 9 1029 61 10000 3.6 360 17:26 17.01.2021
3611 Clouds 11 1029 57 10000 4.12 350 16:44 17.01.2021
3612 Clouds 11 1029 57 10000 4.12 360 16:20 17.01.2021
3613 Clouds 11 1028 57 10000 5.14 20 15:43 17.01.2021
3614 Clouds 11 1028 57 10000 5.14 20 15:24 17.01.2021
3615 Clouds 11 1028 57 10000 5.14 10 14:48 17.01.2021
3616 Clouds 11 1028 66 10000 4.63 10 14:26 17.01.2021
3617 Clouds 11 1028 66 10000 4.63 10 13:45 17.01.2021
3618 Clouds 10 1029 71 10000 4.12 10 13:27 17.01.2021
3619 Clouds 9 1029 76 10000 4.12 10 12:52 17.01.2021
3620 Clouds 10 1029 76 10000 3.09 10 12:31 17.01.2021
3621 Clouds 9 1029 81 10000 3.09 10 11:54 17.01.2021
3622 Clouds 9 1028 87 10000 4.12 10 11:22 17.01.2021
3623 Clouds 8 1028 87 10000 4.12 360 10:46 17.01.2021
3624 Clouds 8 1027 93 10000 4.63 350 10:21 17.01.2021
3625 Clouds 8 1026 93 10000 3.6 350 09:21 17.01.2021
3626 Clouds 8 1026 93 10000 3.6 350 08:44 17.01.2021
3627 Mist 10 1024 100 3100 4.12 340 06:52 17.01.2021
3628 Drizzle 11 1024 100 4600 5.66 270 04:28 17.01.2021
3629 Clouds 11 1024 93 10000 7.2 280 02:42 17.01.2021
3630 Drizzle 10 1026 100 7000 6.17 250 00:47 17.01.2021
3631 Mist 9 1026 93 5000 6.17 250 00:18 17.01.2021
3632 Clouds 9 1026 93 6000 6.69 250 23:48 16.01.2021
3633 Mist 8 1026 100 5000 5.66 240 23:19 16.01.2021
3634 Clouds 8 1026 93 10000 3.09 220 22:36 16.01.2021
3635 Clouds 8 1027 87 10000 3.09 230 21:58 16.01.2021
3636 Clouds 8 1027 87 10000 3.6 220 21:24 16.01.2021
3637 Clouds 8 1027 87 10000 3.6 220 20:59 16.01.2021
3638 Clouds 8 1027 87 10000 3.6 220 20:40 16.01.2021
3639 Clouds 8 1027 87 10000 3.6 220 20:18 16.01.2021
3640 Clouds 8 1027 87 10000 4.63 210 19:41 16.01.2021
3641 Clouds 8 1027 81 10000 4.12 210 19:23 16.01.2021
3642 Clouds 8 1027 87 10000 3.6 210 18:42 16.01.2021
3643 Clouds 8 1027 87 10000 2.57 200 18:21 16.01.2021
3644 Clouds 8 1027 81 10000 3.09 190 17:41 16.01.2021
3645 Clouds 8 1027 81 10000 3.09 190 17:23 16.01.2021
3646 Clear 8 1027 81 10000 2.57 220 16:45 16.01.2021
3647 Clear 8 1027 81 10000 3.6 190 16:25 16.01.2021
3648 Clouds 8 1028 81 10000 3.09 200 15:48 16.01.2021
3649 Clouds 7 1028 71 10000 2.57 200 14:59 16.01.2021
3650 Clouds 7 1029 70 10000 2.57 220 14:18 16.01.2021
3651 Clear 6 1029 70 10000 2.06 190 13:47 16.01.2021
3652 Clear 6 1030 81 10000 2.57 210 13:19 16.01.2021
3653 Clear 5 1030 87 10000 2.57 220 12:39 16.01.2021
3654 Clear 5 1030 87 10000 2.57 220 12:20 16.01.2021
3655 Clear 5 1030 87 10000 2.57 220 12:20 16.01.2021
3656 Clear 3 1030 87 10000 2.06 220 11:46 16.01.2021
3657 Clouds 3 1030 93 8000 1.54 0 11:24 16.01.2021
3658 Mist 2 1030 100 5000 1.03 180 10:43 16.01.2021
3659 Mist 0 1030 100 3700 1.03 130 09:59 16.01.2021
3660 Mist 0 1030 93 4400 1.03 160 09:31 16.01.2021
3661 Clouds -1 1030 100 7000 1.78 151 08:32 16.01.2021
3662 Clouds -1 1030 100 7000 1.44 137 07:28 16.01.2021
3663 Fog -1 1030 100 1300 1.69 120 05:46 16.01.2021
3664 Fog -1 1031 93 5000 1.37 102 04:38 16.01.2021
3665 Mist 0 1030 93 4600 1.03 70 02:54 16.01.2021
3666 Clouds 2 1031 93 10000 1.43 51 00:49 16.01.2021
3667 Clear 1 1031 93 10000 1.03 330 00:25 16.01.2021
3668 Clear 2 1030 87 10000 1.03 0 23:40 15.01.2021
3669 Clear 3 1030 87 10000 0.51 0 22:47 15.01.2021
3670 Clear 4 1030 87 10000 1.54 340 22:23 15.01.2021
3671 Clouds 5 1030 75 10000 1.54 340 21:46 15.01.2021
3672 Clouds 6 1030 70 10000 2.06 340 20:58 15.01.2021
3673 Clouds 6 1030 70 10000 2.57 340 20:40 15.01.2021
3674 Clouds 7 1030 70 10000 2.57 340 20:19 15.01.2021
3675 Clouds 7 1029 70 10000 3.6 360 19:40 15.01.2021
3676 Clouds 7 1029 70 10000 3.6 360 19:22 15.01.2021
3677 Clouds 7 1029 66 10000 4.63 350 18:42 15.01.2021
3678 Clouds 8 1029 66 10000 4.63 350 18:18 15.01.2021
3679 Clouds 8 1029 71 10000 6.17 350 17:50 15.01.2021
3680 Clouds 8 1029 66 10000 4.12 350 17:22 15.01.2021
3681 Clouds 9 1028 66 10000 4.63 350 16:49 15.01.2021
3682 Clouds 9 1028 71 10000 5.14 350 16:24 15.01.2021
3683 Clouds 9 1028 71 10000 4.63 330 15:41 15.01.2021
3684 Clouds 10 1028 66 10000 4.12 350 15:21 15.01.2021
3685 Clouds 10 1028 66 10000 3.6 10 14:48 15.01.2021
3686 Clouds 10 1028 66 10000 5.66 340 14:27 15.01.2021
3687 Clouds 10 1029 66 10000 4.12 340 13:43 15.01.2021
3688 Clouds 10 1029 66 10000 4.12 340 13:23 15.01.2021
3689 Clouds 10 1029 71 10000 3.6 350 12:58 15.01.2021
3690 Clear 9 1029 71 10000 4.63 330 12:33 15.01.2021
3691 Clouds 9 1029 76 10000 4.63 350 11:56 15.01.2021
3692 Clouds 9 1029 76 10000 4.63 330 11:36 15.01.2021
3693 Clouds 8 1029 81 10000 3.09 320 10:57 15.01.2021
3694 Clouds 7 1029 87 10000 3.09 310 10:39 15.01.2021
3695 Clouds 7 1029 87 10000 3.09 310 10:39 15.01.2021
3696 Clouds 7 1029 87 10000 3.09 310 10:19 15.01.2021
3697 Clouds 6 1028 87 10000 2.57 310 09:41 15.01.2021
3698 Clouds 6 1028 87 10000 2.06 310 09:20 15.01.2021
3699 Clouds 6 1028 93 10000 2.57 290 08:25 15.01.2021
3700 Clouds 7 1027 87 10000 2.06 290 07:41 15.01.2021
3701 Clouds 7 1027 87 10000 3.09 330 07:19 15.01.2021
3702 Clouds 7 1027 93 10000 2.57 290 05:35 15.01.2021
3703 Clouds 9 1026 87 10000 3.6 310 01:52 15.01.2021
3704 Clouds 8 1026 93 10000 3.6 290 23:55 14.01.2021
3705 Clouds 8 1026 93 10000 4.12 290 23:28 14.01.2021
3706 Clouds 9 1025 93 10000 4.12 300 22:48 14.01.2021
3707 Clouds 9 1025 87 10000 5.14 300 22:25 14.01.2021
3708 Clouds 10 1025 87 10000 5.14 290 21:49 14.01.2021
3709 Clouds 10 1025 87 10000 5.66 300 21:21 14.01.2021
3710 Clouds 10 1025 87 10000 5.14 310 20:52 14.01.2021
3711 Clouds 10 1025 93 10000 5.66 310 20:33 14.01.2021
3712 Clouds 10 1024 93 10000 5.66 300 19:49 14.01.2021
3713 Clouds 10 1024 93 10000 5.14 300 19:30 14.01.2021
3714 Mist 11 1024 93 4700 4.63 310 18:56 14.01.2021
3715 Drizzle 11 1024 93 10000 6.69 310 18:32 14.01.2021
3716 Drizzle 11 1024 100 10000 6.69 280 17:54 14.01.2021
3717 Mist 11 1024 93 5000 6.69 260 17:28 14.01.2021
3718 Mist 11 1024 93 3000 7.2 260 16:50 14.01.2021
3719 Drizzle 10 1024 100 3800 6.69 260 16:26 14.01.2021
3720 Mist 10 1024 100 3400 7.2 250 15:49 14.01.2021
3721 Mist 10 1025 100 2700 7.2 250 15:25 14.01.2021
3722 Drizzle 10 1025 93 5000 6.69 250 14:39 14.01.2021
3723 Clouds 11 1026 87 10000 7.72 270 14:20 14.01.2021
3724 Clouds 11 1026 87 10000 7.72 270 13:54 14.01.2021
3725 Clouds 11 1026 87 10000 6.17 250 13:23 14.01.2021
3726 Clouds 11 1027 87 10000 5.66 240 12:54 14.01.2021
3727 Clouds 11 1027 87 10000 5.14 240 12:21 14.01.2021
3728 Clouds 10 1028 87 10000 5.14 240 11:53 14.01.2021
3729 Clouds 10 1028 93 10000 4.63 250 11:21 14.01.2021
3730 Clouds 9 1028 100 10000 3.6 250 10:57 14.01.2021
3731 Clouds 9 1028 100 10000 3.09 270 10:35 14.01.2021
3732 Clouds 8 1028 100 10000 2.06 250 09:59 14.01.2021
3733 Clouds 8 1028 100 10000 3.09 230 09:41 14.01.2021
3734 Clouds 8 1028 100 10000 3.09 230 09:18 14.01.2021
3735 Drizzle 8 1028 100 10000 3.09 250 08:28 14.01.2021
3736 Clouds 8 1028 100 6000 2.57 240 07:50 14.01.2021
3737 Drizzle 8 1028 93 8000 1.54 280 06:59 14.01.2021
3738 Clouds 8 1028 93 10000 2.57 220 06:19 14.01.2021
3739 Drizzle 7 1030 100 5000 2.06 230 01:55 14.01.2021
3740 Mist 8 1030 100 4100 2.06 260 23:56 13.01.2021
3741 Clouds 8 1030 100 10000 2.57 240 23:23 13.01.2021
3742 Clouds 8 1030 93 10000 2.57 220 22:30 13.01.2021
3743 Mist 8 1030 100 2200 2.06 230 21:59 13.01.2021
3744 Mist 8 1030 100 2200 2.06 230 21:59 13.01.2021
3745 Mist 8 1030 100 2200 2.06 230 21:41 13.01.2021
3746 Fog 8 1030 100 1200 1.54 230 21:19 13.01.2021
3747 Clouds 9 1030 93 10000 1.54 270 20:38 13.01.2021
3748 Clouds 9 1030 93 10000 1.54 270 20:19 13.01.2021
3749 Clouds 8 1030 93 10000 1.54 300 19:42 13.01.2021
3750 Clouds 9 1029 93 10000 2.06 270 19:21 13.01.2021
3751 Clouds 9 1029 93 10000 1.54 260 18:41 13.01.2021
3752 Clouds 9 1029 93 10000 1.54 260 18:18 13.01.2021
3753 Clouds 10 1029 93 10000 2.57 290 17:40 13.01.2021
3754 Clouds 10 1029 93 10000 2.57 290 17:18 13.01.2021
3755 Clouds 10 1029 93 10000 4.63 320 16:23 13.01.2021
3756 Clouds 10 1029 93 10000 4.12 280 15:59 13.01.2021
3757 Clouds 10 1029 93 10000 4.12 280 15:59 13.01.2021
3758 Drizzle 11 1029 93 5000 5.66 300 15:39 13.01.2021
3759 Clouds 11 1029 93 10000 5.66 280 14:52 13.01.2021
3760 Clouds 11 1029 93 10000 6.69 280 14:18 13.01.2021
3761 Clouds 11 1030 93 10000 5.14 310 13:37 13.01.2021
3762 Clouds 11 1030 93 10000 5.14 310 13:18 13.01.2021
3763 Clouds 11 1030 93 10000 6.17 290 12:43 13.01.2021
3764 Drizzle 11 1030 93 10000 4.63 290 12:22 13.01.2021
3765 Clouds 10 1030 93 10000 4.63 290 11:47 13.01.2021
3766 Clouds 10 1030 93 10000 4.63 280 11:26 13.01.2021
3767 Clouds 10 1030 93 10000 2.57 260 10:43 13.01.2021
3768 Clouds 10 1030 93 10000 3.09 270 10:24 13.01.2021
3769 Clouds 9 1029 100 10000 3.6 270 09:38 13.01.2021
3770 Clouds 9 1029 100 10000 3.6 270 08:57 13.01.2021
3771 Clouds 9 1029 100 10000 3.09 260 08:33 13.01.2021
3772 Clouds 9 1029 100 10000 3.6 250 07:53 13.01.2021
3773 Clouds 9 1029 100 8000 4.12 250 07:24 13.01.2021
3774 Mist 9 1029 100 5000 3.09 270 04:21 13.01.2021
3775 Clouds 9 1028 100 10000 3.09 260 03:52 13.01.2021
3776 Clouds 9 1028 100 10000 3.6 270 03:31 13.01.2021
3777 Clouds 9 1028 100 10000 3.6 270 02:46 13.01.2021
3778 Clouds 9 1029 100 10000 4.12 270 00:38 13.01.2021
3779 Clouds 9 1028 100 10000 3.6 250 23:31 12.01.2021
3780 Clouds 9 1028 93 10000 3.6 250 22:47 12.01.2021
3781 Clouds 9 1028 93 10000 4.12 250 22:25 12.01.2021
3782 Clouds 9 1028 93 10000 4.12 250 21:53 12.01.2021
3783 Clouds 8 1028 100 10000 4.12 260 21:35 12.01.2021
3784 Clouds 8 1028 100 10000 4.12 260 21:35 12.01.2021
3785 Clouds 8 1028 100 10000 4.63 270 20:56 12.01.2021
3786 Clouds 8 1028 93 10000 4.12 260 20:37 12.01.2021
3787 Clouds 8 1028 93 10000 4.12 260 20:19 12.01.2021
3788 Clouds 9 1028 93 10000 3.09 260 19:37 12.01.2021
3789 Clouds 8 1027 100 10000 3.6 260 18:52 12.01.2021
3790 Clouds 8 1027 100 10000 3.6 250 18:25 12.01.2021
3791 Clouds 9 1027 93 10000 4.12 250 17:55 12.01.2021
3792 Clouds 9 1027 93 10000 4.63 270 17:32 12.01.2021
3793 Drizzle 9 1027 93 6000 4.12 280 16:44 12.01.2021
3794 Clouds 9 1027 93 10000 6.17 270 16:25 12.01.2021
3795 Clouds 9 1027 93 8000 5.66 270 15:45 12.01.2021
3796 Clouds 9 1027 93 10000 5.66 230 15:24 12.01.2021
3797 Clouds 9 1027 87 10000 5.14 230 14:49 12.01.2021
3798 Clouds 8 1027 87 10000 5.14 220 14:26 12.01.2021
3799 Clouds 7 1027 93 10000 5.14 220 13:54 12.01.2021
3800 Clouds 7 1028 87 10000 5.66 210 13:33 12.01.2021
3801 Clouds 6 1028 93 10000 5.14 210 12:33 12.01.2021
3802 Mist 6 1029 87 5000 4.12 230 11:42 12.01.2021
3803 Clouds 5 1028 75 10000 5.14 220 10:59 12.01.2021
3804 Clouds 5 1028 75 10000 5.66 210 10:40 12.01.2021
3805 Clouds 5 1028 75 10000 5.66 210 10:19 12.01.2021
3806 Clouds 4 1028 81 10000 4.63 200 09:43 12.01.2021
3807 Clouds 4 1028 75 10000 3.09 210 09:20 12.01.2021
3808 Clouds 3 1028 81 10000 3.6 210 08:26 12.01.2021
3809 Clouds 3 1028 81 10000 4.63 200 07:41 12.01.2021
3810 Clouds 3 1028 81 10000 4.12 210 07:21 12.01.2021
3811 Clouds 3 1028 81 10000 2.57 210 05:38 12.01.2021
3812 Clouds 2 1028 87 10000 2.06 200 03:33 12.01.2021
3813 Clouds 2 1029 81 10000 3.09 220 02:21 12.01.2021
3814 Clouds 2 1029 87 10000 2.57 200 01:36 12.01.2021
3815 Clouds 1 1029 93 10000 2.06 220 00:30 12.01.2021
3816 Clouds 1 1029 86 10000 2.06 240 23:39 11.01.2021
3817 Clouds 0 1029 86 10000 2.06 240 23:18 11.01.2021
3818 Clouds 0 1029 86 10000 1.54 230 22:45 11.01.2021
3819 Clouds 0 1029 86 10000 2.57 240 22:27 11.01.2021
3820 Clear 0 1028 93 10000 1.54 250 21:44 11.01.2021
3821 Clear 0 1028 86 10000 1.54 270 21:25 11.01.2021
3822 Clear 0 1028 86 10000 1.54 230 20:50 11.01.2021
3823 Clouds 1 1028 75 10000 1.13 298 20:31 11.01.2021
3824 Clouds 2 1028 75 10000 1.54 0 19:59 11.01.2021
3825 Clouds 2 1028 80 10000 1.54 350 19:37 11.01.2021
3826 Clouds 2 1028 80 10000 1.54 350 19:19 11.01.2021
3827 Clear 3 1028 75 10000 2.06 360 18:41 11.01.2021
3828 Clear 3 1028 75 10000 2.06 360 18:22 11.01.2021
3829 Clear 5 1027 65 10000 3.6 360 17:42 11.01.2021
3830 Clear 5 1027 65 10000 3.6 360 17:23 11.01.2021
3831 Clear 6 1027 60 10000 3.6 360 16:47 11.01.2021
3832 Clear 6 1027 56 10000 5.14 10 16:28 11.01.2021
3833 Clear 6 1026 56 10000 3.6 350 15:50 11.01.2021
3834 Clear 6 1026 56 10000 4.63 360 15:32 11.01.2021
3835 Clear 6 1026 60 10000 4.12 10 14:41 11.01.2021
3836 Clear 5 1026 60 10000 4.12 10 14:22 11.01.2021
3837 Clear 5 1027 65 10000 3.6 20 13:44 11.01.2021
3838 Clear 4 1027 65 10000 3.6 20 13:21 11.01.2021
3839 Clear 4 1027 65 10000 4.63 10 12:41 11.01.2021
3840 Clear 3 1027 70 10000 4.12 10 12:22 11.01.2021
3841 Clear 2 1027 75 10000 4.63 10 11:44 11.01.2021
3842 Clear 1 1027 80 10000 4.12 10 10:55 11.01.2021
3843 Clear 0 1026 86 10000 3.09 10 10:32 11.01.2021
3844 Clear -1 1026 80 10000 2.57 360 09:48 11.01.2021
3845 Clear -1 1026 86 10000 3.09 10 09:25 11.01.2021
3846 Clear -1 1025 86 10000 3.6 10 08:47 11.01.2021
3847 Clear -1 1025 86 10000 4.12 360 08:22 11.01.2021
3848 Clear -1 1025 86 10000 3.6 360 07:40 11.01.2021
3849 Clear -1 1025 86 10000 3.6 360 07:19 11.01.2021
3850 Clear -1 1024 86 10000 4.12 360 06:47 11.01.2021
3851 Clear 0 1023 86 10000 4.63 20 01:53 11.01.2021
3852 Clear 1 1023 80 10000 5.14 10 00:40 11.01.2021
3853 Clear 1 1023 80 10000 5.14 10 23:46 10.01.2021
3854 Clear 1 1023 80 10000 5.66 10 22:49 10.01.2021
3855 Clear 1 1023 80 10000 6.69 10 22:28 10.01.2021
3856 Clear 1 1023 80 10000 6.17 10 21:57 10.01.2021
3857 Clear 2 1022 75 10000 6.17 10 21:37 10.01.2021
3858 Clear 2 1022 75 10000 6.17 10 21:18 10.01.2021
3859 Clear 2 1022 75 10000 6.17 10 21:18 10.01.2021
3860 Clear 2 1022 75 10000 6.17 10 20:39 10.01.2021
3861 Clear 2 1022 75 10000 6.17 10 20:21 10.01.2021
3862 Clear 2 1021 70 10000 5.66 10 19:38 10.01.2021
3863 Clear 3 1021 65 10000 5.14 10 19:20 10.01.2021
3864 Clear 3 1021 65 10000 5.14 10 18:43 10.01.2021
3865 Clear 3 1020 65 10000 5.66 10 18:20 10.01.2021
3866 Clear 5 1020 52 10000 6.17 20 17:23 10.01.2021
3867 Clear 5 1019 52 10000 7.2 20 16:46 10.01.2021
3868 Clear 5 1019 52 10000 7.2 20 16:28 10.01.2021
3869 Clear 6 1019 56 10000 8.23 30 15:39 10.01.2021
3870 Clear 6 1019 56 10000 8.23 30 15:39 10.01.2021
3871 Clear 5 1019 56 10000 8.23 30 15:20 10.01.2021
3872 Clear 5 1019 56 10000 7.72 30 14:40 10.01.2021
3873 Clear 4 1019 56 10000 7.72 30 14:22 10.01.2021
3874 Clear 4 1019 60 10000 6.69 50 13:39 10.01.2021
3875 Clear 4 1019 60 10000 6.69 50 13:20 10.01.2021
3876 Clouds 3 1019 65 10000 7.72 40 12:50 10.01.2021
3877 Clear 3 1020 64 10000 6.17 40 12:32 10.01.2021
3878 Clear 2 1020 75 10000 7.2 40 11:54 10.01.2021
3879 Clear 1 1019 75 10000 7.2 40 11:20 10.01.2021
3880 Clear 0 1019 80 10000 7.2 40 10:47 10.01.2021
3881 Clear 0 1019 80 10000 6.69 30 10:22 10.01.2021
3882 Clear -1 1018 80 10000 5.14 30 09:36 10.01.2021
3883 Clear -1 1017 80 10000 6.69 20 08:23 10.01.2021
3884 Clear 0 1017 80 10000 6.17 30 07:37 10.01.2021
3885 Clear 0 1016 80 10000 5.14 30 06:21 10.01.2021
3886 Clear 1 1016 75 10000 5.66 30 05:41 10.01.2021
3887 Clear 1 1016 75 10000 5.66 20 03:56 10.01.2021
3888 Clear 1 1016 80 10000 4.63 30 01:30 10.01.2021
3889 Clear 2 1016 75 10000 5.66 20 23:58 09.01.2021
3890 Clear 2 1016 75 10000 5.14 30 23:40 09.01.2021
3891 Clear 2 1016 75 10000 4.63 30 22:50 09.01.2021
3892 Clear 2 1016 75 10000 4.63 30 22:19 09.01.2021
3893 Clear 2 1016 75 10000 4.63 40 21:58 09.01.2021
3894 Clear 2 1015 75 10000 5.14 30 21:39 09.01.2021
3895 Clear 2 1015 75 10000 5.14 30 21:20 09.01.2021
3896 Clear 2 1016 75 10000 4.63 40 20:45 09.01.2021
3897 Clear 3 1015 70 10000 6.17 30 19:57 09.01.2021
3898 Clear 3 1015 70 10000 6.69 30 19:39 09.01.2021
3899 Clear 3 1015 70 10000 6.69 30 19:18 09.01.2021
3900 Clear 3 1014 70 10000 5.14 20 18:35 09.01.2021
3901 Clear 4 1014 65 10000 4.63 20 17:51 09.01.2021
3902 Clear 4 1014 65 10000 4.12 30 17:32 09.01.2021
3903 Clear 4 1014 65 10000 4.63 30 16:36 09.01.2021
3904 Clear 4 1014 65 10000 4.63 30 16:18 09.01.2021
3905 Clear 4 1014 60 10000 5.14 40 15:40 09.01.2021
3906 Clear 4 1014 60 10000 4.63 50 14:43 09.01.2021
3907 Clear 4 1014 65 10000 4.12 60 14:21 09.01.2021
3908 Clear 3 1014 70 10000 4.63 50 13:59 09.01.2021
3909 Clear 3 1014 70 10000 4.63 50 13:40 09.01.2021
3910 Clear 3 1014 70 10000 4.63 50 13:22 09.01.2021
3911 Clear 2 1015 75 10000 4.63 50 12:27 09.01.2021
3912 Clear 2 1015 80 10000 4.12 40 11:57 09.01.2021
3913 Clear 1 1015 80 10000 3.6 40 11:37 09.01.2021
3914 Clear 1 1015 80 10000 3.6 40 11:37 09.01.2021
3915 Clear 1 1015 86 10000 3.09 40 10:56 09.01.2021
3916 Clear 1 1015 86 10000 3.09 40 10:37 09.01.2021
3917 Clear 0 1015 86 10000 3.09 40 10:18 09.01.2021
3918 Clear 0 1015 86 10000 3.09 20 09:42 09.01.2021
3919 Clear -1 1014 93 10000 3.09 30 09:18 09.01.2021
3920 Clear -1 1014 93 10000 3.09 30 07:46 09.01.2021
3921 Clear -1 1014 93 10000 2.57 30 06:41 09.01.2021
3922 Clear -1 1014 93 10000 2.57 30 06:22 09.01.2021
3923 Clear -1 1015 86 10000 4.63 20 03:47 09.01.2021
3924 Clouds -1 1015 93 7000 1.54 30 02:39 09.01.2021
3925 Clouds -1 1015 93 7000 1.54 30 02:19 09.01.2021
3926 Mist -1 1015 100 5000 2.57 360 00:47 09.01.2021
3927 Mist -1 1016 100 5000 2.06 360 00:22 09.01.2021
3928 Mist -1 1016 100 4900 1.54 360 23:30 08.01.2021
3929 Mist -1 1016 93 4900 3.09 20 22:38 08.01.2021
3930 Mist -1 1016 93 5000 3.09 30 21:47 08.01.2021
3931 Clouds 0 1016 93 7000 5.14 30 20:58 08.01.2021
3932 Clear 1 1016 86 10000 4.12 30 20:33 08.01.2021
3933 Clear 1 1016 80 10000 2.57 30 19:57 08.01.2021
3934 Clear 1 1016 80 10000 2.57 20 19:23 08.01.2021
3935 Clear 2 1016 80 10000 2.57 10 18:48 08.01.2021
3936 Clear 2 1016 70 10000 1.54 40 18:20 08.01.2021
3937 Clear 4 1016 60 10000 3.09 30 17:48 08.01.2021
3938 Clear 5 1016 60 10000 3.09 30 17:22 08.01.2021
3939 Clear 6 1016 60 10000 4.12 40 16:35 08.01.2021
3940 Clear 6 1016 60 10000 3.09 50 15:44 08.01.2021
3941 Clear 6 1016 60 10000 2.57 50 15:18 08.01.2021
3942 Clear 6 1017 60 10000 2.57 60 14:35 08.01.2021
3943 Clear 5 1017 65 10000 2.06 90 13:47 08.01.2021
3944 Clear 5 1018 70 10000 3.09 110 13:18 08.01.2021
3945 Clear 4 1018 75 10000 2.57 110 12:47 08.01.2021
3946 Clear 3 1019 81 10000 3.09 120 12:19 08.01.2021
3947 Clouds 2 1019 81 8000 3.09 110 11:44 08.01.2021
3948 Clear 2 1019 93 6000 1.54 100 11:25 08.01.2021
3949 Mist 1 1019 93 4500 1.49 66 10:50 08.01.2021
3950 Mist -1 1019 93 3500 1.51 61 10:26 08.01.2021
3951 Mist -2 1018 100 3300 1.03 70 09:45 08.01.2021
3952 Mist -3 1018 100 3000 1.54 0 09:25 08.01.2021
3953 Mist -3 1018 93 4700 1.54 10 08:33 08.01.2021
3954 Fog -3 1018 100 700 0.51 60 07:25 08.01.2021
3955 Fog -2 1018 93 3400 1.03 30 05:43 08.01.2021
3956 Fog -1 1019 86 3900 1.03 360 23:46 07.01.2021
3957 Mist -1 1019 93 4400 1.03 320 23:28 07.01.2021
3958 Mist -1 1019 86 5000 1.03 340 22:45 07.01.2021
3959 Mist -1 1019 93 5000 1.85 17 22:25 07.01.2021
3960 Mist -1 1019 93 5000 1.85 17 22:25 07.01.2021
3961 Mist -1 1019 93 5000 1.85 17 22:25 07.01.2021
3962 Clear 0 1019 93 6000 1.03 10 21:42 07.01.2021
3963 Clear 0 1019 93 7000 1.03 0 21:24 07.01.2021
3964 Clear 1 1018 86 8000 1.54 40 20:46 07.01.2021
3965 Clear 1 1018 80 10000 1.03 0 20:28 07.01.2021
3966 Clear 1 1018 87 10000 3.09 360 19:43 07.01.2021
3967 Clear 2 1018 81 10000 3.6 10 19:20 07.01.2021
3968 Clear 3 1017 75 10000 3.09 360 18:30 07.01.2021
3969 Clear 5 1017 65 10000 2.57 360 17:42 07.01.2021
3970 Clear 5 1017 65 10000 3.09 10 17:22 07.01.2021
3971 Clouds 6 1017 61 10000 2.57 10 16:53 07.01.2021
3972 Clouds 6 1016 61 10000 4.12 20 16:27 07.01.2021
3973 Clouds 6 1016 61 10000 3.6 20 15:40 07.01.2021
3974 Clear 7 1016 56 10000 3.09 50 14:45 07.01.2021
3975 Clear 6 1016 56 10000 3.09 40 14:26 07.01.2021
3976 Clear 6 1017 60 10000 3.09 30 13:41 07.01.2021
3977 Clear 6 1017 65 10000 3.09 30 13:18 07.01.2021
3978 Clear 6 1017 65 10000 3.09 30 13:18 07.01.2021
3979 Clear 5 1018 72 10000 2.1 20 12:35 07.01.2021
3980 Clear 4 1018 78 10000 2.1 20 11:52 07.01.2021
3981 Clear 3 1018 86 8000 1 0 11:34 07.01.2021
3982 Clear 2 1018 93 6000 2.1 60 10:48 07.01.2021
3983 Mist 1 1018 95 5000 2.6 30 10:20 07.01.2021
3984 Mist 1 1018 95 5000 2.6 30 09:46 07.01.2021
3985 Mist 1 1017 97 5000 2.1 30 09:18 07.01.2021
3986 Clear 0 1017 100 6000 1.5 40 08:26 07.01.2021
3987 Clear 0 1017 100 6000 1.5 40 07:45 07.01.2021
3988 Mist 0 1016 100 5000 1.5 0 06:59 07.01.2021
3989 Mist -1 1017 96 5000 1 50 03:35 07.01.2021
3990 Mist -2 1018 92 4600 0.5 0 00:27 07.01.2021
3991 Mist -2 1018 92 4700 1.48 68 23:36 06.01.2021
3992 Mist -1 1018 92 5000 1.57 65 22:37 06.01.2021
3993 Clear -1 1018 92 7000 1 0 21:42 06.01.2021
3994 Clear -1 1018 92 7000 1 0 21:23 06.01.2021
3995 Clouds -1 1018 93 8000 1 0 20:51 06.01.2021
3996 Clear 0 1017 92 10000 1.6 69 20:23 06.01.2021
3997 Clear 0 1017 92 10000 1.6 69 19:49 06.01.2021
3998 Clear 1 1017 86 10000 1.38 70 19:29 06.01.2021
3999 Clear 2 1017 80 10000 0.5 0 18:55 06.01.2021
4000 Clear 3 1017 74 10000 2.1 40 18:34 06.01.2021
4001 Clouds 4 1017 69 10000 3.6 30 17:59 06.01.2021
4002 Clouds 4 1017 69 10000 1 0 17:41 06.01.2021
4003 Clouds 4 1017 69 10000 1 0 17:21 06.01.2021
4004 Clear 4 1016 64 10000 1 40 16:38 06.01.2021
4005 Clear 4 1016 64 10000 1 40 16:38 06.01.2021
4006 Clear 4 1016 64 10000 1 40 16:18 06.01.2021
4007 Clouds 4 1016 69 10000 2.6 30 15:46 06.01.2021
4008 Clouds 5 1016 71 10000 3.6 30 15:24 06.01.2021
4009 Clouds 5 1016 65 10000 1 0 14:41 06.01.2021
4010 Clouds 5 1016 75 10000 1 0 13:56 06.01.2021
4011 Clouds 5 1016 75 10000 1 0 13:36 06.01.2021
4012 Clouds 4 1016 80 10000 1 0 13:18 06.01.2021
4013 Clouds 5 1017 80 9000 1.1 36 12:42 06.01.2021
4014 Mist 3 1017 93 5000 1 0 11:46 06.01.2021
4015 Mist 3 1017 93 5000 1 0 11:23 06.01.2021
4016 Mist 2 1017 93 4200 1.14 67 10:44 06.01.2021
4017 Mist 2 1017 93 3900 0.9 62 09:52 06.01.2021
4018 Mist 1 1016 100 4100 2.1 30 09:33 06.01.2021
4019 Mist 1 1016 100 4300 1.06 51 08:54 06.01.2021
4020 Mist 1 1015 100 4000 0.5 280 08:20 06.01.2021
4021 Mist 1 1015 100 4000 1.5 240 07:53 06.01.2021
4022 Mist 1 1015 100 4200 1.5 0 06:44 06.01.2021
4023 Mist 1 1015 93 4800 1.5 300 05:30 06.01.2021
4024 Mist 1 1015 100 4800 1.5 170 04:18 06.01.2021
4025 Mist 1 1015 100 4600 1.28 24 02:43 06.01.2021
4026 Mist 1 1015 100 4600 1.38 29 02:21 06.01.2021
4027 Clouds 2 1015 93 6000 1 290 23:51 05.01.2021
4028 Clouds 2 1015 93 7000 0.5 300 22:57 05.01.2021
4029 Clouds 3 1015 86 8000 1 310 22:38 05.01.2021
4030 Clouds 3 1015 86 9000 1.69 5 22:19 05.01.2021
4031 Clouds 3 1015 86 10000 1.5 340 21:27 05.01.2021
4032 Clouds 3 1015 86 10000 1.5 320 20:31 05.01.2021
4033 Clouds 3 1014 86 10000 1.5 320 19:57 05.01.2021
4034 Clouds 3 1014 86 10000 1 0 19:38 05.01.2021
4035 Clouds 3 1014 86 10000 1 0 19:18 05.01.2021
4036 Clouds 3 1014 81 10000 1.5 320 18:42 05.01.2021
4037 Clouds 3 1014 80 10000 1.5 360 18:18 05.01.2021
4038 Clouds 3 1014 80 10000 2.6 360 17:40 05.01.2021
4039 Clouds 3 1013 77 10000 3.1 30 17:20 05.01.2021
4040 Clouds 3 1013 77 10000 4.1 20 16:39 05.01.2021
4041 Clouds 3 1013 73 10000 4.1 20 16:20 05.01.2021
4042 Clouds 3 1013 73 10000 3.1 360 15:44 05.01.2021
4043 Clouds 3 1013 72 10000 4.1 10 14:48 05.01.2021
4044 Clouds 3 1013 73 10000 3.6 360 14:18 05.01.2021
4045 Clouds 3 1014 73 10000 3.6 10 13:44 05.01.2021
4046 Clouds 3 1014 76 10000 3.1 10 13:20 05.01.2021
4047 Clouds 3 1014 75 10000 3.6 10 12:46 05.01.2021
4048 Clouds 3 1014 81 10000 3.6 10 12:20 05.01.2021
4049 -273 0 0 0 0 0 11:34 05.01.2021
4050 Clouds 2 1013 81 10000 3.6 10 11:34 05.01.2021
4051 Clouds 2 1013 81 10000 3.6 10 11:33 05.01.2021
4052 Clouds 2 1013 81 10000 3.6 10 11:33 05.01.2021
4053 Clouds 2 1013 81 10000 3.6 10 11:33 05.01.2021
4054 Clouds 2 1013 93 6000 2.6 350 10:46 05.01.2021
4055 Clouds 2 1013 93 6000 2.6 350 10:25 05.01.2021
4056 Clouds 2 1013 93 6000 1.5 330 09:48 05.01.2021
4057 Clouds 2 1013 93 6000 1.5 330 09:27 05.01.2021
4058 Clouds 1 1012 100 6000 2.1 360 08:23 05.01.2021
4059 Clouds 1 1012 100 6000 2.6 10 06:46 05.01.2021
4060 Mist 0 1012 97 4700 1.5 330 03:48 05.01.2021
4061 Clouds 0 1011 96 6000 1 320 00:45 05.01.2021
4062 Clouds 0 1011 96 6000 1 260 23:44 04.01.2021
4063 Clouds 0 1011 96 6000 1 260 23:24 04.01.2021
4064 Mist 0 1011 96 5000 1 250 22:49 04.01.2021
4065 Mist 0 1011 100 5000 1 0 22:27 04.01.2021
4066 Clouds -1 1011 92 6000 0.5 0 21:45 04.01.2021
4067 Clear -1 1011 92 6000 0.5 0 21:25 04.01.2021
4068 Clear 0 1011 94 7000 0.5 360 20:43 04.01.2021
4069 Clear 0 1011 92 7000 0.5 360 20:22 04.01.2021
4070 Clouds 1 1011 86 10000 4.1 10 19:48 04.01.2021
4071 Clouds 1 1011 86 10000 4.1 360 19:22 04.01.2021
4072 Clouds 1 1011 91 9000 4.1 10 18:48 04.01.2021
4073 Clouds 1 1010 87 9000 4.6 350 18:19 04.01.2021
4074 Clouds 1 1010 87 9000 5.1 10 17:41 04.01.2021
4075 Clouds 2 1010 79 9000 5.1 10 17:22 04.01.2021
4076 Clouds 3 1010 79 10000 4.6 10 16:45 04.01.2021
4077 Clouds 4 1010 73 10000 4.6 10 16:26 04.01.2021
4078 Clouds 4 1009 80 10000 3.6 10 15:49 04.01.2021
4079 Clouds 4 1009 80 10000 3.6 10 15:25 04.01.2021
4080 Clouds 4 1009 73 10000 3.6 30 14:21 04.01.2021
4081 Clouds 4 1010 86 10000 3.6 40 13:37 04.01.2021
4082 Clouds 3 1010 86 10000 3.6 30 12:57 04.01.2021
4083 Clouds 4 1010 86 10000 3.6 30 12:31 04.01.2021
4084 Clouds 3 1010 86 10000 4.1 40 11:53 04.01.2021
4085 Clouds 3 1010 93 10000 3.1 50 11:20 04.01.2021
4086 Clouds 2 1010 93 9000 3.6 50 10:46 04.01.2021
4087 Clouds 2 1010 93 9000 3.6 50 10:23 04.01.2021
4088 Clouds 2 1010 93 10000 2.6 60 09:48 04.01.2021
4089 Clouds 2 1010 93 10000 4.1 60 09:18 04.01.2021
4090 Clouds 2 1010 100 9000 3.6 60 08:41 04.01.2021
4091 Clouds 2 1010 100 7000 3.6 70 07:48 04.01.2021
4092 Clouds 2 1009 100 7000 3.6 80 06:56 04.01.2021
4093 Clouds 2 1010 100 10000 3.1 100 05:21 04.01.2021
4094 Clouds 2 1010 100 10000 3.6 100 02:34 04.01.2021
4095 Clouds 3 1010 93 10000 4.6 130 00:29 04.01.2021
4096 Clouds 3 1010 93 10000 5.1 130 23:47 03.01.2021
4097 Clouds 3 1010 93 10000 5.1 130 23:19 03.01.2021
4098 Clouds 3 1010 93 9000 5.1 120 22:42 03.01.2021
4099 Clouds 3 1010 93 9000 5.1 120 22:23 03.01.2021
4100 Drizzle 3 1010 93 4300 5.1 120 21:46 03.01.2021
4101 Clouds 3 1010 93 10000 5.1 120 21:24 03.01.2021
4102 Clouds 3 1010 93 9000 4.1 130 20:42 03.01.2021
4103 Clouds 3 1010 93 9000 4.1 130 20:20 03.01.2021
4104 Clouds 3 1010 93 10000 3.6 130 19:52 03.01.2021
4105 Clouds 3 1010 93 10000 4.1 140 19:33 03.01.2021
4106 Snow 3 1010 93 10000 5.7 130 18:52 03.01.2021
4107 Snow 3 1010 100 8000 4.6 140 18:33 03.01.2021
4108 Rain 5 1010 70 10000 3.6 160 17:53 03.01.2021
4109 Clouds 6 1010 70 10000 3.6 160 17:29 03.01.2021
4110 Clouds 6 1010 78 10000 2.1 160 16:57 03.01.2021
4111 Clouds 7 1010 56 10000 4.1 150 16:38 03.01.2021
4112 Clouds 7 1010 56 10000 5.1 160 16:18 03.01.2021
4113 Clouds 7 1010 56 10000 5.1 170 15:41 03.01.2021
4114 Clouds 7 1010 56 10000 5.1 170 15:19 03.01.2021
4115 Clouds 7 1011 56 10000 6.2 180 14:41 03.01.2021
4116 Clear 7 1011 71 10000 5.7 170 13:55 03.01.2021
4117 Clear 7 1011 75 10000 5.1 170 13:26 03.01.2021
4118 Clouds 6 1012 75 10000 5.1 180 12:58 03.01.2021
4119 Clear 4 1013 84 10000 4.1 200 11:46 03.01.2021
4120 Clear 4 1013 87 10000 4.1 200 11:27 03.01.2021
4121 Clouds 3 1013 74 10000 3.6 190 10:57 03.01.2021
4122 Clear 2 1013 80 10000 3.6 190 10:32 03.01.2021
4123 Clear 1 1013 86 10000 3.1 180 09:45 03.01.2021
4124 Clear 1 1013 80 10000 2.6 180 09:24 03.01.2021
4125 Clear 1 1013 80 10000 2.1 190 07:59 03.01.2021
4126 Clear 1 1014 80 10000 3.1 210 06:51 03.01.2021
4127 Clouds 1 1015 91 10000 3.1 190 02:59 03.01.2021
4128 Clouds 1 1016 91 10000 3.1 220 02:22 03.01.2021
4129 Clouds 0 1017 91 10000 2.1 200 00:25 03.01.2021
4130 Clear -1 1017 100 10000 1 210 23:32 02.01.2021
4131 Clear -1 1017 92 6000 0.5 220 22:59 02.01.2021
4132 Mist -1 1017 92 5000 1 220 22:33 02.01.2021
4133 Clear -1 1017 92 6000 1.5 240 21:59 02.01.2021
4134 Clear -1 1017 100 6000 1 220 21:37 02.01.2021
4135 Clear -1 1017 92 8000 1.5 230 21:19 02.01.2021
4136 Clear 0 1017 90 10000 1.5 260 20:40 02.01.2021
4137 Clear 0 1017 88 10000 1.5 260 20:20 02.01.2021
4138 Clouds 1 1017 86 10000 1.5 280 19:43 02.01.2021
4139 Clouds 1 1017 86 10000 1.5 280 19:19 02.01.2021
4140 Clear 2 1016 80 10000 1.5 340 18:42 02.01.2021
4141 Clear 2 1016 80 10000 1.5 340 18:24 02.01.2021
4142 Clear 3 1016 69 10000 3.1 330 17:45 02.01.2021
4143 Clouds 4 1016 69 10000 3.6 340 17:22 02.01.2021
4144 Clouds 4 1016 69 10000 4.1 360 16:38 02.01.2021
4145 Clouds 4 1016 69 10000 4.1 360 16:19 02.01.2021
4146 Clouds 4 1016 69 10000 2.6 360 15:41 02.01.2021
4147 Clouds 4 1016 69 10000 2.6 360 15:21 02.01.2021
4148 Clouds 4 1015 74 10000 4.6 360 14:37 02.01.2021
4149 Clouds 3 1016 74 10000 4.1 350 13:58 02.01.2021
4150 Clouds 3 1016 80 10000 4.1 360 13:32 02.01.2021
4151 Clouds 2 1016 80 10000 5.1 360 12:53 02.01.2021
4152 Clouds 1 1016 86 10000 4.1 10 12:32 02.01.2021
4153 Clouds 1 1016 86 10000 5.7 10 11:45 02.01.2021
4154 Clouds 1 1016 86 10000 5.7 10 11:22 02.01.2021
4155 Clouds 1 1016 86 10000 4.1 360 10:49 02.01.2021
4156 Clouds 1 1015 86 10000 4.1 360 10:28 02.01.2021
4157 Clouds 0 1015 91 10000 5.1 20 09:45 02.01.2021
4158 Clouds 0 1014 96 10000 2.6 20 09:23 02.01.2021
4159 Clouds 0 1014 96 10000 2.6 20 08:50 02.01.2021
4160 Clouds 0 1014 96 10000 3.6 20 08:25 02.01.2021
4161 Clouds 0 1013 96 10000 4.6 10 07:44 02.01.2021
4162 Clouds 0 1013 96 10000 4.6 10 07:21 02.01.2021
4163 Clouds 0 1013 96 10000 3.6 10 06:40 02.01.2021
4164 Clouds 0 1012 95 10000 5.1 20 05:28 02.01.2021
4165 Clouds 2 1010 93 10000 5.7 40 00:56 02.01.2021
4166 Clouds 2 1010 100 6000 5.7 40 00:35 02.01.2021
4167 Clouds 2 1010 100 7000 4.6 40 23:51 01.01.2021
4168 Mist 2 1009 93 5000 4.6 60 23:20 01.01.2021
4169 Mist 2 1009 93 4900 5.1 70 22:47 01.01.2021
4170 Snow 2 1009 93 4900 5.1 70 22:24 01.01.2021
4171 Clouds 3 1008 93 10000 5.7 60 21:44 01.01.2021
4172 Rain 3 1008 100 7000 5.1 80 21:22 01.01.2021
4173 Rain 3 1008 100 7000 5.1 80 20:53 01.01.2021
4174 Clouds 3 1008 100 6000 6.2 80 20:22 01.01.2021
4175 Clouds 4 1007 93 6000 5.1 90 19:43 01.01.2021
4176 Clouds 4 1007 93 6000 5.1 90 19:24 01.01.2021
4177 Clouds 4 1007 93 8000 5.7 90 18:57 01.01.2021
4178 Mist 4 1007 100 3600 6.2 90 18:39 01.01.2021
4179 Mist 4 1006 100 3900 4.6 100 18:19 01.01.2021
4180 Rain 4 1006 100 7000 4.6 110 17:41 01.01.2021
4181 Rain 4 1006 100 3600 5.1 110 17:18 01.01.2021
4182 Rain 4 1006 100 10000 6.7 100 16:38 01.01.2021
4183 Clouds 5 1006 93 10000 5.7 110 15:56 01.01.2021
4184 Clouds 5 1006 93 10000 4.6 110 15:36 01.01.2021
4185 Clear 5 1006 93 10000 4.6 120 14:41 01.01.2021
4186 Clouds 5 1006 100 8000 3.6 130 13:54 01.01.2021
4187 Clouds 5 1006 100 8000 3.6 130 13:54 01.01.2021
4188 Clouds 5 1007 93 10000 4.1 130 13:36 01.01.2021
4189 Clouds 3 1008 100 10000 3.6 130 12:47 01.01.2021
4190 Clouds 3 1008 100 10000 3.6 130 12:25 01.01.2021
4191 Clouds 2 1008 100 10000 2.6 150 11:39 01.01.2021
4192 Clouds 2 1008 100 10000 2.6 150 11:18 01.01.2021
4193 Clouds 2 1008 100 7000 2.1 130 10:43 01.01.2021
4194 Clouds 1 1008 100 7000 2.6 140 09:50 01.01.2021
4195 Mist 0 1008 86 4200 2.6 110 09:22 01.01.2021
4196 Mist 0 1008 85 5000 1 140 08:30 01.01.2021
4197 Fog 0 1008 82 1800 1 160 04:54 01.01.2021
4198 Mist 0 1008 83 1700 0.38 119 04:30 01.01.2021
4199 Mist 2 1009 100 5000 1.5 280 01:39 01.01.2021
4200 Mist 2 1009 100 1700 1.02 34 00:31 01.01.2021
4201 Mist 3 1008 93 5000 1.4 15 23:37 31.12.2020
4202 Mist 2 1008 93 5000 1.78 1 23:19 31.12.2020
4203 Clouds 3 1008 93 9000 1.5 270 22:41 31.12.2020
4204 Clouds 4 1008 93 10000 1 0 22:21 31.12.2020
4205 Clear 4 1008 93 10000 2.1 310 21:47 31.12.2020
4206 Clear 4 1008 93 10000 2.1 310 21:29 31.12.2020
4207 Clear 5 1008 93 10000 2.1 320 20:54 31.12.2020
4208 Clear 5 1007 100 10000 3.6 340 20:21 31.12.2020
4209 Clear 6 1007 93 10000 3.1 340 19:48 31.12.2020
4210 Clear 6 1007 93 10000 3.1 340 19:30 31.12.2020
4211 Clouds 7 1006 93 10000 3.6 340 18:50 31.12.2020
4212 Clouds 7 1006 93 10000 3.6 340 18:24 31.12.2020
4213 Clouds 7 1006 93 10000 2.6 280 17:45 31.12.2020
4214 Clouds 8 1006 93 10000 2.6 280 17:24 31.12.2020
4215 Clouds 8 1005 93 10000 3.1 250 16:44 31.12.2020
4216 Clouds 8 1005 93 10000 3.1 250 16:25 31.12.2020
4217 Clouds 8 1005 87 10000 2.1 300 15:54 31.12.2020
4218 Mist 8 1005 93 4500 1 0 15:36 31.12.2020
4219 Rain 8 1005 93 10000 2.1 260 15:18 31.12.2020
4220 Clouds 8 1005 93 10000 3.6 250 14:39 31.12.2020
4221 Rain 8 1005 93 6000 4.1 240 14:21 31.12.2020
4222 Rain 8 1006 100 6000 3.1 230 13:42 31.12.2020
4223 Rain 8 1006 100 6000 3.1 230 13:24 31.12.2020
4224 Rain 8 1006 100 10000 4.1 210 12:55 31.12.2020
4225 Rain 9 1006 100 10000 3.1 210 12:36 31.12.2020
4226 Rain 9 1006 93 7000 3.6 210 11:52 31.12.2020
4227 Rain 9 1006 93 10000 2.6 180 11:32 31.12.2020
4228 Mist 9 1007 93 2500 1.5 0 10:50 31.12.2020
4229 Clouds 9 1007 93 10000 1 0 10:30 31.12.2020
4230 Clouds 8 1007 100 10000 2.1 210 09:58 31.12.2020
4231 Clouds 8 1007 93 10000 2.6 320 09:36 31.12.2020
4232 Clouds 8 1006 93 10000 3.1 210 09:18 31.12.2020
4233 Clouds 8 1006 100 10000 3.6 220 08:45 31.12.2020
4234 Clouds 8 1006 100 10000 3.6 220 08:27 31.12.2020
4235 Clouds 8 1006 93 10000 3.6 240 07:33 31.12.2020
4236 Clouds 8 1006 93 10000 3.6 210 06:29 31.12.2020
4237 Clouds 8 1007 100 10000 3.6 200 05:29 31.12.2020
4238 Clouds 8 1008 93 6000 7.2 260 02:57 31.12.2020
4239 Rain 8 1008 93 4500 7.2 280 02:25 31.12.2020
4240 Rain 8 1009 100 10000 4.1 210 01:48 31.12.2020
4241 Clouds 8 1009 100 10000 4.1 210 01:28 31.12.2020
4242 Rain 8 1009 93 10000 4.6 230 00:48 31.12.2020
4243 Clouds 7 1009 93 10000 6.2 200 23:53 30.12.2020
4244 Mist 7 1010 100 5000 4.6 200 23:20 30.12.2020
4245 Mist 7 1010 100 5000 4.6 200 22:51 30.12.2020
4246 Rain 7 1010 93 10000 4.6 180 22:31 30.12.2020
4247 Clouds 7 1011 93 7000 4.6 190 21:47 30.12.2020
4248 Rain 7 1011 93 7000 4.6 190 21:25 30.12.2020
4249 Clouds 6 1011 100 10000 4.1 180 20:51 30.12.2020
4250 Rain 7 1012 87 10000 3.6 190 20:22 30.12.2020
4251 Clouds 7 1012 87 10000 3.6 200 19:42 30.12.2020
4252 Clouds 7 1012 87 10000 3.6 200 19:23 30.12.2020
4253 Clouds 7 1012 87 10000 3.6 210 18:49 30.12.2020
4254 Clouds 7 1012 87 10000 3.6 200 18:30 30.12.2020
4255 Clouds 7 1012 93 10000 3.6 210 17:52 30.12.2020
4256 Clear 7 1012 93 10000 2.6 230 17:33 30.12.2020
4257 Clear 8 1012 87 10000 3.1 230 16:59 30.12.2020
4258 Clear 8 1012 87 10000 3.1 220 16:35 30.12.2020
4259 Clear 8 1012 87 10000 4.1 230 15:48 30.12.2020
4260 Clouds 8 1012 87 8000 4.1 240 15:26 30.12.2020
4261 Clouds 8 1012 81 10000 2.6 230 14:44 30.12.2020
4262 Clouds 8 1012 81 10000 2.6 230 14:25 30.12.2020
4263 Clouds 9 1012 81 10000 3.6 230 13:48 30.12.2020
4264 Clouds 7 1012 81 10000 1.5 250 12:44 30.12.2020
4265 Clouds 7 1012 93 10000 1.31 228 12:22 30.12.2020
4266 Clouds 6 1012 93 10000 1.31 228 11:38 30.12.2020
4267 Clouds 5 1012 93 10000 2.6 250 11:19 30.12.2020
4268 Rain 5 1012 93 10000 2.6 250 10:49 30.12.2020
4269 Clouds 4 1011 100 10000 1 240 10:29 30.12.2020
4270 Clouds 3 1011 100 10000 2.1 200 09:50 30.12.2020
4271 Clouds 2 1010 100 10000 1 0 09:29 30.12.2020
4272 Clouds 2 1009 100 10000 2.6 220 08:34 30.12.2020
4273 Clouds 3 1009 93 10000 2.6 230 07:30 30.12.2020
4274 Clouds 3 1009 93 10000 2.6 230 07:30 30.12.2020
4275 Clouds 3 1008 100 10000 3.1 230 06:52 30.12.2020
4276 Clouds 3 1008 100 10000 3.1 230 06:31 30.12.2020
4277 Clouds 4 1007 93 10000 2.1 260 05:44 30.12.2020
4278 Clouds 4 1007 93 10000 2.1 260 05:25 30.12.2020
4279 Clear 4 1005 93 10000 2.6 250 03:28 30.12.2020
4280 Clear 4 1005 93 10000 2.6 250 03:28 30.12.2020
4281 Clouds 5 1004 93 10000 5.1 310 02:42 30.12.2020
4282 Clear 5 1004 93 10000 3.6 270 01:56 30.12.2020
4283 Clouds 5 1004 93 10000 3.1 300 01:33 30.12.2020
4284 Clouds 5 1003 93 10000 2.1 220 00:50 30.12.2020
4285 Clouds 5 1003 93 10000 2.1 220 00:50 30.12.2020
4286 Clouds 5 1003 93 10000 2.1 220 00:30 30.12.2020
4287 Clouds 5 1003 93 10000 1.5 330 23:54 29.12.2020
4288 Clouds 6 1002 87 10000 3.6 240 23:36 29.12.2020
4289 Rain 6 1002 93 10000 2.6 270 22:58 29.12.2020
4290 Clouds 6 1001 93 10000 3.1 270 22:40 29.12.2020
4291 Clouds 6 1001 93 10000 3.1 270 22:20 29.12.2020
4292 Clouds 6 1001 93 10000 3.1 270 22:20 29.12.2020
4293 Drizzle 5 1001 100 10000 4.1 220 21:46 29.12.2020
4294 Drizzle 5 1001 100 10000 4.1 220 21:24 29.12.2020
4295 Clouds 5 1001 100 10000 3.6 240 20:46 29.12.2020
4296 Clouds 5 1001 93 10000 1 170 20:25 29.12.2020
4297 Clouds 5 1000 93 10000 3.1 190 19:47 29.12.2020
4298 Clouds 6 1000 93 10000 3.1 190 19:23 29.12.2020
4299 Clouds 6 1000 93 10000 2.1 220 18:54 29.12.2020
4300 Clouds 6 1000 93 10000 2.1 220 18:54 29.12.2020
4301 Rain 6 1000 93 10000 2.1 220 18:29 29.12.2020
4302 Clouds 6 1000 93 10000 2.6 200 17:55 29.12.2020
4303 Clouds 7 999 93 10000 2.1 200 17:36 29.12.2020
4304 Clouds 7 999 87 10000 2.6 200 17:18 29.12.2020
4305 Clouds 7 999 87 10000 2.1 150 16:34 29.12.2020
4306 Clouds 8 999 81 10000 2.6 30 15:52 29.12.2020
4307 Clouds 8 998 81 10000 3.6 310 15:33 29.12.2020
4308 Clouds 7 998 81 7000 5.7 250 14:46 29.12.2020
4309 Clouds 7 998 81 7000 5.7 250 14:28 29.12.2020
4310 Rain 8 998 70 10000 5.1 250 13:59 29.12.2020
4311 Clouds 9 998 76 10000 5.1 310 13:25 29.12.2020
4312 Clouds 8 998 87 10000 5.1 240 12:56 29.12.2020
4313 Rain 8 998 81 10000 3.1 210 12:36 29.12.2020
4314 Clouds 8 998 93 10000 3.6 190 12:18 29.12.2020
4315 Clouds 7 997 100 10000 2.1 200 11:45 29.12.2020
4316 Clouds 7 997 100 10000 2.1 200 11:24 29.12.2020
4317 Clouds 6 996 93 10000 3.1 200 10:21 29.12.2020
4318 Clouds 6 996 93 10000 4.6 200 09:41 29.12.2020
4319 Clouds 6 996 87 10000 4.1 220 09:19 29.12.2020
4320 Clouds 6 996 87 10000 4.1 220 08:49 29.12.2020
4321 Clouds 6 995 87 10000 6.2 230 07:40 29.12.2020
4322 Clouds 6 995 87 10000 2.1 240 07:18 29.12.2020
4323 Clouds 6 994 81 10000 4.1 250 05:44 29.12.2020
4324 Clear 7 993 87 10000 4.6 270 01:58 29.12.2020
4325 Clouds 7 992 87 10000 2.1 200 00:26 29.12.2020
4326 Clouds 7 991 81 10000 5.1 290 23:38 28.12.2020
4327 Clouds 8 990 81 10000 5.1 260 22:48 28.12.2020
4328 Clouds 8 990 81 10000 5.1 280 21:57 28.12.2020
4329 Clouds 8 989 87 10000 5.1 250 21:39 28.12.2020
4330 Clouds 8 989 81 10000 5.1 250 21:19 28.12.2020
4331 Clouds 8 989 81 10000 4.6 270 20:40 28.12.2020
4332 Clouds 8 989 81 10000 4.6 270 20:20 28.12.2020
4333 Clouds 8 988 87 10000 5.1 240 19:41 28.12.2020
4334 Clouds 8 988 87 10000 4.6 240 19:22 28.12.2020
4335 Clouds 8 987 87 10000 5.1 280 18:49 28.12.2020
4336 Clouds 8 987 87 10000 5.1 280 18:27 28.12.2020
4337 Rain 8 986 87 4200 9.8 290 17:41 28.12.2020
4338 Clouds 9 986 81 8000 8.7 280 17:18 28.12.2020
4339 Rain 10 985 81 10000 10.3 270 16:33 28.12.2020
4340 Clouds 10 985 87 7000 9.3 270 15:59 28.12.2020
4341 Clouds 10 985 87 9000 9.8 250 15:40 28.12.2020
4342 Rain 10 985 76 10000 11.3 260 14:47 28.12.2020
4343 Clouds 10 986 81 10000 8.7 270 13:51 28.12.2020
4344 Clouds 10 986 71 10000 9.8 260 13:23 28.12.2020
4345 Clouds 9 987 81 10000 7.2 250 12:38 28.12.2020
4346 Clouds 8 988 87 10000 7.7 250 12:19 28.12.2020
4347 Clouds 8 988 87 10000 4.6 200 11:44 28.12.2020
4348 Clouds 7 987 87 10000 4.1 210 11:18 28.12.2020
4349 Clouds 7 988 81 10000 5.1 260 10:41 28.12.2020
4350 Clouds 7 988 81 10000 5.1 260 10:23 28.12.2020
4351 Rain 7 988 75 10000 8.7 280 09:45 28.12.2020
4352 Rain 7 988 75 10000 5.7 280 09:18 28.12.2020
4353 Clouds 6 986 87 10000 4.1 250 06:55 28.12.2020
4354 Thunderstorm 5 986 86 10000 1 350 05:57 28.12.2020
4355 Clouds 6 986 87 10000 3.6 250 03:59 28.12.2020
4356 Clouds 7 985 87 10000 9.8 290 01:56 28.12.2020
4357 Clouds 8 986 87 10000 7.2 240 00:29 28.12.2020
4358 Clouds 8 985 93 10000 5.7 220 23:37 27.12.2020
4359 Clouds 8 986 93 10000 4.1 230 23:18 27.12.2020
4360 Clouds 9 987 93 8000 6.7 220 21:56 27.12.2020
4361 Rain 8 987 93 10000 5.1 220 21:25 27.12.2020
4362 Rain 8 988 93 5000 8.7 230 20:40 27.12.2020
4363 Rain 8 989 93 5000 9.3 230 19:24 27.12.2020
4364 Rain 8 989 93 5000 10.3 250 18:52 27.12.2020
4365 Rain 9 989 87 4500 11.3 230 18:24 27.12.2020
4366 Rain 9 989 87 10000 9.8 220 17:59 27.12.2020
4367 Clouds 9 991 81 10000 9.8 210 17:39 27.12.2020
4368 Clouds 9 992 87 10000 8.7 220 17:18 27.12.2020
4369 Mist 9 993 87 5000 9.3 210 16:26 27.12.2020
4370 Rain 9 994 87 6000 10.8 230 15:37 27.12.2020
4371 Rain 9 995 81 8000 8.7 220 14:57 27.12.2020
4372 Clouds 9 997 76 10000 6.2 210 14:38 27.12.2020
4373 Clouds 8 999 75 10000 6.7 200 13:42 27.12.2020
4374 Clouds 8 1001 75 10000 7.2 200 12:59 27.12.2020
4375 Clouds 7 1002 81 10000 5.7 190 12:38 27.12.2020
4376 Clouds 7 1004 75 10000 6.2 190 11:43 27.12.2020
4377 Clouds 7 1004 75 10000 6.2 190 11:23 27.12.2020
4378 Clear 6 1006 87 10000 6.2 190 10:49 27.12.2020
4379 Clear 6 1006 87 10000 6.2 190 10:23 27.12.2020
4380 Clouds 6 1008 81 10000 5.7 200 09:39 27.12.2020
4381 Clouds 6 1009 75 10000 6.2 190 08:29 27.12.2020
4382 Clouds 6 1010 75 10000 6.2 190 07:47 27.12.2020
4383 Clouds 6 1010 75 10000 5.7 200 07:18 27.12.2020
4384 Clouds 6 1014 70 10000 5.1 190 05:39 27.12.2020
4385 Clouds 6 1018 70 10000 6.2 190 03:26 27.12.2020
4386 Clouds 6 1019 70 10000 5.1 200 02:30 27.12.2020
4387 Clouds 5 1022 80 10000 4.1 190 00:58 27.12.2020
4388 Clouds 5 1024 80 10000 4.6 200 23:44 26.12.2020
4389 Clouds 5 1024 80 10000 4.6 200 23:26 26.12.2020
4390 Clouds 5 1024 80 10000 3.6 190 22:46 26.12.2020
4391 Clouds 5 1024 80 10000 3.6 190 22:46 26.12.2020
4392 Clouds 5 1025 80 10000 3.6 190 22:20 26.12.2020
4393 Clouds 5 1025 80 10000 3.1 190 21:54 26.12.2020
4394 Clouds 5 1026 80 10000 2.6 200 21:31 26.12.2020
4395 Clouds 5 1027 80 10000 2.6 190 20:46 26.12.2020
4396 Clouds 5 1027 80 10000 2.6 190 20:26 26.12.2020
4397 Clear 4 1027 80 10000 1.5 210 19:50 26.12.2020
4398 Clear 4 1028 80 10000 2.1 200 19:22 26.12.2020
4399 Clouds 5 1028 75 10000 1.5 170 18:36 26.12.2020
4400 Clear 6 1029 70 10000 1.5 240 17:48 26.12.2020
4401 Clear 6 1029 70 10000 1.5 240 17:29 26.12.2020
4402 Clear 6 1030 68 10000 2.6 240 16:40 26.12.2020
4403 Clear 6 1030 62 10000 2.6 240 16:21 26.12.2020
4404 Clouds 7 1030 61 10000 1.5 280 15:24 26.12.2020
4405 Clouds 7 1031 61 10000 1 0 14:44 26.12.2020
4406 Clouds 7 1031 61 10000 1 0 14:20 26.12.2020
4407 Clouds 6 1031 70 10000 2.1 210 13:42 26.12.2020
4408 Clouds 6 1031 70 10000 2.1 210 13:42 26.12.2020
4409 Clouds 6 1031 70 10000 2.1 210 13:23 26.12.2020
4410 Clear 5 1032 70 10000 1.5 0 12:42 26.12.2020
4411 Clear 5 1032 70 10000 1.5 0 12:20 26.12.2020
4412 Clear 5 1033 75 10000 0.84 302 11:51 26.12.2020
4413 Clear 4 1033 75 10000 0.6 321 11:21 26.12.2020
4414 Clear 3 1033 93 10000 0.6 321 10:51 26.12.2020
4415 Clear 1 1033 100 6000 0.48 337 10:27 26.12.2020
4416 Clear -1 1032 100 7000 0.48 337 09:49 26.12.2020
4417 Clear -1 1032 92 10000 0.74 5 09:24 26.12.2020
4418 Clear -1 1032 92 10000 0.9 10 08:20 26.12.2020
4419 Clear -1 1032 92 10000 0.9 10 07:33 26.12.2020
4420 Clear -1 1032 100 10000 1 330 06:23 26.12.2020
4421 Clear 0 1032 100 10000 1.5 260 02:49 26.12.2020
4422 Clear 2 1032 80 10000 1.5 330 00:42 26.12.2020
4423 Clear 3 1032 80 10000 2.6 340 23:59 25.12.2020
4424 Clear 3 1032 80 10000 3.1 360 23:39 25.12.2020
4425 Clear 3 1032 77 10000 3.1 360 23:20 25.12.2020
4426 Clear 3 1032 77 10000 3.6 340 22:37 25.12.2020
4427 Clear 3 1032 86 10000 3.1 340 21:49 25.12.2020
4428 Clear 3 1032 86 10000 3.1 340 21:31 25.12.2020
4429 Clear 4 1032 80 10000 2.6 330 20:47 25.12.2020
4430 Clear 4 1032 80 10000 2.6 330 20:28 25.12.2020
4431 Clear 5 1031 80 10000 2.6 330 19:43 25.12.2020
4432 Clouds 6 1031 75 10000 4.1 330 18:56 25.12.2020
4433 Clouds 6 1031 75 10000 3.6 330 18:37 25.12.2020
4434 Clear 6 1030 65 10000 5.7 350 17:35 25.12.2020
4435 Clouds 7 1030 65 10000 5.7 350 16:56 25.12.2020
4436 Clouds 7 1030 70 10000 7.2 350 16:26 25.12.2020
4437 Clouds 7 1030 65 10000 7.2 330 15:55 25.12.2020
4438 Clouds 7 1030 70 10000 5.1 350 15:34 25.12.2020
4439 Clouds 7 1030 70 10000 5.7 350 14:45 25.12.2020
4440 Clouds 7 1030 70 10000 5.7 350 14:21 25.12.2020
4441 Clouds 7 1031 70 10000 5.7 360 13:43 25.12.2020
4442 Clouds 7 1031 70 10000 5.7 360 13:25 25.12.2020
4443 Clouds 6 1031 75 10000 5.7 360 12:34 25.12.2020
4444 Clouds 5 1031 80 10000 4.6 340 11:52 25.12.2020
4445 Clear 4 1031 86 10000 4.6 340 11:25 25.12.2020
4446 Clear 3 1031 93 10000 4.1 330 10:49 25.12.2020
4447 Clear 3 1031 93 10000 4.1 330 10:23 25.12.2020
4448 Clear 1 1030 80 10000 3.1 310 09:32 25.12.2020
4449 Clear 1 1030 84 10000 3.1 320 08:47 25.12.2020
4450 Clear 1 1030 84 10000 2.6 320 07:57 25.12.2020
4451 Clear 1 1029 86 10000 3.1 320 06:44 25.12.2020
4452 Clear 3 1027 86 10000 3.1 340 02:50 25.12.2020
4453 Clear 4 1027 80 10000 3.1 330 01:18 25.12.2020
4454 Clear 5 1026 80 10000 4.1 350 00:18 25.12.2020
4455 Clouds 6 1026 75 10000 5.7 350 23:23 24.12.2020
4456 Clouds 7 1025 81 10000 5.7 350 22:40 24.12.2020
4457 Clouds 7 1025 81 10000 5.7 350 22:19 24.12.2020
4458 Clouds 7 1025 81 10000 5.7 350 21:32 24.12.2020
4459 Clouds 8 1023 87 10000 4.1 340 20:20 24.12.2020
4460 Clouds 9 1022 87 10000 4.1 350 18:39 24.12.2020
4461 Clouds 9 1022 87 10000 4.1 350 18:18 24.12.2020
4462 Clouds 9 1021 87 10000 4.6 340 17:36 24.12.2020
4463 Clouds 10 1021 81 10000 4.6 320 16:28 24.12.2020
4464 Clouds 11 1020 76 10000 5.1 310 15:58 24.12.2020
4465 Clouds 11 1020 87 10000 5.7 310 15:40 24.12.2020
4466 Clouds 11 1020 87 10000 4.6 310 15:18 24.12.2020
4467 Clouds 10 1020 93 10000 5.1 270 14:42 24.12.2020
4468 Clouds 11 1020 93 10000 5.1 270 14:23 24.12.2020
4469 Mist 11 1021 93 4700 6.2 290 13:39 24.12.2020
4470 Clouds 12 1021 87 10000 6.2 270 13:20 24.12.2020
4471 Clouds 12 1021 76 10000 7.2 270 12:41 24.12.2020
4472 Clouds 12 1022 76 10000 5.7 260 12:20 24.12.2020
4473 Clouds 11 1022 81 10000 6.2 250 11:39 24.12.2020
4474 Clouds 11 1022 81 10000 6.2 250 11:20 24.12.2020
4475 Clouds 10 1021 87 10000 6.2 250 10:49 24.12.2020
4476 Clouds 10 1021 87 10000 6.2 250 10:30 24.12.2020
4477 Clouds 10 1021 76 10000 5.1 240 09:52 24.12.2020
4478 Clouds 9 1021 81 10000 4.1 240 09:23 24.12.2020
4479 Clouds 9 1021 76 10000 5.1 230 08:18 24.12.2020
4480 Clouds 9 1021 76 10000 5.1 230 07:39 24.12.2020
4481 Clouds 9 1021 81 10000 5.1 230 06:55 24.12.2020
4482 Clouds 10 1021 76 10000 5.1 250 04:24 24.12.2020
4483 Clouds 10 1021 76 10000 6.7 250 01:54 24.12.2020
4484 Clouds 11 1021 66 10000 6.7 260 01:30 24.12.2020
4485 Clouds 10 1021 76 10000 5.1 250 00:56 24.12.2020
4486 Clouds 11 1021 71 10000 6.2 240 00:20 24.12.2020
4487 Clouds 11 1021 76 10000 4.6 250 23:40 23.12.2020
4488 Clouds 11 1021 76 10000 4.6 250 23:22 23.12.2020
4489 Clouds 11 1021 76 10000 5.7 250 22:52 23.12.2020
4490 Clouds 11 1021 76 10000 6.2 250 22:29 23.12.2020
4491 Clouds 11 1021 81 10000 4.6 230 21:49 23.12.2020
4492 Clouds 11 1021 81 10000 5.7 240 21:24 23.12.2020
4493 Clouds 11 1020 87 10000 5.7 250 20:49 23.12.2020
4494 Clouds 11 1020 87 10000 5.7 250 20:31 23.12.2020
4495 Clouds 11 1020 87 10000 5.1 240 19:59 23.12.2020
4496 Clouds 11 1020 87 10000 5.1 230 19:38 23.12.2020
4497 Clouds 11 1020 93 10000 5.1 240 19:19 23.12.2020
4498 Clear 12 1020 87 10000 4.6 240 18:46 23.12.2020
4499 Rain 12 1020 87 10000 4.6 250 18:20 23.12.2020
4500 Clouds 12 1020 87 10000 5.7 250 17:36 23.12.2020
4501 Rain 12 1020 87 10000 6.2 260 17:18 23.12.2020
4502 Clouds 13 1019 82 10000 6.7 260 16:40 23.12.2020
4503 Clouds 13 1019 87 10000 5.7 260 16:22 23.12.2020
4504 Clouds 13 1019 87 10000 5.7 260 15:50 23.12.2020
4505 Clouds 13 1019 87 10000 5.7 260 15:27 23.12.2020
4506 Clouds 13 1019 87 10000 6.2 250 14:58 23.12.2020
4507 Clouds 13 1019 93 10000 5.1 260 14:37 23.12.2020
4508 Clouds 13 1019 87 10000 4.1 240 14:19 23.12.2020
4509 Clouds 14 1019 87 10000 5.1 240 13:43 23.12.2020
4510 Clouds 14 1019 87 10000 5.1 250 13:19 23.12.2020
4511 Clouds 15 1019 82 10000 4.6 260 12:47 23.12.2020
4512 Clouds 14 1019 82 10000 4.6 260 12:24 23.12.2020
4513 Clouds 14 1019 82 10000 5.7 260 11:46 23.12.2020
4514 Clouds 14 1018 82 10000 5.1 260 11:19 23.12.2020
4515 Clouds 13 1018 87 10000 2.6 240 10:42 23.12.2020
4516 Clouds 13 1018 87 10000 2.6 240 10:24 23.12.2020
4517 Clear 12 1017 87 10000 1.5 130 09:33 23.12.2020
4518 Clear 12 1017 87 10000 1.5 160 08:45 23.12.2020
4519 Clear 12 1017 87 10000 1.5 160 08:20 23.12.2020
4520 Clear 12 1016 87 10000 2.6 160 07:27 23.12.2020
4521 Clear 12 1016 82 10000 3.6 160 06:39 23.12.2020
4522 Clear 12 1017 87 10000 3.6 170 05:28 23.12.2020
4523 Clear 12 1017 93 10000 3.1 170 04:56 23.12.2020
4524 Clear 12 1019 93 10000 2.1 150 00:34 23.12.2020
4525 Clear 12 1019 93 10000 3.1 160 23:49 22.12.2020
4526 Clear 12 1019 93 10000 3.6 160 23:30 22.12.2020
4527 Clear 13 1019 93 10000 4.1 160 22:44 22.12.2020
4528 Clear 13 1019 93 10000 4.1 160 22:25 22.12.2020
4529 Clear 13 1020 93 10000 3.6 160 21:58 22.12.2020
4530 Clear 13 1020 93 10000 3.1 160 21:38 22.12.2020
4531 Clear 13 1020 93 10000 3.6 150 21:18 22.12.2020
4532 Clear 13 1020 93 10000 3.6 150 20:47 22.12.2020
4533 Clear 13 1020 93 10000 3.6 150 20:21 22.12.2020
4534 Clear 14 1020 87 10000 4.1 140 19:44 22.12.2020
4535 Clear 14 1020 87 10000 4.1 130 19:21 22.12.2020
4536 Clear 15 1020 82 10000 3.1 130 18:50 22.12.2020
4537 Clear 15 1020 82 10000 3.1 130 18:29 22.12.2020
4538 Clear 16 1020 82 10000 2.6 110 17:51 22.12.2020
4539 Clear 16 1020 82 10000 2.6 110 17:25 22.12.2020
4540 Clear 16 1021 82 10000 2.6 110 16:55 22.12.2020
4541 Clear 17 1021 77 10000 2.6 110 16:36 22.12.2020
4542 Clear 18 1021 72 10000 3.1 140 16:18 22.12.2020
4543 Clear 18 1021 68 10000 2.1 170 15:42 22.12.2020
4544 Clear 18 1022 68 10000 3.1 170 15:20 22.12.2020
4545 Clear 18 1022 68 10000 3.1 180 14:43 22.12.2020
4546 Clear 18 1022 68 10000 3.1 180 14:25 22.12.2020
4547 Clear 17 1023 72 10000 2.1 160 13:47 22.12.2020
4548 Clear 16 1024 72 10000 2.6 180 13:19 22.12.2020
4549 Clear 16 1024 72 10000 2.6 180 12:56 22.12.2020
4550 Clear 16 1024 77 10000 2.6 190 12:38 22.12.2020
4551 Clear 15 1024 77 10000 3.1 170 12:19 22.12.2020
4552 Clear 15 1024 82 10000 3.6 170 11:41 22.12.2020
4553 Clear 15 1024 82 10000 3.6 170 11:22 22.12.2020
4554 Clear 13 1024 87 10000 1.5 0 10:55 22.12.2020
4555 Clear 13 1024 87 10000 1.5 0 10:27 22.12.2020
4556 Clear 12 1024 87 10000 2.1 180 09:58 22.12.2020
4557 Clear 12 1024 87 10000 2.6 180 09:30 22.12.2020
4558 Clear 12 1024 87 10000 2.6 180 08:57 22.12.2020
4559 Clouds 12 1024 87 10000 4.1 170 08:38 22.12.2020
4560 Clear 13 1023 87 10000 5.1 180 07:57 22.12.2020
4561 Clear 13 1023 87 10000 5.1 180 07:27 22.12.2020
4562 Clear 13 1023 87 10000 4.6 170 06:31 22.12.2020
4563 Clear 13 1024 93 10000 4.6 170 05:30 22.12.2020
4564 Clouds 14 1024 93 10000 3.1 170 02:19 22.12.2020
4565 Clouds 14 1024 93 10000 3.1 180 00:23 22.12.2020
4566 Clouds 14 1024 93 10000 3.1 180 23:43 21.12.2020
4567 Clouds 14 1024 93 10000 3.6 190 23:19 21.12.2020
4568 Clouds 14 1024 93 10000 3.6 190 22:36 21.12.2020
4569 Clouds 14 1024 93 10000 2.6 200 22:18 21.12.2020
4570 Clouds 14 1024 93 10000 2.6 200 21:46 21.12.2020
4571 Clouds 14 1024 93 10000 3.6 190 21:27 21.12.2020
4572 Clouds 14 1024 100 10000 2.1 210 20:43 21.12.2020
4573 Clouds 14 1024 100 10000 2.1 210 20:21 21.12.2020
4574 Clouds 14 1024 100 10000 3.6 210 19:47 21.12.2020
4575 Clouds 14 1024 100 10000 3.6 210 19:20 21.12.2020
4576 Clouds 14 1024 100 10000 4.1 240 18:57 21.12.2020
4577 Clouds 14 1024 100 9000 4.1 250 18:39 21.12.2020
4578 Drizzle 14 1024 93 3800 5.1 260 18:20 21.12.2020
4579 Clouds 14 1023 93 10000 5.7 260 17:42 21.12.2020
4580 Clouds 14 1023 93 10000 5.7 260 17:22 21.12.2020
4581 Mist 15 1023 93 5000 5.7 250 16:41 21.12.2020
4582 Clouds 14 1022 93 10000 6.2 260 16:19 21.12.2020
4583 Drizzle 14 1022 100 3600 6.7 240 15:41 21.12.2020
4584 Drizzle 14 1022 100 2800 6.7 240 14:58 21.12.2020
4585 Drizzle 14 1022 100 3800 5.1 230 14:22 21.12.2020
4586 Drizzle 13 1022 93 2800 5.1 220 13:52 21.12.2020
4587 Drizzle 13 1022 100 2500 4.6 220 13:33 21.12.2020
4588 Drizzle 13 1022 100 3000 5.1 220 12:57 21.12.2020
4589 Drizzle 13 1022 100 3000 5.1 220 12:57 21.12.2020
4590 Drizzle 13 1022 93 3400 5.7 210 12:37 21.12.2020
4591 Mist 12 1022 100 5000 5.1 210 12:19 21.12.2020
4592 Clouds 12 1022 93 8000 5.1 210 11:42 21.12.2020
4593 Clouds 12 1022 93 8000 5.1 210 11:22 21.12.2020
4594 Clouds 11 1022 100 10000 4.6 200 10:55 21.12.2020
4595 Clouds 11 1022 100 10000 4.1 200 10:37 21.12.2020
4596 Drizzle 11 1022 93 3600 4.6 200 09:55 21.12.2020
4597 Drizzle 11 1021 93 3400 4.1 200 09:37 21.12.2020
4598 Drizzle 10 1021 100 6000 4.6 190 09:18 21.12.2020
4599 Mist 10 1021 93 5000 4.6 200 08:18 21.12.2020
4600 Clouds 10 1020 87 10000 5.1 180 06:48 21.12.2020
4601 Clear 10 1021 81 10000 4.6 170 04:58 21.12.2020
4602 Clear 9 1022 93 10000 4.1 150 02:32 21.12.2020
4603 Clear 9 1023 87 10000 3.1 150 00:35 21.12.2020
4604 Clear 9 1023 93 10000 3.6 150 23:39 20.12.2020
4605 Clear 9 1023 93 10000 3.6 150 23:20 20.12.2020
4606 Clear 8 1023 93 10000 3.1 150 22:43 20.12.2020
4607 Clear 8 1023 93 10000 3.1 150 22:22 20.12.2020
4608 Clouds 8 1024 100 9000 3.1 170 21:40 20.12.2020
4609 Clouds 7 1024 100 9000 3.1 170 21:22 20.12.2020
4610 Clouds 7 1024 93 7000 2.1 170 20:53 20.12.2020
4611 Clear 8 1024 93 10000 2.1 150 20:26 20.12.2020
4612 Clear 9 1024 93 10000 2.6 180 19:56 20.12.2020
4613 Clear 9 1024 93 10000 2.6 180 19:38 20.12.2020
4614 Clear 9 1024 87 10000 2.6 200 19:19 20.12.2020
4615 Clouds 10 1023 87 10000 1.5 210 18:41 20.12.2020
4616 Clouds 11 1023 87 10000 1.5 210 18:22 20.12.2020
4617 Clear 12 1023 76 10000 2.6 220 17:45 20.12.2020
4618 Clear 13 1023 71 10000 3.1 230 17:27 20.12.2020
4619 Clear 13 1023 71 10000 3.1 230 16:47 20.12.2020
4620 Clouds 14 1023 71 10000 4.6 230 16:27 20.12.2020
4621 Clouds 14 1023 71 10000 5.1 220 15:50 20.12.2020
4622 Clouds 14 1022 67 10000 5.7 250 15:25 20.12.2020
4623 Clouds 14 1022 67 10000 5.7 250 14:56 20.12.2020
4624 Clouds 14 1022 71 10000 5.1 240 14:34 20.12.2020
4625 Clouds 14 1023 71 10000 4.6 240 13:47 20.12.2020
4626 Clouds 14 1023 71 10000 4.6 240 13:28 20.12.2020
4627 Clear 13 1023 76 10000 4.1 230 12:58 20.12.2020
4628 Clear 13 1023 76 10000 4.1 230 12:39 20.12.2020
4629 Clear 13 1023 76 10000 4.1 230 12:21 20.12.2020
4630 Clear 11 1022 87 10000 4.6 210 11:44 20.12.2020
4631 Clouds 11 1022 93 10000 3.6 200 11:19 20.12.2020
4632 Clouds 9 1022 93 10000 3.1 200 10:45 20.12.2020
4633 Clouds 9 1022 93 10000 3.1 200 10:20 20.12.2020
4634 Rain 9 1022 93 10000 1.5 220 09:46 20.12.2020
4635 Clouds 9 1022 93 10000 1.5 220 09:27 20.12.2020
4636 Clouds 9 1022 93 10000 3.6 270 08:58 20.12.2020
4637 Rain 8 1021 93 8000 0.5 0 08:39 20.12.2020
4638 Clouds 9 1020 93 10000 1.5 160 07:27 20.12.2020
4639 Clouds 8 1019 100 10000 4.1 210 05:48 20.12.2020
4640 Clear 9 1019 93 10000 3.6 200 02:20 20.12.2020
4641 Clear 9 1019 100 10000 2.1 180 00:38 20.12.2020
4642 Clear 10 1019 93 10000 2.6 180 23:21 19.12.2020
4643 Clear 10 1019 93 10000 2.1 190 22:57 19.12.2020
4644 Clear 10 1019 93 10000 2.1 190 22:38 19.12.2020
4645 Clear 11 1019 87 10000 2.6 190 22:19 19.12.2020
4646 Clear 11 1018 87 10000 2.1 170 21:42 19.12.2020
4647 Clear 11 1018 87 10000 2.1 170 21:24 19.12.2020
4648 Clear 11 1018 87 10000 1.5 160 20:45 19.12.2020
4649 Clear 11 1018 87 10000 1.5 160 20:21 19.12.2020
4650 Clear 11 1018 87 10000 1.5 150 19:54 19.12.2020
4651 Clear 12 1018 81 10000 1.5 190 19:36 19.12.2020
4652 Clear 12 1017 87 10000 2.6 180 18:43 19.12.2020
4653 Clear 12 1017 87 10000 2.6 180 18:25 19.12.2020
4654 Clear 12 1017 82 10000 2.1 200 17:49 19.12.2020
4655 Clear 13 1017 82 10000 2.1 200 17:28 19.12.2020
4656 Clear 13 1017 87 10000 3.6 190 16:55 19.12.2020
4657 Clouds 13 1017 87 10000 3.6 220 16:36 19.12.2020
4658 Clouds 13 1017 87 10000 3.6 220 16:18 19.12.2020
4659 Clouds 13 1017 87 10000 4.1 240 15:47 19.12.2020
4660 Clouds 14 1017 82 10000 5.1 240 14:49 19.12.2020
4661 Clouds 14 1017 87 10000 6.7 240 14:24 19.12.2020
4662 Clear 13 1016 87 10000 3.6 220 13:42 19.12.2020
4663 Clear 13 1016 87 10000 3.6 220 13:21 19.12.2020
4664 Clear 13 1016 87 10000 3.6 210 12:54 19.12.2020
4665 Clouds 12 1016 87 10000 3.6 190 12:36 19.12.2020
4666 Clouds 12 1016 87 10000 3.6 190 12:18 19.12.2020
4667 Rain 11 1016 81 10000 4.1 170 11:40 19.12.2020
4668 Clouds 10 1016 87 10000 2.6 150 10:47 19.12.2020
4669 Clouds 10 1016 87 10000 2.6 150 10:27 19.12.2020
4670 Clouds 10 1015 87 10000 2.1 150 09:59 19.12.2020
4671 Clear 9 1015 93 10000 2.1 150 09:39 19.12.2020
4672 Clear 9 1015 87 10000 1.5 150 08:56 19.12.2020
4673 Clouds 9 1014 87 10000 3.1 160 07:56 19.12.2020
4674 Clear 9 1014 87 10000 2.6 180 07:19 19.12.2020
4675 Clear 9 1013 87 10000 4.1 160 06:39 19.12.2020
4676 Clear 9 1014 93 10000 3.6 160 05:19 19.12.2020
4677 Clear 8 1014 93 10000 4.1 150 03:29 19.12.2020
4678 Clear 9 1014 93 10000 4.1 150 00:41 19.12.2020
4679 Clouds 9 1014 100 9000 4.6 150 00:19 19.12.2020
4680 Clouds 9 1014 100 9000 4.6 150 23:49 18.12.2020
4681 Clouds 9 1014 100 7000 5.7 140 23:24 18.12.2020
4682 Clouds 9 1015 93 8000 4.6 140 22:48 18.12.2020
4683 Clouds 9 1015 100 9000 5.1 140 22:24 18.12.2020
4684 Clouds 9 1015 100 9000 5.1 140 21:51 18.12.2020
4685 Clouds 9 1015 100 8000 5.1 140 21:31 18.12.2020
4686 Clear 9 1016 93 10000 4.1 140 20:44 18.12.2020
4687 Clear 9 1016 93 10000 4.1 140 20:23 18.12.2020
4688 Clouds 9 1016 100 10000 4.6 130 19:47 18.12.2020
4689 Clouds 9 1016 100 10000 4.6 130 19:22 18.12.2020
4690 Clear 10 1017 93 10000 4.1 120 18:45 18.12.2020
4691 Clear 10 1017 93 10000 4.1 120 18:25 18.12.2020
4692 Clear 10 1017 93 10000 3.1 120 17:36 18.12.2020
4693 Clear 11 1017 87 10000 4.1 120 16:59 18.12.2020
4694 Clouds 11 1017 87 10000 5.1 120 16:40 18.12.2020
4695 Clouds 11 1017 87 10000 4.1 130 16:20 18.12.2020
4696 Clouds 11 1018 87 10000 5.1 130 15:44 18.12.2020
4697 Clouds 11 1018 87 10000 5.1 130 15:25 18.12.2020
4698 Clouds 10 1018 87 10000 5.1 140 14:57 18.12.2020
4699 Clouds 9 1019 93 10000 5.1 140 14:23 18.12.2020
4700 Clouds 9 1019 100 8000 4.6 130 13:51 18.12.2020
4701 Clouds 9 1020 100 7000 4.6 130 13:32 18.12.2020
4702 Clouds 8 1020 100 6000 4.6 140 12:57 18.12.2020
4703 Mist 7 1020 100 4600 5.1 130 12:34 18.12.2020
4704 Mist 7 1022 100 2200 3.1 130 11:28 18.12.2020
4705 Mist 7 1021 100 2300 3.1 130 10:40 18.12.2020
4706 Fog 6 1021 100 1100 3.1 120 10:21 18.12.2020
4707 Fog 6 1021 100 1100 3.1 120 09:57 18.12.2020
4708 Fog 6 1021 100 1000 3.6 130 09:37 18.12.2020
4709 Mist 6 1021 100 1300 2.6 130 09:18 18.12.2020
4710 Fog 6 1021 100 1100 3.6 140 08:43 18.12.2020
4711 Fog 6 1021 100 1000 3.1 150 07:56 18.12.2020
4712 Mist 6 1021 100 2300 2.6 140 07:19 18.12.2020
4713 Mist 6 1021 100 2300 2.6 140 06:59 18.12.2020
4714 Fog 6 1021 100 800 2.6 130 05:44 18.12.2020
4715 Fog 6 1022 100 900 2.1 130 04:52 18.12.2020
4716 Mist 7 1023 100 1300 2.6 130 03:20 18.12.2020
4717 Fog 7 1023 100 900 1.5 130 01:44 18.12.2020
4718 Fog 8 1023 100 500 2.1 130 00:29 18.12.2020
4719 Fog 8 1024 100 400 2.1 140 23:52 17.12.2020
4720 Fog 8 1024 100 400 2.1 130 23:21 17.12.2020
4721 Fog 8 1024 100 500 1.5 130 22:48 17.12.2020
4722 Fog 8 1024 100 500 1.5 130 22:27 17.12.2020
4723 Fog 8 1024 100 4700 2.1 130 21:46 17.12.2020
4724 Fog 9 1024 100 4700 2.1 130 21:22 17.12.2020
4725 Fog 8 1024 93 1800 0.5 150 20:45 17.12.2020
4726 Fog 9 1024 100 4800 1 160 20:20 17.12.2020
4727 Fog 8 1024 100 4800 1 160 19:56 17.12.2020
4728 Clear 9 1024 93 7000 1.5 150 19:38 17.12.2020
4729 Clear 9 1023 87 10000 0.5 150 19:19 17.12.2020
4730 Clear 10 1023 87 10000 1.15 133 18:40 17.12.2020
4731 Clear 11 1023 87 10000 0.59 145 18:19 17.12.2020
4732 Clouds 12 1023 81 10000 1.5 190 17:45 17.12.2020
4733 Clouds 12 1023 81 10000 1.5 190 17:27 17.12.2020
4734 Clouds 14 1023 71 10000 1.5 200 16:40 17.12.2020
4735 Clouds 14 1023 62 10000 2.1 190 16:20 17.12.2020
4736 Clouds 15 1023 63 10000 1.5 0 15:45 17.12.2020
4737 Clouds 15 1023 63 10000 1.5 0 15:27 17.12.2020
4738 Clouds 15 1023 62 10000 1.5 0 14:49 17.12.2020
4739 Clouds 15 1023 67 10000 1.5 250 14:22 17.12.2020
4740 Clouds 14 1024 71 10000 2.1 230 13:48 17.12.2020
4741 Clouds 14 1024 71 10000 2.1 230 13:22 17.12.2020
4742 Clear 13 1024 87 10000 2.6 190 12:41 17.12.2020
4743 Clear 13 1024 93 10000 2.6 180 12:22 17.12.2020
4744 Clear 12 1024 100 10000 2.6 170 11:42 17.12.2020
4745 Clear 11 1024 100 10000 2.6 170 11:22 17.12.2020
4746 Fog 10 1023 100 400 1 140 10:48 17.12.2020
4747 Fog 9 1023 93 750 1.51 206 09:40 17.12.2020
4748 Fog 9 1023 93 1900 1.48 217 08:57 17.12.2020
4749 Clear 10 1021 93 10000 2.1 180 07:44 17.12.2020
4750 Clear 10 1021 93 10000 2.1 180 07:25 17.12.2020
4751 Clouds 10 1021 100 10000 1.5 180 06:50 17.12.2020
4752 Clouds 10 1021 100 10000 2.6 170 06:32 17.12.2020
4753 Clouds 11 1020 93 10000 1 160 03:31 17.12.2020
4754 Clear 11 1018 93 10000 2.6 240 00:28 17.12.2020
4755 Clouds 11 1017 93 6000 2.6 220 23:42 16.12.2020
4756 Clouds 11 1017 93 10000 2.6 220 23:19 16.12.2020
4757 Clouds 11 1017 93 10000 4.1 210 22:49 16.12.2020
4758 Clouds 11 1017 93 10000 4.1 210 22:31 16.12.2020
4759 Clear 11 1016 87 10000 4.1 190 21:45 16.12.2020
4760 Clear 11 1015 87 10000 5.1 180 21:25 16.12.2020
4761 Clear 11 1015 87 10000 5.1 180 20:52 16.12.2020
4762 Clear 11 1015 87 10000 4.1 180 20:20 16.12.2020
4763 Clear 11 1014 87 10000 4.1 180 19:43 16.12.2020
4764 Clear 11 1014 87 10000 4.1 180 19:43 16.12.2020
4765 Clear 11 1013 87 10000 3.6 160 19:18 16.12.2020
4766 Clear 11 1013 87 10000 3.6 160 18:51 16.12.2020
4767 Clear 11 1013 87 10000 3.6 160 18:26 16.12.2020
4768 Clear 11 1013 87 10000 3.6 160 18:26 16.12.2020
4769 Clear 12 1012 81 10000 4.1 150 17:42 16.12.2020
4770 Clear 12 1012 81 10000 4.1 150 16:56 16.12.2020
4771 Clear 12 1011 81 10000 3.6 150 16:37 16.12.2020
4772 Clear 12 1011 76 10000 4.1 160 16:19 16.12.2020
4773 Clear 12 1011 76 10000 4.6 150 15:46 16.12.2020
4774 Clear 13 1011 71 10000 5.7 160 15:19 16.12.2020
4775 Clear 12 1011 76 10000 4.6 150 14:45 16.12.2020
4776 Clear 12 1011 76 10000 4.6 150 14:27 16.12.2020
4777 Clear 12 1011 81 10000 5.7 130 13:42 16.12.2020
4778 Clear 11 1011 81 10000 5.7 130 13:21 16.12.2020
4779 Clear 10 1012 87 10000 6.2 140 12:44 16.12.2020
4780 Clear 9 1012 87 10000 6.2 140 11:55 16.12.2020
4781 Clear 9 1012 87 10000 6.2 150 11:36 16.12.2020
4782 Clear 8 1012 93 10000 5.1 140 10:58 16.12.2020
4783 Clear 8 1011 87 10000 5.7 140 10:38 16.12.2020
4784 Clear 7 1012 93 10000 4.1 160 09:56 16.12.2020
4785 Clear 7 1011 93 10000 4.6 150 09:33 16.12.2020
4786 Clouds 7 1011 93 10000 6.7 140 08:23 16.12.2020
4787 Clouds 7 1011 93 10000 5.1 140 07:46 16.12.2020
4788 Clouds 7 1011 93 10000 5.1 140 07:23 16.12.2020
4789 Clear 7 1011 93 10000 4.6 140 05:31 16.12.2020
4790 Clear 7 1012 93 10000 4.1 140 01:59 16.12.2020
4791 Clear 7 1013 100 10000 4.1 140 23:50 15.12.2020
4792 Clear 7 1014 100 10000 3.6 140 23:32 15.12.2020
4793 Clear 8 1014 93 10000 3.6 130 22:42 15.12.2020
4794 Clear 8 1014 93 10000 3.6 130 22:22 15.12.2020
4795 Clear 8 1014 93 10000 3.6 140 21:48 15.12.2020
4796 Clear 8 1014 100 10000 3.1 150 21:24 15.12.2020
4797 Clear 8 1014 93 10000 2.6 130 20:46 15.12.2020
4798 Clear 8 1014 93 10000 2.6 130 20:27 15.12.2020
4799 Clear 9 1014 93 10000 3.1 160 19:55 15.12.2020
4800 Clouds 9 1014 93 10000 3.1 160 19:34 15.12.2020
4801 Clear 10 1014 93 10000 2.1 160 18:44 15.12.2020
4802 Clear 10 1014 93 10000 2.1 160 18:24 15.12.2020
4803 Clear 11 1014 87 10000 2.1 150 17:59 15.12.2020
4804 Clear 11 1014 81 10000 2.6 160 17:41 15.12.2020
4805 Clear 12 1014 81 10000 2.6 160 17:20 15.12.2020
4806 Clear 12 1014 81 10000 2.6 160 17:20 15.12.2020
4807 Clear 13 1014 76 10000 3.1 190 16:33 15.12.2020
4808 Clear 14 1014 71 10000 2.6 180 15:55 15.12.2020
4809 Clear 13 1014 76 10000 2.6 180 15:32 15.12.2020
4810 Clouds 13 1014 76 10000 2.1 170 14:49 15.12.2020
4811 Clear 12 1014 81 10000 2.6 230 14:23 15.12.2020
4812 Clear 12 1014 81 10000 2.6 230 13:52 15.12.2020
4813 Clouds 11 1014 76 10000 3.1 230 13:32 15.12.2020
4814 Clouds 11 1014 87 10000 3.1 230 12:47 15.12.2020
4815 Clouds 11 1014 81 10000 4.1 260 12:22 15.12.2020
4816 Clouds 12 1014 87 10000 4.1 210 11:56 15.12.2020
4817 Clouds 11 1014 87 10000 3.6 190 11:27 15.12.2020
4818 Clear 10 1013 93 10000 3.1 190 10:57 15.12.2020
4819 Clear 10 1013 93 10000 2.6 190 10:35 15.12.2020
4820 Clear 10 1012 93 10000 2.6 200 09:53 15.12.2020
4821 Clear 10 1012 93 10000 2.6 200 09:32 15.12.2020
4822 Clear 10 1012 93 10000 2.6 200 09:32 15.12.2020
4823 Clear 10 1012 93 10000 2.6 230 08:57 15.12.2020
4824 Clear 10 1011 93 10000 2.1 230 08:29 15.12.2020
4825 Clouds 10 1011 93 10000 2.6 200 07:52 15.12.2020
4826 Clouds 10 1011 93 10000 4.1 190 07:28 15.12.2020
4827 Clear 10 1010 93 10000 1.5 190 06:37 15.12.2020
4828 Mist 10 1009 93 3700 1 260 04:18 15.12.2020
4829 Rain 10 1008 100 7000 1 0 00:36 15.12.2020
4830 Clouds 10 1008 93 10000 1 320 23:27 14.12.2020
4831 Clouds 10 1007 93 10000 2.6 140 22:58 14.12.2020
4832 Clouds 10 1007 93 10000 2.1 140 22:36 14.12.2020
4833 Rain 11 1007 87 10000 2.1 150 21:54 14.12.2020
4834 Rain 11 1007 87 10000 2.1 150 21:54 14.12.2020
4835 Clouds 11 1007 93 10000 3.1 160 21:35 14.12.2020
4836 Clouds 11 1007 87 10000 1.5 120 20:52 14.12.2020
4837 Clouds 11 1007 87 10000 2.1 160 20:30 14.12.2020
4838 Clear 11 1007 87 10000 1.5 130 19:55 14.12.2020
4839 Clouds 11 1007 87 10000 2.1 150 19:29 14.12.2020
4840 Clouds 11 1007 87 10000 1 0 18:51 14.12.2020
4841 Clear 11 1007 81 10000 2.6 130 18:32 14.12.2020
4842 Clear 12 1007 76 10000 3.1 150 17:48 14.12.2020
4843 Clear 13 1007 76 10000 3.1 150 17:28 14.12.2020
4844 Clear 14 1007 71 10000 5.1 140 16:52 14.12.2020
4845 Clear 14 1007 71 10000 5.1 140 16:29 14.12.2020
4846 Clear 13 1007 76 10000 4.6 140 15:44 14.12.2020
4847 Clear 13 1007 76 10000 4.6 140 15:22 14.12.2020
4848 Clear 13 1007 76 10000 3.1 140 14:43 14.12.2020
4849 Clear 13 1007 76 10000 3.1 140 14:24 14.12.2020
4850 Clear 13 1008 76 10000 3.6 150 13:44 14.12.2020
4851 Clear 12 1008 81 10000 3.6 150 13:20 14.12.2020
4852 Clear 12 1008 81 10000 3.6 150 12:52 14.12.2020
4853 Clear 12 1008 81 10000 4.6 140 12:28 14.12.2020
4854 Clear 11 1009 87 10000 4.1 140 11:35 14.12.2020
4855 Clear 9 1009 87 10000 3.6 140 10:40 14.12.2020
4856 Clear 9 1009 87 10000 3.6 140 10:21 14.12.2020
4857 Clear 9 1009 87 10000 1.5 130 09:43 14.12.2020
4858 Clear 9 1009 87 10000 2.6 130 08:47 14.12.2020
4859 Clear 9 1009 87 10000 2.6 130 08:29 14.12.2020
4860 Clear 8 1009 93 10000 1.5 0 07:44 14.12.2020
4861 Clear 9 1008 87 10000 2.1 130 06:47 14.12.2020
4862 Clear 9 1008 87 10000 2.6 140 05:35 14.12.2020
4863 Clear 9 1009 87 10000 4.1 150 02:26 14.12.2020
4864 Clear 9 1009 87 10000 5.7 140 00:56 14.12.2020
4865 Clear 9 1009 81 10000 5.1 150 00:33 14.12.2020
4866 Clear 9 1009 87 10000 5.1 140 23:50 13.12.2020
4867 Clear 9 1009 87 10000 4.6 140 23:30 13.12.2020
4868 Clear 9 1009 87 10000 5.7 140 22:47 13.12.2020
4869 Clear 10 1009 87 10000 5.7 140 22:20 13.12.2020
4870 Clear 10 1009 87 10000 5.7 140 21:45 13.12.2020
4871 Clear 10 1009 87 10000 5.7 140 21:26 13.12.2020
4872 Clear 10 1009 93 10000 5.7 140 20:35 13.12.2020
4873 Clear 10 1010 93 10000 5.1 140 19:57 13.12.2020
4874 Clear 10 1010 93 10000 4.1 130 19:37 13.12.2020
4875 Clear 10 1010 93 10000 4.1 130 19:19 13.12.2020
4876 Clear 11 1010 87 10000 4.6 120 18:42 13.12.2020
4877 Clear 11 1010 87 10000 4.6 120 18:20 13.12.2020
4878 Clear 11 1010 81 10000 4.1 120 17:47 13.12.2020
4879 Clear 11 1010 81 10000 4.1 120 17:21 13.12.2020
4880 Clear 12 1010 87 10000 4.1 120 16:56 13.12.2020
4881 Clear 12 1010 87 10000 4.6 130 16:38 13.12.2020
4882 Clouds 12 1010 87 10000 3.6 120 16:18 13.12.2020
4883 Clouds 13 1011 82 10000 3.1 130 15:40 13.12.2020
4884 Clouds 13 1011 82 10000 3.1 130 15:21 13.12.2020
4885 Clouds 13 1011 82 10000 2.1 150 14:43 13.12.2020
4886 Clouds 13 1011 82 10000 2.1 150 14:21 13.12.2020
4887 Clouds 13 1012 76 10000 2.1 170 13:43 13.12.2020
4888 Clouds 13 1012 76 10000 2.1 170 13:24 13.12.2020
4889 Clouds 12 1012 76 10000 4.1 180 12:42 13.12.2020
4890 Clouds 12 1012 76 10000 4.1 180 12:22 13.12.2020
4891 Clouds 11 1012 87 10000 2.6 180 11:36 13.12.2020
4892 Clouds 10 1012 87 10000 4.1 150 10:52 13.12.2020
4893 Clouds 10 1012 93 10000 3.1 150 10:34 13.12.2020
4894 Clouds 9 1012 93 10000 3.1 160 09:54 13.12.2020
4895 Clouds 9 1013 93 10000 3.1 170 08:58 13.12.2020
4896 Clouds 8 1012 100 10000 3.1 170 08:33 13.12.2020
4897 Clouds 8 1013 100 10000 3.6 170 07:35 13.12.2020
4898 Clouds 7 1014 93 10000 3.6 190 04:23 13.12.2020
4899 Clouds 7 1015 100 10000 1.5 180 02:40 13.12.2020
4900 Clouds 6 1015 100 10000 1.88 219 01:37 13.12.2020
4901 Clouds 7 1015 93 10000 2.1 200 00:48 13.12.2020
4902 Clear 7 1015 93 10000 2.6 210 23:55 12.12.2020
4903 Clouds 6 1015 93 10000 3.1 200 23:31 12.12.2020
4904 Clouds 7 1015 100 10000 4.1 250 22:49 12.12.2020
4905 Clouds 8 1015 93 10000 1 200 21:56 12.12.2020
4906 Clouds 7 1015 100 10000 1.5 210 21:34 12.12.2020
4907 Clear 7 1015 93 10000 1.5 220 20:55 12.12.2020
4908 Clouds 8 1015 93 10000 1 230 20:24 12.12.2020
4909 Clouds 8 1014 93 10000 2.1 270 19:57 12.12.2020
4910 Clear 8 1014 93 10000 3.6 230 19:38 12.12.2020
4911 Clouds 8 1014 93 10000 2.6 240 19:20 12.12.2020
4912 Clouds 9 1014 93 10000 2.1 260 18:41 12.12.2020
4913 Clouds 8 1014 93 10000 2.1 260 18:23 12.12.2020
4914 Clouds 10 1013 81 10000 2.6 310 17:45 12.12.2020
4915 Clouds 11 1013 71 10000 4.6 290 16:54 12.12.2020
4916 Clouds 11 1012 71 10000 6.2 310 16:19 12.12.2020
4917 Clouds 11 1011 66 10000 7.7 300 15:44 12.12.2020
4918 Clouds 12 1011 66 10000 7.7 300 15:26 12.12.2020
4919 Clouds 11 1011 76 10000 5.1 300 14:44 12.12.2020
4920 Clouds 11 1011 81 10000 5.7 310 13:54 12.12.2020
4921 Clouds 11 1011 76 10000 9.3 320 13:36 12.12.2020
4922 Clouds 12 1010 71 10000 7.7 300 12:47 12.12.2020
4923 Rain 11 1009 81 10000 5.1 290 11:46 12.12.2020
4924 Clouds 9 1009 87 10000 6.2 290 10:53 12.12.2020
4925 Clouds 9 1007 87 10000 4.6 300 09:32 12.12.2020
4926 Clouds 9 1006 87 10000 5.1 290 08:53 12.12.2020
4927 Clouds 11 1001 87 10000 5.7 290 02:53 12.12.2020
4928 Clouds 11 1001 81 10000 8.2 270 23:54 11.12.2020
4929 Clouds 11 1000 87 10000 7.2 270 22:24 11.12.2020
4930 Clouds 11 1000 81 10000 7.2 270 20:35 11.12.2020
4931 Clouds 12 998 81 10000 5.7 280 17:52 11.12.2020
4932 Clouds 13 997 87 10000 9.8 290 14:41 11.12.2020
4933 Rain 14 997 82 10000 10.3 250 13:58 11.12.2020
4934 Clouds 15 998 82 10000 6.7 250 12:56 11.12.2020
4935 Clouds 14 998 82 10000 8.2 250 11:58 11.12.2020
4936 Clouds 14 999 93 10000 6.7 250 11:38 11.12.2020
4937 Clouds 14 999 93 10000 4.6 250 10:44 11.12.2020
4938 Clouds 13 999 93 10000 5.1 270 08:43 11.12.2020
4939 Clouds 11 997 100 10000 3.6 0 05:40 11.12.2020
4940 Rain 11 998 93 5000 4.6 190 04:49 11.12.2020
4941 Clouds 9 1002 100 10000 5.1 180 01:32 11.12.2020
4942 Clouds 9 1004 93 10000 4.6 190 00:20 11.12.2020
4943 Clear 8 1006 100 10000 3.1 190 22:27 10.12.2020
4944 Clouds 9 1006 93 10000 3.1 190 21:35 10.12.2020
4945 Clouds 9 1007 93 10000 3.6 210 20:39 10.12.2020
4946 Clouds 9 1007 93 10000 2.6 220 19:37 10.12.2020
4947 Clouds 9 1007 93 10000 1 190 18:53 10.12.2020
4948 Clouds 10 1006 93 10000 3.1 210 17:50 10.12.2020
4949 Clear 11 1006 81 10000 3.6 280 16:25 10.12.2020
4950 Clear 11 1006 81 10000 4.6 300 15:25 10.12.2020
4951 Clouds 11 1006 81 10000 6.7 310 14:48 10.12.2020
4952 Clouds 11 1005 87 10000 5.7 270 14:25 10.12.2020
4953 Clouds 10 1005 93 9000 5.1 290 12:38 10.12.2020
4954 Clouds 10 1004 93 10000 2.6 250 11:33 10.12.2020
4955 Clear 9 1002 87 10000 3.1 230 08:51 10.12.2020
4956 Clouds 9 1002 93 10000 3.6 280 07:38 10.12.2020
4957 Clouds 10 1001 93 10000 4.1 280 06:41 10.12.2020
4958 Rain 8 1004 93 7000 6.2 190 02:53 10.12.2020
4959 Rain 8 1005 100 8000 5.1 190 01:58 10.12.2020
4960 Rain 8 1009 93 10000 4.6 170 23:50 09.12.2020
4961 Clouds 8 1012 93 10000 3.1 190 20:51 09.12.2020
4962 Clouds 8 1012 93 10000 3.1 190 20:26 09.12.2020
4963 Clear 8 1013 93 10000 3.1 190 19:20 09.12.2020
4964 Clouds 9 1013 87 10000 2.1 220 17:42 09.12.2020
4965 Clear 9 1013 81 10000 1.5 220 16:40 09.12.2020
4966 Clear 9 1013 81 10000 1.5 220 16:20 09.12.2020
4967 Clouds 9 1014 81 10000 2.1 280 14:53 09.12.2020
4968 Clouds 10 1014 71 10000 1.5 270 14:27 09.12.2020
4969 Clear 10 1014 76 10000 2.1 280 13:51 09.12.2020
4970 Clear 10 1014 76 10000 2.6 290 13:18 09.12.2020
4971 Clear 9 1015 81 10000 2.6 280 12:43 09.12.2020
4972 Clouds 7 1015 93 10000 3.6 230 11:46 09.12.2020
4973 Clouds 4 1015 93 10000 2.1 230 09:59 09.12.2020
4974 Clouds 4 1014 100 10000 3.6 220 08:42 09.12.2020
4975 Clear 2 1014 100 10000 2.6 210 06:56 09.12.2020
4976 Clear 2 1014 93 10000 2.6 230 05:42 09.12.2020
4977 Clouds 2 1013 93 10000 1 0 02:57 09.12.2020
4978 Fog 3 1013 100 800 1.5 240 00:52 09.12.2020
4979 Clouds 4 1012 93 10000 1.5 250 23:37 08.12.2020
4980 Clouds 5 1012 93 10000 1.5 280 22:43 08.12.2020
4981 Clouds 4 1011 93 10000 1 0 20:49 08.12.2020
4982 Clear 5 1010 86 10000 0.5 330 19:31 08.12.2020
4983 Clear 6 1010 70 10000 1 270 18:41 08.12.2020
4984 Clouds 9 1009 61 10000 3.1 320 17:20 08.12.2020
4985 Clouds 10 1008 61 10000 3.6 320 15:25 08.12.2020
4986 Clouds 9 1008 66 10000 4.6 330 13:53 08.12.2020
4987 Clear 8 1007 65 10000 4.6 340 12:54 08.12.2020
4988 Clear 8 1007 65 10000 5.1 340 12:20 08.12.2020
4989 Clear 7 1007 75 10000 4.6 340 11:27 08.12.2020
4990 Clear 5 1005 86 10000 3.6 330 10:41 08.12.2020
4991 Clear 4 1005 93 10000 3.6 320 09:45 08.12.2020
4992 Clouds 5 1000 86 10000 7.7 340 07:41 08.12.2020
4993 Clouds 6 996 100 10000 6.7 330 05:42 08.12.2020
4994 Clouds 9 990 93 10000 4.6 230 02:33 08.12.2020
4995 Clouds 9 990 93 10000 5.1 210 00:45 08.12.2020
4996 Clouds 9 990 93 10000 6.2 220 23:37 07.12.2020
4997 Clouds 9 991 93 10000 6.7 240 22:21 07.12.2020
4998 Rain 9 991 93 5000 5.1 220 21:47 07.12.2020
4999 Clouds 8 994 93 10000 5.1 230 19:35 07.12.2020
5000 Clouds 8 994 87 10000 2.6 220 17:59 07.12.2020
5001 Clouds 9 994 87 10000 4.6 250 17:22 07.12.2020
5002 Clouds 9 994 81 10000 5.7 270 16:43 07.12.2020
5003 Clouds 11 994 81 10000 6.7 260 15:25 07.12.2020
5004 Clouds 10 994 87 10000 5.1 260 14:33 07.12.2020
5005 Clouds 10 995 87 10000 5.1 250 13:36 07.12.2020
5006 Clouds 8 995 93 10000 5.1 170 12:30 07.12.2020
5007 Clouds 6 996 100 8000 5.1 140 11:42 07.12.2020
5008 Rain 6 997 100 5000 4.1 140 10:36 07.12.2020
5009 Rain 6 998 100 7000 3.6 160 09:23 07.12.2020
5010 Drizzle 4 1000 100 4800 3.1 160 07:38 07.12.2020
5011 Mist 4 1002 100 3400 1.5 140 05:27 07.12.2020
5012 Fog 3 1003 100 1200 3.1 120 03:53 07.12.2020
5013 Clouds 3 1004 93 10000 1.37 194 00:49 07.12.2020
5014 Clouds 3 1004 100 10000 1.32 243 22:52 06.12.2020
5015 Clear 4 1004 93 10000 1 220 21:44 06.12.2020
5016 Clouds 5 1004 86 10000 1.5 270 20:43 06.12.2020
5017 Clouds 5 1004 86 10000 1.5 270 20:22 06.12.2020
5018 Clouds 6 1003 81 10000 2.1 260 19:26 06.12.2020
5019 Clouds 8 1003 81 10000 2.6 290 17:31 06.12.2020
5020 Rain 10 1003 66 10000 4.1 290 16:33 06.12.2020
5021 Clear 10 1002 76 10000 3.6 290 14:49 06.12.2020
5022 Clouds 10 1002 76 10000 2.1 290 12:59 06.12.2020
5023 Clouds 9 1002 81 10000 2.6 280 12:30 06.12.2020
5024 Clear 9 1002 87 10000 2.1 290 11:41 06.12.2020
5025 Clear 9 1002 87 10000 2.1 290 11:41 06.12.2020
5026 Clear 8 1002 87 10000 2.1 290 11:22 06.12.2020
5027 Clouds 8 1001 93 10000 3.1 320 10:32 06.12.2020
5028 Clouds 7 1000 93 10000 2.6 240 08:57 06.12.2020
5029 Clouds 6 999 93 10000 4.24 284 07:26 06.12.2020
5030 Rain 6 998 100 10000 1.5 0 04:41 06.12.2020
5031 Rain 7 998 93 10000 5.1 200 00:45 06.12.2020
5032 Clouds 7 998 93 10000 4.6 190 00:26 06.12.2020
5033 Clouds 7 998 93 10000 3.1 190 23:55 05.12.2020
5034 Rain 6 998 100 10000 3.6 210 22:24 05.12.2020
5035 Rain 6 998 100 10000 1.5 230 21:53 05.12.2020
5036 Clouds 6 997 100 10000 3.6 210 21:28 05.12.2020
5037 Clouds 6 997 100 10000 3.6 190 19:50 05.12.2020
5038 Clouds 6 996 100 10000 3.1 220 18:45 05.12.2020
5039 Clouds 6 995 100 10000 4.1 210 17:36 05.12.2020
5040 Clouds 7 995 93 10000 5.1 190 16:43 05.12.2020
5041 Clouds 7 995 93 10000 5.1 190 16:23 05.12.2020
5042 Rain 8 994 87 10000 8.2 200 14:30 05.12.2020
5043 Clouds 6 995 93 10000 6.2 190 12:32 05.12.2020
5044 Clouds 6 995 93 10000 5.1 180 11:49 05.12.2020
5045 Clouds 5 995 86 10000 6.2 190 10:34 05.12.2020
5046 Snow 4 995 93 6000 3.1 170 07:50 05.12.2020
5047 Rain 5 996 86 5000 5.1 200 07:26 05.12.2020
5048 Clouds 4 994 93 10000 5.1 190 05:22 05.12.2020
5049 Rain 5 994 86 10000 3.6 230 23:56 04.12.2020
5050 Clear 5 992 93 10000 5.7 200 22:41 04.12.2020
5051 Clouds 5 991 86 10000 4.1 200 20:30 04.12.2020
5052 Clear 4 991 100 10000 4.6 200 18:53 04.12.2020
5053 Clear 5 990 100 10000 3.1 210 18:21 04.12.2020
5054 Clear 5 990 100 10000 2.6 200 17:41 04.12.2020
5055 Clouds 6 989 93 10000 3.1 200 15:54 04.12.2020
5056 Rain 5 988 93 10000 5.1 160 13:58 04.12.2020
5057 Clouds 5 989 100 10000 4.1 170 13:31 04.12.2020
5058 Snow 6 989 93 3800 5.1 210 12:54 04.12.2020
5059 Clouds 6 989 93 10000 6.2 180 10:42 04.12.2020
5060 Clouds 5 989 93 10000 6.2 180 10:23 04.12.2020
5061 Clouds 5 988 87 10000 4.1 200 07:29 04.12.2020
5062 Clouds 6 989 87 10000 3.6 230 06:39 04.12.2020
5063 Rain 8 990 81 10000 5.1 240 02:25 04.12.2020
5064 Rain 8 991 93 6000 6.2 220 23:21 03.12.2020
5065 Rain 9 991 93 4200 6.2 230 22:45 03.12.2020
5066 Rain 10 991 93 7000 9.3 200 20:59 03.12.2020
5067 Rain 10 994 93 7000 7.7 220 19:38 03.12.2020
5068 Rain 10 994 93 7000 7.7 220 19:19 03.12.2020
5069 Rain 10 995 93 6000 7.7 220 18:34 03.12.2020
5070 Rain 10 997 93 2900 6.7 240 17:20 03.12.2020
5071 Clouds 11 998 87 10000 6.7 220 15:56 03.12.2020
5072 Mist 11 999 93 4200 6.7 220 15:31 03.12.2020
5073 Clouds 11 1000 93 10000 6.7 220 14:48 03.12.2020
5074 Clouds 11 1003 93 10000 8.2 250 13:44 03.12.2020
5075 Clouds 12 1005 87 10000 5.7 230 12:32 03.12.2020
5076 Mist 10 1007 100 3700 3.6 220 11:38 03.12.2020
5077 Clouds 9 1008 100 10000 3.6 190 10:25 03.12.2020
5078 Clouds 7 1010 100 6000 1 0 07:48 03.12.2020
5079 Clouds 6 1014 87 10000 4.1 200 03:22 03.12.2020
5080 Clouds 6 1017 81 10000 4.1 200 01:19 03.12.2020
5081 Clear 4 1019 93 10000 2.6 210 22:48 02.12.2020
5082 Clear 4 1019 93 10000 3.1 200 22:26 02.12.2020
5083 Clouds 5 1019 93 10000 2.1 230 21:25 02.12.2020
5084 Clouds 5 1019 93 10000 1.5 210 20:46 02.12.2020
5085 Clouds 4 1019 93 10000 1.5 210 20:28 02.12.2020
5086 Clouds 7 1019 81 10000 2.1 280 18:39 02.12.2020
5087 Clouds 8 1020 81 10000 3.1 290 17:47 02.12.2020
5088 Clouds 8 1020 81 10000 3.1 290 17:28 02.12.2020
5089 Clouds 8 1020 81 10000 3.1 290 17:28 02.12.2020
5090 Clouds 9 1019 76 10000 4.6 310 15:37 02.12.2020
5091 Clouds 9 1020 76 10000 4.6 330 12:50 02.12.2020
5092 Clear 5 1021 93 10000 2.1 310 10:32 02.12.2020
5093 Clouds 4 1021 93 6000 1 0 09:32 02.12.2020
5094 Clouds 4 1021 93 10000 1 280 05:53 02.12.2020
5095 Clear 4 1022 86 10000 2.1 340 22:21 01.12.2020
5096 Clear 5 1022 93 10000 2.6 360 21:53 01.12.2020
5097 Clouds 7 1022 93 10000 3.1 360 19:36 01.12.2020
5098 Clouds 9 1021 93 10000 3.1 360 18:18 01.12.2020
5099 Clouds 10 1022 93 10000 2.1 350 16:37 01.12.2020
5100 Mist 9 1023 93 1500 2.27 300 13:54 01.12.2020
5101 Clouds 9 1024 81 10000 3.3 265 12:26 01.12.2020
5102 Clear 8 1024 81 10000 3.6 230 11:27 01.12.2020
5103 Clouds 6 1025 75 10000 2.6 230 10:39 01.12.2020
5104 Clouds 4 1025 86 10000 1.5 0 09:26 01.12.2020
5105 Clouds 3 1026 86 9000 1.5 250 07:19 01.12.2020
5106 Clouds 3 1027 64 9000 1.5 280 01:56 01.12.2020
5107 Clouds 3 1027 80 9000 1.5 250 00:57 01.12.2020
5108 Clear 3 1027 69 10000 1 50 23:22 30.11.2020
5109 Clear 4 1027 69 10000 2.1 10 22:45 30.11.2020
5110 Clear 4 1027 70 10000 2.1 10 22:26 30.11.2020
5111 Clear 4 1027 70 10000 2.1 20 21:55 30.11.2020
5112 Clear 4 1026 75 10000 3.1 360 19:45 30.11.2020
5113 Clear 6 1025 70 10000 2.1 360 18:40 30.11.2020
5114 Clear 6 1025 70 10000 2.1 360 18:20 30.11.2020
5115 Clear 9 1025 57 10000 3.6 360 17:24 30.11.2020
5116 Clear 10 1025 53 10000 3.1 360 16:43 30.11.2020
5117 Clear 10 1025 46 10000 2.6 50 14:47 30.11.2020
5118 Clear 8 1025 65 10000 3.6 30 13:54 30.11.2020
5119 Clear 6 1026 75 10000 2.6 50 12:34 30.11.2020
5120 Clear 5 1026 80 9000 4.1 40 11:58 30.11.2020
5121 Clear 3 1025 65 6000 4.1 40 10:30 30.11.2020
5122 Mist 2 1025 65 5000 2.6 40 09:51 30.11.2020
5123 Mist 1 1023 74 5000 3.1 40 07:26 30.11.2020
5124 Clear 4 1021 86 7000 3.6 40 01:19 30.11.2020
5125 Clear 6 1020 81 10000 2.6 20 22:19 29.11.2020
5126 Clear 6 1019 81 10000 3.1 30 21:42 29.11.2020
5127 Clear 6 1019 81 10000 3.1 30 21:24 29.11.2020
5128 Clear 12 1017 62 10000 3.6 360 17:48 29.11.2020
5129 Clear 15 1017 54 10000 2.1 10 16:29 29.11.2020
5130 Clear 13 1017 62 10000 1.5 40 13:24 29.11.2020
5131 Clear 11 1017 71 10000 3.1 30 11:49 29.11.2020
5132 Clear 9 1017 81 10000 2.1 40 10:53 29.11.2020
5133 Clear 5 1015 93 9000 1.5 30 08:39 29.11.2020
5134 Fog 6 1014 93 6000 1 40 06:33 29.11.2020
5135 Clear 10 1013 93 10000 1 0 23:54 28.11.2020
5136 Clear 11 1012 87 10000 1 70 22:56 28.11.2020
5137 Clear 12 1011 76 10000 2.6 60 20:49 28.11.2020
5138 Clear 12 1011 81 10000 2.1 70 19:50 28.11.2020
5139 Clear 13 1010 71 10000 2.6 80 19:23 28.11.2020
5140 Clear 13 1010 71 10000 2.1 70 18:44 28.11.2020
5141 Clear 15 1009 67 10000 3.1 70 17:48 28.11.2020
5142 Clouds 16 1008 63 10000 4.1 100 16:44 28.11.2020
5143 Clouds 18 1008 59 10000 5.1 90 14:56 28.11.2020
5144 Clear 15 1008 62 10000 4.6 80 13:18 28.11.2020
5145 Clear 11 1009 76 10000 3.6 80 10:46 28.11.2020
5146 Clear 10 1008 76 10000 3.6 80 06:42 28.11.2020
5147 Clear 10 1010 81 10000 3.6 70 03:32 28.11.2020
5148 Clear 11 1010 81 10000 4.6 90 01:50 28.11.2020
5149 Clear 11 1011 81 10000 4.1 100 22:56 27.11.2020
5150 Clear 12 1011 87 10000 3.1 100 21:33 27.11.2020
5151 Clear 12 1011 93 10000 1 70 20:31 27.11.2020
5152 Clear 11 1012 93 10000 1.5 0 19:25 27.11.2020
5153 Clear 13 1011 82 10000 2.1 70 18:44 27.11.2020
5154 Clear 17 1012 72 10000 4.1 120 14:47 27.11.2020
5155 Clear 16 1013 77 10000 5.7 130 13:26 27.11.2020
5156 Clear 15 1014 77 10000 5.7 120 12:47 27.11.2020
5157 Clear 13 1014 87 10000 3.1 110 11:47 27.11.2020
5158 Clear 11 1014 87 10000 4.1 100 10:50 27.11.2020
5159 Clear 10 1014 93 10000 3.6 100 09:57 27.11.2020
5160 Clouds 9 1020 100 10000 1.79 74 07:29 27.11.2020
5161 Clouds 11 1016 90 10000 3.1 108 22:28 26.11.2020
5162 Clear 12 1015 87 10000 3.6 100 21:56 26.11.2020
5163 Clear 12 1015 87 10000 3.6 100 20:59 26.11.2020
5164 Clear 11 1015 93 10000 1.86 84 18:59 26.11.2020
5165 Clear 13 1015 76 10000 1.5 80 17:52 26.11.2020
5166 Clear 17 1015 63 10000 3.1 110 14:57 26.11.2020
5167 Clear 16 1015 67 10000 4.1 100 13:41 26.11.2020
5168 Clear 14 1016 76 10000 4.6 140 12:42 26.11.2020
5169 Clear 13 1016 82 10000 3.1 100 11:36 26.11.2020
5170 Clear 11 1016 87 10000 2.6 90 10:33 26.11.2020
5171 Clouds 9 1015 100 9000 1.5 60 09:46 26.11.2020
5172 Clouds 7 1015 100 9000 1.5 60 09:27 26.11.2020
5173 Clouds 7 1015 100 8000 1.5 70 08:38 26.11.2020
5174 Clear 7 1015 100 10000 2.1 100 04:42 26.11.2020
5175 Clear 8 1014 100 7000 1.5 80 22:42 25.11.2020
5176 Fog 9 1014 87 5000 2.65 108 20:42 25.11.2020
5177 Clear 9 1014 93 9000 0.5 130 19:44 25.11.2020
5178 Clear 11 1014 81 10000 1.5 110 18:27 25.11.2020
5179 Clear 16 1013 63 10000 2.1 110 16:34 25.11.2020
5180 Clear 16 1013 59 10000 2.1 140 15:36 25.11.2020
5181 Clear 16 1014 59 10000 3.1 160 13:56 25.11.2020
5182 Clear 16 1014 62 10000 4.1 160 13:37 25.11.2020
5183 Clear 13 1015 71 10000 5.7 150 11:44 25.11.2020
5184 Clear 12 1015 81 10000 5.1 150 11:18 25.11.2020
5185 Clear 7 1015 93 6000 5.1 140 09:18 25.11.2020
5186 Mist 7 1015 93 5000 3.1 150 08:40 25.11.2020
5187 Clouds 7 1015 100 7000 3.6 130 03:58 25.11.2020
5188 Clear 7 1016 93 10000 3.6 130 01:51 25.11.2020
5189 Clouds 8 1016 87 10000 3.6 140 00:22 25.11.2020
5190 Clouds 8 1016 87 10000 3.6 140 00:22 25.11.2020
5191 Clouds 9 1017 87 10000 3.1 150 23:36 24.11.2020
5192 Clouds 9 1017 87 10000 3.6 150 22:57 24.11.2020
5193 Clouds 9 1017 87 10000 4.1 150 21:51 24.11.2020
5194 Clouds 9 1017 87 10000 3.6 160 21:28 24.11.2020
5195 Clouds 9 1017 81 10000 3.6 160 20:19 24.11.2020
5196 Clouds 10 1017 76 10000 3.1 150 18:39 24.11.2020
5197 Clear 12 1017 71 10000 3.6 140 17:30 24.11.2020
5198 Clear 12 1017 66 10000 3.1 140 16:38 24.11.2020
5199 Clear 13 1017 62 10000 3.6 150 15:58 24.11.2020
5200 Clear 13 1018 62 10000 4.1 150 15:40 24.11.2020
5201 Clear 13 1018 66 10000 2.6 130 15:18 24.11.2020
5202 Clear 13 1018 66 10000 3.6 140 14:33 24.11.2020
5203 Clear 10 1020 76 10000 3.1 130 12:44 24.11.2020
5204 Clear 10 1020 76 10000 3.1 130 12:21 24.11.2020
5205 Clouds 9 1021 81 9000 2.6 120 11:37 24.11.2020
5206 Clouds 7 1021 87 6000 2.6 130 10:30 24.11.2020
5207 Mist 5 1021 100 5000 2.6 100 09:53 24.11.2020
5208 Mist 4 1021 93 4200 2.1 110 09:34 24.11.2020
5209 Mist 4 1022 93 4700 2.1 100 06:50 24.11.2020
5210 Mist 4 1024 100 3400 1.5 100 04:18 24.11.2020
5211 Mist 4 1027 93 5000 1.59 91 22:27 23.11.2020
5212 Clouds 5 1027 93 8000 1.59 91 21:34 23.11.2020
5213 Fog 5 1027 93 6000 1.48 90 20:50 23.11.2020
5214 Clouds 6 1028 87 7000 1.4 82 20:19 23.11.2020
5215 Clear 10 1028 62 10000 1.5 40 17:59 23.11.2020
5216 Clear 12 1028 58 10000 2.1 50 17:21 23.11.2020
5217 Clear 15 1028 54 10000 1.5 0 16:19 23.11.2020
5218 Clear 14 1028 54 10000 1 0 14:46 23.11.2020
5219 Clear 15 1028 50 10000 1.5 50 14:46 23.11.2020
5220 Clear 12 1029 58 10000 1 0 12:55 23.11.2020
5221 Clear 11 1030 66 10000 1 0 12:34 23.11.2020
5222 Clear 10 1030 70 10000 1 0 11:44 23.11.2020
5223 Clear 7 1030 81 9000 1 0 10:47 23.11.2020
5224 Mist 3 1029 100 5000 1.5 140 09:31 23.11.2020
5225 Mist 1 1029 100 5000 0.67 78 08:39 23.11.2020
5226 Mist 1 1029 70 5000 0.75 100 07:19 23.11.2020
5227 Clear 3 1029 93 6000 1.5 240 00:25 23.11.2020
5228 Clear 3 1029 100 7000 0.91 47 23:18 22.11.2020
5229 Clear 4 1028 93 6000 1 0 21:40 22.11.2020
5230 Clear 5 1028 93 7000 1.5 0 20:51 22.11.2020
5231 Clear 6 1028 81 10000 1.21 51 19:52 22.11.2020
5232 Clear 8 1027 76 10000 1.5 50 18:40 22.11.2020
5233 Clear 8 1027 76 10000 1.5 50 18:40 22.11.2020
5234 Clear 13 1027 50 10000 1.5 60 16:51 22.11.2020
5235 Clear 14 1027 47 10000 1.5 80 15:33 22.11.2020
5236 Clear 13 1027 50 10000 3.1 110 14:28 22.11.2020
5237 Clear 11 1028 57 10000 3.1 140 12:49 22.11.2020
5238 Clear 9 1028 66 10000 4.1 100 11:56 22.11.2020
5239 Clear 7 1029 81 10000 2.6 90 11:20 22.11.2020
5240 Clear 6 1029 86 10000 2.6 90 10:39 22.11.2020
5241 Mist 1 1029 100 3000 2.3 88 08:51 22.11.2020
5242 Clear 2 1028 93 6000 1 130 01:47 22.11.2020
5243 Clear 3 1029 93 7000 1.61 97 23:21 21.11.2020
5244 Clear 5 1030 86 10000 1 0 21:47 21.11.2020
5245 Clear 4 1030 86 10000 0.5 40 21:18 21.11.2020
5246 Clear 5 1030 86 10000 1 320 20:33 21.11.2020
5247 Clear 5 1030 86 10000 1.8 74 19:52 21.11.2020
5248 Clear 6 1030 81 10000 1 40 19:26 21.11.2020
5249 Clear 9 1030 66 10000 2.1 70 17:57 21.11.2020
5250 Clear 11 1030 53 10000 2.1 40 16:48 21.11.2020
5251 Clear 12 1030 53 10000 2.6 20 15:51 21.11.2020
5252 Clear 12 1030 53 10000 2.6 20 15:21 21.11.2020
5253 Clear 12 1031 53 10000 2.1 20 14:42 21.11.2020
5254 Clear 11 1031 57 10000 2.1 80 13:41 21.11.2020
5255 Clear 10 1032 66 10000 2.1 90 12:24 21.11.2020
5256 Clear 9 1033 75 10000 1.5 70 11:54 21.11.2020
5257 Clear 6 1033 86 10000 1 30 10:37 21.11.2020
5258 Clear 3 1033 100 7000 1.5 0 09:22 21.11.2020
5259 Mist 2 1033 100 5000 1 0 08:50 21.11.2020
5260 Mist 3 1034 93 4800 2.1 30 05:43 21.11.2020
5261 Clear 2 1034 93 7000 1 320 04:23 21.11.2020
5262 Clouds 4 1035 93 6000 0.5 360 00:23 21.11.2020
5263 Clear 5 1035 93 10000 1.5 60 23:21 20.11.2020
5264 Clear 6 1035 87 10000 1.5 20 21:46 20.11.2020
5265 Clear 6 1035 87 10000 1.5 20 21:26 20.11.2020
5266 Clear 6 1036 75 10000 1.5 30 20:42 20.11.2020
5267 Clear 7 1036 70 10000 2.1 30 19:33 20.11.2020
5268 Clear 9 1036 61 10000 2.1 40 18:27 20.11.2020
5269 Clouds 11 1035 53 10000 3.1 30 17:32 20.11.2020
5270 Clouds 12 1035 54 10000 3.1 40 16:48 20.11.2020
5271 Clouds 12 1035 54 10000 3.1 40 16:27 20.11.2020
5272 Clouds 12 1036 50 10000 3.1 20 15:42 20.11.2020
5273 Clouds 12 1037 62 10000 3.6 10 13:57 20.11.2020
5274 Clouds 12 1037 62 10000 3.1 10 13:20 20.11.2020
5275 Clouds 12 1037 62 10000 3.6 360 12:58 20.11.2020
5276 Clear 12 1038 62 10000 1.5 0 11:55 20.11.2020
5277 Clear 11 1038 66 10000 0.5 0 11:26 20.11.2020
5278 Clear 6 1037 93 10000 1.79 358 09:52 20.11.2020
5279 Clouds 3 1037 100 10000 1.57 18 08:30 20.11.2020
5280 Clouds 4 1037 100 10000 1.57 18 07:49 20.11.2020
5281 Fog 5 1037 93 10000 0.5 0 05:18 20.11.2020
5282 Clouds 7 1038 93 10000 1 330 23:38 19.11.2020
5283 Clouds 9 1037 93 10000 1 0 22:30 19.11.2020
5284 Clouds 9 1037 93 10000 1.5 230 21:52 19.11.2020
5285 Clouds 9 1037 81 10000 1 240 20:53 19.11.2020
5286 Clouds 9 1037 87 10000 0.5 0 20:19 19.11.2020
5287 Clouds 10 1037 81 10000 1.5 220 19:26 19.11.2020
5288 Clouds 12 1037 71 10000 1.5 310 18:35 19.11.2020
5289 Clouds 13 1036 58 10000 3.1 310 17:18 19.11.2020
5290 Clouds 14 1036 62 10000 5.7 340 16:25 19.11.2020
5291 Clouds 15 1036 62 10000 5.1 330 15:28 19.11.2020
5292 Clouds 14 1035 62 10000 3.1 360 13:49 19.11.2020
5293 Clouds 14 1035 62 10000 3.1 330 13:27 19.11.2020
5294 Clouds 15 1035 62 10000 4.6 340 12:51 19.11.2020
5295 Clouds 15 1035 62 10000 3.1 330 12:25 19.11.2020
5296 Clouds 14 1035 66 10000 3.6 20 11:40 19.11.2020
5297 Clouds 14 1035 66 10000 3.6 20 11:40 19.11.2020
5298 Clouds 13 1035 66 10000 3.6 20 11:20 19.11.2020
5299 Clouds 12 1035 71 10000 3.6 10 10:29 19.11.2020
5300 Clear 12 1034 76 10000 1.5 10 09:45 19.11.2020
5301 Clouds 11 1034 81 10000 2.1 10 09:26 19.11.2020
5302 Clouds 11 1033 87 10000 2.6 360 08:20 19.11.2020
5303 Clouds 12 1032 87 10000 5.7 360 06:49 19.11.2020
5304 Clear 12 1028 100 10000 2.6 220 01:46 19.11.2020
5305 Clear 12 1028 93 10000 1.5 240 00:29 19.11.2020
5306 Clouds 12 1028 100 6000 2.1 230 23:25 18.11.2020
5307 Fog 12 1027 100 4100 2.1 240 22:36 18.11.2020
5308 Fog 12 1027 93 4700 1 240 22:18 18.11.2020
5309 Clouds 12 1027 93 9000 1 210 21:39 18.11.2020
5310 Clouds 12 1026 93 10000 1.5 220 21:20 18.11.2020
5311 Clouds 14 1026 93 10000 2.1 240 19:49 18.11.2020
5312 Clouds 14 1026 87 10000 2.1 240 19:27 18.11.2020
5313 Clear 16 1026 87 10000 2.6 230 18:55 18.11.2020
5314 Clear 16 1025 82 10000 2.1 220 18:37 18.11.2020
5315 Clouds 19 1025 77 10000 2.1 220 17:37 18.11.2020
5316 Clouds 20 1024 68 10000 3.1 250 16:24 18.11.2020
5317 Clear 21 1024 60 10000 3.1 280 15:47 18.11.2020
5318 Clear 21 1024 60 10000 3.1 250 14:41 18.11.2020
5319 Clear 20 1024 59 10000 4.6 240 13:43 18.11.2020
5320 Clear 19 1024 59 10000 4.6 240 13:20 18.11.2020
5321 Clear 18 1024 63 10000 2.6 200 12:30 18.11.2020
5322 Clear 15 1024 67 10000 3.1 170 11:34 18.11.2020
5323 Clear 12 1024 71 10000 3.1 140 10:31 18.11.2020
5324 Clear 10 1023 76 10000 3.6 140 09:52 18.11.2020
5325 Clear 8 1022 81 10000 3.1 140 07:45 18.11.2020
5326 Clear 9 1022 76 10000 4.1 130 06:33 18.11.2020
5327 Clear 9 1024 87 10000 3.1 110 00:25 18.11.2020
5328 Clear 9 1024 87 10000 2.1 100 23:34 17.11.2020
5329 Clear 10 1024 87 10000 2.6 100 22:46 17.11.2020
5330 Clear 10 1024 87 10000 2.6 100 22:28 17.11.2020
5331 Clear 10 1024 81 10000 2.1 110 21:50 17.11.2020
5332 Clear 11 1024 87 10000 2.6 110 21:30 17.11.2020
5333 Clear 10 1025 87 10000 2.6 90 20:44 17.11.2020
5334 Clear 10 1025 87 10000 2.6 90 20:24 17.11.2020
5335 Clear 10 1025 87 10000 1.5 100 19:50 17.11.2020
5336 Clear 12 1025 76 10000 1.5 80 18:24 17.11.2020
5337 Clear 14 1025 67 10000 3.6 120 17:33 17.11.2020
5338 Clear 16 1025 63 10000 5.1 120 16:49 17.11.2020
5339 Clear 16 1025 63 10000 5.1 120 16:18 17.11.2020
5340 Clear 16 1026 63 10000 3.6 110 15:38 17.11.2020
5341 Clear 16 1026 63 10000 5.1 120 15:20 17.11.2020
5342 Clear 16 1026 63 10000 4.6 120 14:41 17.11.2020
5343 Clear 16 1027 72 10000 4.1 130 13:54 17.11.2020
5344 Clear 15 1027 72 10000 4.1 130 13:27 17.11.2020
5345 Clear 15 1028 71 10000 4.1 120 12:42 17.11.2020
5346 Clear 12 1028 87 10000 2.6 100 11:45 17.11.2020
5347 Clear 12 1028 87 10000 2.6 100 11:26 17.11.2020
5348 Clear 10 1028 93 10000 3.1 100 10:39 17.11.2020
5349 Clear 8 1028 100 7000 1.5 70 09:56 17.11.2020
5350 Mist 7 1028 100 2700 1.5 50 09:36 17.11.2020
5351 Fog 6 1028 100 2400 1 70 08:26 17.11.2020
5352 Clouds 6 1027 100 6000 1.5 90 07:59 17.11.2020
5353 Fog 6 1027 100 2300 1 0 07:28 17.11.2020
5354 Fog 7 1027 100 6000 1.5 110 04:30 17.11.2020
5355 Mist 6 1027 100 5000 1 140 03:22 17.11.2020
5356 Mist 6 1027 100 5000 1 140 03:22 17.11.2020
5357 Clouds 6 1028 100 6000 1 120 02:28 17.11.2020
5358 Clouds 7 1028 100 7000 1.08 142 00:56 17.11.2020
5359 Mist 7 1028 100 5000 0.5 150 23:53 16.11.2020
5360 Mist 7 1028 100 4900 1.16 199 23:30 16.11.2020
5361 Mist 8 1028 100 5000 1 190 22:48 16.11.2020
5362 Clouds 9 1028 93 6000 1 150 22:22 16.11.2020
5363 Clouds 9 1028 100 6000 1.11 196 21:50 16.11.2020
5364 Fog 9 1028 100 6000 1.1 201 21:27 16.11.2020
5365 Clouds 9 1028 93 7000 1.1 201 20:59 16.11.2020
5366 Clouds 10 1028 93 8000 0.5 0 20:25 16.11.2020
5367 Clouds 10 1027 93 10000 1 220 19:45 16.11.2020
5368 Clouds 10 1027 93 10000 1 220 19:27 16.11.2020
5369 Clear 11 1027 87 10000 1 240 18:47 16.11.2020
5370 Clear 13 1026 76 10000 1 230 17:54 16.11.2020
5371 Clouds 14 1026 76 10000 1.5 240 17:25 16.11.2020
5372 Clouds 14 1026 76 10000 2.6 250 16:57 16.11.2020
5373 Clear 14 1026 71 10000 2.6 290 16:38 16.11.2020
5374 Clear 15 1026 67 10000 3.1 310 16:18 16.11.2020
5375 Clouds 15 1026 76 10000 2.6 320 15:41 16.11.2020
5376 Clouds 15 1026 76 10000 2.6 320 15:21 16.11.2020
5377 Clouds 17 1026 63 10000 4.1 250 14:39 16.11.2020
5378 Clear 15 1026 72 10000 2.6 270 13:34 16.11.2020
5379 Clouds 15 1026 76 10000 1.5 270 12:34 16.11.2020
5380 Clouds 14 1026 87 10000 3.1 210 11:54 16.11.2020
5381 Clouds 14 1025 87 10000 2.6 240 11:36 16.11.2020
5382 Clouds 14 1025 87 10000 2.6 240 11:18 16.11.2020
5383 Clouds 12 1025 93 10000 3.1 220 10:39 16.11.2020
5384 Clouds 11 1025 93 10000 2.6 210 10:20 16.11.2020
5385 Clouds 10 1025 93 10000 1.5 230 09:41 16.11.2020
5386 Clouds 9 1024 93 10000 1.5 210 08:53 16.11.2020
5387 Clear 9 1024 93 10000 2.1 220 08:34 16.11.2020
5388 Clouds 10 1023 93 10000 1.5 0 07:43 16.11.2020
5389 Clear 10 1023 93 10000 2.6 220 06:47 16.11.2020
5390 Clouds 9 1022 93 10000 1.5 220 05:53 16.11.2020
5391 Clouds 8 1022 100 10000 1.5 210 04:36 16.11.2020
5392 Clouds 10 1021 93 10000 3.1 230 01:48 16.11.2020
5393 Clouds 11 1020 87 10000 2.6 240 01:21 16.11.2020
5394 Clouds 11 1020 93 10000 3.1 220 23:48 15.11.2020
5395 Clouds 12 1019 87 10000 2.6 220 23:21 15.11.2020
5396 Clear 13 1018 93 10000 3.1 240 22:40 15.11.2020
5397 Clouds 13 1018 93 10000 3.1 230 22:18 15.11.2020
5398 Clouds 13 1017 93 10000 4.6 230 21:43 15.11.2020
5399 Clouds 13 1017 93 10000 4.6 230 21:22 15.11.2020
5400 Clouds 13 1017 93 10000 4.6 230 20:41 15.11.2020
5401 Clouds 13 1017 93 10000 4.6 230 20:18 15.11.2020
5402 Clouds 13 1016 93 10000 3.1 250 19:47 15.11.2020
5403 Rain 13 1016 93 10000 3.1 250 19:22 15.11.2020
5404 Rain 14 1015 93 6000 3.1 290 18:56 15.11.2020
5405 Rain 14 1015 93 6000 2.6 240 18:37 15.11.2020
5406 Rain 14 1015 93 6000 2.6 240 18:19 15.11.2020
5407 Rain 14 1014 93 5000 3.6 230 17:43 15.11.2020
5408 Rain 14 1014 93 5000 3.6 230 17:23 15.11.2020
5409 Rain 14 1014 93 10000 5.7 250 16:45 15.11.2020
5410 Rain 14 1014 93 10000 5.7 250 16:20 15.11.2020
5411 Clouds 15 1013 93 6000 7.2 300 15:49 15.11.2020
5412 Rain 15 1013 93 6000 7.2 300 15:26 15.11.2020
5413 Clouds 17 1013 88 10000 6.7 270 14:55 15.11.2020
5414 Clouds 18 1012 77 10000 5.7 250 14:28 15.11.2020
5415 Clouds 18 1012 72 10000 5.1 260 13:53 15.11.2020
5416 Clouds 18 1012 68 10000 3.6 200 13:35 15.11.2020
5417 Clear 18 1012 63 10000 3.6 200 12:50 15.11.2020
5418 Clouds 17 1011 67 10000 6.7 180 12:20 15.11.2020
5419 Clear 17 1012 72 10000 5.1 180 11:45 15.11.2020
5420 Clear 16 1012 72 10000 4.6 180 11:19 15.11.2020
5421 Clear 16 1012 72 10000 4.6 180 10:53 15.11.2020
5422 Clear 15 1012 72 10000 6.2 170 10:31 15.11.2020
5423 Clear 14 1012 76 10000 6.7 160 09:56 15.11.2020
5424 Clear 14 1012 76 10000 6.2 160 09:37 15.11.2020
5425 Clear 14 1012 76 10000 6.2 160 09:18 15.11.2020
5426 Clear 12 1012 87 10000 5.1 160 08:43 15.11.2020
5427 Clear 12 1012 87 10000 4.6 160 07:47 15.11.2020
5428 Clear 12 1012 82 10000 5.1 150 06:49 15.11.2020
5429 Clear 12 1013 82 10000 3.1 170 04:56 15.11.2020
5430 Clear 12 1014 87 10000 4.6 160 02:27 15.11.2020
5431 Clear 12 1015 82 10000 4.1 160 00:36 15.11.2020
5432 Clear 12 1016 82 10000 4.1 160 00:18 15.11.2020
5433 Clear 13 1016 76 10000 4.1 170 23:20 14.11.2020
5434 Clear 13 1016 82 10000 4.1 160 22:45 14.11.2020
5435 Clear 13 1016 82 10000 4.1 160 22:20 14.11.2020
5436 Clear 13 1016 82 10000 3.6 160 21:39 14.11.2020
5437 Clear 13 1016 82 10000 3.6 160 21:21 14.11.2020
5438 Clear 14 1016 77 10000 4.1 160 20:48 14.11.2020
5439 Clear 14 1016 82 10000 3.6 160 20:24 14.11.2020
5440 Clear 14 1016 77 10000 3.1 150 19:39 14.11.2020
5441 Clear 14 1016 77 10000 3.1 150 19:19 14.11.2020
5442 Clear 15 1015 72 10000 2.6 160 18:41 14.11.2020
5443 Clear 16 1015 72 10000 2.6 160 18:22 14.11.2020
5444 Clear 17 1015 63 10000 2.6 150 17:45 14.11.2020
5445 Clear 17 1015 63 10000 2.6 150 17:45 14.11.2020
5446 Clear 17 1015 63 10000 2.6 150 17:27 14.11.2020
5447 Clear 19 1015 59 10000 2.1 180 16:52 14.11.2020
5448 Clear 20 1015 55 10000 3.6 200 16:33 14.11.2020
5449 Clear 20 1015 55 10000 5.1 190 15:55 14.11.2020
5450 Clear 20 1016 59 10000 3.1 190 15:32 14.11.2020
5451 Clear 19 1016 55 10000 4.1 180 14:57 14.11.2020
5452 Clear 20 1016 55 10000 4.1 170 14:30 14.11.2020
5453 Clear 18 1016 59 10000 3.6 180 13:53 14.11.2020
5454 Clear 18 1016 68 10000 3.6 170 13:30 14.11.2020
5455 Clear 19 1016 68 10000 3.6 160 12:56 14.11.2020
5456 Clear 17 1016 77 10000 4.1 150 12:35 14.11.2020
5457 Clear 16 1017 77 10000 4.6 140 11:56 14.11.2020
5458 Clear 16 1017 82 10000 4.6 140 11:38 14.11.2020
5459 Clear 15 1017 87 10000 5.1 150 10:59 14.11.2020
5460 Clear 14 1017 87 10000 5.7 150 10:38 14.11.2020
5461 Clear 13 1017 87 10000 5.7 150 10:20 14.11.2020
5462 Clear 12 1017 93 10000 5.7 140 09:45 14.11.2020
5463 Clear 12 1017 93 10000 5.7 140 09:26 14.11.2020
5464 Clear 10 1017 100 9000 3.6 140 08:41 14.11.2020
5465 Clouds 10 1017 100 8000 3.6 140 08:21 14.11.2020
5466 Clouds 10 1017 93 8000 3.1 160 07:41 14.11.2020
5467 Clouds 11 1017 93 7000 4.6 130 06:51 14.11.2020
5468 Clear 11 1017 100 10000 4.6 140 06:20 14.11.2020
5469 Clear 11 1017 100 10000 4.1 140 04:53 14.11.2020
5470 Clear 11 1018 93 10000 2.6 140 01:48 14.11.2020
5471 Clear 11 1019 93 10000 2.6 140 00:25 14.11.2020
5472 Clouds 11 1019 93 9000 2.1 150 23:35 13.11.2020
5473 Mist 11 1019 100 5000 2.6 150 22:58 13.11.2020
5474 Fog 11 1019 100 1400 2.1 140 22:40 13.11.2020
5475 Fog 12 1019 100 1400 2.1 140 22:21 13.11.2020
5476 Fog 11 1019 93 1300 2.6 120 21:49 13.11.2020
5477 Fog 11 1019 93 2300 1.5 130 21:25 13.11.2020
5478 Fog 11 1019 93 350 0.5 0 20:51 13.11.2020
5479 Fog 12 1019 93 3500 0.5 0 20:32 13.11.2020
5480 Fog 13 1019 100 6000 1.5 210 19:55 13.11.2020
5481 Clear 13 1019 93 10000 2.1 220 19:36 13.11.2020
5482 Clear 13 1019 93 10000 2.1 220 19:36 13.11.2020
5483 Clear 13 1019 93 10000 2.1 220 19:18 13.11.2020
5484 Clear 15 1019 87 10000 2.1 230 18:32 13.11.2020
5485 Clouds 18 1018 77 10000 3.1 260 17:44 13.11.2020
5486 Clouds 18 1018 72 10000 2.1 210 17:21 13.11.2020
5487 Clouds 18 1018 72 10000 2.1 210 16:51 13.11.2020
5488 Clouds 19 1018 72 10000 3.1 190 16:25 13.11.2020
5489 Clouds 19 1018 72 10000 3.1 190 16:25 13.11.2020
5490 Clouds 19 1018 72 10000 3.1 190 16:25 13.11.2020
5491 Clouds 20 1018 68 10000 3.1 190 15:59 13.11.2020
5492 Clouds 19 1018 72 10000 2.1 190 15:39 13.11.2020
5493 Clouds 19 1018 72 10000 2.1 190 15:20 13.11.2020
5494 Clouds 19 1018 72 10000 3.1 210 14:37 13.11.2020
5495 Clouds 18 1019 72 10000 3.6 190 14:18 13.11.2020
5496 Clouds 18 1019 67 10000 4.1 200 13:31 13.11.2020
5497 Clear 17 1019 72 10000 3.6 170 12:55 13.11.2020
5498 Clear 16 1019 77 10000 3.6 150 12:37 13.11.2020
5499 Clear 14 1019 87 10000 3.6 140 12:18 13.11.2020
5500 Clear 14 1019 87 10000 3.6 140 11:45 13.11.2020
5501 Clear 13 1019 87 10000 3.6 140 11:20 13.11.2020
5502 Clear 12 1019 87 10000 2.6 150 10:41 13.11.2020
5503 Clear 12 1019 93 10000 4.1 150 10:23 13.11.2020
5504 Clear 11 1019 93 10000 4.1 150 09:47 13.11.2020
5505 Clear 11 1019 93 10000 3.1 140 09:27 13.11.2020
5506 Clear 10 1019 93 10000 2.1 120 08:53 13.11.2020
5507 Clear 10 1018 93 10000 2.1 110 08:23 13.11.2020
5508 Clear 10 1018 100 10000 1.5 100 07:49 13.11.2020
5509 Clear 10 1018 100 10000 1.5 100 07:27 13.11.2020
5510 Clear 10 1018 100 10000 1.5 90 06:55 13.11.2020
5511 Clear 10 1018 93 10000 1.5 100 06:34 13.11.2020
5512 Clear 10 1018 93 10000 1.5 100 06:34 13.11.2020
5513 Clear 11 1017 87 10000 1.5 130 05:40 13.11.2020
5514 Clear 12 1018 87 10000 4.1 140 02:57 13.11.2020
5515 Clear 11 1018 87 10000 4.1 140 01:39 13.11.2020
5516 Clear 11 1019 87 10000 4.1 150 00:35 13.11.2020
5517 Clear 11 1019 87 10000 2.6 130 23:47 12.11.2020
5518 Clear 11 1019 87 10000 2.6 130 23:21 12.11.2020
5519 Clear 11 1019 93 10000 2.6 130 22:54 12.11.2020
5520 Clear 11 1019 93 10000 2.6 130 22:36 12.11.2020
5521 Clear 12 1019 87 10000 1.5 130 21:57 12.11.2020
5522 Clear 12 1019 87 10000 2.1 110 21:38 12.11.2020
5523 Clear 11 1019 87 10000 2.1 110 21:18 12.11.2020
5524 Clear 12 1020 87 10000 1.5 90 20:40 12.11.2020
5525 Clear 12 1020 87 10000 1.5 90 20:22 12.11.2020
5526 Clear 13 1020 82 10000 2.1 100 19:52 12.11.2020
5527 Clear 13 1020 82 10000 2.1 100 19:33 12.11.2020
5528 Clear 14 1020 77 10000 1.5 110 18:56 12.11.2020
5529 Clear 14 1020 77 10000 1.5 110 18:56 12.11.2020
5530 Clear 15 1020 72 10000 2.6 120 18:37 12.11.2020
5531 Clear 16 1020 67 10000 2.6 120 18:18 12.11.2020
5532 Clear 18 1020 59 10000 3.1 130 17:39 12.11.2020
5533 Clear 19 1020 55 10000 3.6 120 17:20 12.11.2020
5534 Clear 20 1020 52 10000 3.6 120 16:44 12.11.2020
5535 Clear 20 1020 52 10000 3.6 120 16:23 12.11.2020
5536 Clear 20 1020 52 10000 3.1 90 15:46 12.11.2020
5537 Clear 20 1020 52 10000 2.6 80 15:26 12.11.2020
5538 Clear 19 1021 59 10000 1 0 14:47 12.11.2020
5539 Clear 19 1021 59 10000 1 0 14:47 12.11.2020
5540 Clear 19 1021 59 10000 1 0 14:27 12.11.2020
5541 Clear 19 1021 59 10000 1 0 14:27 12.11.2020
5542 Clear 20 1021 56 10000 1.5 0 13:57 12.11.2020
5543 Clear 19 1021 59 10000 1.76 121 13:37 12.11.2020
5544 Clear 20 1022 63 10000 0.5 0 13:18 12.11.2020
5545 Clear 19 1022 72 10000 1 0 12:44 12.11.2020
5546 Clear 17 1022 72 10000 1 0 12:23 12.11.2020
5547 Clear 17 1023 82 10000 1 0 11:52 12.11.2020
5548 Clear 16 1023 77 10000 1.21 170 11:30 12.11.2020
5549 Clear 16 1023 77 10000 1.21 170 11:30 12.11.2020
5550 Clear 15 1022 87 10000 0.5 0 10:45 12.11.2020
5551 Clear 14 1022 87 10000 0.5 0 10:27 12.11.2020
5552 Clouds 13 1022 87 10000 1 0 09:49 12.11.2020
5553 Clouds 12 1022 93 10000 1.5 190 09:24 12.11.2020
5554 Clear 12 1022 87 10000 1.5 170 08:58 12.11.2020
5555 Clear 12 1021 93 10000 1.5 120 08:39 12.11.2020
5556 Clear 12 1021 87 10000 1.5 130 08:20 12.11.2020
5557 Clear 12 1021 93 10000 1.5 120 08:20 12.11.2020
5558 Clear 12 1021 87 10000 1.5 130 07:52 12.11.2020
5559 Clear 12 1021 87 10000 1.5 190 07:25 12.11.2020
5560 Clear 12 1021 87 10000 1.5 180 06:51 12.11.2020
5561 Clear 12 1020 93 10000 1.05 179 05:45 12.11.2020
5562 Clear 12 1021 87 10000 1 0 03:43 12.11.2020
5563 Clear 12 1021 87 10000 1 200 03:18 12.11.2020
5564 Clear 12 1020 87 10000 1 180 00:23 12.11.2020
5565 Clear 12 1020 82 10000 2.6 170 23:26 11.11.2020
5566 Clear 13 1020 82 10000 2.6 190 22:59 11.11.2020
5567 Clear 13 1019 87 10000 3.6 150 22:41 11.11.2020
5568 Clear 13 1019 87 10000 3.6 150 22:21 11.11.2020
5569 Clear 13 1020 87 10000 1.5 170 21:56 11.11.2020
5570 Clear 13 1020 87 10000 1.5 170 21:36 11.11.2020
5571 Clear 13 1020 87 10000 1.5 170 21:18 11.11.2020
5572 Clear 13 1020 82 10000 2.6 170 20:41 11.11.2020
5573 Clear 13 1020 82 10000 2.6 170 20:21 11.11.2020
5574 Clear 14 1020 77 10000 2.6 170 19:50 11.11.2020
5575 Clear 14 1020 72 10000 2.6 170 19:32 11.11.2020
5576 Clear 14 1019 72 10000 2.6 160 18:55 11.11.2020
5577 Clear 15 1019 67 10000 2.6 160 18:36 11.11.2020
5578 Clear 17 1019 59 10000 2.6 160 17:45 11.11.2020
5579 Clear 17 1019 59 10000 2.6 160 17:24 11.11.2020
5580 Clear 18 1019 55 10000 3.1 160 16:57 11.11.2020
5581 Clear 19 1019 55 10000 3.6 170 16:37 11.11.2020
5582 Clear 19 1019 52 10000 4.6 170 15:56 11.11.2020
5583 Clear 19 1019 59 10000 4.1 150 15:37 11.11.2020
5584 Clear 20 1020 59 10000 4.1 130 15:18 11.11.2020
5585 Clear 19 1020 63 10000 4.6 130 14:43 11.11.2020
5586 Clear 19 1020 63 10000 4.6 130 14:23 11.11.2020
5587 Clear 18 1021 67 10000 4.1 150 13:43 11.11.2020
5588 Clear 17 1021 72 10000 3.6 140 12:55 11.11.2020
5589 Clear 16 1022 82 10000 5.1 140 12:21 11.11.2020
5590 Clear 15 1022 82 10000 4.6 130 11:51 11.11.2020
5591 Clear 14 1023 87 10000 5.1 130 11:33 11.11.2020
5592 Clear 12 1023 93 10000 3.6 120 10:45 11.11.2020
5593 Clear 11 1023 93 10000 3.6 120 10:27 11.11.2020
5594 Clear 10 1024 100 10000 3.6 130 09:55 11.11.2020
5595 Clouds 10 1024 100 10000 2.6 110 09:37 11.11.2020
5596 Clouds 9 1024 100 10000 2.6 110 09:19 11.11.2020
5597 Mist 8 1024 100 2000 2.6 100 08:41 11.11.2020
5598 Mist 8 1024 100 2000 2.6 100 08:22 11.11.2020
5599 Fog 7 1024 100 1400 1.5 120 07:41 11.11.2020
5600 Fog 8 1025 100 650 2.1 100 06:30 11.11.2020
5601 Fog 8 1025 100 400 1 100 04:49 11.11.2020
5602 Fog 8 1027 93 900 1 150 01:37 11.11.2020
5603 Fog 8 1027 93 650 1.5 110 00:56 11.11.2020
5604 Fog 8 1028 100 550 1.67 112 00:22 11.11.2020
5605 Fog 9 1028 93 650 1.67 112 23:36 10.11.2020
5606 Fog 9 1028 100 1100 1.24 100 23:18 10.11.2020
5607 Fog 10 1028 93 2600 1.24 100 22:43 10.11.2020
5608 Fog 10 1028 93 2600 0.77 64 22:20 10.11.2020
5609 Fog 10 1028 100 2200 0.77 64 21:40 10.11.2020
5610 Fog 10 1028 100 2200 0.76 34 21:22 10.11.2020
5611 Clear 11 1028 87 10000 0.76 34 20:44 10.11.2020
5612 Clear 11 1028 87 10000 1.31 332 20:24 10.11.2020
5613 Clear 11 1028 93 10000 1 0 19:58 10.11.2020
5614 Clear 12 1028 93 10000 1 230 19:39 10.11.2020
5615 Clear 12 1028 93 10000 1 230 19:21 10.11.2020
5616 Clear 14 1028 82 10000 2.1 270 18:42 10.11.2020
5617 Clear 14 1028 82 10000 2.1 270 18:21 10.11.2020
5618 Clear 16 1027 72 10000 2.6 270 17:47 10.11.2020
5619 Clear 16 1027 72 10000 2.6 270 17:28 10.11.2020
5620 Clear 17 1027 67 10000 3.1 280 16:58 10.11.2020
5621 Clouds 17 1027 63 10000 3.6 280 16:40 10.11.2020
5622 Clouds 18 1027 63 10000 3.6 280 16:22 10.11.2020
5623 Clouds 19 1027 63 10000 3.1 260 15:48 10.11.2020
5624 Clouds 18 1027 67 10000 4.1 270 15:27 10.11.2020
5625 Clouds 18 1027 68 10000 4.6 270 14:47 10.11.2020
5626 Clouds 18 1027 77 10000 3.1 270 14:24 10.11.2020
5627 Clouds 17 1027 82 10000 3.1 280 14:00 10.11.2020
5628 Clouds 17 1027 72 10000 3.6 240 13:38 10.11.2020
5629 Rain 17 1028 77 10000 3.6 260 13:19 10.11.2020
5630 Clouds 16 1028 87 10000 2.1 190 12:45 10.11.2020
5631 Clouds 16 1028 87 10000 2.1 190 12:24 10.11.2020
5632 Clouds 16 1028 87 10000 2.1 190 12:24 10.11.2020
5633 Clear 14 1027 93 10000 1.5 170 11:43 10.11.2020
5634 Clear 14 1027 93 10000 1.5 170 11:21 10.11.2020
5635 Clear 14 1027 93 10000 1.5 170 10:57 10.11.2020
5636 Clear 13 1027 100 10000 1 170 10:37 10.11.2020
5637 Clear 12 1027 100 10000 1.5 0 10:19 10.11.2020
5638 Clear 12 1027 93 10000 1.5 170 09:43 10.11.2020
5639 Clear 12 1027 93 10000 1.5 170 09:24 10.11.2020
5640 Clear 12 1027 93 10000 1.5 170 09:24 10.11.2020
5641 Rain 11 1027 100 9000 1 140 08:52 10.11.2020
5642 Clouds 10 1026 100 10000 1.27 203 08:26 10.11.2020
5643 Clear 9 1026 93 10000 0.5 190 07:44 10.11.2020
5644 Clear 9 1026 93 10000 0.5 190 07:44 10.11.2020
5645 Clear 9 1026 93 10000 0.5 190 07:22 10.11.2020
5646 Clear 9 1025 93 10000 1 230 06:40 10.11.2020
5647 Clear 9 1025 93 10000 1 270 05:42 10.11.2020
5648 Clear 9 1025 93 10000 1 250 04:54 10.11.2020
5649 Clear 9 1025 100 10000 1 300 02:29 10.11.2020
5650 Mist 10 1025 93 1900 1 260 01:30 10.11.2020
5651 Fog 10 1024 100 1800 1 270 23:54 09.11.2020
5652 Fog 11 1024 93 10000 1 270 23:33 09.11.2020
5653 Clear 11 1024 93 7000 1 0 22:47 09.11.2020
5654 Clear 11 1024 93 7000 1 200 22:24 09.11.2020
5655 Fog 10 1024 93 8000 1.15 251 21:46 09.11.2020
5656 Clear 11 1024 100 6000 0.5 0 21:46 09.11.2020
5657 Clear 11 1024 100 6000 0.5 0 21:27 09.11.2020
5658 Fog 12 1023 93 6000 1 0 20:58 09.11.2020
5659 Clear 12 1023 87 10000 1.15 227 20:37 09.11.2020
5660 Clear 12 1023 93 10000 1.29 187 20:18 09.11.2020
5661 Clear 13 1023 87 10000 1.29 187 19:40 09.11.2020
5662 Clear 14 1023 87 10000 1.45 172 19:21 09.11.2020
5663 Clear 16 1022 72 10000 0.5 0 18:41 09.11.2020
5664 Clear 16 1022 72 10000 0.5 0 18:41 09.11.2020
5665 Clouds 17 1022 68 10000 1 260 18:20 09.11.2020
5666 Clear 18 1022 68 10000 2.1 240 17:48 09.11.2020
5667 Clear 18 1022 68 10000 2.1 240 17:29 09.11.2020
5668 Clear 18 1021 68 10000 1.5 0 16:46 09.11.2020
5669 Clear 18 1021 68 10000 1.5 0 16:27 09.11.2020
5670 Clear 18 1021 68 10000 1.5 220 15:50 09.11.2020
5671 Clear 18 1021 68 10000 2.1 220 15:30 09.11.2020
5672 Clear 18 1021 68 10000 2.1 220 15:30 09.11.2020
5673 Clouds 18 1021 68 10000 1.5 230 14:57 09.11.2020
5674 Clear 18 1021 68 10000 2.1 230 14:37 09.11.2020
5675 Clear 18 1021 68 10000 2.1 230 14:19 09.11.2020
5676 Clear 18 1021 68 10000 2.1 230 14:19 09.11.2020
5677 Clouds 18 1021 68 10000 2.1 200 13:42 09.11.2020
5678 Clouds 18 1021 68 10000 2.1 200 13:19 09.11.2020
5679 Clouds 17 1021 72 10000 2.1 190 12:45 09.11.2020
5680 Clouds 17 1021 72 10000 2.1 190 12:21 09.11.2020
5681 Clear 16 1021 77 10000 2.6 160 11:43 09.11.2020
5682 Clear 16 1021 77 10000 2.6 160 11:24 09.11.2020
5683 Clear 16 1020 77 10000 2.6 140 10:58 09.11.2020
5684 Clear 15 1020 87 10000 2.1 140 10:40 09.11.2020
5685 Clear 15 1020 87 10000 2.1 140 10:21 09.11.2020
5686 Clear 12 1020 93 10000 3.1 150 09:30 09.11.2020
5687 Clear 12 1020 93 10000 2.6 150 08:55 09.11.2020
5688 Clear 11 1019 100 10000 3.6 140 08:28 09.11.2020
5689 Clear 11 1019 100 10000 4.1 150 07:57 09.11.2020
5690 Clear 11 1019 100 10000 4.1 140 07:23 09.11.2020
5691 Clear 12 1019 93 10000 4.1 140 06:55 09.11.2020
5692 Clear 12 1018 93 10000 4.1 130 04:55 09.11.2020
5693 Clear 13 1019 93 10000 3.6 130 01:59 09.11.2020
5694 Clear 13 1019 93 10000 4.1 140 01:40 09.11.2020
5695 Clear 14 1019 87 10000 4.1 150 00:55 09.11.2020
5696 Clear 14 1019 87 10000 3.6 150 23:46 08.11.2020
5697 Clear 14 1018 87 10000 3.6 150 23:24 08.11.2020
5698 Clear 14 1018 87 10000 3.1 140 22:43 08.11.2020
5699 Clear 14 1018 87 10000 3.1 140 22:21 08.11.2020
5700 Clear 14 1018 87 10000 3.6 130 21:46 08.11.2020
5701 Clear 14 1018 87 10000 3.6 130 21:21 08.11.2020
5702 Clear 15 1019 82 10000 3.1 140 20:57 08.11.2020
5703 Clear 15 1018 82 10000 3.1 140 20:38 08.11.2020
5704 Clear 15 1018 82 10000 3.1 140 20:19 08.11.2020
5705 Clear 15 1018 82 10000 3.1 130 19:45 08.11.2020
5706 Clear 15 1018 82 10000 3.1 130 19:21 08.11.2020
5707 Clear 16 1018 77 10000 2.6 130 18:55 08.11.2020
5708 Clear 17 1018 72 10000 3.1 130 18:37 08.11.2020
5709 Clear 17 1018 72 10000 3.1 130 18:19 08.11.2020
5710 Clear 19 1018 60 10000 4.1 130 17:41 08.11.2020
5711 Clear 20 1018 60 10000 4.1 130 17:20 08.11.2020
5712 Clear 21 1018 56 10000 5.1 130 16:57 08.11.2020
5713 Clear 21 1018 56 10000 5.1 130 16:37 08.11.2020
5714 Clear 22 1018 53 10000 4.1 130 16:18 08.11.2020
5715 Clear 22 1018 53 10000 4.1 130 15:44 08.11.2020
5716 Clouds 22 1018 49 10000 4.6 140 15:25 08.11.2020
5717 Clear 22 1019 49 10000 3.6 170 14:42 08.11.2020
5718 Clear 22 1019 49 10000 3.6 170 14:23 08.11.2020
5719 Clear 22 1019 49 10000 3.6 170 14:23 08.11.2020
5720 Clear 22 1019 52 10000 3.6 170 13:50 08.11.2020
5721 Clear 21 1019 52 10000 4.1 160 13:24 08.11.2020
5722 Clear 21 1020 60 10000 3.6 180 12:47 08.11.2020
5723 Clear 20 1020 60 10000 5.1 170 12:29 08.11.2020
5724 Clear 20 1020 63 10000 4.1 160 11:58 08.11.2020
5725 Clear 20 1020 63 10000 3.1 150 11:40 08.11.2020
5726 Clear 19 1020 63 10000 3.1 150 11:21 08.11.2020
5727 Clear 18 1020 68 10000 3.6 150 10:50 08.11.2020
5728 Clear 16 1020 82 10000 3.6 150 10:20 08.11.2020
5729 Clear 16 1020 82 10000 3.6 150 09:58 08.11.2020
5730 Clear 15 1020 87 10000 1.5 130 09:39 08.11.2020
5731 Clear 13 1020 93 10000 2.1 120 09:18 08.11.2020
5732 Clear 12 1020 93 10000 1.5 150 08:40 08.11.2020
5733 Clear 13 1020 87 10000 2.6 170 08:20 08.11.2020
5734 Clear 13 1020 87 10000 3.6 180 07:52 08.11.2020
5735 Clear 13 1020 87 10000 3.6 180 07:28 08.11.2020
5736 Clear 14 1020 87 10000 2.6 180 06:24 08.11.2020
5737 Clear 14 1020 87 10000 2.6 190 05:53 08.11.2020
5738 Clear 14 1019 93 10000 2.1 190 04:50 08.11.2020
5739 Clouds 14 1019 93 10000 3.1 180 01:53 08.11.2020
5740 Clouds 14 1019 87 10000 4.1 190 01:19 08.11.2020
5741 Rain 15 1018 87 10000 4.6 190 00:28 08.11.2020
5742 Clouds 15 1018 87 10000 5.1 190 23:47 07.11.2020
5743 Rain 15 1018 87 10000 4.1 170 23:29 07.11.2020
5744 Clear 15 1018 87 10000 4.1 180 22:46 07.11.2020
5745 Clear 15 1017 87 10000 3.6 160 22:26 07.11.2020
5746 Clouds 14 1017 93 9000 3.1 130 21:55 07.11.2020
5747 Clouds 14 1017 93 9000 2.1 140 21:36 07.11.2020
5748 Clear 15 1017 93 10000 3.1 140 21:18 07.11.2020
5749 Clouds 15 1017 93 8000 3.1 130 20:40 07.11.2020
5750 Clouds 15 1017 93 8000 3.1 130 20:22 07.11.2020
5751 Clouds 15 1016 93 6000 2.6 110 19:43 07.11.2020
5752 Rain 15 1016 93 6000 2.6 110 19:24 07.11.2020
5753 Clear 15 1015 93 10000 1 130 18:40 07.11.2020
5754 Clear 15 1015 93 10000 1 130 18:21 07.11.2020
5755 Clear 16 1015 88 10000 1 150 17:46 07.11.2020
5756 Clear 16 1015 88 10000 1 150 17:26 07.11.2020
5757 Clear 17 1015 82 10000 3.6 150 16:44 07.11.2020
5758 Clear 16 1015 82 10000 3.6 150 16:24 07.11.2020
5759 Clouds 17 1015 82 10000 3.6 150 15:48 07.11.2020
5760 Clouds 17 1015 88 10000 3.1 140 15:25 07.11.2020
5761 Clouds 17 1015 82 10000 5.1 140 14:59 07.11.2020
5762 Clouds 17 1015 82 10000 5.1 140 14:40 07.11.2020
5763 Clouds 17 1015 82 10000 5.1 140 14:20 07.11.2020
5764 Clouds 18 1015 72 10000 6.7 140 13:42 07.11.2020
5765 Clouds 18 1015 72 10000 6.7 140 13:22 07.11.2020
5766 Clouds 18 1015 72 10000 3.1 170 12:35 07.11.2020
5767 Clouds 18 1015 72 10000 3.1 160 11:47 07.11.2020
5768 Clouds 18 1015 68 10000 4.1 150 11:25 07.11.2020
5769 Clear 18 1014 68 10000 6.7 120 10:59 07.11.2020
5770 Clear 17 1014 72 10000 6.2 120 10:40 07.11.2020
5771 Clear 17 1014 72 10000 6.2 120 10:22 07.11.2020
5772 Clear 17 1014 72 10000 6.2 120 09:48 07.11.2020
5773 Clear 17 1014 72 10000 7.2 120 09:21 07.11.2020
5774 Clear 16 1014 77 10000 5.1 120 08:47 07.11.2020
5775 Clear 15 1014 77 10000 2.6 110 08:29 07.11.2020
5776 Clear 15 1014 77 10000 2.6 100 07:48 07.11.2020
5777 Clear 16 1015 82 10000 4.1 110 06:54 07.11.2020
5778 Clear 16 1016 77 10000 5.1 130 05:54 07.11.2020
5779 Clear 16 1016 82 10000 5.1 120 04:22 07.11.2020
5780 Clear 15 1017 77 10000 1.5 130 02:46 07.11.2020
5781 Clear 16 1017 77 10000 5.7 120 01:27 07.11.2020
5782 Clear 15 1017 77 10000 3.6 130 00:37 07.11.2020
5783 Clear 16 1017 77 10000 5.7 120 23:39 06.11.2020
5784 Clear 16 1017 77 10000 5.1 120 23:18 06.11.2020
5785 Clear 16 1017 77 10000 4.6 130 22:40 06.11.2020
5786 Clear 16 1017 77 10000 4.6 130 22:18 06.11.2020
5787 Clear 17 1017 72 10000 5.1 120 21:42 06.11.2020
5788 Clear 17 1017 72 10000 5.7 120 21:20 06.11.2020
5789 Clear 17 1017 72 10000 5.7 120 20:45 06.11.2020
5790 Clear 17 1017 72 10000 6.7 110 20:20 06.11.2020
5791 Clear 17 1017 72 10000 6.7 110 19:45 06.11.2020
5792 Clear 17 1017 72 10000 7.2 110 19:27 06.11.2020
5793 Clear 17 1018 72 10000 6.7 110 18:55 06.11.2020
5794 Clear 17 1018 72 10000 6.7 110 18:55 06.11.2020
5795 Clear 17 1018 68 10000 6.2 110 18:37 06.11.2020
5796 Clear 17 1018 68 10000 6.2 110 18:19 06.11.2020
5797 Clear 18 1018 68 10000 6.2 110 17:41 06.11.2020
5798 Clear 18 1018 68 10000 6.2 110 17:23 06.11.2020
5799 Clear 19 1019 63 10000 6.7 110 16:39 06.11.2020
5800 Clear 19 1019 63 10000 5.7 110 16:20 06.11.2020
5801 Clear 19 1019 68 10000 7.2 120 15:41 06.11.2020
5802 Clear 19 1020 68 10000 6.7 120 15:22 06.11.2020
5803 Clear 19 1020 68 10000 6.7 110 14:41 06.11.2020
5804 Clear 19 1020 72 10000 5.7 130 14:18 06.11.2020
5805 Clear 19 1020 72 10000 5.7 130 14:18 06.11.2020
5806 Clear 18 1020 72 10000 5.1 120 13:42 06.11.2020
5807 Clear 18 1020 72 10000 5.1 120 13:42 06.11.2020
5808 Clear 18 1021 72 10000 4.6 120 13:19 06.11.2020
5809 Clear 18 1021 72 10000 5.1 130 12:42 06.11.2020
5810 Clear 17 1021 72 10000 5.1 130 12:22 06.11.2020
5811 Clear 16 1021 72 10000 5.7 130 11:38 06.11.2020
5812 Clear 15 1021 77 10000 6.2 130 10:59 06.11.2020
5813 Clear 14 1021 82 10000 6.2 120 10:36 06.11.2020
5814 Clear 13 1022 82 10000 3.6 110 09:58 06.11.2020
5815 Clear 13 1022 82 10000 3.6 110 09:58 06.11.2020
5816 Clear 12 1022 87 10000 3.1 100 09:38 06.11.2020
5817 Clear 11 1021 87 10000 4.6 90 09:20 06.11.2020
5818 Clear 10 1021 87 10000 3.6 100 08:47 06.11.2020
5819 Clear 10 1021 87 10000 3.6 100 08:28 06.11.2020
5820 Clear 9 1021 93 10000 3.1 80 07:44 06.11.2020
5821 Clear 9 1021 93 10000 3.1 80 07:21 06.11.2020
5822 Clear 9 1022 87 10000 3.6 90 06:40 06.11.2020
5823 Clear 8 1022 100 10000 2.6 50 05:38 06.11.2020
5824 Clear 9 1023 87 10000 2.6 40 02:00 06.11.2020
5825 Clear 9 1024 87 10000 2.1 40 00:34 06.11.2020
5826 Clear 9 1024 87 10000 3.1 40 23:51 05.11.2020
5827 Clear 9 1024 87 10000 2.6 40 23:24 05.11.2020
5828 Clear 9 1024 87 10000 3.1 40 22:48 05.11.2020
5829 Clear 9 1025 87 10000 2.1 40 22:26 05.11.2020
5830 Clear 9 1025 87 10000 2.1 40 21:57 05.11.2020
5831 Clear 9 1025 81 10000 2.1 40 21:38 05.11.2020
5832 Clear 9 1025 76 10000 1.5 50 21:19 05.11.2020
5833 Clear 10 1025 76 10000 1.5 50 20:43 05.11.2020
5834 Clear 10 1025 76 10000 1.5 50 20:24 05.11.2020
5835 Clear 10 1025 71 10000 2.1 50 19:45 05.11.2020
5836 Clear 10 1026 71 10000 2.1 60 19:27 05.11.2020
5837 Clear 11 1026 71 10000 2.1 60 18:58 05.11.2020
5838 Clear 12 1026 66 10000 2.1 50 18:39 05.11.2020
5839 Clear 12 1026 66 10000 2.1 50 18:21 05.11.2020
5840 Clear 14 1026 54 10000 3.1 60 17:45 05.11.2020
5841 Clear 14 1026 54 10000 3.1 60 17:25 05.11.2020
5842 Clear 15 1026 54 10000 4.6 60 16:48 05.11.2020
5843 Clear 16 1026 54 10000 5.1 50 16:28 05.11.2020
5844 Clear 16 1026 54 10000 4.1 60 15:53 05.11.2020
5845 Clear 16 1027 54 10000 4.6 50 15:27 05.11.2020
5846 Clear 16 1027 51 10000 4.1 60 14:57 05.11.2020
5847 Clear 15 1027 54 10000 3.6 60 14:39 05.11.2020
5848 Clear 15 1027 54 10000 3.6 60 14:20 05.11.2020
5849 Clear 15 1028 62 10000 3.1 70 13:40 05.11.2020
5850 Clear 14 1028 62 10000 3.1 70 13:18 05.11.2020
5851 Clear 13 1029 66 10000 3.1 80 12:41 05.11.2020
5852 Clear 12 1029 66 10000 3.1 80 12:22 05.11.2020
5853 Clear 10 1030 76 10000 3.6 70 11:42 05.11.2020
5854 Clear 10 1030 76 10000 3.6 70 11:22 05.11.2020
5855 Clear 9 1030 81 10000 3.6 60 10:48 05.11.2020
5856 Clear 8 1030 81 10000 3.6 60 10:26 05.11.2020
5857 Clear 7 1030 81 10000 3.6 60 09:49 05.11.2020
5858 Clouds 6 1030 87 10000 3.6 40 09:24 05.11.2020
5859 Clear 4 1030 93 10000 2.1 30 08:51 05.11.2020
5860 Clear 4 1030 100 10000 2.6 40 08:32 05.11.2020
5861 Clear 3 1030 100 10000 2.1 40 07:58 05.11.2020
5862 Clear 4 1030 93 10000 2.6 40 07:28 05.11.2020
5863 Clear 4 1030 93 10000 2.1 30 06:43 05.11.2020
5864 Clear 4 1030 93 10000 2.1 30 06:20 05.11.2020
5865 Clear 5 1030 86 10000 2.6 30 03:27 05.11.2020
5866 Clear 6 1030 81 10000 3.1 40 00:37 05.11.2020
5867 Clear 7 1030 75 10000 2.6 20 23:53 04.11.2020
5868 Clear 8 1030 70 10000 3.6 40 23:27 04.11.2020
5869 Clear 8 1030 70 10000 3.6 40 22:57 04.11.2020
5870 Clear 8 1030 70 10000 4.1 30 22:38 04.11.2020
5871 Clear 8 1030 70 10000 4.1 30 22:19 04.11.2020
5872 Clear 8 1030 75 10000 4.6 30 21:46 04.11.2020
5873 Clear 8 1029 75 10000 4.6 30 21:27 04.11.2020
5874 Clear 9 1029 70 10000 4.1 30 20:53 04.11.2020
5875 Clear 9 1029 70 10000 4.1 30 20:35 04.11.2020
5876 Clear 9 1029 70 10000 4.1 30 19:58 04.11.2020
5877 Clear 9 1029 70 10000 3.6 20 19:40 04.11.2020
5878 Clear 9 1029 70 10000 3.6 20 19:21 04.11.2020
5879 Clear 10 1028 62 10000 4.1 30 18:40 04.11.2020
5880 Clear 11 1028 58 10000 4.6 20 18:22 04.11.2020
5881 Clear 12 1028 58 10000 6.7 30 17:46 04.11.2020
5882 Clear 12 1028 58 10000 6.7 30 17:26 04.11.2020
5883 Clear 13 1027 50 10000 6.2 30 16:46 04.11.2020
5884 Clear 13 1027 50 10000 6.2 30 16:27 04.11.2020
5885 Clear 13 1027 50 10000 6.2 30 15:57 04.11.2020
5886 Clear 13 1027 50 10000 6.7 30 15:39 04.11.2020
5887 Clear 13 1027 50 10000 6.7 30 15:20 04.11.2020
5888 Clouds 13 1028 54 10000 6.2 30 14:42 04.11.2020
5889 Clouds 13 1028 54 10000 6.2 30 14:24 04.11.2020
5890 Clear 13 1028 58 10000 5.1 30 13:50 04.11.2020
5891 Clear 13 1028 58 10000 5.1 30 13:50 04.11.2020
5892 Clear 13 1028 62 10000 5.1 50 13:21 04.11.2020
5893 Clear 12 1028 66 10000 4.6 40 12:57 04.11.2020
5894 Clear 12 1029 71 10000 4.1 40 12:39 04.11.2020
5895 Clear 12 1029 71 10000 4.1 40 12:21 04.11.2020
5896 Clear 11 1029 71 10000 3.6 50 11:44 04.11.2020
5897 Clear 9 1029 81 10000 2.6 50 11:21 04.11.2020
5898 Clear 8 1029 81 10000 2.6 50 10:48 04.11.2020
5899 Clear 7 1028 87 10000 2.1 70 10:23 04.11.2020
5900 Clear 6 1028 93 10000 2.1 40 09:55 04.11.2020
5901 Clear 6 1028 100 7000 1.5 30 09:27 04.11.2020
5902 Clear 4 1028 100 8000 0.5 80 08:47 04.11.2020
5903 Clear 3 1028 100 10000 1.73 86 08:23 04.11.2020
5904 Clear 3 1028 100 10000 1.73 86 07:57 04.11.2020
5905 Fog 3 1028 100 10000 0.5 0 07:31 04.11.2020
5906 Clouds 3 1028 100 10000 1.9 89 06:57 04.11.2020
5907 Clouds 3 1028 100 10000 2.08 100 06:37 04.11.2020
5908 Clear 5 1029 100 10000 1 0 04:18 04.11.2020
5909 Clear 6 1029 93 10000 0.5 310 02:31 04.11.2020
5910 Clouds 6 1030 93 10000 0.73 108 01:22 04.11.2020
5911 Clouds 6 1030 93 10000 0.25 257 23:50 03.11.2020
5912 Clouds 6 1031 93 10000 0.7 289 23:24 03.11.2020
5913 Clouds 8 1031 93 10000 1.5 280 22:42 03.11.2020
5914 Clouds 8 1031 93 10000 1.5 280 22:22 03.11.2020
5915 Clouds 8 1031 93 10000 0.5 220 21:59 03.11.2020
5916 Clear 8 1031 93 10000 1 0 21:41 03.11.2020
5917 Clear 8 1031 93 10000 1 0 21:21 03.11.2020
5918 Clear 8 1031 87 10000 1 0 20:45 03.11.2020
5919 Clear 8 1031 87 10000 1 0 20:26 03.11.2020
5920 Clear 9 1031 76 10000 2.6 290 19:45 03.11.2020
5921 Clear 9 1031 76 10000 2.6 290 19:25 03.11.2020
5922 Clear 9 1031 76 10000 2.6 290 19:25 03.11.2020
5923 Clouds 10 1031 76 10000 1.5 280 18:56 03.11.2020
5924 Clear 11 1031 62 10000 1.5 300 18:38 03.11.2020
5925 Clear 12 1031 62 10000 1.5 300 18:18 03.11.2020
5926 Clouds 14 1030 54 10000 4.1 320 17:42 03.11.2020
5927 Clouds 14 1030 54 10000 4.1 320 17:23 03.11.2020
5928 Clouds 14 1030 54 10000 4.1 330 16:45 03.11.2020
5929 Clouds 15 1030 54 10000 4.1 330 16:24 03.11.2020
5930 Clouds 15 1030 58 10000 5.7 330 15:48 03.11.2020
5931 Clouds 15 1030 58 10000 5.7 330 15:29 03.11.2020
5932 Clouds 15 1030 58 10000 5.7 330 14:53 03.11.2020
5933 Clouds 15 1030 62 10000 4.6 310 14:33 03.11.2020
5934 Clouds 15 1030 76 10000 3.1 290 13:47 03.11.2020
5935 Clouds 14 1030 76 10000 3.6 310 13:24 03.11.2020
5936 Clouds 14 1030 82 10000 4.1 330 12:59 03.11.2020
5937 Clouds 13 1030 87 10000 2.1 320 12:39 03.11.2020
5938 Rain 13 1030 87 10000 2.1 320 12:20 03.11.2020
5939 Clouds 13 1030 87 10000 2.1 280 11:44 03.11.2020
5940 Clouds 14 1030 87 10000 2.1 280 11:21 03.11.2020
5941 Clear 13 1029 93 10000 2.6 200 10:40 03.11.2020
5942 Clear 13 1029 93 10000 2.6 200 10:22 03.11.2020
5943 Clear 12 1029 93 10000 2.6 210 09:59 03.11.2020
5944 Clear 12 1028 100 10000 2.6 200 09:37 03.11.2020
5945 Clear 12 1028 87 10000 2.1 220 09:18 03.11.2020
5946 Clouds 12 1028 93 10000 2.1 220 08:42 03.11.2020
5947 Clouds 12 1028 93 10000 2.1 220 08:23 03.11.2020
5948 Clouds 12 1027 93 10000 2.6 220 07:35 03.11.2020
5949 Clear 11 1027 93 10000 2.1 200 06:52 03.11.2020
5950 Clouds 12 1027 93 10000 2.6 230 05:50 03.11.2020
5951 Rain 12 1027 93 10000 1 230 03:26 03.11.2020
5952 Clear 13 1026 82 10000 1.5 310 00:42 03.11.2020
5953 Clear 13 1026 87 10000 2.6 310 23:59 02.11.2020
5954 Clouds 14 1026 87 10000 1.5 300 23:38 02.11.2020
5955 Clouds 14 1026 82 10000 1.5 290 22:56 02.11.2020
5956 Clouds 14 1026 87 10000 2.1 270 22:36 02.11.2020
5957 Clouds 14 1025 87 10000 2.1 250 21:59 02.11.2020
5958 Clouds 15 1025 82 10000 1.5 290 21:38 02.11.2020
5959 Clouds 15 1025 82 10000 1.5 290 21:19 02.11.2020
5960 Clouds 15 1024 82 10000 1.5 320 20:41 02.11.2020
5961 Clouds 15 1024 82 10000 2.6 320 20:20 02.11.2020
5962 Clouds 15 1024 82 10000 2.6 320 19:49 02.11.2020
5963 Clouds 15 1023 77 10000 4.6 330 19:27 02.11.2020
5964 Clouds 16 1023 82 10000 3.1 330 18:57 02.11.2020
5965 Clouds 16 1022 82 10000 3.6 340 18:39 02.11.2020
5966 Clouds 16 1021 82 10000 6.2 330 18:20 02.11.2020
5967 Clouds 18 1021 82 10000 4.6 320 17:43 02.11.2020
5968 Clouds 18 1021 82 10000 4.6 320 17:25 02.11.2020
5969 Clouds 19 1020 82 10000 5.7 300 16:54 02.11.2020
5970 Clear 21 1020 64 10000 7.2 280 16:36 02.11.2020
5971 Clear 21 1020 64 10000 7.2 280 16:18 02.11.2020
5972 Clear 23 1019 57 10000 5.7 240 15:39 02.11.2020
5973 Clear 25 1019 57 10000 5.7 240 15:20 02.11.2020
5974 Clear 25 1019 53 10000 5.1 220 15:20 02.11.2020
5975 Clear 25 1019 53 10000 5.1 220 14:49 02.11.2020
5976 Clear 25 1019 57 10000 5.1 230 14:19 02.11.2020
5977 Clear 24 1019 60 10000 5.7 210 13:51 02.11.2020
5978 Clear 24 1019 57 10000 5.7 180 13:22 02.11.2020
5979 Clear 23 1019 64 10000 5.1 170 12:52 02.11.2020
5980 Clear 21 1019 72 10000 5.7 170 12:28 02.11.2020
5981 Clear 18 1019 77 10000 3.6 180 11:46 02.11.2020
5982 Clear 17 1019 82 10000 4.1 170 11:22 02.11.2020
5983 Clear 18 1019 82 10000 4.1 160 10:59 02.11.2020
5984 Clear 17 1019 82 10000 3.1 160 10:39 02.11.2020
5985 Clear 16 1019 87 10000 2.6 160 10:18 02.11.2020
5986 Clear 16 1019 93 10000 1.5 0 09:42 02.11.2020
5987 Clear 15 1019 93 10000 1.5 0 09:21 02.11.2020
5988 Clear 14 1019 93 10000 2.1 150 08:39 02.11.2020
5989 Clear 14 1019 93 10000 2.1 150 08:19 02.11.2020
5990 Clouds 13 1019 100 10000 2.1 130 07:43 02.11.2020
5991 Clouds 12 1019 100 9000 2.06 177 06:48 02.11.2020
5992 Clouds 12 1019 93 6000 1.87 179 06:22 02.11.2020
5993 Clear 15 1018 93 10000 2.1 130 01:35 02.11.2020
5994 Clouds 16 1019 93 10000 2.54 171 00:41 02.11.2020
5995 Clouds 16 1019 93 10000 2.59 165 00:23 02.11.2020
5996 Clear 16 1019 93 10000 1.5 20 23:40 01.11.2020
5997 Clear 16 1019 93 10000 1.5 20 23:21 01.11.2020
5998 Clear 17 1019 93 10000 2.66 169 22:44 01.11.2020
5999 Clear 17 1019 93 10000 2.89 167 22:23 01.11.2020
6000 Clear 18 1018 88 10000 2.89 167 21:46 01.11.2020
6001 Clear 18 1018 88 10000 1 90 21:26 01.11.2020
6002 Clear 18 1019 88 10000 2.1 110 20:51 01.11.2020
6003 Clear 17 1019 88 10000 1.5 110 20:29 01.11.2020
6004 Clear 17 1019 88 10000 0.5 100 19:58 01.11.2020
6005 Clear 17 1019 88 10000 2.65 151 19:39 01.11.2020
6006 Clear 17 1019 88 10000 2.65 151 19:39 01.11.2020
6007 Clear 18 1019 88 10000 2.33 146 19:20 01.11.2020
6008 Clear 19 1019 72 10000 2.35 132 18:40 01.11.2020
6009 Clear 20 1019 68 10000 1.92 144 18:19 01.11.2020
6010 Clear 22 1020 64 10000 1 280 17:47 01.11.2020
6011 Clear 21 1020 64 10000 1 280 17:29 01.11.2020
6012 Clear 22 1020 60 10000 2.1 260 16:59 01.11.2020
6013 Clear 23 1020 56 10000 2.6 260 16:39 01.11.2020
6014 Clear 24 1020 53 10000 3.6 240 16:18 01.11.2020
6015 Clear 23 1020 56 10000 3.1 220 15:39 01.11.2020
6016 Clear 23 1020 56 10000 3.1 220 15:21 01.11.2020
6017 Clear 23 1020 56 10000 2.6 220 14:48 01.11.2020
6018 Clear 22 1020 56 10000 2.6 220 14:24 01.11.2020
6019 Clear 21 1020 60 10000 3.6 230 13:59 01.11.2020
6020 Clear 22 1021 60 10000 4.1 250 13:40 01.11.2020
6021 Clear 21 1021 60 10000 4.1 250 13:40 01.11.2020
6022 Clear 22 1021 60 10000 4.1 250 13:22 01.11.2020
6023 Clear 21 1021 68 10000 3.1 210 12:43 01.11.2020
6024 Clear 19 1021 68 10000 3.1 210 12:22 01.11.2020
6025 Clear 19 1021 68 10000 2.6 190 11:49 01.11.2020
6026 Clear 18 1021 72 10000 2.1 200 11:18 01.11.2020
6027 Clear 16 1021 77 10000 2.1 190 10:42 01.11.2020
6028 Clear 16 1021 77 10000 2.1 190 10:24 01.11.2020
6029 Clear 15 1021 82 10000 3.1 180 09:50 01.11.2020
6030 Clear 14 1021 82 10000 3.1 180 09:30 01.11.2020
6031 Clear 13 1020 87 10000 1.5 150 08:44 01.11.2020
6032 Clear 13 1020 87 10000 1.5 150 08:18 01.11.2020
6033 Clear 13 1020 87 10000 1.5 150 07:33 01.11.2020
6034 Clear 13 1020 93 10000 2.1 140 03:25 01.11.2020
6035 Clear 13 1021 93 10000 1.5 170 01:46 01.11.2020
6036 Clear 14 1021 87 10000 1.5 150 00:23 01.11.2020
6037 Clear 14 1021 87 10000 1.5 150 23:24 31.10.2020
6038 Clear 15 1021 82 10000 2.6 150 22:45 31.10.2020
6039 Clear 15 1021 82 10000 2.6 150 22:25 31.10.2020
6040 Clear 15 1021 82 10000 2.6 150 22:25 31.10.2020
6041 Clear 15 1021 87 10000 2.1 130 21:47 31.10.2020
6042 Clear 15 1021 82 10000 2.28 148 21:47 31.10.2020
6043 Clear 15 1021 87 10000 2.1 130 21:23 31.10.2020
6044 Clear 15 1021 82 10000 1.5 140 20:59 31.10.2020
6045 Clear 15 1022 87 10000 2.1 150 20:38 31.10.2020
6046 Clear 15 1022 82 10000 0.5 170 20:18 31.10.2020
6047 Clear 16 1022 77 10000 1 190 19:38 31.10.2020
6048 Clear 16 1022 77 10000 1 190 19:19 31.10.2020
6049 Clear 18 1022 68 10000 2.1 230 18:45 31.10.2020
6050 Clear 20 1021 60 10000 1.5 240 17:56 31.10.2020
6051 Clear 22 1021 56 10000 1.5 190 17:37 31.10.2020
6052 Clear 21 1021 56 10000 1.5 190 17:18 31.10.2020
6053 Clear 22 1021 60 10000 2.6 220 16:41 31.10.2020
6054 Clear 22 1021 60 10000 2.6 220 16:20 31.10.2020
6055 Clear 22 1021 56 10000 3.6 220 15:42 31.10.2020
6056 Clear 22 1021 56 10000 3.6 220 15:22 31.10.2020
6057 Clear 22 1021 53 10000 4.6 250 14:46 31.10.2020
6058 Clear 22 1021 53 10000 4.6 250 14:46 31.10.2020
6059 Clear 21 1021 56 10000 4.6 230 14:27 31.10.2020
6060 Clear 22 1021 53 10000 5.1 240 13:50 31.10.2020
6061 Clear 21 1022 53 10000 4.1 220 13:24 31.10.2020
6062 Clear 19 1021 68 10000 3.1 180 12:42 31.10.2020
6063 Clear 18 1021 72 10000 3.6 160 11:48 31.10.2020
6064 Clear 16 1022 82 10000 2.6 170 11:29 31.10.2020
6065 Clear 16 1022 82 10000 2.1 170 10:56 31.10.2020
6066 Clear 14 1022 87 10000 1.5 160 10:33 31.10.2020
6067 Clear 10 1022 93 10000 1 0 09:42 31.10.2020
6068 Clear 10 1022 93 10000 1 0 09:22 31.10.2020
6069 Fog 8 1022 100 8000 1 130 08:32 31.10.2020
6070 Fog 8 1021 100 8000 2.1 120 07:50 31.10.2020
6071 Fog 8 1022 100 7000 1 110 07:27 31.10.2020
6072 Fog 8 1022 100 6000 0.5 140 06:39 31.10.2020
6073 Mist 9 1022 93 4000 1 120 04:51 31.10.2020
6074 Fog 9 1022 100 7000 2.1 110 03:45 31.10.2020
6075 Fog 11 1023 93 5000 1.77 146 01:29 31.10.2020
6076 Fog 11 1023 93 5000 1 150 00:46 31.10.2020
6077 Clouds 12 1023 93 10000 1.85 128 23:50 30.10.2020
6078 Clear 12 1023 100 10000 1 140 23:24 30.10.2020
6079 Clouds 11 1024 93 10000 1.5 130 22:45 30.10.2020
6080 Clouds 12 1024 93 10000 1.5 130 22:24 30.10.2020
6081 Clear 12 1024 93 10000 1.5 130 21:55 30.10.2020
6082 Fog 12 1024 100 10000 2.1 120 21:37 30.10.2020
6083 Clear 12 1024 87 10000 2.1 110 21:18 30.10.2020
6084 Clear 13 1024 87 10000 2.1 100 20:39 30.10.2020
6085 Clear 13 1024 87 10000 2.1 100 20:20 30.10.2020
6086 Clear 13 1024 87 10000 1 90 19:46 30.10.2020
6087 Clear 14 1024 82 10000 1.5 100 19:19 30.10.2020
6088 Clear 15 1024 77 10000 1.5 110 18:49 30.10.2020
6089 Clear 16 1024 67 10000 2.1 120 18:27 30.10.2020
6090 Clear 18 1024 63 10000 2.1 110 17:49 30.10.2020
6091 Clear 19 1024 59 10000 2.1 130 17:23 30.10.2020
6092 Clear 20 1024 56 10000 2.6 120 16:57 30.10.2020
6093 Clear 20 1024 56 10000 3.1 130 16:36 30.10.2020
6094 Clear 20 1024 56 10000 3.1 130 16:36 30.10.2020
6095 Clear 20 1024 56 10000 3.6 120 16:18 30.10.2020
6096 Clear 20 1024 56 10000 3.1 120 15:40 30.10.2020
6097 Clear 21 1024 56 10000 3.1 120 15:19 30.10.2020
6098 Clear 20 1025 63 10000 2.6 130 14:44 30.10.2020
6099 Clear 20 1025 63 10000 2.6 130 14:25 30.10.2020
6100 Clear 19 1025 68 10000 3.1 140 13:45 30.10.2020
6101 Clear 18 1025 68 10000 3.1 110 13:21 30.10.2020
6102 Clear 18 1025 68 10000 3.1 110 12:52 30.10.2020
6103 Clear 17 1025 72 10000 3.6 130 12:22 30.10.2020
6104 Clear 16 1026 77 10000 3.6 120 11:56 30.10.2020
6105 Clear 15 1026 82 10000 3.6 120 11:23 30.10.2020
6106 Clear 14 1026 87 10000 2.6 110 10:52 30.10.2020
6107 Clear 12 1026 93 10000 3.1 100 10:26 30.10.2020
6108 Clear 12 1026 93 10000 3.1 100 09:59 30.10.2020
6109 Clear 11 1026 100 8000 2.1 100 09:41 30.10.2020
6110 Fog 9 1026 100 1400 1 140 09:19 30.10.2020
6111 Fog 8 1026 100 450 2.06 110 08:33 30.10.2020
6112 Fog 8 1025 100 550 1 0 07:58 30.10.2020
6113 Fog 8 1025 100 500 1.5 50 07:40 30.10.2020
6114 Fog 8 1025 100 500 1.5 50 07:21 30.10.2020
6115 Fog 8 1025 100 350 1 110 06:19 30.10.2020
6116 Fog 10 1026 100 550 0.5 120 03:59 30.10.2020
6117 Mist 10 1026 93 2400 1.49 115 01:26 30.10.2020
6118 Fog 11 1026 93 1300 1.43 102 00:26 30.10.2020
6119 Fog 10 1026 100 900 1.43 102 23:43 29.10.2020
6120 Fog 11 1026 100 900 1.43 97 23:25 29.10.2020
6121 Fog 11 1026 93 4000 1.43 97 22:45 29.10.2020
6122 Fog 11 1026 93 3000 1.27 83 22:27 29.10.2020
6123 Fog 11 1026 93 8000 0.5 0 21:49 29.10.2020
6124 Fog 11 1026 93 8000 0.5 0 21:24 29.10.2020
6125 Fog 12 1026 93 1200 0.87 39 20:43 29.10.2020
6126 Fog 12 1026 93 1200 0.87 39 20:43 29.10.2020
6127 Fog 12 1026 93 1200 0.63 337 20:24 29.10.2020
6128 Clouds 13 1026 87 10000 0.63 337 19:57 29.10.2020
6129 Clouds 13 1026 87 10000 1 270 19:38 29.10.2020
6130 Clouds 14 1026 87 10000 1 270 19:18 29.10.2020
6131 Clear 16 1025 77 10000 1 240 18:45 29.10.2020
6132 Clear 16 1025 77 10000 1 240 18:25 29.10.2020
6133 Clear 18 1025 68 10000 3.1 250 17:42 29.10.2020
6134 Clear 18 1025 68 10000 3.1 250 17:22 29.10.2020
6135 Clouds 19 1025 63 10000 3.1 250 16:53 29.10.2020
6136 Clouds 19 1025 72 10000 3.1 260 16:23 29.10.2020
6137 Clouds 19 1025 72 10000 3.1 260 15:59 29.10.2020
6138 Clouds 19 1025 68 10000 3.6 280 15:40 29.10.2020
6139 Clouds 19 1025 68 10000 3.6 280 15:22 29.10.2020
6140 Clouds 19 1025 72 10000 4.6 270 14:58 29.10.2020
6141 Clouds 19 1026 72 10000 4.1 260 14:39 29.10.2020
6142 Clouds 19 1026 72 10000 4.1 260 14:39 29.10.2020
6143 Clouds 19 1026 72 10000 3.6 250 14:18 29.10.2020
6144 Clouds 18 1026 72 10000 4.6 250 13:40 29.10.2020
6145 Clouds 18 1026 72 10000 4.6 250 13:22 29.10.2020
6146 Clouds 17 1026 72 10000 5.1 260 12:41 29.10.2020
6147 Clouds 17 1026 77 10000 3.1 280 12:19 29.10.2020
6148 Clouds 17 1026 82 10000 3.1 230 11:47 29.10.2020
6149 Clouds 16 1026 82 10000 3.1 230 11:25 29.10.2020
6150 Clear 15 1026 87 10000 3.1 200 10:38 29.10.2020
6151 Clear 15 1026 87 10000 3.1 200 10:20 29.10.2020
6152 Clouds 14 1026 93 10000 3.1 210 09:53 29.10.2020
6153 Clouds 13 1026 93 10000 2.6 210 09:28 29.10.2020
6154 Clouds 12 1025 100 10000 2.6 210 08:56 29.10.2020
6155 Clouds 12 1025 93 8000 2.1 210 08:34 29.10.2020
6156 Clear 12 1025 93 10000 3.1 210 07:54 29.10.2020
6157 Clouds 12 1025 93 10000 3.1 210 07:35 29.10.2020
6158 Clouds 12 1024 100 10000 2.6 200 06:57 29.10.2020
6159 Clear 12 1024 93 10000 2.6 220 04:52 29.10.2020
6160 Clouds 13 1024 93 10000 3.6 210 03:58 29.10.2020
6161 Clouds 13 1024 94 10000 0.89 203 01:24 29.10.2020
6162 Clouds 13 1024 94 10000 1.34 180 00:31 29.10.2020
6163 Clouds 13 1024 94 10000 0.45 203 23:48 28.10.2020
6164 Clouds 13 1024 94 10000 0.45 203 23:22 28.10.2020
6165 Clouds 13 1022 87 10000 4.1 200 22:45 28.10.2020
6166 Clouds 13 1022 87 10000 4.1 200 22:26 28.10.2020
6167 Clouds 13 1022 87 10000 4.1 200 21:58 28.10.2020
6168 Clouds 13 1022 87 10000 3.1 210 21:40 28.10.2020
6169 Clouds 13 1022 87 10000 3.1 210 21:20 28.10.2020
6170 Clear 13 1022 87 10000 2.1 210 20:42 28.10.2020
6171 Clear 13 1022 87 10000 2.1 210 20:22 28.10.2020
6172 Clouds 14 1021 82 10000 3.6 200 19:50 28.10.2020
6173 Clouds 14 1021 82 10000 2.6 220 19:28 28.10.2020
6174 Clouds 15 1021 77 10000 3.6 230 18:48 28.10.2020
6175 Clouds 15 1021 77 10000 4.1 240 18:21 28.10.2020
6176 Clouds 16 1021 72 10000 4.6 260 17:45 28.10.2020
6177 Clouds 16 1021 72 10000 4.6 260 17:25 28.10.2020
6178 Clouds 16 1020 67 10000 8.2 260 16:57 28.10.2020
6179 Clouds 17 1020 72 10000 8.2 240 16:39 28.10.2020
6180 Clouds 17 1020 72 10000 8.2 240 16:20 28.10.2020
6181 Clouds 17 1019 67 10000 6.7 250 15:38 28.10.2020
6182 Clouds 18 1020 71 10000 2.24 248 15:19 28.10.2020
6183 Clouds 17 1019 68 10000 8.7 240 14:43 28.10.2020
6184 Clouds 18 1019 68 10000 8.7 240 14:23 28.10.2020
6185 Clouds 18 1020 79 10000 3.13 225 12:48 28.10.2020
6186 Clouds 17 1020 80 10000 2.24 225 12:27 28.10.2020
6187 Clouds 17 1020 78 10000 3.58 225 11:57 28.10.2020
6188 Clouds 16 1020 85 10000 2.68 225 11:39 28.10.2020
6189 Clouds 16 1020 86 10000 3.58 225 11:19 28.10.2020
6190 Clouds 16 1018 87 10000 4.1 230 10:44 28.10.2020
6191 Clouds 15 1018 87 10000 4.1 230 10:26 28.10.2020
6192 Clouds 14 1018 93 10000 4.1 220 09:44 28.10.2020
6193 Clouds 14 1018 93 10000 4.1 220 09:23 28.10.2020
6194 Clouds 14 1017 93 10000 4.1 220 08:50 28.10.2020
6195 Clear 13 1017 100 10000 3.6 220 08:30 28.10.2020
6196 Clouds 14 1016 93 10000 4.1 210 07:53 28.10.2020
6197 Drizzle 14 1016 93 10000 4.6 200 07:31 28.10.2020
6198 Clouds 14 1016 93 10000 4.6 210 06:54 28.10.2020
6199 Clouds 14 1016 93 9000 3.6 220 06:36 28.10.2020
6200 Clouds 14 1016 93 10000 4.6 210 05:22 28.10.2020
6201 Clear 13 1015 100 10000 3.1 220 04:30 28.10.2020
6202 Clouds 14 1015 93 10000 2.1 230 02:26 28.10.2020
6203 Clouds 14 1015 93 10000 2.1 230 02:26 28.10.2020
6204 Clouds 14 1015 93 10000 2.6 240 01:53 28.10.2020
6205 Drizzle 14 1014 93 3500 5.1 230 00:31 28.10.2020
6206 Clouds 14 1014 93 10000 4.1 210 23:47 27.10.2020
6207 Clouds 14 1014 93 10000 5.1 210 23:21 27.10.2020
6208 Clouds 14 1013 93 10000 5.1 200 22:44 27.10.2020
6209 Clouds 14 1013 93 10000 5.1 200 22:19 27.10.2020
6210 Clouds 13 1013 100 10000 5.1 210 21:57 27.10.2020
6211 Clouds 13 1013 93 10000 5.1 210 21:37 27.10.2020
6212 Clouds 13 1013 100 10000 5.1 210 21:19 27.10.2020
6213 Clouds 13 1013 100 10000 5.1 210 20:46 27.10.2020
6214 Clouds 13 1013 100 10000 5.7 210 20:24 27.10.2020
6215 Clouds 13 1013 100 10000 5.1 210 19:55 27.10.2020
6216 Mist 13 1012 100 5000 5.7 200 19:37 27.10.2020
6217 Mist 13 1012 100 5000 5.7 200 19:18 27.10.2020
6218 Clouds 13 1012 87 10000 5.7 220 18:44 27.10.2020
6219 Clouds 14 1012 87 10000 5.7 220 18:21 27.10.2020
6220 Clouds 14 1012 77 10000 4.1 220 17:57 27.10.2020
6221 Clouds 14 1012 77 10000 7.2 220 17:36 27.10.2020
6222 Clouds 15 1012 77 10000 5.7 230 17:18 27.10.2020
6223 Clouds 15 1012 77 10000 5.1 210 16:41 27.10.2020
6224 Clouds 15 1012 77 10000 5.1 210 16:22 27.10.2020
6225 Clouds 15 1012 82 10000 4.6 200 15:41 27.10.2020
6226 Clouds 15 1012 82 10000 4.6 200 15:23 27.10.2020
6227 Clouds 14 1012 93 10000 5.1 220 14:49 27.10.2020
6228 Clouds 14 1012 93 10000 5.1 220 14:29 27.10.2020
6229 Mist 14 1013 93 5000 5.7 230 13:58 27.10.2020
6230 Clouds 14 1013 87 10000 6.2 230 13:28 27.10.2020
6231 Clouds 14 1013 93 10000 7.2 240 12:44 27.10.2020
6232 Clouds 14 1013 93 7000 7.2 240 12:25 27.10.2020
6233 Clouds 14 1013 93 10000 4.6 220 11:59 27.10.2020
6234 Clouds 14 1013 93 10000 3.6 220 11:41 27.10.2020
6235 Clouds 14 1013 93 10000 3.6 220 11:20 27.10.2020
6236 Clouds 14 1013 93 10000 3.6 220 11:20 27.10.2020
6237 Mist 13 1014 93 5000 3.1 190 10:39 27.10.2020
6238 Rain 13 1014 93 10000 3.1 220 10:19 27.10.2020
6239 Rain 12 1014 93 10000 3.6 220 09:28 27.10.2020
6240 Clouds 11 1013 100 10000 4.6 210 08:56 27.10.2020
6241 Rain 11 1013 100 10000 4.1 190 08:29 27.10.2020
6242 Clouds 11 1013 93 10000 3.6 190 07:52 27.10.2020
6243 Clouds 11 1013 93 10000 3.6 200 07:34 27.10.2020
6244 Clouds 10 1013 100 10000 3.6 190 06:52 27.10.2020
6245 Clouds 10 1013 100 10000 3.6 190 06:19 27.10.2020
6246 Clear 10 1013 93 10000 3.1 200 05:44 27.10.2020
6247 Clouds 10 1013 93 10000 3.6 210 04:58 27.10.2020
6248 Clouds 10 1014 93 10000 4.1 200 02:49 27.10.2020
6249 Clouds 10 1014 93 10000 1.5 0 01:18 27.10.2020
6250 Clouds 10 1015 93 10000 3.1 220 23:59 26.10.2020
6251 Clouds 10 1015 93 7000 3.1 280 23:36 26.10.2020
6252 Clouds 10 1015 93 7000 3.1 280 23:36 26.10.2020
6253 Clear 9 1014 93 10000 3.1 210 22:56 26.10.2020
6254 Clear 10 1014 93 10000 3.1 220 22:30 26.10.2020
6255 Clear 10 1014 93 10000 3.1 210 21:56 26.10.2020
6256 Clear 9 1014 93 10000 2.6 220 21:36 26.10.2020
6257 Clear 10 1014 93 10000 2.6 220 21:18 26.10.2020
6258 Clear 10 1014 93 10000 2.6 230 20:46 26.10.2020
6259 Rain 10 1014 93 10000 2.6 230 20:26 26.10.2020
6260 Clear 11 1014 87 10000 4.1 250 19:49 26.10.2020
6261 Rain 11 1014 87 10000 3.1 240 19:28 26.10.2020
6262 Clouds 11 1013 81 10000 3.6 270 18:57 26.10.2020
6263 Clouds 12 1013 87 10000 2.6 250 18:36 26.10.2020
6264 Rain 12 1013 76 10000 4.1 340 18:18 26.10.2020
6265 Rain 14 1012 62 10000 5.1 270 17:41 26.10.2020
6266 Rain 14 1012 62 10000 5.1 270 17:23 26.10.2020
6267 Clouds 15 1012 63 10000 5.7 260 16:45 26.10.2020
6268 Rain 15 1012 63 10000 5.7 260 16:22 26.10.2020
6269 Clouds 14 1012 62 10000 6.7 280 15:46 26.10.2020
6270 Rain 14 1012 58 10000 7.7 280 15:28 26.10.2020
6271 Clouds 14 1012 59 10000 9.3 280 14:59 26.10.2020
6272 Clouds 15 1012 72 10000 5.1 250 14:38 26.10.2020
6273 Clouds 14 1012 76 10000 5.1 250 13:58 26.10.2020
6274 Clouds 13 1012 82 10000 2.1 220 13:36 26.10.2020
6275 Thunderstorm 13 1012 87 10000 2.1 130 13:18 26.10.2020
6276 Clouds 12 1012 93 10000 1.5 140 12:42 26.10.2020
6277 Clouds 12 1012 93 10000 1.5 140 12:42 26.10.2020
6278 Rain 13 1012 93 10000 1.5 140 12:23 26.10.2020
6279 Clouds 13 1012 87 10000 2.1 210 11:47 26.10.2020
6280 Clouds 13 1012 87 10000 2.1 210 11:47 26.10.2020
6281 Rain 12 1012 81 10000 2.6 250 11:23 26.10.2020
6282 Clouds 13 1012 87 10000 3.6 220 10:57 26.10.2020
6283 Clouds 12 1011 93 10000 3.6 190 10:38 26.10.2020
6284 Rain 11 1011 93 10000 3.1 190 10:19 26.10.2020
6285 Clouds 10 1011 93 9000 3.1 210 09:39 26.10.2020
6286 Rain 10 1011 100 10000 3.6 170 09:18 26.10.2020
6287 Clouds 10 1011 93 9000 1.5 0 08:27 26.10.2020
6288 Clouds 10 1010 93 10000 1.5 150 07:52 26.10.2020
6289 Clouds 9 1010 100 10000 1.5 160 07:31 26.10.2020
6290 Clouds 10 1009 93 10000 4.1 190 05:58 26.10.2020
6291 Rain 10 1008 87 8000 3.1 220 04:21 26.10.2020
6292 Rain 10 1009 87 4000 7.7 250 03:21 26.10.2020
6293 Mist 10 1009 87 4000 7.7 250 03:21 26.10.2020
6294 Rain 10 1009 87 4000 7.7 250 03:21 26.10.2020
6295 Rain 10 1009 87 4000 7.7 250 03:21 26.10.2020
6296 Clouds 10 1008 93 10000 3.1 210 01:37 26.10.2020
6297 Clear 11 1008 93 10000 1.5 220 00:44 26.10.2020
6298 Clear 11 1008 93 10000 1.5 220 00:25 26.10.2020
6299 Clouds 11 1009 93 10000 1.5 210 23:38 25.10.2020
6300 Clouds 11 1008 93 10000 1.5 200 23:18 25.10.2020
6301 Clouds 12 1009 87 10000 2.6 300 22:39 25.10.2020
6302 Rain 12 1008 87 10000 3.6 220 22:20 25.10.2020
6303 Clouds 12 1008 93 10000 3.1 220 21:40 25.10.2020
6304 Rain 12 1008 93 10000 3.1 220 21:20 25.10.2020
6305 Clouds 12 1008 100 10000 4.1 210 20:45 25.10.2020
6306 Clouds 12 1008 100 10000 4.1 210 20:25 25.10.2020
6307 Clouds 12 1008 100 10000 4.6 190 19:58 25.10.2020
6308 Clouds 12 1007 100 10000 3.1 210 19:39 25.10.2020
6309 Clouds 12 1007 100 10000 3.1 210 19:20 25.10.2020
6310 Clouds 13 1007 93 10000 3.6 240 18:41 25.10.2020
6311 Clouds 13 1007 93 10000 3.6 240 18:23 25.10.2020
6312 Clouds 13 1007 93 10000 3.6 220 17:58 25.10.2020
6313 Clouds 13 1007 93 7000 5.1 230 17:38 25.10.2020
6314 Rain 13 1007 93 7000 5.1 230 17:19 25.10.2020
6315 Clouds 13 1007 93 10000 6.2 230 16:47 25.10.2020
6316 Rain 13 1007 93 10000 6.2 230 16:28 25.10.2020
6317 Rain 13 1007 93 10000 4.6 230 15:50 25.10.2020
6318 Rain 13 1007 93 10000 5.1 220 15:29 25.10.2020
6319 Rain 14 1007 87 10000 5.1 200 14:55 25.10.2020
6320 Clouds 14 1007 93 10000 5.1 200 14:32 25.10.2020
6321 Clouds 14 1007 87 10000 5.1 200 13:58 25.10.2020
6322 Rain 14 1008 87 10000 5.1 210 13:39 25.10.2020
6323 Clouds 15 1008 82 10000 5.1 210 13:18 25.10.2020
6324 Clouds 15 1008 82 10000 5.1 210 13:18 25.10.2020
6325 Clouds 15 1008 82 10000 5.1 200 12:40 25.10.2020
6326 Clouds 15 1008 82 10000 5.1 200 12:22 25.10.2020
6327 Clear 14 1008 93 10000 5.1 210 11:43 25.10.2020
6328 Clear 14 1008 93 10000 5.1 210 11:21 25.10.2020
6329 Clouds 14 1008 93 10000 4.1 190 10:48 25.10.2020
6330 Rain 13 1008 100 10000 1 0 10:26 25.10.2020
6331 Mist 13 1009 93 2500 5.1 310 09:55 25.10.2020
6332 Rain 13 1008 87 9000 5.1 210 09:37 25.10.2020
6333 Rain 14 1008 82 10000 6.2 190 09:18 25.10.2020
6334 Rain 14 1007 82 10000 4.6 190 08:40 25.10.2020
6335 Rain 13 1007 82 10000 4.6 190 08:22 25.10.2020
6336 Rain 14 1008 67 10000 5.1 190 07:46 25.10.2020
6337 Rain 14 1007 67 10000 4.6 180 06:57 25.10.2020
6338 Clear 14 1007 67 10000 4.6 190 06:30 25.10.2020
6339 Clear 15 1007 67 10000 5.7 200 05:22 25.10.2020
6340 Clear 15 1007 62 10000 6.2 190 04:50 25.10.2020
6341 Clear 13 1011 76 10000 4.6 180 02:37 25.10.2020
6342 Clear 13 1012 76 10000 4.1 180 00:54 25.10.2020
6343 Clear 14 1013 71 10000 4.6 180 00:29 25.10.2020
6344 Clear 14 1013 71 10000 5.1 180 23:57 24.10.2020
6345 Clear 14 1013 71 10000 4.6 170 23:36 24.10.2020
6346 Clear 14 1013 76 10000 4.1 170 22:59 24.10.2020
6347 Clear 14 1014 76 10000 4.6 170 22:41 24.10.2020
6348 Clear 14 1014 76 10000 4.6 170 22:22 24.10.2020
6349 Clear 14 1014 76 10000 4.6 170 21:55 24.10.2020
6350 Clear 14 1014 76 10000 3.6 170 21:36 24.10.2020
6351 Clear 15 1015 77 10000 3.1 170 21:18 24.10.2020
6352 Clear 15 1015 77 10000 3.6 170 20:42 24.10.2020
6353 Clear 15 1015 72 10000 4.1 150 20:20 24.10.2020
6354 Clear 16 1015 72 10000 2.6 170 19:41 24.10.2020
6355 Clear 16 1015 72 10000 2.6 170 19:23 24.10.2020
6356 Clear 17 1016 67 10000 2.6 170 18:51 24.10.2020
6357 Clear 18 1016 63 10000 3.6 180 18:31 24.10.2020
6358 Clear 19 1017 59 10000 3.6 190 17:46 24.10.2020
6359 Clear 19 1017 59 10000 3.6 190 17:26 24.10.2020
6360 Clear 19 1017 59 10000 4.6 190 16:53 24.10.2020
6361 Clear 20 1017 59 10000 5.1 200 16:35 24.10.2020
6362 Clear 20 1018 56 10000 4.6 200 15:57 24.10.2020
6363 Clear 20 1018 59 10000 4.6 210 15:38 24.10.2020
6364 Clear 19 1018 59 10000 4.6 210 15:18 24.10.2020
6365 Clear 19 1019 68 10000 5.1 200 14:38 24.10.2020
6366 Clear 19 1019 68 10000 5.1 200 14:19 24.10.2020
6367 Clouds 18 1020 67 10000 4.6 200 13:44 24.10.2020
6368 Clouds 17 1020 67 10000 4.6 200 13:19 24.10.2020
6369 Clear 16 1020 77 10000 5.1 190 12:37 24.10.2020
6370 Clear 16 1020 77 10000 5.1 190 12:19 24.10.2020
6371 Clouds 15 1020 77 10000 4.1 190 11:49 24.10.2020
6372 Clouds 14 1020 82 10000 3.1 190 11:20 24.10.2020
6373 Clouds 13 1021 93 10000 2.6 200 10:43 24.10.2020
6374 Clouds 12 1021 93 10000 2.6 200 10:25 24.10.2020
6375 Clear 12 1020 93 10000 3.6 190 09:45 24.10.2020
6376 Clear 12 1020 93 10000 3.6 190 09:26 24.10.2020
6377 Clear 12 1020 93 10000 3.6 190 08:54 24.10.2020
6378 Clouds 12 1020 93 10000 3.6 180 08:19 24.10.2020
6379 Clouds 12 1021 93 10000 4.1 200 07:50 24.10.2020
6380 Clouds 12 1021 93 10000 4.1 190 07:20 24.10.2020
6381 Clouds 12 1021 93 10000 3.6 190 06:49 24.10.2020
6382 Clouds 11 1021 100 10000 2.6 190 05:27 24.10.2020
6383 Clouds 13 1022 93 10000 2.1 220 02:20 24.10.2020
6384 Clouds 12 1022 93 10000 2.6 190 00:54 24.10.2020
6385 Clouds 13 1022 93 10000 2.6 210 00:36 24.10.2020
6386 Clouds 13 1022 93 10000 2.6 210 00:18 24.10.2020
6387 Clear 12 1021 100 10000 2.6 230 23:39 23.10.2020
6388 Clouds 13 1021 93 10000 3.1 210 23:21 23.10.2020
6389 Clouds 13 1021 93 10000 3.6 240 22:42 23.10.2020
6390 Clouds 13 1021 93 10000 3.6 240 22:21 23.10.2020
6391 Clouds 13 1020 93 10000 3.1 220 21:53 23.10.2020
6392 Clear 13 1020 93 10000 3.1 230 21:30 23.10.2020
6393 Clear 13 1020 93 10000 3.1 230 21:30 23.10.2020
6394 Clouds 14 1020 93 10000 3.1 250 20:58 23.10.2020
6395 Clouds 14 1020 87 10000 3.6 270 20:38 23.10.2020
6396 Clouds 14 1020 87 10000 3.6 270 20:18 23.10.2020
6397 Clouds 15 1019 82 10000 5.1 250 19:43 23.10.2020
6398 Clouds 15 1019 82 10000 5.1 250 19:25 23.10.2020
6399 Clouds 16 1019 77 10000 5.1 260 18:42 23.10.2020
6400 Clouds 17 1019 77 10000 5.1 260 18:23 23.10.2020
6401 Clouds 18 1018 72 10000 7.2 250 17:45 23.10.2020
6402 Clouds 18 1018 72 10000 7.2 250 17:21 23.10.2020
6403 Clouds 18 1018 72 10000 7.2 250 17:21 23.10.2020
6404 Clouds 18 1018 77 10000 7.2 260 16:50 23.10.2020
6405 Clouds 18 1018 72 10000 8.7 250 16:30 23.10.2020
6406 Clouds 18 1018 77 10000 6.2 260 15:56 23.10.2020
6407 Clouds 17 1018 88 10000 4.6 240 15:38 23.10.2020
6408 Clouds 16 1018 87 10000 4.6 240 15:19 23.10.2020
6409 Clouds 16 1017 82 10000 5.1 260 14:41 23.10.2020
6410 Rain 17 1017 82 10000 5.1 260 14:22 23.10.2020
6411 Clouds 17 1017 88 10000 5.1 260 13:40 23.10.2020
6412 Rain 17 1017 88 10000 5.7 270 13:21 23.10.2020
6413 Clouds 17 1017 88 10000 5.7 270 12:48 23.10.2020
6414 Rain 17 1017 88 10000 6.2 250 12:28 23.10.2020
6415 Clouds 16 1016 93 10000 5.7 250 11:48 23.10.2020
6416 Rain 16 1016 93 10000 5.1 250 11:23 23.10.2020
6417 Clouds 16 1015 93 10000 6.2 250 10:48 23.10.2020
6418 Rain 16 1015 100 10000 5.1 250 10:26 23.10.2020
6419 Rain 16 1014 93 10000 3.6 230 09:48 23.10.2020
6420 Rain 16 1014 93 9000 3.6 230 09:27 23.10.2020
6421 Clear 15 1013 100 10000 2.1 220 08:53 23.10.2020
6422 Clouds 15 1013 100 10000 2.6 190 08:35 23.10.2020
6423 Clouds 15 1013 100 10000 2.6 160 07:47 23.10.2020
6424 Rain 15 1013 93 10000 2.6 170 07:23 23.10.2020
6425 Clouds 15 1013 93 10000 2.1 200 06:31 23.10.2020
6426 Clear 15 1012 93 10000 4.1 200 05:44 23.10.2020
6427 Clear 15 1013 93 10000 2.16 164 02:33 23.10.2020
6428 Clear 15 1012 93 10000 1.5 0 01:52 23.10.2020
6429 Clear 15 1012 93 10000 1 0 00:48 23.10.2020
6430 Clouds 15 1012 100 10000 3.6 150 23:48 22.10.2020
6431 Rain 16 1012 93 10000 5.1 140 23:30 22.10.2020
6432 Rain 16 1012 93 6000 2.05 119 22:50 22.10.2020
6433 Rain 16 1012 93 6000 3.1 150 22:28 22.10.2020
6434 Rain 17 1012 93 3300 4.6 250 21:59 22.10.2020
6435 Rain 17 1012 93 3300 4.6 250 21:59 22.10.2020
6436 Rain 17 1011 93 6000 1 0 21:41 22.10.2020
6437 Rain 18 1012 93 3300 3.1 180 21:23 22.10.2020
6438 Drizzle 18 1011 93 10000 3.1 80 20:45 22.10.2020
6439 Rain 18 1011 93 10000 3.1 80 20:26 22.10.2020
6440 Rain 18 1011 93 10000 2.1 60 19:59 22.10.2020
6441 Clouds 18 1011 93 10000 1.5 30 19:40 22.10.2020
6442 Clouds 18 1011 93 10000 1.5 30 19:40 22.10.2020
6443 Rain 18 1011 93 10000 1 0 19:18 22.10.2020
6444 Clouds 18 1011 93 10000 2.1 40 18:42 22.10.2020
6445 Clouds 18 1011 93 10000 2.1 40 18:20 22.10.2020
6446 Clouds 19 1012 88 10000 3.1 150 17:45 22.10.2020
6447 Clouds 19 1012 88 10000 3.1 150 17:22 22.10.2020
6448 Rain 19 1011 88 10000 3.6 130 16:47 22.10.2020
6449 Clear 20 1011 82 10000 3.6 130 16:26 22.10.2020
6450 Clouds 20 1011 82 10000 3.6 130 15:57 22.10.2020
6451 Clouds 21 1011 77 10000 2.6 130 15:38 22.10.2020
6452 Clear 21 1012 77 10000 2.6 120 15:19 22.10.2020
6453 Clouds 21 1012 77 10000 3.1 140 14:45 22.10.2020
6454 Clouds 21 1012 77 10000 3.1 140 14:24 22.10.2020
6455 Clouds 20 1012 77 10000 3.6 140 13:45 22.10.2020
6456 Clouds 20 1012 77 10000 3.6 140 13:23 22.10.2020
6457 Clouds 19 1012 82 10000 3.1 140 12:47 22.10.2020
6458 Clouds 19 1012 82 10000 3.6 140 12:23 22.10.2020
6459 Clouds 18 1012 88 10000 4.1 160 11:48 22.10.2020
6460 Clouds 17 1012 88 10000 4.6 130 11:20 22.10.2020
6461 Clouds 17 1012 93 10000 3.6 140 10:49 22.10.2020
6462 Clouds 16 1013 93 10000 3.1 170 10:27 22.10.2020
6463 Clouds 15 1012 100 10000 3.1 170 09:46 22.10.2020
6464 Clouds 15 1011 100 10000 3.1 150 09:26 22.10.2020
6465 Clouds 15 1011 93 10000 4.6 150 08:49 22.10.2020
6466 Clouds 15 1011 93 10000 4.6 150 08:27 22.10.2020
6467 Clouds 15 1011 93 9000 3.6 150 07:51 22.10.2020
6468 Clouds 14 1011 93 9000 4.1 150 07:32 22.10.2020
6469 Clouds 15 1011 93 10000 5.1 140 06:46 22.10.2020
6470 Clouds 15 1010 93 10000 3.6 140 06:25 22.10.2020
6471 Clouds 15 1010 100 10000 4.6 130 05:39 22.10.2020
6472 Clear 15 1011 87 10000 4.1 140 03:37 22.10.2020
6473 Clouds 15 1010 93 10000 4.6 150 01:35 22.10.2020
6474 Rain 15 1010 93 10000 3.1 140 00:24 22.10.2020
6475 Clouds 16 1010 87 10000 2.6 150 23:44 21.10.2020
6476 Clouds 16 1010 87 10000 2.6 150 23:22 21.10.2020
6477 Clouds 17 1010 77 10000 3.6 150 22:39 21.10.2020
6478 Rain 17 1010 77 10000 3.6 150 22:19 21.10.2020
6479 Clouds 17 1009 77 10000 3.1 150 21:47 21.10.2020
6480 Rain 18 1009 77 10000 2.1 180 21:20 21.10.2020
6481 Clouds 18 1009 77 10000 2.1 180 20:59 21.10.2020
6482 Clouds 19 1009 72 10000 5.1 190 20:41 21.10.2020
6483 Rain 19 1008 72 10000 1.5 0 20:18 21.10.2020
6484 Rain 20 1008 68 10000 1.5 340 19:41 21.10.2020
6485 Rain 20 1008 68 10000 1.5 340 19:23 21.10.2020
6486 Clouds 21 1007 60 10000 2.1 310 18:54 21.10.2020
6487 Clouds 22 1007 56 10000 1.5 230 18:31 21.10.2020
6488 Clouds 23 1007 49 10000 2.6 230 17:51 21.10.2020
6489 Clouds 23 1007 53 10000 2.6 210 17:22 21.10.2020
6490 Clouds 23 1007 53 10000 2.6 210 16:59 21.10.2020
6491 Clouds 23 1007 53 10000 3.1 220 16:40 21.10.2020
6492 Clouds 23 1007 53 10000 3.1 220 16:40 21.10.2020
6493 Clouds 24 1007 44 10000 6.2 250 16:20 21.10.2020
6494 Clouds 24 1007 44 10000 5.7 230 15:46 21.10.2020
6495 Clouds 24 1007 47 10000 6.7 230 15:22 21.10.2020
6496 Clouds 23 1007 49 10000 5.7 230 14:56 21.10.2020
6497 Clouds 23 1007 49 10000 5.7 230 14:38 21.10.2020
6498 Clear 23 1006 53 10000 3.6 240 14:19 21.10.2020
6499 Clear 23 1006 53 10000 3.6 220 13:41 21.10.2020
6500 Clear 23 1006 53 10000 4.6 220 13:20 21.10.2020
6501 Clear 22 1006 49 10000 5.1 210 12:41 21.10.2020
6502 Clear 22 1005 49 10000 5.7 210 12:20 21.10.2020
6503 Clear 22 1005 56 10000 5.1 210 11:46 21.10.2020
6504 Clear 21 1005 60 10000 5.1 210 11:21 21.10.2020
6505 Clear 20 1005 60 10000 5.1 210 10:57 21.10.2020
6506 Clear 20 1004 60 10000 6.2 200 10:38 21.10.2020
6507 Clear 19 1004 60 10000 6.7 200 10:20 21.10.2020
6508 Clear 18 1003 68 10000 4.1 170 09:39 21.10.2020
6509 Clear 17 1002 63 10000 4.1 170 08:59 21.10.2020
6510 Clear 18 1002 63 10000 4.6 180 08:40 21.10.2020
6511 Clouds 18 1001 60 10000 6.2 190 08:22 21.10.2020
6512 Clouds 19 1001 60 10000 7.2 190 07:48 21.10.2020
6513 Clouds 18 1000 63 10000 5.7 170 06:59 21.10.2020
6514 Clouds 17 1000 72 10000 6.7 160 06:33 21.10.2020
6515 Clouds 17 999 82 10000 6.2 140 05:23 21.10.2020
6516 Clouds 16 998 87 10000 9.8 130 02:37 21.10.2020
6517 Rain 17 1000 82 10000 8.7 130 00:24 21.10.2020
6518 Clouds 16 999 87 10000 9.3 120 23:25 20.10.2020
6519 Clouds 16 1001 87 10000 8.7 120 22:37 20.10.2020
6520 Rain 16 1001 87 10000 7.2 130 22:19 20.10.2020
6521 Clouds 16 1001 93 10000 6.7 120 21:47 20.10.2020
6522 Clouds 16 1002 93 10000 6.2 120 21:18 20.10.2020
6523 Rain 16 1003 93 10000 5.1 120 20:42 20.10.2020
6524 Rain 16 1003 93 10000 5.1 130 20:23 20.10.2020
6525 Rain 16 1004 93 10000 5.1 130 19:45 20.10.2020
6526 Rain 17 1004 88 10000 6.2 130 19:22 20.10.2020
6527 Clouds 17 1004 88 10000 6.2 130 18:57 20.10.2020
6528 Rain 16 1004 93 10000 5.7 130 18:37 20.10.2020
6529 Clouds 16 1006 93 10000 5.7 130 17:50 20.10.2020
6530 Rain 16 1006 93 10000 5.7 130 17:32 20.10.2020
6531 Clouds 17 1007 88 10000 5.1 150 16:56 20.10.2020
6532 Rain 17 1007 88 10000 5.1 150 16:38 20.10.2020
6533 Clouds 17 1007 88 10000 6.2 150 16:20 20.10.2020
6534 Clouds 17 1007 82 10000 5.7 140 15:41 20.10.2020
6535 Clouds 17 1008 88 10000 6.7 130 15:22 20.10.2020
6536 Clouds 16 1008 87 10000 5.1 130 14:44 20.10.2020
6537 Clouds 16 1008 87 10000 5.1 130 14:24 20.10.2020
6538 Clouds 16 1009 87 10000 5.7 140 13:57 20.10.2020
6539 Clouds 16 1009 93 10000 6.7 140 13:38 20.10.2020
6540 Clouds 15 1009 93 10000 4.6 140 13:19 20.10.2020
6541 Rain 15 1009 93 10000 5.1 130 12:46 20.10.2020
6542 Rain 15 1009 93 10000 5.1 120 12:28 20.10.2020
6543 Clouds 15 1009 93 10000 6.2 130 11:46 20.10.2020
6544 Rain 15 1009 93 10000 6.2 130 11:27 20.10.2020
6545 Rain 15 1009 87 10000 6.2 130 10:40 20.10.2020
6546 Rain 15 1009 93 10000 5.7 130 10:22 20.10.2020
6547 Rain 14 1009 93 10000 6.2 130 09:44 20.10.2020
6548 Rain 14 1008 93 10000 6.7 130 09:19 20.10.2020
6549 Rain 14 1008 93 9000 6.7 130 08:39 20.10.2020
6550 Rain 14 1009 93 10000 6.2 130 07:54 20.10.2020
6551 Clouds 15 1009 87 10000 6.2 130 07:26 20.10.2020
6552 Rain 15 1009 87 10000 6.7 140 06:57 20.10.2020
6553 Rain 15 1009 87 10000 6.7 140 06:19 20.10.2020
6554 Clouds 14 1010 93 10000 7.7 130 03:59 20.10.2020
6555 Rain 15 1011 82 10000 3.6 150 02:30 20.10.2020
6556 Clouds 15 1010 82 10000 5.7 140 01:22 20.10.2020
6557 Clouds 16 1010 77 10000 5.7 140 00:50 20.10.2020
6558 Clouds 16 1010 77 10000 5.7 140 00:24 20.10.2020
6559 Clouds 15 1010 77 10000 6.7 140 23:49 19.10.2020
6560 Clouds 15 1010 72 10000 8.2 140 23:24 19.10.2020
6561 Clouds 15 1010 72 10000 8.2 140 22:51 19.10.2020
6562 Clouds 16 1010 67 10000 8.2 140 22:26 19.10.2020
6563 Clouds 16 1010 67 10000 7.7 140 21:50 19.10.2020
6564 Clouds 16 1010 67 10000 7.7 140 21:23 19.10.2020
6565 Clouds 16 1010 67 10000 8.7 140 20:54 19.10.2020
6566 Clouds 16 1010 67 10000 8.7 140 20:36 19.10.2020
6567 Clouds 17 1010 59 10000 7.2 140 19:59 19.10.2020
6568 Clouds 17 1011 55 10000 6.7 140 19:41 19.10.2020
6569 Clouds 18 1010 52 10000 8.7 130 19:19 19.10.2020
6570 Clouds 19 1011 55 10000 6.7 130 18:43 19.10.2020
6571 Clouds 19 1011 52 10000 7.2 130 18:19 19.10.2020
6572 Clouds 19 1011 55 10000 6.7 130 17:46 19.10.2020
6573 Clouds 19 1012 55 10000 7.2 130 17:26 19.10.2020
6574 Clouds 19 1012 52 10000 6.2 130 16:52 19.10.2020
6575 Clouds 19 1012 52 10000 6.2 130 16:29 19.10.2020
6576 Clouds 20 1012 58 10000 1.79 125 15:46 19.10.2020
6577 Clouds 19 1013 59 10000 3.13 98 15:25 19.10.2020
6578 Clouds 19 1013 59 10000 3.13 98 15:25 19.10.2020
6579 Clouds 18 1013 60 10000 1.79 127 14:53 19.10.2020
6580 Clouds 18 1013 60 10000 2.68 111 14:28 19.10.2020
6581 Clouds 17 1014 60 10000 2.24 108 13:55 19.10.2020
6582 Clouds 16 1014 60 10000 2.68 102 13:37 19.10.2020
6583 Clouds 16 1014 58 10000 2.24 104 13:18 19.10.2020
6584 Clouds 15 1015 52 10000 1.79 107 12:43 19.10.2020
6585 Clouds 14 1015 48 10000 2.24 129 12:25 19.10.2020
6586 Clouds 13 1015 44 10000 2.24 122 11:42 19.10.2020
6587 Clouds 12 1016 93 10000 5.1 120 11:21 19.10.2020
6588 Clouds 10 1016 93 10000 5.1 120 10:44 19.10.2020
6589 Clouds 10 1016 93 10000 5.1 120 10:44 19.10.2020
6590 Clouds 9 1016 93 10000 5.1 120 10:21 19.10.2020
6591 Clouds 9 1016 93 10000 5.1 110 09:52 19.10.2020
6592 Clouds 8 1016 93 10000 5.1 120 09:24 19.10.2020
6593 Clouds 8 1016 93 10000 4.6 110 08:49 19.10.2020
6594 Clouds 7 1016 93 10000 3.6 110 08:24 19.10.2020
6595 Clouds 8 1017 93 10000 3.6 100 07:55 19.10.2020
6596 Clouds 7 1017 100 10000 3.6 100 07:20 19.10.2020
6597 Clouds 7 1018 87 10000 2.6 110 06:20 19.10.2020
6598 Clouds 8 1019 93 10000 2.6 100 04:30 19.10.2020
6599 Clouds 9 1019 87 10000 2.6 100 03:44 19.10.2020
6600 Clouds 9 1021 100 10000 2.14 104 00:59 19.10.2020
6601 Clouds 10 1021 87 10000 1 150 00:25 19.10.2020
6602 Clouds 10 1021 87 10000 2.03 111 23:48 18.10.2020
6603 Clouds 10 1021 87 10000 2.14 99 23:26 18.10.2020
6604 Clouds 11 1020 87 10000 2.1 90 22:53 18.10.2020
6605 Clouds 11 1020 93 10000 2.1 80 22:23 18.10.2020
6606 Clouds 11 1021 87 10000 1.5 90 21:56 18.10.2020
6607 Clouds 10 1021 81 10000 1 0 21:37 18.10.2020
6608 Clouds 11 1021 81 10000 1 0 21:18 18.10.2020
6609 Clouds 12 1021 71 10000 1.5 70 20:40 18.10.2020
6610 Clouds 13 1021 71 10000 1.5 70 20:21 18.10.2020
6611 Clouds 14 1021 62 10000 2.6 40 19:44 18.10.2020
6612 Clouds 14 1021 62 10000 2.6 40 19:44 18.10.2020
6613 Clouds 14 1021 62 10000 2.6 40 19:44 18.10.2020
6614 Clouds 15 1021 62 10000 2.6 40 19:26 18.10.2020
6615 Clouds 16 1021 59 10000 2.1 50 18:49 18.10.2020
6616 Clouds 17 1021 51 10000 3.1 30 18:28 18.10.2020
6617 Clouds 18 1021 55 10000 3.6 50 17:44 18.10.2020
6618 Clouds 18 1021 55 10000 3.6 50 17:25 18.10.2020
6619 Clouds 18 1021 55 10000 3.6 50 17:25 18.10.2020
6620 Clouds 18 1021 51 10000 2.6 80 16:57 18.10.2020
6621 Clouds 18 1021 51 10000 1.5 60 16:38 18.10.2020
6622 Clouds 18 1021 51 10000 1.5 60 16:20 18.10.2020
6623 Clouds 18 1021 51 10000 1.5 50 15:41 18.10.2020
6624 Clear 17 1022 55 10000 1.5 0 15:19 18.10.2020
6625 Clear 17 1022 55 10000 1.5 0 14:56 18.10.2020
6626 Clouds 16 1022 55 10000 2.6 0 14:29 18.10.2020
6627 Clouds 16 1022 58 10000 2.1 50 13:57 18.10.2020
6628 Clouds 14 1023 54 10000 2.1 90 13:38 18.10.2020
6629 Clouds 14 1023 54 10000 2.1 90 13:20 18.10.2020
6630 Clouds 14 1023 54 10000 2.1 90 13:20 18.10.2020
6631 Clouds 13 1023 66 10000 2.1 70 12:42 18.10.2020
6632 Clouds 13 1023 66 10000 2.1 70 12:21 18.10.2020
6633 Clouds 11 1023 81 10000 1.5 0 11:42 18.10.2020
6634 Clouds 10 1023 81 10000 1.5 0 11:23 18.10.2020
6635 Clouds 10 1023 87 10000 2.1 30 10:43 18.10.2020
6636 Clouds 9 1023 87 10000 2.1 30 10:21 18.10.2020
6637 Clouds 7 1022 100 10000 2.1 40 09:52 18.10.2020
6638 Fog 5 1022 93 6000 1 0 09:25 18.10.2020
6639 Fog 5 1022 93 6000 1 0 08:59 18.10.2020
6640 Fog 5 1021 100 8000 1.5 30 08:39 18.10.2020
6641 Fog 5 1021 100 8000 1.5 30 08:21 18.10.2020
6642 Clear 5 1021 100 10000 1 0 07:32 18.10.2020
6643 Clear 6 1021 93 10000 1.39 78 05:33 18.10.2020
6644 Clear 7 1021 93 10000 2.1 50 03:21 18.10.2020
6645 Clouds 8 1021 93 10000 1.5 50 01:44 18.10.2020
6646 Clouds 9 1020 93 10000 1.5 37 00:55 18.10.2020
6647 Clouds 9 1020 87 10000 0.5 0 00:35 18.10.2020
6648 Clouds 9 1020 93 10000 1 0 23:56 17.10.2020
6649 Clouds 9 1020 93 10000 1.5 70 23:38 17.10.2020
6650 Clouds 9 1020 93 10000 1 30 23:19 17.10.2020
6651 Clouds 10 1020 87 10000 1.2 40 22:43 17.10.2020
6652 Clouds 10 1020 87 10000 1.3 64 22:20 17.10.2020
6653 Clouds 10 1019 87 10000 1.3 64 21:56 17.10.2020
6654 Clouds 10 1019 81 10000 1.3 64 21:38 17.10.2020
6655 Clouds 10 1019 81 10000 1.3 64 21:38 17.10.2020
6656 Clouds 11 1019 76 10000 1.18 60 21:19 17.10.2020
6657 Clouds 12 1019 71 10000 1 0 20:40 17.10.2020
6658 Clouds 12 1019 66 10000 1.5 70 20:18 17.10.2020
6659 Clouds 14 1018 58 10000 2.1 60 19:42 17.10.2020
6660 Clouds 15 1018 58 10000 2.6 50 19:18 17.10.2020
6661 Clouds 16 1018 55 10000 3.1 40 18:43 17.10.2020
6662 Clouds 16 1018 55 10000 3.1 40 18:24 17.10.2020
6663 Clouds 17 1018 55 10000 2.1 140 17:45 17.10.2020
6664 Clear 17 1018 55 10000 2.1 140 17:23 17.10.2020
6665 Clouds 17 1018 51 10000 2.1 80 16:49 17.10.2020
6666 Clouds 17 1018 59 10000 2.1 0 16:23 17.10.2020
6667 Clouds 17 1018 55 10000 3.1 90 15:56 17.10.2020
6668 Clouds 17 1018 55 10000 2.1 120 15:38 17.10.2020
6669 Clouds 17 1018 55 10000 2.1 120 15:20 17.10.2020
6670 Clouds 17 1018 55 10000 2.1 120 15:20 17.10.2020
6671 Clouds 16 1018 54 10000 3.6 130 14:40 17.10.2020
6672 Clouds 16 1018 54 10000 3.6 130 14:22 17.10.2020
6673 Clouds 15 1018 58 10000 3.6 100 13:56 17.10.2020
6674 Clouds 15 1018 62 10000 3.1